<?xml version="1.0" encoding="UTF-8" standalone="no" ?>
<gpx xmlns="http://www.topografix.com/GPX/1/1" xmlns:xsi="http://www.w3.org/2001/XMLSchema-instance" xsi:schemaLocation="http://www.topografix.com/GPX/1/1 http://www.topografix.com/GPX/1/1/gpx.xsd" version="1.1" creator="VisuGPX - https://www.visugpx.com">
  <metadata>
    <name>30 kms de lievin</name>
    <desc><![CDATA[30 kms de lievin le 06 avril 2011]]></desc>
  </metadata>
  <trk>
    <name><![CDATA[2011-04-09T22:00:06Z]]></name>
    <trkseg>
      <trkpt lat="50.4173" lon="2.77514">
        <ele>46.7612305</ele>
        <time>2011-04-09T22:00:06Z</time>
      </trkpt>
      <trkpt lat="50.4173" lon="2.77514">
        <ele>46.2806396</ele>
        <time>2011-04-09T22:00:07Z</time>
      </trkpt>
      <trkpt lat="50.4173" lon="2.77513">
        <ele>45.7999268</ele>
        <time>2011-04-09T22:00:08Z</time>
      </trkpt>
      <trkpt lat="50.41735" lon="2.77512">
        <ele>44.3580322</ele>
        <time>2011-04-09T22:00:12Z</time>
      </trkpt>
      <trkpt lat="50.41739" lon="2.77511">
        <ele>43.8773193</ele>
        <time>2011-04-09T22:00:15Z</time>
      </trkpt>
      <trkpt lat="50.41742" lon="2.7751">
        <ele>42.9160156</ele>
        <time>2011-04-09T22:00:18Z</time>
      </trkpt>
      <trkpt lat="50.41745" lon="2.77509">
        <ele>42.4354248</ele>
        <time>2011-04-09T22:00:21Z</time>
      </trkpt>
      <trkpt lat="50.41747" lon="2.77509">
        <ele>42.4354248</ele>
        <time>2011-04-09T22:00:24Z</time>
      </trkpt>
      <trkpt lat="50.41748" lon="2.77508">
        <ele>42.4354248</ele>
        <time>2011-04-09T22:00:25Z</time>
      </trkpt>
      <trkpt lat="50.41756" lon="2.77503">
        <ele>43.3966064</ele>
        <time>2011-04-09T22:00:33Z</time>
      </trkpt>
      <trkpt lat="50.41758" lon="2.77502">
        <ele>43.8773193</ele>
        <time>2011-04-09T22:00:35Z</time>
      </trkpt>
      <trkpt lat="50.41765" lon="2.77498">
        <ele>45.7999268</ele>
        <time>2011-04-09T22:00:42Z</time>
      </trkpt>
      <trkpt lat="50.41771" lon="2.77493">
        <ele>46.7612305</ele>
        <time>2011-04-09T22:00:48Z</time>
      </trkpt>
      <trkpt lat="50.41777" lon="2.77488">
        <ele>48.68396</ele>
        <time>2011-04-09T22:00:53Z</time>
      </trkpt>
      <trkpt lat="50.4178" lon="2.77479">
        <ele>49.6452637</ele>
        <time>2011-04-09T22:00:57Z</time>
      </trkpt>
      <trkpt lat="50.41781" lon="2.77475">
        <ele>47.7225342</ele>
        <time>2011-04-09T22:00:59Z</time>
      </trkpt>
      <trkpt lat="50.41787" lon="2.77468">
        <ele>47.7225342</ele>
        <time>2011-04-09T22:01:05Z</time>
      </trkpt>
      <trkpt lat="50.4179" lon="2.77464">
        <ele>46.7612305</ele>
        <time>2011-04-09T22:01:09Z</time>
      </trkpt>
      <trkpt lat="50.41795" lon="2.7746">
        <ele>44.3580322</ele>
        <time>2011-04-09T22:01:15Z</time>
      </trkpt>
      <trkpt lat="50.41802" lon="2.77458">
        <ele>45.3192139</ele>
        <time>2011-04-09T22:01:19Z</time>
      </trkpt>
      <trkpt lat="50.41807" lon="2.77452">
        <ele>45.3192139</ele>
        <time>2011-04-09T22:01:24Z</time>
      </trkpt>
      <trkpt lat="50.41813" lon="2.77449">
        <ele>47.7225342</ele>
        <time>2011-04-09T22:01:29Z</time>
      </trkpt>
      <trkpt lat="50.41815" lon="2.77448">
        <ele>50.1259766</ele>
        <time>2011-04-09T22:01:30Z</time>
      </trkpt>
      <trkpt lat="50.41827" lon="2.77438">
        <ele>68.871582</ele>
        <time>2011-04-09T22:01:36Z</time>
      </trkpt>
      <trkpt lat="50.41835" lon="2.77429">
        <ele>80.4074707</ele>
        <time>2011-04-09T22:01:42Z</time>
      </trkpt>
      <trkpt lat="50.41838" lon="2.77427">
        <ele>82.3300781</ele>
        <time>2011-04-09T22:01:44Z</time>
      </trkpt>
      <trkpt lat="50.41846" lon="2.77423">
        <ele>86.175293</ele>
        <time>2011-04-09T22:01:51Z</time>
      </trkpt>
      <trkpt lat="50.41849" lon="2.77419">
        <ele>86.6560059</ele>
        <time>2011-04-09T22:01:55Z</time>
      </trkpt>
      <trkpt lat="50.4186" lon="2.77416">
        <ele>77.0428467</ele>
        <time>2011-04-09T22:02:02Z</time>
      </trkpt>
      <trkpt lat="50.41861" lon="2.77415">
        <ele>76.0814209</ele>
        <time>2011-04-09T22:02:03Z</time>
      </trkpt>
      <trkpt lat="50.41864" lon="2.77412">
        <ele>62.142334</ele>
        <time>2011-04-09T22:02:08Z</time>
      </trkpt>
      <trkpt lat="50.41861" lon="2.77408">
        <ele>50.6065674</ele>
        <time>2011-04-09T22:02:12Z</time>
      </trkpt>
      <trkpt lat="50.41862" lon="2.77404">
        <ele>44.838623</ele>
        <time>2011-04-09T22:02:17Z</time>
      </trkpt>
      <trkpt lat="50.41863" lon="2.77403">
        <ele>44.838623</ele>
        <time>2011-04-09T22:02:18Z</time>
      </trkpt>
      <trkpt lat="50.41871" lon="2.77399">
        <ele>46.7612305</ele>
        <time>2011-04-09T22:02:24Z</time>
      </trkpt>
      <trkpt lat="50.41878" lon="2.77396">
        <ele>52.5291748</ele>
        <time>2011-04-09T22:02:29Z</time>
      </trkpt>
      <trkpt lat="50.41878" lon="2.77396">
        <ele>53.0097656</ele>
        <time>2011-04-09T22:02:30Z</time>
      </trkpt>
      <trkpt lat="50.41879" lon="2.77393">
        <ele>54.4517822</ele>
        <time>2011-04-09T22:02:32Z</time>
      </trkpt>
      <trkpt lat="50.41889" lon="2.7739">
        <ele>49.6452637</ele>
        <time>2011-04-09T22:02:38Z</time>
      </trkpt>
      <trkpt lat="50.41895" lon="2.77388">
        <ele>46.7612305</ele>
        <time>2011-04-09T22:02:43Z</time>
      </trkpt>
      <trkpt lat="50.41899" lon="2.77384">
        <ele>42.4354248</ele>
        <time>2011-04-09T22:02:47Z</time>
      </trkpt>
      <trkpt lat="50.41906" lon="2.77377">
        <ele>41.9547119</ele>
        <time>2011-04-09T22:02:53Z</time>
      </trkpt>
      <trkpt lat="50.41912" lon="2.77373">
        <ele>39.5512695</ele>
        <time>2011-04-09T22:02:59Z</time>
      </trkpt>
      <trkpt lat="50.41917" lon="2.7737">
        <ele>39.0706787</ele>
        <time>2011-04-09T22:03:03Z</time>
      </trkpt>
      <trkpt lat="50.41918" lon="2.7737">
        <ele>39.0706787</ele>
        <time>2011-04-09T22:03:04Z</time>
      </trkpt>
      <trkpt lat="50.41922" lon="2.77369">
        <ele>39.0706787</ele>
        <time>2011-04-09T22:03:08Z</time>
      </trkpt>
      <trkpt lat="50.41927" lon="2.77367">
        <ele>40.9934082</ele>
        <time>2011-04-09T22:03:11Z</time>
      </trkpt>
      <trkpt lat="50.41937" lon="2.77359">
        <ele>40.9934082</ele>
        <time>2011-04-09T22:03:19Z</time>
      </trkpt>
      <trkpt lat="50.41943" lon="2.77353">
        <ele>42.4354248</ele>
        <time>2011-04-09T22:03:25Z</time>
      </trkpt>
      <trkpt lat="50.41945" lon="2.77352">
        <ele>42.4354248</ele>
        <time>2011-04-09T22:03:26Z</time>
      </trkpt>
      <trkpt lat="50.41952" lon="2.7734">
        <ele>44.3580322</ele>
        <time>2011-04-09T22:03:33Z</time>
      </trkpt>
      <trkpt lat="50.41953" lon="2.77334">
        <ele>43.8773193</ele>
        <time>2011-04-09T22:03:36Z</time>
      </trkpt>
      <trkpt lat="50.41952" lon="2.77319">
        <ele>41.9547119</ele>
        <time>2011-04-09T22:03:43Z</time>
      </trkpt>
      <trkpt lat="50.41949" lon="2.77308">
        <ele>40.5128174</ele>
        <time>2011-04-09T22:03:49Z</time>
      </trkpt>
      <trkpt lat="50.41945" lon="2.77303">
        <ele>39.0706787</ele>
        <time>2011-04-09T22:03:52Z</time>
      </trkpt>
      <trkpt lat="50.41944" lon="2.77298">
        <ele>38.5900879</ele>
        <time>2011-04-09T22:03:55Z</time>
      </trkpt>
      <trkpt lat="50.41941" lon="2.77293">
        <ele>37.1480713</ele>
        <time>2011-04-09T22:03:58Z</time>
      </trkpt>
      <trkpt lat="50.41941" lon="2.77288">
        <ele>36.1867676</ele>
        <time>2011-04-09T22:04:00Z</time>
      </trkpt>
      <trkpt lat="50.41938" lon="2.77278">
        <ele>35.7060547</ele>
        <time>2011-04-09T22:04:05Z</time>
      </trkpt>
      <trkpt lat="50.41932" lon="2.7727">
        <ele>36.6674805</ele>
        <time>2011-04-09T22:04:11Z</time>
      </trkpt>
      <trkpt lat="50.41927" lon="2.7726">
        <ele>36.6674805</ele>
        <time>2011-04-09T22:04:17Z</time>
      </trkpt>
      <trkpt lat="50.41921" lon="2.77245">
        <ele>36.6674805</ele>
        <time>2011-04-09T22:04:25Z</time>
      </trkpt>
      <trkpt lat="50.41916" lon="2.77235">
        <ele>35.7060547</ele>
        <time>2011-04-09T22:04:31Z</time>
      </trkpt>
      <trkpt lat="50.41915" lon="2.77232">
        <ele>35.2254639</ele>
        <time>2011-04-09T22:04:33Z</time>
      </trkpt>
      <trkpt lat="50.41912" lon="2.77223">
        <ele>34.744873</ele>
        <time>2011-04-09T22:04:38Z</time>
      </trkpt>
      <trkpt lat="50.41911" lon="2.77217">
        <ele>35.7060547</ele>
        <time>2011-04-09T22:04:41Z</time>
      </trkpt>
      <trkpt lat="50.41905" lon="2.77208">
        <ele>36.1867676</ele>
        <time>2011-04-09T22:04:47Z</time>
      </trkpt>
      <trkpt lat="50.41903" lon="2.77202">
        <ele>34.744873</ele>
        <time>2011-04-09T22:04:50Z</time>
      </trkpt>
      <trkpt lat="50.41899" lon="2.77195">
        <ele>33.3028564</ele>
        <time>2011-04-09T22:04:55Z</time>
      </trkpt>
      <trkpt lat="50.41895" lon="2.77189">
        <ele>33.3028564</ele>
        <time>2011-04-09T22:04:59Z</time>
      </trkpt>
      <trkpt lat="50.4189" lon="2.77178">
        <ele>33.7834473</ele>
        <time>2011-04-09T22:05:05Z</time>
      </trkpt>
      <trkpt lat="50.41886" lon="2.77168">
        <ele>34.744873</ele>
        <time>2011-04-09T22:05:11Z</time>
      </trkpt>
      <trkpt lat="50.4188" lon="2.77159">
        <ele>34.744873</ele>
        <time>2011-04-09T22:05:18Z</time>
      </trkpt>
      <trkpt lat="50.41878" lon="2.77156">
        <ele>34.744873</ele>
        <time>2011-04-09T22:05:20Z</time>
      </trkpt>
      <trkpt lat="50.41872" lon="2.77141">
        <ele>33.7834473</ele>
        <time>2011-04-09T22:05:28Z</time>
      </trkpt>
      <trkpt lat="50.41869" lon="2.77132">
        <ele>33.7834473</ele>
        <time>2011-04-09T22:05:33Z</time>
      </trkpt>
      <trkpt lat="50.41868" lon="2.77121">
        <ele>34.2641602</ele>
        <time>2011-04-09T22:05:38Z</time>
      </trkpt>
      <trkpt lat="50.41867" lon="2.77112">
        <ele>35.2254639</ele>
        <time>2011-04-09T22:05:42Z</time>
      </trkpt>
      <trkpt lat="50.41862" lon="2.77104">
        <ele>34.744873</ele>
        <time>2011-04-09T22:05:48Z</time>
      </trkpt>
      <trkpt lat="50.41858" lon="2.77096">
        <ele>34.744873</ele>
        <time>2011-04-09T22:05:53Z</time>
      </trkpt>
      <trkpt lat="50.41854" lon="2.77083">
        <ele>35.2254639</ele>
        <time>2011-04-09T22:06:00Z</time>
      </trkpt>
      <trkpt lat="50.4185" lon="2.77074">
        <ele>36.1867676</ele>
        <time>2011-04-09T22:06:06Z</time>
      </trkpt>
      <trkpt lat="50.41849" lon="2.7707">
        <ele>36.1867676</ele>
        <time>2011-04-09T22:06:08Z</time>
      </trkpt>
      <trkpt lat="50.41843" lon="2.7706">
        <ele>37.6286621</ele>
        <time>2011-04-09T22:06:15Z</time>
      </trkpt>
      <trkpt lat="50.41841" lon="2.77057">
        <ele>37.6286621</ele>
        <time>2011-04-09T22:06:18Z</time>
      </trkpt>
      <trkpt lat="50.41835" lon="2.77051">
        <ele>37.1480713</ele>
        <time>2011-04-09T22:06:23Z</time>
      </trkpt>
      <trkpt lat="50.41828" lon="2.77041">
        <ele>37.1480713</ele>
        <time>2011-04-09T22:06:30Z</time>
      </trkpt>
      <trkpt lat="50.41823" lon="2.77033">
        <ele>38.109375</ele>
        <time>2011-04-09T22:06:35Z</time>
      </trkpt>
      <trkpt lat="50.4182" lon="2.77026">
        <ele>38.5900879</ele>
        <time>2011-04-09T22:06:39Z</time>
      </trkpt>
      <trkpt lat="50.41815" lon="2.77019">
        <ele>39.0706787</ele>
        <time>2011-04-09T22:06:44Z</time>
      </trkpt>
      <trkpt lat="50.41813" lon="2.77004">
        <ele>40.0321045</ele>
        <time>2011-04-09T22:06:51Z</time>
      </trkpt>
      <trkpt lat="50.41813" lon="2.77002">
        <ele>40.0321045</ele>
        <time>2011-04-09T22:06:52Z</time>
      </trkpt>
      <trkpt lat="50.41811" lon="2.76994">
        <ele>40.5128174</ele>
        <time>2011-04-09T22:06:56Z</time>
      </trkpt>
      <trkpt lat="50.41804" lon="2.76986">
        <ele>41.473999</ele>
        <time>2011-04-09T22:07:03Z</time>
      </trkpt>
      <trkpt lat="50.41801" lon="2.7698">
        <ele>41.473999</ele>
        <time>2011-04-09T22:07:07Z</time>
      </trkpt>
      <trkpt lat="50.41799" lon="2.76967">
        <ele>41.473999</ele>
        <time>2011-04-09T22:07:13Z</time>
      </trkpt>
      <trkpt lat="50.41795" lon="2.7696">
        <ele>40.9934082</ele>
        <time>2011-04-09T22:07:18Z</time>
      </trkpt>
      <trkpt lat="50.41789" lon="2.76954">
        <ele>40.9934082</ele>
        <time>2011-04-09T22:07:23Z</time>
      </trkpt>
      <trkpt lat="50.41788" lon="2.76951">
        <ele>41.473999</ele>
        <time>2011-04-09T22:07:25Z</time>
      </trkpt>
      <trkpt lat="50.41783" lon="2.76937">
        <ele>41.473999</ele>
        <time>2011-04-09T22:07:33Z</time>
      </trkpt>
      <trkpt lat="50.41778" lon="2.7693">
        <ele>41.9547119</ele>
        <time>2011-04-09T22:07:38Z</time>
      </trkpt>
      <trkpt lat="50.41776" lon="2.76924">
        <ele>41.9547119</ele>
        <time>2011-04-09T22:07:41Z</time>
      </trkpt>
      <trkpt lat="50.41771" lon="2.76914">
        <ele>42.4354248</ele>
        <time>2011-04-09T22:07:47Z</time>
      </trkpt>
      <trkpt lat="50.41769" lon="2.76908">
        <ele>42.4354248</ele>
        <time>2011-04-09T22:07:50Z</time>
      </trkpt>
      <trkpt lat="50.41765" lon="2.769">
        <ele>42.9160156</ele>
        <time>2011-04-09T22:07:56Z</time>
      </trkpt>
      <trkpt lat="50.41765" lon="2.76898">
        <ele>42.9160156</ele>
        <time>2011-04-09T22:07:57Z</time>
      </trkpt>
      <trkpt lat="50.41763" lon="2.76895">
        <ele>42.9160156</ele>
        <time>2011-04-09T22:07:59Z</time>
      </trkpt>
      <trkpt lat="50.41758" lon="2.76883">
        <ele>42.9160156</ele>
        <time>2011-04-09T22:08:06Z</time>
      </trkpt>
      <trkpt lat="50.41755" lon="2.76877">
        <ele>43.3966064</ele>
        <time>2011-04-09T22:08:09Z</time>
      </trkpt>
      <trkpt lat="50.41749" lon="2.76862">
        <ele>43.3966064</ele>
        <time>2011-04-09T22:08:18Z</time>
      </trkpt>
      <trkpt lat="50.41746" lon="2.76854">
        <ele>43.3966064</ele>
        <time>2011-04-09T22:08:23Z</time>
      </trkpt>
      <trkpt lat="50.41739" lon="2.76843">
        <ele>42.9160156</ele>
        <time>2011-04-09T22:08:30Z</time>
      </trkpt>
      <trkpt lat="50.41734" lon="2.76834">
        <ele>43.8773193</ele>
        <time>2011-04-09T22:08:36Z</time>
      </trkpt>
      <trkpt lat="50.41729" lon="2.76824">
        <ele>45.3192139</ele>
        <time>2011-04-09T22:08:42Z</time>
      </trkpt>
      <trkpt lat="50.41725" lon="2.76819">
        <ele>45.3192139</ele>
        <time>2011-04-09T22:08:46Z</time>
      </trkpt>
      <trkpt lat="50.41723" lon="2.76814">
        <ele>45.3192139</ele>
        <time>2011-04-09T22:08:49Z</time>
      </trkpt>
      <trkpt lat="50.41717" lon="2.76803">
        <ele>45.7999268</ele>
        <time>2011-04-09T22:08:56Z</time>
      </trkpt>
      <trkpt lat="50.41716" lon="2.76795">
        <ele>46.2806396</ele>
        <time>2011-04-09T22:09:00Z</time>
      </trkpt>
      <trkpt lat="50.41714" lon="2.76787">
        <ele>46.7612305</ele>
        <time>2011-04-09T22:09:04Z</time>
      </trkpt>
      <trkpt lat="50.41711" lon="2.76775">
        <ele>46.7612305</ele>
        <time>2011-04-09T22:09:10Z</time>
      </trkpt>
      <trkpt lat="50.41709" lon="2.76769">
        <ele>46.7612305</ele>
        <time>2011-04-09T22:09:13Z</time>
      </trkpt>
      <trkpt lat="50.41705" lon="2.76758">
        <ele>45.7999268</ele>
        <time>2011-04-09T22:09:19Z</time>
      </trkpt>
      <trkpt lat="50.41704" lon="2.76757">
        <ele>45.7999268</ele>
        <time>2011-04-09T22:09:20Z</time>
      </trkpt>
      <trkpt lat="50.41699" lon="2.76744">
        <ele>45.7999268</ele>
        <time>2011-04-09T22:09:27Z</time>
      </trkpt>
      <trkpt lat="50.41695" lon="2.76736">
        <ele>46.2806396</ele>
        <time>2011-04-09T22:09:32Z</time>
      </trkpt>
      <trkpt lat="50.41693" lon="2.76734">
        <ele>46.2806396</ele>
        <time>2011-04-09T22:09:34Z</time>
      </trkpt>
      <trkpt lat="50.41686" lon="2.76721">
        <ele>45.3192139</ele>
        <time>2011-04-09T22:09:41Z</time>
      </trkpt>
      <trkpt lat="50.41685" lon="2.7672">
        <ele>45.3192139</ele>
        <time>2011-04-09T22:09:42Z</time>
      </trkpt>
      <trkpt lat="50.41679" lon="2.76707">
        <ele>44.838623</ele>
        <time>2011-04-09T22:09:49Z</time>
      </trkpt>
      <trkpt lat="50.41674" lon="2.76694">
        <ele>45.3192139</ele>
        <time>2011-04-09T22:09:56Z</time>
      </trkpt>
      <trkpt lat="50.41669" lon="2.76684">
        <ele>46.7612305</ele>
        <time>2011-04-09T22:10:02Z</time>
      </trkpt>
      <trkpt lat="50.41665" lon="2.76676">
        <ele>46.7612305</ele>
        <time>2011-04-09T22:10:07Z</time>
      </trkpt>
      <trkpt lat="50.41661" lon="2.76667">
        <ele>45.7999268</ele>
        <time>2011-04-09T22:10:12Z</time>
      </trkpt>
      <trkpt lat="50.41656" lon="2.76658">
        <ele>45.7999268</ele>
        <time>2011-04-09T22:10:18Z</time>
      </trkpt>
      <trkpt lat="50.41651" lon="2.76642">
        <ele>46.7612305</ele>
        <time>2011-04-09T22:10:26Z</time>
      </trkpt>
      <trkpt lat="50.41649" lon="2.76633">
        <ele>47.2418213</ele>
        <time>2011-04-09T22:10:30Z</time>
      </trkpt>
      <trkpt lat="50.41645" lon="2.76623">
        <ele>47.2418213</ele>
        <time>2011-04-09T22:10:36Z</time>
      </trkpt>
      <trkpt lat="50.41643" lon="2.76622">
        <ele>46.7612305</ele>
        <time>2011-04-09T22:10:37Z</time>
      </trkpt>
      <trkpt lat="50.41639" lon="2.76616">
        <ele>46.7612305</ele>
        <time>2011-04-09T22:10:41Z</time>
      </trkpt>
      <trkpt lat="50.41633" lon="2.76607">
        <ele>46.2806396</ele>
        <time>2011-04-09T22:10:47Z</time>
      </trkpt>
      <trkpt lat="50.41627" lon="2.7659">
        <ele>47.2418213</ele>
        <time>2011-04-09T22:10:57Z</time>
      </trkpt>
      <trkpt lat="50.41621" lon="2.76583">
        <ele>48.2033691</ele>
        <time>2011-04-09T22:11:02Z</time>
      </trkpt>
      <trkpt lat="50.41615" lon="2.76572">
        <ele>48.68396</ele>
        <time>2011-04-09T22:11:09Z</time>
      </trkpt>
      <trkpt lat="50.41613" lon="2.76567">
        <ele>48.68396</ele>
        <time>2011-04-09T22:11:12Z</time>
      </trkpt>
      <trkpt lat="50.41609" lon="2.76564">
        <ele>48.68396</ele>
        <time>2011-04-09T22:11:15Z</time>
      </trkpt>
      <trkpt lat="50.41604" lon="2.76555">
        <ele>48.68396</ele>
        <time>2011-04-09T22:11:21Z</time>
      </trkpt>
      <trkpt lat="50.41599" lon="2.76542">
        <ele>48.2033691</ele>
        <time>2011-04-09T22:11:28Z</time>
      </trkpt>
      <trkpt lat="50.41592" lon="2.76534">
        <ele>46.7612305</ele>
        <time>2011-04-09T22:11:34Z</time>
      </trkpt>
      <trkpt lat="50.41588" lon="2.76526">
        <ele>47.2418213</ele>
        <time>2011-04-09T22:11:39Z</time>
      </trkpt>
      <trkpt lat="50.41581" lon="2.76518">
        <ele>47.7225342</ele>
        <time>2011-04-09T22:11:45Z</time>
      </trkpt>
      <trkpt lat="50.41575" lon="2.76508">
        <ele>47.2418213</ele>
        <time>2011-04-09T22:11:51Z</time>
      </trkpt>
      <trkpt lat="50.41569" lon="2.76501">
        <ele>47.7225342</ele>
        <time>2011-04-09T22:11:56Z</time>
      </trkpt>
      <trkpt lat="50.41567" lon="2.76497">
        <ele>47.7225342</ele>
        <time>2011-04-09T22:11:59Z</time>
      </trkpt>
      <trkpt lat="50.41564" lon="2.7649">
        <ele>48.2033691</ele>
        <time>2011-04-09T22:12:03Z</time>
      </trkpt>
      <trkpt lat="50.41557" lon="2.76481">
        <ele>47.2418213</ele>
        <time>2011-04-09T22:12:09Z</time>
      </trkpt>
      <trkpt lat="50.4155" lon="2.76473">
        <ele>45.7999268</ele>
        <time>2011-04-09T22:12:15Z</time>
      </trkpt>
      <trkpt lat="50.41547" lon="2.76469">
        <ele>46.2806396</ele>
        <time>2011-04-09T22:12:18Z</time>
      </trkpt>
      <trkpt lat="50.41542" lon="2.76457">
        <ele>45.3192139</ele>
        <time>2011-04-09T22:12:24Z</time>
      </trkpt>
      <trkpt lat="50.41537" lon="2.76441">
        <ele>45.7999268</ele>
        <time>2011-04-09T22:12:33Z</time>
      </trkpt>
      <trkpt lat="50.41531" lon="2.76433">
        <ele>45.7999268</ele>
        <time>2011-04-09T22:12:38Z</time>
      </trkpt>
      <trkpt lat="50.41527" lon="2.76427">
        <ele>45.3192139</ele>
        <time>2011-04-09T22:12:43Z</time>
      </trkpt>
      <trkpt lat="50.41523" lon="2.76421">
        <ele>44.838623</ele>
        <time>2011-04-09T22:12:47Z</time>
      </trkpt>
      <trkpt lat="50.4152" lon="2.76417">
        <ele>45.7999268</ele>
        <time>2011-04-09T22:12:50Z</time>
      </trkpt>
      <trkpt lat="50.41516" lon="2.76411">
        <ele>46.2806396</ele>
        <time>2011-04-09T22:12:54Z</time>
      </trkpt>
      <trkpt lat="50.41511" lon="2.76407">
        <ele>46.2806396</ele>
        <time>2011-04-09T22:12:57Z</time>
      </trkpt>
      <trkpt lat="50.41508" lon="2.76403">
        <ele>46.2806396</ele>
        <time>2011-04-09T22:12:59Z</time>
      </trkpt>
      <trkpt lat="50.41506" lon="2.764">
        <ele>46.2806396</ele>
        <time>2011-04-09T22:13:01Z</time>
      </trkpt>
      <trkpt lat="50.41504" lon="2.76389">
        <ele>46.7612305</ele>
        <time>2011-04-09T22:13:06Z</time>
      </trkpt>
      <trkpt lat="50.41504" lon="2.76387">
        <ele>46.7612305</ele>
        <time>2011-04-09T22:13:07Z</time>
      </trkpt>
      <trkpt lat="50.41504" lon="2.76382">
        <ele>46.2806396</ele>
        <time>2011-04-09T22:13:09Z</time>
      </trkpt>
      <trkpt lat="50.41506" lon="2.76376">
        <ele>46.2806396</ele>
        <time>2011-04-09T22:13:12Z</time>
      </trkpt>
      <trkpt lat="50.41517" lon="2.76362">
        <ele>50.6065674</ele>
        <time>2011-04-09T22:13:23Z</time>
      </trkpt>
      <trkpt lat="50.41526" lon="2.76354">
        <ele>50.6065674</ele>
        <time>2011-04-09T22:13:30Z</time>
      </trkpt>
      <trkpt lat="50.41531" lon="2.76347">
        <ele>51.5678711</ele>
        <time>2011-04-09T22:13:35Z</time>
      </trkpt>
      <trkpt lat="50.4154" lon="2.7634">
        <ele>52.048584</ele>
        <time>2011-04-09T22:13:43Z</time>
      </trkpt>
      <trkpt lat="50.41543" lon="2.76338">
        <ele>52.048584</ele>
        <time>2011-04-09T22:13:45Z</time>
      </trkpt>
      <trkpt lat="50.4155" lon="2.76334">
        <ele>53.4904785</ele>
        <time>2011-04-09T22:13:50Z</time>
      </trkpt>
      <trkpt lat="50.41556" lon="2.76326">
        <ele>53.9711914</ele>
        <time>2011-04-09T22:13:57Z</time>
      </trkpt>
      <trkpt lat="50.41562" lon="2.76321">
        <ele>54.932373</ele>
        <time>2011-04-09T22:14:02Z</time>
      </trkpt>
      <trkpt lat="50.4157" lon="2.76315">
        <ele>57.8165283</ele>
        <time>2011-04-09T22:14:07Z</time>
      </trkpt>
      <trkpt lat="50.41579" lon="2.76309">
        <ele>56.3745117</ele>
        <time>2011-04-09T22:14:14Z</time>
      </trkpt>
      <trkpt lat="50.41588" lon="2.763">
        <ele>59.2584229</ele>
        <time>2011-04-09T22:14:21Z</time>
      </trkpt>
      <trkpt lat="50.41589" lon="2.76299">
        <ele>59.2584229</ele>
        <time>2011-04-09T22:14:22Z</time>
      </trkpt>
      <trkpt lat="50.41594" lon="2.76297">
        <ele>58.77771</ele>
        <time>2011-04-09T22:14:25Z</time>
      </trkpt>
      <trkpt lat="50.41601" lon="2.7629">
        <ele>57.3358154</ele>
        <time>2011-04-09T22:14:31Z</time>
      </trkpt>
      <trkpt lat="50.41603" lon="2.76287">
        <ele>56.8551025</ele>
        <time>2011-04-09T22:14:33Z</time>
      </trkpt>
      <trkpt lat="50.41611" lon="2.76277">
        <ele>54.4517822</ele>
        <time>2011-04-09T22:14:41Z</time>
      </trkpt>
      <trkpt lat="50.41616" lon="2.76271">
        <ele>53.9711914</ele>
        <time>2011-04-09T22:14:46Z</time>
      </trkpt>
      <trkpt lat="50.41624" lon="2.76264">
        <ele>56.3745117</ele>
        <time>2011-04-09T22:14:52Z</time>
      </trkpt>
      <trkpt lat="50.41626" lon="2.76264">
        <ele>56.3745117</ele>
        <time>2011-04-09T22:14:53Z</time>
      </trkpt>
      <trkpt lat="50.41634" lon="2.76261">
        <ele>60.7003174</ele>
        <time>2011-04-09T22:14:58Z</time>
      </trkpt>
      <trkpt lat="50.41643" lon="2.76253">
        <ele>63.5843506</ele>
        <time>2011-04-09T22:15:05Z</time>
      </trkpt>
      <trkpt lat="50.4165" lon="2.76245">
        <ele>64.0650635</ele>
        <time>2011-04-09T22:15:11Z</time>
      </trkpt>
      <trkpt lat="50.41655" lon="2.76238">
        <ele>61.6617432</ele>
        <time>2011-04-09T22:15:17Z</time>
      </trkpt>
      <trkpt lat="50.41668" lon="2.76227">
        <ele>64.5456543</ele>
        <time>2011-04-09T22:15:27Z</time>
      </trkpt>
      <trkpt lat="50.41672" lon="2.7622">
        <ele>66.4682617</ele>
        <time>2011-04-09T22:15:31Z</time>
      </trkpt>
      <trkpt lat="50.41677" lon="2.76211">
        <ele>65.5070801</ele>
        <time>2011-04-09T22:15:37Z</time>
      </trkpt>
      <trkpt lat="50.41682" lon="2.76198">
        <ele>66.9489746</ele>
        <time>2011-04-09T22:15:44Z</time>
      </trkpt>
      <trkpt lat="50.41683" lon="2.76197">
        <ele>67.9102783</ele>
        <time>2011-04-09T22:15:45Z</time>
      </trkpt>
      <trkpt lat="50.4169" lon="2.76189">
        <ele>70.3134766</ele>
        <time>2011-04-09T22:15:51Z</time>
      </trkpt>
      <trkpt lat="50.4169" lon="2.76181">
        <ele>69.3522949</ele>
        <time>2011-04-09T22:15:55Z</time>
      </trkpt>
      <trkpt lat="50.41687" lon="2.76171">
        <ele>66.9489746</ele>
        <time>2011-04-09T22:16:00Z</time>
      </trkpt>
      <trkpt lat="50.41683" lon="2.76161">
        <ele>64.0650635</ele>
        <time>2011-04-09T22:16:06Z</time>
      </trkpt>
      <trkpt lat="50.41679" lon="2.76153">
        <ele>63.5843506</ele>
        <time>2011-04-09T22:16:10Z</time>
      </trkpt>
      <trkpt lat="50.41675" lon="2.76149">
        <ele>64.0650635</ele>
        <time>2011-04-09T22:16:13Z</time>
      </trkpt>
      <trkpt lat="50.41671" lon="2.76147">
        <ele>63.5843506</ele>
        <time>2011-04-09T22:16:15Z</time>
      </trkpt>
      <trkpt lat="50.41667" lon="2.76142">
        <ele>63.5843506</ele>
        <time>2011-04-09T22:16:19Z</time>
      </trkpt>
      <trkpt lat="50.41659" lon="2.76135">
        <ele>62.142334</ele>
        <time>2011-04-09T22:16:25Z</time>
      </trkpt>
      <trkpt lat="50.41654" lon="2.76131">
        <ele>62.6229248</ele>
        <time>2011-04-09T22:16:28Z</time>
      </trkpt>
      <trkpt lat="50.41652" lon="2.76128">
        <ele>62.142334</ele>
        <time>2011-04-09T22:16:30Z</time>
      </trkpt>
      <trkpt lat="50.41645" lon="2.7612">
        <ele>60.7003174</ele>
        <time>2011-04-09T22:16:36Z</time>
      </trkpt>
      <trkpt lat="50.4164" lon="2.76115">
        <ele>60.7003174</ele>
        <time>2011-04-09T22:16:40Z</time>
      </trkpt>
      <trkpt lat="50.41634" lon="2.76107">
        <ele>60.7003174</ele>
        <time>2011-04-09T22:16:45Z</time>
      </trkpt>
      <trkpt lat="50.41633" lon="2.76106">
        <ele>60.7003174</ele>
        <time>2011-04-09T22:16:46Z</time>
      </trkpt>
      <trkpt lat="50.41625" lon="2.76098">
        <ele>59.7391357</ele>
        <time>2011-04-09T22:16:52Z</time>
      </trkpt>
      <trkpt lat="50.41617" lon="2.76088">
        <ele>59.2584229</ele>
        <time>2011-04-09T22:16:59Z</time>
      </trkpt>
      <trkpt lat="50.4161" lon="2.7608">
        <ele>59.2584229</ele>
        <time>2011-04-09T22:17:05Z</time>
      </trkpt>
      <trkpt lat="50.41607" lon="2.76067">
        <ele>65.0263672</ele>
        <time>2011-04-09T22:17:11Z</time>
      </trkpt>
      <trkpt lat="50.41601" lon="2.7606">
        <ele>65.5070801</ele>
        <time>2011-04-09T22:17:17Z</time>
      </trkpt>
      <trkpt lat="50.41595" lon="2.76052">
        <ele>65.5070801</ele>
        <time>2011-04-09T22:17:22Z</time>
      </trkpt>
      <trkpt lat="50.41591" lon="2.76046">
        <ele>64.5456543</ele>
        <time>2011-04-09T22:17:26Z</time>
      </trkpt>
      <trkpt lat="50.41589" lon="2.7604">
        <ele>63.1036377</ele>
        <time>2011-04-09T22:17:29Z</time>
      </trkpt>
      <trkpt lat="50.41584" lon="2.76025">
        <ele>62.142334</ele>
        <time>2011-04-09T22:17:37Z</time>
      </trkpt>
      <trkpt lat="50.41581" lon="2.76017">
        <ele>61.6617432</ele>
        <time>2011-04-09T22:17:41Z</time>
      </trkpt>
      <trkpt lat="50.41578" lon="2.76012">
        <ele>61.6617432</ele>
        <time>2011-04-09T22:17:44Z</time>
      </trkpt>
      <trkpt lat="50.41575" lon="2.76001">
        <ele>62.142334</ele>
        <time>2011-04-09T22:17:49Z</time>
      </trkpt>
      <trkpt lat="50.41571" lon="2.75989">
        <ele>62.6229248</ele>
        <time>2011-04-09T22:17:55Z</time>
      </trkpt>
      <trkpt lat="50.41568" lon="2.75973">
        <ele>62.142334</ele>
        <time>2011-04-09T22:18:03Z</time>
      </trkpt>
      <trkpt lat="50.41567" lon="2.75967">
        <ele>62.142334</ele>
        <time>2011-04-09T22:18:06Z</time>
      </trkpt>
      <trkpt lat="50.41564" lon="2.75961">
        <ele>61.6617432</ele>
        <time>2011-04-09T22:18:10Z</time>
      </trkpt>
      <trkpt lat="50.41561" lon="2.75954">
        <ele>62.142334</ele>
        <time>2011-04-09T22:18:14Z</time>
      </trkpt>
      <trkpt lat="50.41558" lon="2.75946">
        <ele>62.6229248</ele>
        <time>2011-04-09T22:18:18Z</time>
      </trkpt>
      <trkpt lat="50.41555" lon="2.75938">
        <ele>63.1036377</ele>
        <time>2011-04-09T22:18:22Z</time>
      </trkpt>
      <trkpt lat="50.41553" lon="2.75933">
        <ele>63.5843506</ele>
        <time>2011-04-09T22:18:24Z</time>
      </trkpt>
      <trkpt lat="50.41549" lon="2.75923">
        <ele>63.5843506</ele>
        <time>2011-04-09T22:18:30Z</time>
      </trkpt>
      <trkpt lat="50.41544" lon="2.75912">
        <ele>63.5843506</ele>
        <time>2011-04-09T22:18:36Z</time>
      </trkpt>
      <trkpt lat="50.41539" lon="2.75902">
        <ele>64.0650635</ele>
        <time>2011-04-09T22:18:42Z</time>
      </trkpt>
      <trkpt lat="50.41539" lon="2.75899">
        <ele>64.0650635</ele>
        <time>2011-04-09T22:18:43Z</time>
      </trkpt>
      <trkpt lat="50.41537" lon="2.75893">
        <ele>64.0650635</ele>
        <time>2011-04-09T22:18:46Z</time>
      </trkpt>
      <trkpt lat="50.41532" lon="2.75882">
        <ele>64.0650635</ele>
        <time>2011-04-09T22:18:52Z</time>
      </trkpt>
      <trkpt lat="50.41527" lon="2.7587">
        <ele>62.6229248</ele>
        <time>2011-04-09T22:18:59Z</time>
      </trkpt>
      <trkpt lat="50.41521" lon="2.75862">
        <ele>61.6617432</ele>
        <time>2011-04-09T22:19:05Z</time>
      </trkpt>
      <trkpt lat="50.41517" lon="2.75853">
        <ele>61.6617432</ele>
        <time>2011-04-09T22:19:10Z</time>
      </trkpt>
      <trkpt lat="50.41513" lon="2.75846">
        <ele>61.6617432</ele>
        <time>2011-04-09T22:19:14Z</time>
      </trkpt>
      <trkpt lat="50.4151" lon="2.75835">
        <ele>61.6617432</ele>
        <time>2011-04-09T22:19:19Z</time>
      </trkpt>
      <trkpt lat="50.41503" lon="2.75821">
        <ele>63.1036377</ele>
        <time>2011-04-09T22:19:27Z</time>
      </trkpt>
      <trkpt lat="50.41495" lon="2.75809">
        <ele>63.1036377</ele>
        <time>2011-04-09T22:19:35Z</time>
      </trkpt>
      <trkpt lat="50.4149" lon="2.758">
        <ele>63.5843506</ele>
        <time>2011-04-09T22:19:41Z</time>
      </trkpt>
      <trkpt lat="50.41485" lon="2.75791">
        <ele>63.5843506</ele>
        <time>2011-04-09T22:19:46Z</time>
      </trkpt>
      <trkpt lat="50.41481" lon="2.75785">
        <ele>63.5843506</ele>
        <time>2011-04-09T22:19:51Z</time>
      </trkpt>
      <trkpt lat="50.41477" lon="2.7578">
        <ele>64.0650635</ele>
        <time>2011-04-09T22:19:55Z</time>
      </trkpt>
      <trkpt lat="50.41476" lon="2.75779">
        <ele>64.0650635</ele>
        <time>2011-04-09T22:19:56Z</time>
      </trkpt>
      <trkpt lat="50.4147" lon="2.75769">
        <ele>64.0650635</ele>
        <time>2011-04-09T22:20:01Z</time>
      </trkpt>
      <trkpt lat="50.41463" lon="2.75759">
        <ele>65.5070801</ele>
        <time>2011-04-09T22:20:07Z</time>
      </trkpt>
      <trkpt lat="50.41458" lon="2.75751">
        <ele>66.4682617</ele>
        <time>2011-04-09T22:20:12Z</time>
      </trkpt>
      <trkpt lat="50.41453" lon="2.75746">
        <ele>67.4296875</ele>
        <time>2011-04-09T22:20:16Z</time>
      </trkpt>
      <trkpt lat="50.41451" lon="2.75745">
        <ele>67.9102783</ele>
        <time>2011-04-09T22:20:17Z</time>
      </trkpt>
      <trkpt lat="50.41443" lon="2.75738">
        <ele>69.3522949</ele>
        <time>2011-04-09T22:20:21Z</time>
      </trkpt>
      <trkpt lat="50.41435" lon="2.75728">
        <ele>68.871582</ele>
        <time>2011-04-09T22:20:28Z</time>
      </trkpt>
      <trkpt lat="50.4143" lon="2.75722">
        <ele>66.4682617</ele>
        <time>2011-04-09T22:20:33Z</time>
      </trkpt>
      <trkpt lat="50.41423" lon="2.75713">
        <ele>65.9876709</ele>
        <time>2011-04-09T22:20:39Z</time>
      </trkpt>
      <trkpt lat="50.41421" lon="2.75708">
        <ele>65.5070801</ele>
        <time>2011-04-09T22:20:42Z</time>
      </trkpt>
      <trkpt lat="50.41416" lon="2.75703">
        <ele>64.5456543</ele>
        <time>2011-04-09T22:20:46Z</time>
      </trkpt>
      <trkpt lat="50.41414" lon="2.75696">
        <ele>65.5070801</ele>
        <time>2011-04-09T22:20:50Z</time>
      </trkpt>
      <trkpt lat="50.41409" lon="2.75686">
        <ele>66.9489746</ele>
        <time>2011-04-09T22:20:56Z</time>
      </trkpt>
      <trkpt lat="50.41405" lon="2.75677">
        <ele>65.5070801</ele>
        <time>2011-04-09T22:21:02Z</time>
      </trkpt>
      <trkpt lat="50.41398" lon="2.75664">
        <ele>65.9876709</ele>
        <time>2011-04-09T22:21:09Z</time>
      </trkpt>
      <trkpt lat="50.41395" lon="2.7566">
        <ele>65.0263672</ele>
        <time>2011-04-09T22:21:12Z</time>
      </trkpt>
      <trkpt lat="50.41385" lon="2.75652">
        <ele>63.1036377</ele>
        <time>2011-04-09T22:21:19Z</time>
      </trkpt>
      <trkpt lat="50.41383" lon="2.75645">
        <ele>63.1036377</ele>
        <time>2011-04-09T22:21:22Z</time>
      </trkpt>
      <trkpt lat="50.41377" lon="2.75633">
        <ele>62.142334</ele>
        <time>2011-04-09T22:21:29Z</time>
      </trkpt>
      <trkpt lat="50.4137" lon="2.75623">
        <ele>61.6617432</ele>
        <time>2011-04-09T22:21:35Z</time>
      </trkpt>
      <trkpt lat="50.41363" lon="2.75615">
        <ele>61.6617432</ele>
        <time>2011-04-09T22:21:41Z</time>
      </trkpt>
      <trkpt lat="50.41362" lon="2.75614">
        <ele>61.6617432</ele>
        <time>2011-04-09T22:21:42Z</time>
      </trkpt>
      <trkpt lat="50.41353" lon="2.75603">
        <ele>61.1810303</ele>
        <time>2011-04-09T22:21:50Z</time>
      </trkpt>
      <trkpt lat="50.41349" lon="2.75593">
        <ele>61.6617432</ele>
        <time>2011-04-09T22:21:55Z</time>
      </trkpt>
      <trkpt lat="50.41343" lon="2.75583">
        <ele>62.142334</ele>
        <time>2011-04-09T22:22:01Z</time>
      </trkpt>
      <trkpt lat="50.4134" lon="2.75578">
        <ele>61.6617432</ele>
        <time>2011-04-09T22:22:04Z</time>
      </trkpt>
      <trkpt lat="50.41339" lon="2.75567">
        <ele>60.7003174</ele>
        <time>2011-04-09T22:22:09Z</time>
      </trkpt>
      <trkpt lat="50.41336" lon="2.75562">
        <ele>60.2197266</ele>
        <time>2011-04-09T22:22:12Z</time>
      </trkpt>
      <trkpt lat="50.4133" lon="2.75554">
        <ele>59.2584229</ele>
        <time>2011-04-09T22:22:17Z</time>
      </trkpt>
      <trkpt lat="50.41326" lon="2.75547">
        <ele>58.77771</ele>
        <time>2011-04-09T22:22:21Z</time>
      </trkpt>
      <trkpt lat="50.41321" lon="2.75541">
        <ele>57.8165283</ele>
        <time>2011-04-09T22:22:26Z</time>
      </trkpt>
      <trkpt lat="50.41314" lon="2.75534">
        <ele>57.3358154</ele>
        <time>2011-04-09T22:22:31Z</time>
      </trkpt>
      <trkpt lat="50.4131" lon="2.75531">
        <ele>56.8551025</ele>
        <time>2011-04-09T22:22:33Z</time>
      </trkpt>
      <trkpt lat="50.41305" lon="2.75523">
        <ele>56.3745117</ele>
        <time>2011-04-09T22:22:39Z</time>
      </trkpt>
      <trkpt lat="50.41302" lon="2.75519">
        <ele>56.3745117</ele>
        <time>2011-04-09T22:22:42Z</time>
      </trkpt>
      <trkpt lat="50.41299" lon="2.75515">
        <ele>56.3745117</ele>
        <time>2011-04-09T22:22:45Z</time>
      </trkpt>
      <trkpt lat="50.41294" lon="2.75507">
        <ele>58.2971191</ele>
        <time>2011-04-09T22:22:50Z</time>
      </trkpt>
      <trkpt lat="50.4129" lon="2.75497">
        <ele>60.2197266</ele>
        <time>2011-04-09T22:22:55Z</time>
      </trkpt>
      <trkpt lat="50.41288" lon="2.7549">
        <ele>60.2197266</ele>
        <time>2011-04-09T22:22:59Z</time>
      </trkpt>
      <trkpt lat="50.41287" lon="2.75479">
        <ele>60.7003174</ele>
        <time>2011-04-09T22:23:04Z</time>
      </trkpt>
      <trkpt lat="50.41288" lon="2.75472">
        <ele>62.142334</ele>
        <time>2011-04-09T22:23:07Z</time>
      </trkpt>
      <trkpt lat="50.41294" lon="2.75453">
        <ele>63.1036377</ele>
        <time>2011-04-09T22:23:16Z</time>
      </trkpt>
      <trkpt lat="50.41295" lon="2.75446">
        <ele>64.5456543</ele>
        <time>2011-04-09T22:23:19Z</time>
      </trkpt>
      <trkpt lat="50.413" lon="2.75432">
        <ele>64.0650635</ele>
        <time>2011-04-09T22:23:26Z</time>
      </trkpt>
      <trkpt lat="50.41303" lon="2.75421">
        <ele>66.9489746</ele>
        <time>2011-04-09T22:23:31Z</time>
      </trkpt>
      <trkpt lat="50.41308" lon="2.754">
        <ele>66.4682617</ele>
        <time>2011-04-09T22:23:40Z</time>
      </trkpt>
      <trkpt lat="50.4131" lon="2.75383">
        <ele>65.0263672</ele>
        <time>2011-04-09T22:23:48Z</time>
      </trkpt>
      <trkpt lat="50.41312" lon="2.75367">
        <ele>67.9102783</ele>
        <time>2011-04-09T22:23:55Z</time>
      </trkpt>
      <trkpt lat="50.41315" lon="2.75359">
        <ele>68.3908691</ele>
        <time>2011-04-09T22:23:59Z</time>
      </trkpt>
      <trkpt lat="50.41314" lon="2.75341">
        <ele>70.7941895</ele>
        <time>2011-04-09T22:24:07Z</time>
      </trkpt>
      <trkpt lat="50.41317" lon="2.75326">
        <ele>73.6782227</ele>
        <time>2011-04-09T22:24:14Z</time>
      </trkpt>
      <trkpt lat="50.41321" lon="2.75306">
        <ele>72.7169189</ele>
        <time>2011-04-09T22:24:23Z</time>
      </trkpt>
      <trkpt lat="50.41321" lon="2.75304">
        <ele>73.6782227</ele>
        <time>2011-04-09T22:24:24Z</time>
      </trkpt>
      <trkpt lat="50.41323" lon="2.75295">
        <ele>74.1588135</ele>
        <time>2011-04-09T22:24:28Z</time>
      </trkpt>
      <trkpt lat="50.41323" lon="2.7529">
        <ele>74.6395264</ele>
        <time>2011-04-09T22:24:30Z</time>
      </trkpt>
      <trkpt lat="50.41323" lon="2.75271">
        <ele>75.6008301</ele>
        <time>2011-04-09T22:24:38Z</time>
      </trkpt>
      <trkpt lat="50.41322" lon="2.75257">
        <ele>76.0814209</ele>
        <time>2011-04-09T22:24:44Z</time>
      </trkpt>
      <trkpt lat="50.41324" lon="2.75241">
        <ele>78.0040283</ele>
        <time>2011-04-09T22:24:51Z</time>
      </trkpt>
      <trkpt lat="50.41325" lon="2.75229">
        <ele>77.0428467</ele>
        <time>2011-04-09T22:24:56Z</time>
      </trkpt>
      <trkpt lat="50.41325" lon="2.75217">
        <ele>76.0814209</ele>
        <time>2011-04-09T22:25:02Z</time>
      </trkpt>
      <trkpt lat="50.41325" lon="2.75212">
        <ele>76.5621338</ele>
        <time>2011-04-09T22:25:04Z</time>
      </trkpt>
      <trkpt lat="50.41326" lon="2.75206">
        <ele>76.0814209</ele>
        <time>2011-04-09T22:25:07Z</time>
      </trkpt>
      <trkpt lat="50.41326" lon="2.75194">
        <ele>76.0814209</ele>
        <time>2011-04-09T22:25:13Z</time>
      </trkpt>
      <trkpt lat="50.41328" lon="2.75176">
        <ele>75.6008301</ele>
        <time>2011-04-09T22:25:21Z</time>
      </trkpt>
      <trkpt lat="50.4133" lon="2.75165">
        <ele>75.1202393</ele>
        <time>2011-04-09T22:25:26Z</time>
      </trkpt>
      <trkpt lat="50.41331" lon="2.75156">
        <ele>75.1202393</ele>
        <time>2011-04-09T22:25:30Z</time>
      </trkpt>
      <trkpt lat="50.41333" lon="2.75143">
        <ele>75.1202393</ele>
        <time>2011-04-09T22:25:36Z</time>
      </trkpt>
      <trkpt lat="50.41333" lon="2.75137">
        <ele>75.1202393</ele>
        <time>2011-04-09T22:25:39Z</time>
      </trkpt>
      <trkpt lat="50.41334" lon="2.75132">
        <ele>74.1588135</ele>
        <time>2011-04-09T22:25:41Z</time>
      </trkpt>
      <trkpt lat="50.41334" lon="2.75126">
        <ele>72.2362061</ele>
        <time>2011-04-09T22:25:44Z</time>
      </trkpt>
      <trkpt lat="50.41334" lon="2.75111">
        <ele>70.7941895</ele>
        <time>2011-04-09T22:25:50Z</time>
      </trkpt>
      <trkpt lat="50.41332" lon="2.75101">
        <ele>69.3522949</ele>
        <time>2011-04-09T22:25:54Z</time>
      </trkpt>
      <trkpt lat="50.41331" lon="2.75096">
        <ele>67.9102783</ele>
        <time>2011-04-09T22:25:56Z</time>
      </trkpt>
      <trkpt lat="50.41333" lon="2.75081">
        <ele>66.9489746</ele>
        <time>2011-04-09T22:26:03Z</time>
      </trkpt>
      <trkpt lat="50.41334" lon="2.75077">
        <ele>66.4682617</ele>
        <time>2011-04-09T22:26:05Z</time>
      </trkpt>
      <trkpt lat="50.41335" lon="2.7506">
        <ele>64.5456543</ele>
        <time>2011-04-09T22:26:12Z</time>
      </trkpt>
      <trkpt lat="50.41336" lon="2.75044">
        <ele>64.0650635</ele>
        <time>2011-04-09T22:26:19Z</time>
      </trkpt>
      <trkpt lat="50.41338" lon="2.7503">
        <ele>64.0650635</ele>
        <time>2011-04-09T22:26:25Z</time>
      </trkpt>
      <trkpt lat="50.4134" lon="2.75012">
        <ele>63.5843506</ele>
        <time>2011-04-09T22:26:33Z</time>
      </trkpt>
      <trkpt lat="50.4134" lon="2.74996">
        <ele>63.5843506</ele>
        <time>2011-04-09T22:26:40Z</time>
      </trkpt>
      <trkpt lat="50.41339" lon="2.74981">
        <ele>65.0263672</ele>
        <time>2011-04-09T22:26:46Z</time>
      </trkpt>
      <trkpt lat="50.41339" lon="2.74965">
        <ele>66.4682617</ele>
        <time>2011-04-09T22:26:53Z</time>
      </trkpt>
      <trkpt lat="50.41339" lon="2.74963">
        <ele>65.9876709</ele>
        <time>2011-04-09T22:26:54Z</time>
      </trkpt>
      <trkpt lat="50.4134" lon="2.74946">
        <ele>65.9876709</ele>
        <time>2011-04-09T22:27:02Z</time>
      </trkpt>
      <trkpt lat="50.4134" lon="2.74941">
        <ele>65.5070801</ele>
        <time>2011-04-09T22:27:04Z</time>
      </trkpt>
      <trkpt lat="50.4134" lon="2.74922">
        <ele>65.5070801</ele>
        <time>2011-04-09T22:27:13Z</time>
      </trkpt>
      <trkpt lat="50.41338" lon="2.74913">
        <ele>67.4296875</ele>
        <time>2011-04-09T22:27:18Z</time>
      </trkpt>
      <trkpt lat="50.41339" lon="2.74903">
        <ele>67.9102783</ele>
        <time>2011-04-09T22:27:22Z</time>
      </trkpt>
      <trkpt lat="50.41339" lon="2.74896">
        <ele>68.3908691</ele>
        <time>2011-04-09T22:27:25Z</time>
      </trkpt>
      <trkpt lat="50.41341" lon="2.74889">
        <ele>67.4296875</ele>
        <time>2011-04-09T22:27:28Z</time>
      </trkpt>
      <trkpt lat="50.41341" lon="2.74887">
        <ele>67.4296875</ele>
        <time>2011-04-09T22:27:29Z</time>
      </trkpt>
      <trkpt lat="50.4134" lon="2.74879">
        <ele>67.4296875</ele>
        <time>2011-04-09T22:27:32Z</time>
      </trkpt>
      <trkpt lat="50.4134" lon="2.74868">
        <ele>67.9102783</ele>
        <time>2011-04-09T22:27:37Z</time>
      </trkpt>
      <trkpt lat="50.41342" lon="2.74852">
        <ele>67.9102783</ele>
        <time>2011-04-09T22:27:44Z</time>
      </trkpt>
      <trkpt lat="50.41343" lon="2.74846">
        <ele>66.9489746</ele>
        <time>2011-04-09T22:27:47Z</time>
      </trkpt>
      <trkpt lat="50.41343" lon="2.74833">
        <ele>65.0263672</ele>
        <time>2011-04-09T22:27:53Z</time>
      </trkpt>
      <trkpt lat="50.41345" lon="2.74825">
        <ele>65.5070801</ele>
        <time>2011-04-09T22:27:57Z</time>
      </trkpt>
      <trkpt lat="50.41345" lon="2.74818">
        <ele>65.5070801</ele>
        <time>2011-04-09T22:28:00Z</time>
      </trkpt>
      <trkpt lat="50.41344" lon="2.74799">
        <ele>66.4682617</ele>
        <time>2011-04-09T22:28:09Z</time>
      </trkpt>
      <trkpt lat="50.41344" lon="2.74784">
        <ele>65.9876709</ele>
        <time>2011-04-09T22:28:16Z</time>
      </trkpt>
      <trkpt lat="50.41345" lon="2.74776">
        <ele>65.5070801</ele>
        <time>2011-04-09T22:28:19Z</time>
      </trkpt>
      <trkpt lat="50.41347" lon="2.74761">
        <ele>63.5843506</ele>
        <time>2011-04-09T22:28:25Z</time>
      </trkpt>
      <trkpt lat="50.41347" lon="2.74748">
        <ele>61.6617432</ele>
        <time>2011-04-09T22:28:31Z</time>
      </trkpt>
      <trkpt lat="50.41347" lon="2.74736">
        <ele>61.1810303</ele>
        <time>2011-04-09T22:28:36Z</time>
      </trkpt>
      <trkpt lat="50.41346" lon="2.74722">
        <ele>61.6617432</ele>
        <time>2011-04-09T22:28:42Z</time>
      </trkpt>
      <trkpt lat="50.41348" lon="2.74707">
        <ele>61.1810303</ele>
        <time>2011-04-09T22:28:49Z</time>
      </trkpt>
      <trkpt lat="50.41348" lon="2.74691">
        <ele>62.142334</ele>
        <time>2011-04-09T22:28:56Z</time>
      </trkpt>
      <trkpt lat="50.41347" lon="2.74674">
        <ele>62.6229248</ele>
        <time>2011-04-09T22:29:02Z</time>
      </trkpt>
      <trkpt lat="50.41347" lon="2.74672">
        <ele>62.6229248</ele>
        <time>2011-04-09T22:29:03Z</time>
      </trkpt>
      <trkpt lat="50.41346" lon="2.74655">
        <ele>61.6617432</ele>
        <time>2011-04-09T22:29:11Z</time>
      </trkpt>
      <trkpt lat="50.41344" lon="2.74644">
        <ele>62.142334</ele>
        <time>2011-04-09T22:29:15Z</time>
      </trkpt>
      <trkpt lat="50.41343" lon="2.74634">
        <ele>61.6617432</ele>
        <time>2011-04-09T22:29:19Z</time>
      </trkpt>
      <trkpt lat="50.4134" lon="2.74622">
        <ele>61.6617432</ele>
        <time>2011-04-09T22:29:24Z</time>
      </trkpt>
      <trkpt lat="50.41339" lon="2.74616">
        <ele>61.1810303</ele>
        <time>2011-04-09T22:29:27Z</time>
      </trkpt>
      <trkpt lat="50.4134" lon="2.74601">
        <ele>60.7003174</ele>
        <time>2011-04-09T22:29:34Z</time>
      </trkpt>
      <trkpt lat="50.41341" lon="2.74593">
        <ele>61.1810303</ele>
        <time>2011-04-09T22:29:37Z</time>
      </trkpt>
      <trkpt lat="50.41342" lon="2.74591">
        <ele>61.6617432</ele>
        <time>2011-04-09T22:29:38Z</time>
      </trkpt>
      <trkpt lat="50.41344" lon="2.74571">
        <ele>63.1036377</ele>
        <time>2011-04-09T22:29:48Z</time>
      </trkpt>
      <trkpt lat="50.41344" lon="2.74569">
        <ele>63.1036377</ele>
        <time>2011-04-09T22:29:49Z</time>
      </trkpt>
      <trkpt lat="50.41346" lon="2.74559">
        <ele>63.1036377</ele>
        <time>2011-04-09T22:29:54Z</time>
      </trkpt>
      <trkpt lat="50.41347" lon="2.7455">
        <ele>64.0650635</ele>
        <time>2011-04-09T22:29:58Z</time>
      </trkpt>
      <trkpt lat="50.41347" lon="2.74539">
        <ele>65.0263672</ele>
        <time>2011-04-09T22:30:03Z</time>
      </trkpt>
      <trkpt lat="50.41348" lon="2.74527">
        <ele>65.5070801</ele>
        <time>2011-04-09T22:30:08Z</time>
      </trkpt>
      <trkpt lat="50.41348" lon="2.74524">
        <ele>65.5070801</ele>
        <time>2011-04-09T22:30:09Z</time>
      </trkpt>
      <trkpt lat="50.41349" lon="2.7451">
        <ele>65.5070801</ele>
        <time>2011-04-09T22:30:15Z</time>
      </trkpt>
      <trkpt lat="50.41349" lon="2.74493">
        <ele>65.9876709</ele>
        <time>2011-04-09T22:30:22Z</time>
      </trkpt>
      <trkpt lat="50.41349" lon="2.74491">
        <ele>65.9876709</ele>
        <time>2011-04-09T22:30:23Z</time>
      </trkpt>
      <trkpt lat="50.41349" lon="2.74483">
        <ele>65.0263672</ele>
        <time>2011-04-09T22:30:27Z</time>
      </trkpt>
      <trkpt lat="50.41345" lon="2.74464">
        <ele>62.6229248</ele>
        <time>2011-04-09T22:30:34Z</time>
      </trkpt>
      <trkpt lat="50.41345" lon="2.7445">
        <ele>59.2584229</ele>
        <time>2011-04-09T22:30:40Z</time>
      </trkpt>
      <trkpt lat="50.41345" lon="2.74445">
        <ele>57.8165283</ele>
        <time>2011-04-09T22:30:42Z</time>
      </trkpt>
      <trkpt lat="50.41344" lon="2.74436">
        <ele>56.3745117</ele>
        <time>2011-04-09T22:30:46Z</time>
      </trkpt>
      <trkpt lat="50.4134" lon="2.7442">
        <ele>55.4130859</ele>
        <time>2011-04-09T22:30:53Z</time>
      </trkpt>
      <trkpt lat="50.41338" lon="2.74415">
        <ele>55.4130859</ele>
        <time>2011-04-09T22:30:55Z</time>
      </trkpt>
      <trkpt lat="50.41339" lon="2.74408">
        <ele>54.4517822</ele>
        <time>2011-04-09T22:30:59Z</time>
      </trkpt>
      <trkpt lat="50.41337" lon="2.74394">
        <ele>53.0097656</ele>
        <time>2011-04-09T22:31:06Z</time>
      </trkpt>
      <trkpt lat="50.41338" lon="2.7438">
        <ele>53.0097656</ele>
        <time>2011-04-09T22:31:12Z</time>
      </trkpt>
      <trkpt lat="50.41338" lon="2.74376">
        <ele>53.4904785</ele>
        <time>2011-04-09T22:31:14Z</time>
      </trkpt>
      <trkpt lat="50.41341" lon="2.74363">
        <ele>53.4904785</ele>
        <time>2011-04-09T22:31:19Z</time>
      </trkpt>
      <trkpt lat="50.41341" lon="2.74354">
        <ele>53.9711914</ele>
        <time>2011-04-09T22:31:23Z</time>
      </trkpt>
      <trkpt lat="50.41342" lon="2.74345">
        <ele>55.4130859</ele>
        <time>2011-04-09T22:31:27Z</time>
      </trkpt>
      <trkpt lat="50.41341" lon="2.74343">
        <ele>55.4130859</ele>
        <time>2011-04-09T22:31:28Z</time>
      </trkpt>
      <trkpt lat="50.41341" lon="2.74338">
        <ele>55.8937988</ele>
        <time>2011-04-09T22:31:30Z</time>
      </trkpt>
      <trkpt lat="50.41343" lon="2.74326">
        <ele>60.7003174</ele>
        <time>2011-04-09T22:31:36Z</time>
      </trkpt>
      <trkpt lat="50.41342" lon="2.74324">
        <ele>60.7003174</ele>
        <time>2011-04-09T22:31:37Z</time>
      </trkpt>
      <trkpt lat="50.41342" lon="2.74305">
        <ele>62.6229248</ele>
        <time>2011-04-09T22:31:46Z</time>
      </trkpt>
      <trkpt lat="50.41345" lon="2.74295">
        <ele>64.0650635</ele>
        <time>2011-04-09T22:31:51Z</time>
      </trkpt>
      <trkpt lat="50.41349" lon="2.74287">
        <ele>66.4682617</ele>
        <time>2011-04-09T22:31:56Z</time>
      </trkpt>
      <trkpt lat="50.41359" lon="2.74279">
        <ele>68.871582</ele>
        <time>2011-04-09T22:32:02Z</time>
      </trkpt>
      <trkpt lat="50.41368" lon="2.74268">
        <ele>69.8328857</ele>
        <time>2011-04-09T22:32:10Z</time>
      </trkpt>
      <trkpt lat="50.41375" lon="2.74261">
        <ele>69.8328857</ele>
        <time>2011-04-09T22:32:15Z</time>
      </trkpt>
      <trkpt lat="50.41381" lon="2.74251">
        <ele>70.3134766</ele>
        <time>2011-04-09T22:32:21Z</time>
      </trkpt>
      <trkpt lat="50.4139" lon="2.7424">
        <ele>70.7941895</ele>
        <time>2011-04-09T22:32:29Z</time>
      </trkpt>
      <trkpt lat="50.41395" lon="2.74229">
        <ele>70.3134766</ele>
        <time>2011-04-09T22:32:36Z</time>
      </trkpt>
      <trkpt lat="50.414" lon="2.74221">
        <ele>70.3134766</ele>
        <time>2011-04-09T22:32:41Z</time>
      </trkpt>
      <trkpt lat="50.41407" lon="2.74214">
        <ele>70.3134766</ele>
        <time>2011-04-09T22:32:46Z</time>
      </trkpt>
      <trkpt lat="50.41411" lon="2.74207">
        <ele>70.3134766</ele>
        <time>2011-04-09T22:32:50Z</time>
      </trkpt>
      <trkpt lat="50.41417" lon="2.742">
        <ele>69.8328857</ele>
        <time>2011-04-09T22:32:55Z</time>
      </trkpt>
      <trkpt lat="50.41417" lon="2.74198">
        <ele>69.8328857</ele>
        <time>2011-04-09T22:32:56Z</time>
      </trkpt>
      <trkpt lat="50.41423" lon="2.74191">
        <ele>69.8328857</ele>
        <time>2011-04-09T22:33:01Z</time>
      </trkpt>
      <trkpt lat="50.41427" lon="2.74183">
        <ele>69.8328857</ele>
        <time>2011-04-09T22:33:06Z</time>
      </trkpt>
      <trkpt lat="50.41432" lon="2.74174">
        <ele>69.3522949</ele>
        <time>2011-04-09T22:33:12Z</time>
      </trkpt>
      <trkpt lat="50.41437" lon="2.74168">
        <ele>69.3522949</ele>
        <time>2011-04-09T22:33:16Z</time>
      </trkpt>
      <trkpt lat="50.41444" lon="2.7416">
        <ele>68.871582</ele>
        <time>2011-04-09T22:33:22Z</time>
      </trkpt>
      <trkpt lat="50.41448" lon="2.74149">
        <ele>67.9102783</ele>
        <time>2011-04-09T22:33:28Z</time>
      </trkpt>
      <trkpt lat="50.41452" lon="2.7414">
        <ele>68.871582</ele>
        <time>2011-04-09T22:33:33Z</time>
      </trkpt>
      <trkpt lat="50.41455" lon="2.74128">
        <ele>69.3522949</ele>
        <time>2011-04-09T22:33:39Z</time>
      </trkpt>
      <trkpt lat="50.4146" lon="2.74117">
        <ele>69.8328857</ele>
        <time>2011-04-09T22:33:45Z</time>
      </trkpt>
      <trkpt lat="50.41463" lon="2.74111">
        <ele>69.3522949</ele>
        <time>2011-04-09T22:33:48Z</time>
      </trkpt>
      <trkpt lat="50.41468" lon="2.74096">
        <ele>70.3134766</ele>
        <time>2011-04-09T22:33:56Z</time>
      </trkpt>
      <trkpt lat="50.41469" lon="2.74094">
        <ele>70.3134766</ele>
        <time>2011-04-09T22:33:57Z</time>
      </trkpt>
      <trkpt lat="50.41473" lon="2.74089">
        <ele>69.3522949</ele>
        <time>2011-04-09T22:34:02Z</time>
      </trkpt>
      <trkpt lat="50.41478" lon="2.7408">
        <ele>69.3522949</ele>
        <time>2011-04-09T22:34:07Z</time>
      </trkpt>
      <trkpt lat="50.41482" lon="2.7407">
        <ele>69.3522949</ele>
        <time>2011-04-09T22:34:12Z</time>
      </trkpt>
      <trkpt lat="50.41486" lon="2.7406">
        <ele>69.3522949</ele>
        <time>2011-04-09T22:34:17Z</time>
      </trkpt>
      <trkpt lat="50.41487" lon="2.74058">
        <ele>69.8328857</ele>
        <time>2011-04-09T22:34:18Z</time>
      </trkpt>
      <trkpt lat="50.41492" lon="2.74047">
        <ele>70.7941895</ele>
        <time>2011-04-09T22:34:24Z</time>
      </trkpt>
      <trkpt lat="50.41495" lon="2.74033">
        <ele>71.2749023</ele>
        <time>2011-04-09T22:34:31Z</time>
      </trkpt>
      <trkpt lat="50.415" lon="2.74022">
        <ele>71.7554932</ele>
        <time>2011-04-09T22:34:37Z</time>
      </trkpt>
      <trkpt lat="50.41504" lon="2.74012">
        <ele>72.7169189</ele>
        <time>2011-04-09T22:34:42Z</time>
      </trkpt>
      <trkpt lat="50.41511" lon="2.74001">
        <ele>73.1976318</ele>
        <time>2011-04-09T22:34:49Z</time>
      </trkpt>
      <trkpt lat="50.41518" lon="2.73989">
        <ele>74.1588135</ele>
        <time>2011-04-09T22:34:56Z</time>
      </trkpt>
      <trkpt lat="50.41523" lon="2.73981">
        <ele>74.6395264</ele>
        <time>2011-04-09T22:35:01Z</time>
      </trkpt>
      <trkpt lat="50.41526" lon="2.73975">
        <ele>74.1588135</ele>
        <time>2011-04-09T22:35:04Z</time>
      </trkpt>
      <trkpt lat="50.41533" lon="2.73964">
        <ele>75.1202393</ele>
        <time>2011-04-09T22:35:11Z</time>
      </trkpt>
      <trkpt lat="50.41538" lon="2.73952">
        <ele>76.5621338</ele>
        <time>2011-04-09T22:35:18Z</time>
      </trkpt>
      <trkpt lat="50.4154" lon="2.73946">
        <ele>77.0428467</ele>
        <time>2011-04-09T22:35:21Z</time>
      </trkpt>
      <trkpt lat="50.4154" lon="2.73937">
        <ele>78.0040283</ele>
        <time>2011-04-09T22:35:26Z</time>
      </trkpt>
      <trkpt lat="50.41543" lon="2.73922">
        <ele>78.9654541</ele>
        <time>2011-04-09T22:35:34Z</time>
      </trkpt>
      <trkpt lat="50.41548" lon="2.73912">
        <ele>80.4074707</ele>
        <time>2011-04-09T22:35:40Z</time>
      </trkpt>
      <trkpt lat="50.41551" lon="2.73901">
        <ele>78.4847412</ele>
        <time>2011-04-09T22:35:46Z</time>
      </trkpt>
      <trkpt lat="50.41552" lon="2.73895">
        <ele>78.0040283</ele>
        <time>2011-04-09T22:35:49Z</time>
      </trkpt>
      <trkpt lat="50.41556" lon="2.73884">
        <ele>78.0040283</ele>
        <time>2011-04-09T22:35:55Z</time>
      </trkpt>
      <trkpt lat="50.41556" lon="2.73882">
        <ele>78.0040283</ele>
        <time>2011-04-09T22:35:56Z</time>
      </trkpt>
      <trkpt lat="50.41559" lon="2.73869">
        <ele>78.0040283</ele>
        <time>2011-04-09T22:36:02Z</time>
      </trkpt>
      <trkpt lat="50.41563" lon="2.73863">
        <ele>77.0428467</ele>
        <time>2011-04-09T22:36:06Z</time>
      </trkpt>
      <trkpt lat="50.41566" lon="2.73854">
        <ele>75.6008301</ele>
        <time>2011-04-09T22:36:11Z</time>
      </trkpt>
      <trkpt lat="50.41569" lon="2.73842">
        <ele>74.6395264</ele>
        <time>2011-04-09T22:36:16Z</time>
      </trkpt>
      <trkpt lat="50.41578" lon="2.73826">
        <ele>74.6395264</ele>
        <time>2011-04-09T22:36:25Z</time>
      </trkpt>
      <trkpt lat="50.41582" lon="2.73819">
        <ele>75.1202393</ele>
        <time>2011-04-09T22:36:29Z</time>
      </trkpt>
      <trkpt lat="50.41585" lon="2.73817">
        <ele>75.6008301</ele>
        <time>2011-04-09T22:36:32Z</time>
      </trkpt>
      <trkpt lat="50.41588" lon="2.73811">
        <ele>76.5621338</ele>
        <time>2011-04-09T22:36:36Z</time>
      </trkpt>
      <trkpt lat="50.41593" lon="2.73796">
        <ele>76.5621338</ele>
        <time>2011-04-09T22:36:43Z</time>
      </trkpt>
      <trkpt lat="50.41598" lon="2.73787">
        <ele>76.0814209</ele>
        <time>2011-04-09T22:36:48Z</time>
      </trkpt>
      <trkpt lat="50.41603" lon="2.73775">
        <ele>75.6008301</ele>
        <time>2011-04-09T22:36:54Z</time>
      </trkpt>
      <trkpt lat="50.41608" lon="2.73761">
        <ele>75.1202393</ele>
        <time>2011-04-09T22:37:01Z</time>
      </trkpt>
      <trkpt lat="50.41613" lon="2.73747">
        <ele>75.6008301</ele>
        <time>2011-04-09T22:37:08Z</time>
      </trkpt>
      <trkpt lat="50.41617" lon="2.73734">
        <ele>76.5621338</ele>
        <time>2011-04-09T22:37:15Z</time>
      </trkpt>
      <trkpt lat="50.41623" lon="2.73723">
        <ele>78.0040283</ele>
        <time>2011-04-09T22:37:21Z</time>
      </trkpt>
      <trkpt lat="50.41629" lon="2.73709">
        <ele>78.9654541</ele>
        <time>2011-04-09T22:37:28Z</time>
      </trkpt>
      <trkpt lat="50.41636" lon="2.73699">
        <ele>78.4847412</ele>
        <time>2011-04-09T22:37:34Z</time>
      </trkpt>
      <trkpt lat="50.41639" lon="2.73689">
        <ele>78.4847412</ele>
        <time>2011-04-09T22:37:40Z</time>
      </trkpt>
      <trkpt lat="50.4164" lon="2.73687">
        <ele>78.0040283</ele>
        <time>2011-04-09T22:37:41Z</time>
      </trkpt>
      <trkpt lat="50.41644" lon="2.73683">
        <ele>78.0040283</ele>
        <time>2011-04-09T22:37:44Z</time>
      </trkpt>
      <trkpt lat="50.41648" lon="2.73674">
        <ele>78.0040283</ele>
        <time>2011-04-09T22:37:49Z</time>
      </trkpt>
      <trkpt lat="50.4165" lon="2.73666">
        <ele>78.4847412</ele>
        <time>2011-04-09T22:37:53Z</time>
      </trkpt>
      <trkpt lat="50.41653" lon="2.7366">
        <ele>78.4847412</ele>
        <time>2011-04-09T22:37:56Z</time>
      </trkpt>
      <trkpt lat="50.41657" lon="2.73649">
        <ele>78.0040283</ele>
        <time>2011-04-09T22:38:01Z</time>
      </trkpt>
      <trkpt lat="50.41661" lon="2.73644">
        <ele>78.0040283</ele>
        <time>2011-04-09T22:38:04Z</time>
      </trkpt>
      <trkpt lat="50.41665" lon="2.73635">
        <ele>78.9654541</ele>
        <time>2011-04-09T22:38:09Z</time>
      </trkpt>
      <trkpt lat="50.4167" lon="2.73627">
        <ele>79.9266357</ele>
        <time>2011-04-09T22:38:14Z</time>
      </trkpt>
      <trkpt lat="50.41675" lon="2.7362">
        <ele>79.4460449</ele>
        <time>2011-04-09T22:38:18Z</time>
      </trkpt>
      <trkpt lat="50.41678" lon="2.73617">
        <ele>79.9266357</ele>
        <time>2011-04-09T22:38:20Z</time>
      </trkpt>
      <trkpt lat="50.41687" lon="2.73606">
        <ele>79.9266357</ele>
        <time>2011-04-09T22:38:27Z</time>
      </trkpt>
      <trkpt lat="50.41692" lon="2.73599">
        <ele>79.4460449</ele>
        <time>2011-04-09T22:38:31Z</time>
      </trkpt>
      <trkpt lat="50.41698" lon="2.73592">
        <ele>79.9266357</ele>
        <time>2011-04-09T22:38:36Z</time>
      </trkpt>
      <trkpt lat="50.41702" lon="2.73585">
        <ele>79.9266357</ele>
        <time>2011-04-09T22:38:40Z</time>
      </trkpt>
      <trkpt lat="50.41704" lon="2.73581">
        <ele>79.9266357</ele>
        <time>2011-04-09T22:38:42Z</time>
      </trkpt>
      <trkpt lat="50.41717" lon="2.73571">
        <ele>82.3300781</ele>
        <time>2011-04-09T22:38:49Z</time>
      </trkpt>
      <trkpt lat="50.41726" lon="2.73563">
        <ele>84.7333984</ele>
        <time>2011-04-09T22:38:54Z</time>
      </trkpt>
      <trkpt lat="50.41726" lon="2.73556">
        <ele>80.4074707</ele>
        <time>2011-04-09T22:38:58Z</time>
      </trkpt>
      <trkpt lat="50.41727" lon="2.73545">
        <ele>77.0428467</ele>
        <time>2011-04-09T22:39:03Z</time>
      </trkpt>
      <trkpt lat="50.41732" lon="2.73536">
        <ele>75.1202393</ele>
        <time>2011-04-09T22:39:08Z</time>
      </trkpt>
      <trkpt lat="50.41736" lon="2.73523">
        <ele>73.1976318</ele>
        <time>2011-04-09T22:39:15Z</time>
      </trkpt>
      <trkpt lat="50.41737" lon="2.73522">
        <ele>73.1976318</ele>
        <time>2011-04-09T22:39:16Z</time>
      </trkpt>
      <trkpt lat="50.41743" lon="2.73511">
        <ele>72.7169189</ele>
        <time>2011-04-09T22:39:23Z</time>
      </trkpt>
      <trkpt lat="50.41748" lon="2.73502">
        <ele>71.7554932</ele>
        <time>2011-04-09T22:39:28Z</time>
      </trkpt>
      <trkpt lat="50.41751" lon="2.73492">
        <ele>71.7554932</ele>
        <time>2011-04-09T22:39:33Z</time>
      </trkpt>
      <trkpt lat="50.41756" lon="2.73483">
        <ele>74.1588135</ele>
        <time>2011-04-09T22:39:39Z</time>
      </trkpt>
      <trkpt lat="50.4176" lon="2.73473">
        <ele>75.6008301</ele>
        <time>2011-04-09T22:39:44Z</time>
      </trkpt>
      <trkpt lat="50.41767" lon="2.73468">
        <ele>77.0428467</ele>
        <time>2011-04-09T22:39:49Z</time>
      </trkpt>
      <trkpt lat="50.41772" lon="2.73462">
        <ele>78.0040283</ele>
        <time>2011-04-09T22:39:53Z</time>
      </trkpt>
      <trkpt lat="50.41775" lon="2.73455">
        <ele>77.5234375</ele>
        <time>2011-04-09T22:39:58Z</time>
      </trkpt>
      <trkpt lat="50.41778" lon="2.73444">
        <ele>77.5234375</ele>
        <time>2011-04-09T22:40:03Z</time>
      </trkpt>
      <trkpt lat="50.41782" lon="2.73439">
        <ele>79.4460449</ele>
        <time>2011-04-09T22:40:06Z</time>
      </trkpt>
      <trkpt lat="50.41784" lon="2.73436">
        <ele>80.8881836</ele>
        <time>2011-04-09T22:40:08Z</time>
      </trkpt>
      <trkpt lat="50.41789" lon="2.73424">
        <ele>81.8493652</ele>
        <time>2011-04-09T22:40:13Z</time>
      </trkpt>
      <trkpt lat="50.4179" lon="2.73412">
        <ele>78.4847412</ele>
        <time>2011-04-09T22:40:18Z</time>
      </trkpt>
      <trkpt lat="50.41792" lon="2.73403">
        <ele>78.4847412</ele>
        <time>2011-04-09T22:40:23Z</time>
      </trkpt>
      <trkpt lat="50.41794" lon="2.73395">
        <ele>77.5234375</ele>
        <time>2011-04-09T22:40:27Z</time>
      </trkpt>
      <trkpt lat="50.418" lon="2.73384">
        <ele>77.5234375</ele>
        <time>2011-04-09T22:40:33Z</time>
      </trkpt>
      <trkpt lat="50.41803" lon="2.73374">
        <ele>77.5234375</ele>
        <time>2011-04-09T22:40:38Z</time>
      </trkpt>
      <trkpt lat="50.41809" lon="2.73362">
        <ele>78.0040283</ele>
        <time>2011-04-09T22:40:44Z</time>
      </trkpt>
      <trkpt lat="50.41815" lon="2.7335">
        <ele>78.4847412</ele>
        <time>2011-04-09T22:40:50Z</time>
      </trkpt>
      <trkpt lat="50.4182" lon="2.73339">
        <ele>78.0040283</ele>
        <time>2011-04-09T22:40:56Z</time>
      </trkpt>
      <trkpt lat="50.41821" lon="2.73336">
        <ele>78.0040283</ele>
        <time>2011-04-09T22:40:58Z</time>
      </trkpt>
      <trkpt lat="50.41824" lon="2.73329">
        <ele>78.0040283</ele>
        <time>2011-04-09T22:41:02Z</time>
      </trkpt>
      <trkpt lat="50.4183" lon="2.73319">
        <ele>78.0040283</ele>
        <time>2011-04-09T22:41:08Z</time>
      </trkpt>
      <trkpt lat="50.41833" lon="2.7331">
        <ele>79.4460449</ele>
        <time>2011-04-09T22:41:13Z</time>
      </trkpt>
      <trkpt lat="50.41837" lon="2.733">
        <ele>79.9266357</ele>
        <time>2011-04-09T22:41:18Z</time>
      </trkpt>
      <trkpt lat="50.41844" lon="2.73291">
        <ele>80.4074707</ele>
        <time>2011-04-09T22:41:24Z</time>
      </trkpt>
      <trkpt lat="50.41849" lon="2.73277">
        <ele>78.0040283</ele>
        <time>2011-04-09T22:41:32Z</time>
      </trkpt>
      <trkpt lat="50.41853" lon="2.73262">
        <ele>78.9654541</ele>
        <time>2011-04-09T22:41:39Z</time>
      </trkpt>
      <trkpt lat="50.41855" lon="2.73258">
        <ele>78.9654541</ele>
        <time>2011-04-09T22:41:41Z</time>
      </trkpt>
      <trkpt lat="50.41859" lon="2.73253">
        <ele>78.9654541</ele>
        <time>2011-04-09T22:41:45Z</time>
      </trkpt>
      <trkpt lat="50.41863" lon="2.73249">
        <ele>78.4847412</ele>
        <time>2011-04-09T22:41:48Z</time>
      </trkpt>
      <trkpt lat="50.4187" lon="2.73239">
        <ele>78.0040283</ele>
        <time>2011-04-09T22:41:55Z</time>
      </trkpt>
      <trkpt lat="50.41871" lon="2.73237">
        <ele>78.0040283</ele>
        <time>2011-04-09T22:41:56Z</time>
      </trkpt>
      <trkpt lat="50.41874" lon="2.73229">
        <ele>78.0040283</ele>
        <time>2011-04-09T22:42:00Z</time>
      </trkpt>
      <trkpt lat="50.41878" lon="2.73221">
        <ele>78.4847412</ele>
        <time>2011-04-09T22:42:05Z</time>
      </trkpt>
      <trkpt lat="50.41882" lon="2.73216">
        <ele>78.0040283</ele>
        <time>2011-04-09T22:42:08Z</time>
      </trkpt>
      <trkpt lat="50.41888" lon="2.73208">
        <ele>78.0040283</ele>
        <time>2011-04-09T22:42:13Z</time>
      </trkpt>
      <trkpt lat="50.41895" lon="2.73201">
        <ele>78.9654541</ele>
        <time>2011-04-09T22:42:18Z</time>
      </trkpt>
      <trkpt lat="50.41899" lon="2.73191">
        <ele>79.4460449</ele>
        <time>2011-04-09T22:42:23Z</time>
      </trkpt>
      <trkpt lat="50.41903" lon="2.73178">
        <ele>77.5234375</ele>
        <time>2011-04-09T22:42:29Z</time>
      </trkpt>
      <trkpt lat="50.41908" lon="2.7317">
        <ele>77.0428467</ele>
        <time>2011-04-09T22:42:34Z</time>
      </trkpt>
      <trkpt lat="50.41912" lon="2.73165">
        <ele>77.0428467</ele>
        <time>2011-04-09T22:42:38Z</time>
      </trkpt>
      <trkpt lat="50.41918" lon="2.73155">
        <ele>78.4847412</ele>
        <time>2011-04-09T22:42:43Z</time>
      </trkpt>
      <trkpt lat="50.41926" lon="2.73142">
        <ele>78.9654541</ele>
        <time>2011-04-09T22:42:50Z</time>
      </trkpt>
      <trkpt lat="50.41931" lon="2.73129">
        <ele>78.9654541</ele>
        <time>2011-04-09T22:42:57Z</time>
      </trkpt>
      <trkpt lat="50.41934" lon="2.73123">
        <ele>79.9266357</ele>
        <time>2011-04-09T22:43:01Z</time>
      </trkpt>
      <trkpt lat="50.41942" lon="2.7311">
        <ele>81.8493652</ele>
        <time>2011-04-09T22:43:08Z</time>
      </trkpt>
      <trkpt lat="50.41944" lon="2.73107">
        <ele>82.3300781</ele>
        <time>2011-04-09T22:43:10Z</time>
      </trkpt>
      <trkpt lat="50.41948" lon="2.73099">
        <ele>83.7719727</ele>
        <time>2011-04-09T22:43:14Z</time>
      </trkpt>
      <trkpt lat="50.41952" lon="2.73093">
        <ele>82.810791</ele>
        <time>2011-04-09T22:43:18Z</time>
      </trkpt>
      <trkpt lat="50.41955" lon="2.73088">
        <ele>83.2913818</ele>
        <time>2011-04-09T22:43:21Z</time>
      </trkpt>
      <trkpt lat="50.41969" lon="2.73072">
        <ele>85.2139893</ele>
        <time>2011-04-09T22:43:32Z</time>
      </trkpt>
      <trkpt lat="50.41977" lon="2.73057">
        <ele>82.810791</ele>
        <time>2011-04-09T22:43:42Z</time>
      </trkpt>
      <trkpt lat="50.41985" lon="2.73047">
        <ele>81.3687744</ele>
        <time>2011-04-09T22:43:49Z</time>
      </trkpt>
      <trkpt lat="50.41993" lon="2.73035">
        <ele>80.8881836</ele>
        <time>2011-04-09T22:43:56Z</time>
      </trkpt>
      <trkpt lat="50.42002" lon="2.73022">
        <ele>80.4074707</ele>
        <time>2011-04-09T22:44:04Z</time>
      </trkpt>
      <trkpt lat="50.42007" lon="2.73012">
        <ele>78.9654541</ele>
        <time>2011-04-09T22:44:09Z</time>
      </trkpt>
      <trkpt lat="50.42013" lon="2.73003">
        <ele>78.9654541</ele>
        <time>2011-04-09T22:44:15Z</time>
      </trkpt>
      <trkpt lat="50.42017" lon="2.72995">
        <ele>78.9654541</ele>
        <time>2011-04-09T22:44:20Z</time>
      </trkpt>
      <trkpt lat="50.42024" lon="2.72981">
        <ele>79.9266357</ele>
        <time>2011-04-09T22:44:28Z</time>
      </trkpt>
      <trkpt lat="50.42025" lon="2.7298">
        <ele>79.9266357</ele>
        <time>2011-04-09T22:44:29Z</time>
      </trkpt>
      <trkpt lat="50.42028" lon="2.72977">
        <ele>79.9266357</ele>
        <time>2011-04-09T22:44:31Z</time>
      </trkpt>
      <trkpt lat="50.42035" lon="2.72971">
        <ele>80.4074707</ele>
        <time>2011-04-09T22:44:36Z</time>
      </trkpt>
      <trkpt lat="50.42041" lon="2.72962">
        <ele>81.3687744</ele>
        <time>2011-04-09T22:44:42Z</time>
      </trkpt>
      <trkpt lat="50.42046" lon="2.72957">
        <ele>81.8493652</ele>
        <time>2011-04-09T22:44:45Z</time>
      </trkpt>
      <trkpt lat="50.42049" lon="2.72949">
        <ele>81.3687744</ele>
        <time>2011-04-09T22:44:49Z</time>
      </trkpt>
      <trkpt lat="50.42052" lon="2.72942">
        <ele>81.8493652</ele>
        <time>2011-04-09T22:44:53Z</time>
      </trkpt>
      <trkpt lat="50.4206" lon="2.72932">
        <ele>81.8493652</ele>
        <time>2011-04-09T22:44:59Z</time>
      </trkpt>
      <trkpt lat="50.42061" lon="2.72929">
        <ele>81.3687744</ele>
        <time>2011-04-09T22:45:01Z</time>
      </trkpt>
      <trkpt lat="50.42066" lon="2.72919">
        <ele>80.4074707</ele>
        <time>2011-04-09T22:45:07Z</time>
      </trkpt>
      <trkpt lat="50.4207" lon="2.72911">
        <ele>80.4074707</ele>
        <time>2011-04-09T22:45:11Z</time>
      </trkpt>
      <trkpt lat="50.42074" lon="2.72902">
        <ele>79.4460449</ele>
        <time>2011-04-09T22:45:15Z</time>
      </trkpt>
      <trkpt lat="50.42079" lon="2.72895">
        <ele>79.9266357</ele>
        <time>2011-04-09T22:45:21Z</time>
      </trkpt>
      <trkpt lat="50.4208" lon="2.72894">
        <ele>79.9266357</ele>
        <time>2011-04-09T22:45:22Z</time>
      </trkpt>
      <trkpt lat="50.42085" lon="2.72884">
        <ele>80.4074707</ele>
        <time>2011-04-09T22:45:27Z</time>
      </trkpt>
      <trkpt lat="50.42087" lon="2.72877">
        <ele>81.8493652</ele>
        <time>2011-04-09T22:45:31Z</time>
      </trkpt>
      <trkpt lat="50.4209" lon="2.72874">
        <ele>82.3300781</ele>
        <time>2011-04-09T22:45:33Z</time>
      </trkpt>
      <trkpt lat="50.42093" lon="2.72869">
        <ele>83.2913818</ele>
        <time>2011-04-09T22:45:37Z</time>
      </trkpt>
      <trkpt lat="50.421" lon="2.72858">
        <ele>83.2913818</ele>
        <time>2011-04-09T22:45:43Z</time>
      </trkpt>
      <trkpt lat="50.42106" lon="2.72848">
        <ele>83.7719727</ele>
        <time>2011-04-09T22:45:48Z</time>
      </trkpt>
      <trkpt lat="50.42108" lon="2.72843">
        <ele>83.7719727</ele>
        <time>2011-04-09T22:45:51Z</time>
      </trkpt>
      <trkpt lat="50.4211" lon="2.7284">
        <ele>83.7719727</ele>
        <time>2011-04-09T22:45:53Z</time>
      </trkpt>
      <trkpt lat="50.42115" lon="2.72831">
        <ele>85.2139893</ele>
        <time>2011-04-09T22:45:59Z</time>
      </trkpt>
      <trkpt lat="50.42118" lon="2.72825">
        <ele>85.6945801</ele>
        <time>2011-04-09T22:46:03Z</time>
      </trkpt>
      <trkpt lat="50.42123" lon="2.72817">
        <ele>86.175293</ele>
        <time>2011-04-09T22:46:07Z</time>
      </trkpt>
      <trkpt lat="50.42126" lon="2.72807">
        <ele>86.175293</ele>
        <time>2011-04-09T22:46:12Z</time>
      </trkpt>
      <trkpt lat="50.42128" lon="2.72804">
        <ele>86.175293</ele>
        <time>2011-04-09T22:46:14Z</time>
      </trkpt>
      <trkpt lat="50.42135" lon="2.72793">
        <ele>84.7333984</ele>
        <time>2011-04-09T22:46:20Z</time>
      </trkpt>
      <trkpt lat="50.42137" lon="2.72789">
        <ele>84.7333984</ele>
        <time>2011-04-09T22:46:22Z</time>
      </trkpt>
      <trkpt lat="50.42139" lon="2.72786">
        <ele>85.2139893</ele>
        <time>2011-04-09T22:46:24Z</time>
      </trkpt>
      <trkpt lat="50.42144" lon="2.72784">
        <ele>84.7333984</ele>
        <time>2011-04-09T22:46:28Z</time>
      </trkpt>
      <trkpt lat="50.42147" lon="2.72777">
        <ele>84.7333984</ele>
        <time>2011-04-09T22:46:32Z</time>
      </trkpt>
      <trkpt lat="50.42152" lon="2.72773">
        <ele>84.7333984</ele>
        <time>2011-04-09T22:46:37Z</time>
      </trkpt>
      <trkpt lat="50.4216" lon="2.72766">
        <ele>85.2139893</ele>
        <time>2011-04-09T22:46:42Z</time>
      </trkpt>
      <trkpt lat="50.42165" lon="2.72754">
        <ele>84.2526855</ele>
        <time>2011-04-09T22:46:47Z</time>
      </trkpt>
      <trkpt lat="50.42169" lon="2.7274">
        <ele>82.810791</ele>
        <time>2011-04-09T22:46:53Z</time>
      </trkpt>
      <trkpt lat="50.4217" lon="2.72738">
        <ele>82.3300781</ele>
        <time>2011-04-09T22:46:54Z</time>
      </trkpt>
      <trkpt lat="50.42173" lon="2.72731">
        <ele>81.8493652</ele>
        <time>2011-04-09T22:46:57Z</time>
      </trkpt>
      <trkpt lat="50.42179" lon="2.72714">
        <ele>78.9654541</ele>
        <time>2011-04-09T22:47:05Z</time>
      </trkpt>
      <trkpt lat="50.42186" lon="2.727">
        <ele>77.5234375</ele>
        <time>2011-04-09T22:47:12Z</time>
      </trkpt>
      <trkpt lat="50.42189" lon="2.72694">
        <ele>77.0428467</ele>
        <time>2011-04-09T22:47:15Z</time>
      </trkpt>
      <trkpt lat="50.42193" lon="2.72685">
        <ele>77.5234375</ele>
        <time>2011-04-09T22:47:20Z</time>
      </trkpt>
      <trkpt lat="50.42197" lon="2.72677">
        <ele>77.0428467</ele>
        <time>2011-04-09T22:47:24Z</time>
      </trkpt>
      <trkpt lat="50.42198" lon="2.72673">
        <ele>76.5621338</ele>
        <time>2011-04-09T22:47:26Z</time>
      </trkpt>
      <trkpt lat="50.42203" lon="2.72663">
        <ele>75.6008301</ele>
        <time>2011-04-09T22:47:31Z</time>
      </trkpt>
      <trkpt lat="50.42205" lon="2.72657">
        <ele>76.5621338</ele>
        <time>2011-04-09T22:47:34Z</time>
      </trkpt>
      <trkpt lat="50.4221" lon="2.72646">
        <ele>76.0814209</ele>
        <time>2011-04-09T22:47:39Z</time>
      </trkpt>
      <trkpt lat="50.42214" lon="2.72631">
        <ele>74.1588135</ele>
        <time>2011-04-09T22:47:45Z</time>
      </trkpt>
      <trkpt lat="50.42217" lon="2.72622">
        <ele>72.7169189</ele>
        <time>2011-04-09T22:47:50Z</time>
      </trkpt>
      <trkpt lat="50.42222" lon="2.72615">
        <ele>73.1976318</ele>
        <time>2011-04-09T22:47:54Z</time>
      </trkpt>
      <trkpt lat="50.42223" lon="2.7261">
        <ele>73.1976318</ele>
        <time>2011-04-09T22:47:56Z</time>
      </trkpt>
      <trkpt lat="50.42229" lon="2.72599">
        <ele>72.7169189</ele>
        <time>2011-04-09T22:48:02Z</time>
      </trkpt>
      <trkpt lat="50.42235" lon="2.72593">
        <ele>74.1588135</ele>
        <time>2011-04-09T22:48:07Z</time>
      </trkpt>
      <trkpt lat="50.42237" lon="2.72588">
        <ele>74.6395264</ele>
        <time>2011-04-09T22:48:10Z</time>
      </trkpt>
      <trkpt lat="50.42246" lon="2.72577">
        <ele>77.5234375</ele>
        <time>2011-04-09T22:48:17Z</time>
      </trkpt>
      <trkpt lat="50.42249" lon="2.72571">
        <ele>78.4847412</ele>
        <time>2011-04-09T22:48:20Z</time>
      </trkpt>
      <trkpt lat="50.42252" lon="2.72557">
        <ele>78.0040283</ele>
        <time>2011-04-09T22:48:27Z</time>
      </trkpt>
      <trkpt lat="50.42258" lon="2.72541">
        <ele>78.9654541</ele>
        <time>2011-04-09T22:48:36Z</time>
      </trkpt>
      <trkpt lat="50.42264" lon="2.72529">
        <ele>79.9266357</ele>
        <time>2011-04-09T22:48:43Z</time>
      </trkpt>
      <trkpt lat="50.4227" lon="2.72516">
        <ele>78.9654541</ele>
        <time>2011-04-09T22:48:51Z</time>
      </trkpt>
      <trkpt lat="50.42274" lon="2.72507">
        <ele>78.4847412</ele>
        <time>2011-04-09T22:48:56Z</time>
      </trkpt>
      <trkpt lat="50.42279" lon="2.72496">
        <ele>79.4460449</ele>
        <time>2011-04-09T22:49:03Z</time>
      </trkpt>
      <trkpt lat="50.42289" lon="2.72482">
        <ele>81.8493652</ele>
        <time>2011-04-09T22:49:12Z</time>
      </trkpt>
      <trkpt lat="50.42297" lon="2.72466">
        <ele>80.8881836</ele>
        <time>2011-04-09T22:49:22Z</time>
      </trkpt>
      <trkpt lat="50.42302" lon="2.72455">
        <ele>78.4847412</ele>
        <time>2011-04-09T22:49:30Z</time>
      </trkpt>
      <trkpt lat="50.42313" lon="2.72443">
        <ele>83.2913818</ele>
        <time>2011-04-09T22:49:38Z</time>
      </trkpt>
      <trkpt lat="50.42318" lon="2.72434">
        <ele>83.7719727</ele>
        <time>2011-04-09T22:49:43Z</time>
      </trkpt>
      <trkpt lat="50.42325" lon="2.72427">
        <ele>85.6945801</ele>
        <time>2011-04-09T22:49:49Z</time>
      </trkpt>
      <trkpt lat="50.42334" lon="2.72411">
        <ele>88.0980225</ele>
        <time>2011-04-09T22:49:58Z</time>
      </trkpt>
      <trkpt lat="50.42343" lon="2.72392">
        <ele>90.0206299</ele>
        <time>2011-04-09T22:50:08Z</time>
      </trkpt>
      <trkpt lat="50.42351" lon="2.72382">
        <ele>90.9819336</ele>
        <time>2011-04-09T22:50:15Z</time>
      </trkpt>
      <trkpt lat="50.42355" lon="2.72372">
        <ele>90.5013428</ele>
        <time>2011-04-09T22:50:20Z</time>
      </trkpt>
      <trkpt lat="50.4236" lon="2.7236">
        <ele>90.5013428</ele>
        <time>2011-04-09T22:50:26Z</time>
      </trkpt>
      <trkpt lat="50.42365" lon="2.72351">
        <ele>90.0206299</ele>
        <time>2011-04-09T22:50:31Z</time>
      </trkpt>
      <trkpt lat="50.42372" lon="2.72339">
        <ele>90.0206299</ele>
        <time>2011-04-09T22:50:38Z</time>
      </trkpt>
      <trkpt lat="50.42376" lon="2.72329">
        <ele>89.0593262</ele>
        <time>2011-04-09T22:50:43Z</time>
      </trkpt>
      <trkpt lat="50.42381" lon="2.72321">
        <ele>89.0593262</ele>
        <time>2011-04-09T22:50:48Z</time>
      </trkpt>
      <trkpt lat="50.42387" lon="2.72321">
        <ele>88.5787354</ele>
        <time>2011-04-09T22:50:51Z</time>
      </trkpt>
      <trkpt lat="50.4239" lon="2.72315">
        <ele>88.0980225</ele>
        <time>2011-04-09T22:50:54Z</time>
      </trkpt>
      <trkpt lat="50.42395" lon="2.72304">
        <ele>88.0980225</ele>
        <time>2011-04-09T22:51:00Z</time>
      </trkpt>
      <trkpt lat="50.42396" lon="2.72297">
        <ele>89.0593262</ele>
        <time>2011-04-09T22:51:04Z</time>
      </trkpt>
      <trkpt lat="50.424" lon="2.72287">
        <ele>89.0593262</ele>
        <time>2011-04-09T22:51:09Z</time>
      </trkpt>
      <trkpt lat="50.42404" lon="2.72278">
        <ele>89.0593262</ele>
        <time>2011-04-09T22:51:14Z</time>
      </trkpt>
      <trkpt lat="50.4241" lon="2.72265">
        <ele>89.0593262</ele>
        <time>2011-04-09T22:51:21Z</time>
      </trkpt>
      <trkpt lat="50.42414" lon="2.72252">
        <ele>89.0593262</ele>
        <time>2011-04-09T22:51:27Z</time>
      </trkpt>
      <trkpt lat="50.4242" lon="2.72239">
        <ele>89.539917</ele>
        <time>2011-04-09T22:51:34Z</time>
      </trkpt>
      <trkpt lat="50.42421" lon="2.72234">
        <ele>90.0206299</ele>
        <time>2011-04-09T22:51:36Z</time>
      </trkpt>
      <trkpt lat="50.42424" lon="2.72227">
        <ele>90.5013428</ele>
        <time>2011-04-09T22:51:40Z</time>
      </trkpt>
      <trkpt lat="50.42429" lon="2.72212">
        <ele>90.0206299</ele>
        <time>2011-04-09T22:51:47Z</time>
      </trkpt>
      <trkpt lat="50.42434" lon="2.72197">
        <ele>90.0206299</ele>
        <time>2011-04-09T22:51:54Z</time>
      </trkpt>
      <trkpt lat="50.42438" lon="2.72183">
        <ele>90.9819336</ele>
        <time>2011-04-09T22:52:01Z</time>
      </trkpt>
      <trkpt lat="50.4244" lon="2.72179">
        <ele>90.9819336</ele>
        <time>2011-04-09T22:52:03Z</time>
      </trkpt>
      <trkpt lat="50.42444" lon="2.72164">
        <ele>90.9819336</ele>
        <time>2011-04-09T22:52:10Z</time>
      </trkpt>
      <trkpt lat="50.4245" lon="2.72147">
        <ele>90.9819336</ele>
        <time>2011-04-09T22:52:18Z</time>
      </trkpt>
      <trkpt lat="50.42453" lon="2.72136">
        <ele>92.904541</ele>
        <time>2011-04-09T22:52:24Z</time>
      </trkpt>
      <trkpt lat="50.42457" lon="2.7212">
        <ele>93.8658447</ele>
        <time>2011-04-09T22:52:31Z</time>
      </trkpt>
      <trkpt lat="50.42461" lon="2.72103">
        <ele>95.3077393</ele>
        <time>2011-04-09T22:52:39Z</time>
      </trkpt>
      <trkpt lat="50.42465" lon="2.72092">
        <ele>95.7884521</ele>
        <time>2011-04-09T22:52:44Z</time>
      </trkpt>
      <trkpt lat="50.42467" lon="2.7208">
        <ele>95.7884521</ele>
        <time>2011-04-09T22:52:50Z</time>
      </trkpt>
      <trkpt lat="50.42467" lon="2.72076">
        <ele>94.8271484</ele>
        <time>2011-04-09T22:52:52Z</time>
      </trkpt>
      <trkpt lat="50.42472" lon="2.72062">
        <ele>93.3851318</ele>
        <time>2011-04-09T22:52:59Z</time>
      </trkpt>
      <trkpt lat="50.42478" lon="2.7205">
        <ele>92.4239502</ele>
        <time>2011-04-09T22:53:06Z</time>
      </trkpt>
      <trkpt lat="50.42478" lon="2.72049">
        <ele>91.9432373</ele>
        <time>2011-04-09T22:53:07Z</time>
      </trkpt>
      <trkpt lat="50.42482" lon="2.72038">
        <ele>92.4239502</ele>
        <time>2011-04-09T22:53:13Z</time>
      </trkpt>
      <trkpt lat="50.42488" lon="2.72031">
        <ele>92.904541</ele>
        <time>2011-04-09T22:53:18Z</time>
      </trkpt>
      <trkpt lat="50.42491" lon="2.72024">
        <ele>91.9432373</ele>
        <time>2011-04-09T22:53:22Z</time>
      </trkpt>
      <trkpt lat="50.42493" lon="2.72019">
        <ele>92.4239502</ele>
        <time>2011-04-09T22:53:25Z</time>
      </trkpt>
      <trkpt lat="50.42498" lon="2.72007">
        <ele>94.8271484</ele>
        <time>2011-04-09T22:53:31Z</time>
      </trkpt>
      <trkpt lat="50.42507" lon="2.71987">
        <ele>95.3077393</ele>
        <time>2011-04-09T22:53:40Z</time>
      </trkpt>
      <trkpt lat="50.42514" lon="2.71974">
        <ele>95.3077393</ele>
        <time>2011-04-09T22:53:46Z</time>
      </trkpt>
      <trkpt lat="50.4252" lon="2.71961">
        <ele>94.8271484</ele>
        <time>2011-04-09T22:53:52Z</time>
      </trkpt>
      <trkpt lat="50.42527" lon="2.71946">
        <ele>94.8271484</ele>
        <time>2011-04-09T22:53:59Z</time>
      </trkpt>
      <trkpt lat="50.42532" lon="2.71934">
        <ele>94.3465576</ele>
        <time>2011-04-09T22:54:05Z</time>
      </trkpt>
      <trkpt lat="50.42535" lon="2.71925">
        <ele>95.7884521</ele>
        <time>2011-04-09T22:54:10Z</time>
      </trkpt>
      <trkpt lat="50.42539" lon="2.71916">
        <ele>95.7884521</ele>
        <time>2011-04-09T22:54:14Z</time>
      </trkpt>
      <trkpt lat="50.42543" lon="2.7191">
        <ele>95.7884521</ele>
        <time>2011-04-09T22:54:17Z</time>
      </trkpt>
      <trkpt lat="50.42549" lon="2.71898">
        <ele>95.3077393</ele>
        <time>2011-04-09T22:54:23Z</time>
      </trkpt>
      <trkpt lat="50.42554" lon="2.71884">
        <ele>94.8271484</ele>
        <time>2011-04-09T22:54:29Z</time>
      </trkpt>
      <trkpt lat="50.42559" lon="2.71871">
        <ele>93.3851318</ele>
        <time>2011-04-09T22:54:35Z</time>
      </trkpt>
      <trkpt lat="50.42561" lon="2.71858">
        <ele>90.5013428</ele>
        <time>2011-04-09T22:54:40Z</time>
      </trkpt>
      <trkpt lat="50.42565" lon="2.71851">
        <ele>87.6171875</ele>
        <time>2011-04-09T22:54:44Z</time>
      </trkpt>
      <trkpt lat="50.42571" lon="2.71844">
        <ele>87.6171875</ele>
        <time>2011-04-09T22:54:49Z</time>
      </trkpt>
      <trkpt lat="50.42572" lon="2.71842">
        <ele>87.6171875</ele>
        <time>2011-04-09T22:54:50Z</time>
      </trkpt>
      <trkpt lat="50.42578" lon="2.71831">
        <ele>87.1365967</ele>
        <time>2011-04-09T22:54:56Z</time>
      </trkpt>
      <trkpt lat="50.42579" lon="2.71829">
        <ele>86.6560059</ele>
        <time>2011-04-09T22:54:57Z</time>
      </trkpt>
      <trkpt lat="50.42586" lon="2.71823">
        <ele>85.6945801</ele>
        <time>2011-04-09T22:55:02Z</time>
      </trkpt>
      <trkpt lat="50.42591" lon="2.71818">
        <ele>83.2913818</ele>
        <time>2011-04-09T22:55:06Z</time>
      </trkpt>
      <trkpt lat="50.42595" lon="2.71813">
        <ele>80.4074707</ele>
        <time>2011-04-09T22:55:09Z</time>
      </trkpt>
      <trkpt lat="50.42602" lon="2.7181">
        <ele>78.0040283</ele>
        <time>2011-04-09T22:55:12Z</time>
      </trkpt>
      <trkpt lat="50.42606" lon="2.71802">
        <ele>75.1202393</ele>
        <time>2011-04-09T22:55:16Z</time>
      </trkpt>
      <trkpt lat="50.42609" lon="2.71792">
        <ele>74.6395264</ele>
        <time>2011-04-09T22:55:21Z</time>
      </trkpt>
      <trkpt lat="50.42612" lon="2.71786">
        <ele>74.6395264</ele>
        <time>2011-04-09T22:55:24Z</time>
      </trkpt>
      <trkpt lat="50.42623" lon="2.71774">
        <ele>74.6395264</ele>
        <time>2011-04-09T22:55:31Z</time>
      </trkpt>
      <trkpt lat="50.42628" lon="2.71768">
        <ele>73.1976318</ele>
        <time>2011-04-09T22:55:35Z</time>
      </trkpt>
      <trkpt lat="50.42634" lon="2.71759">
        <ele>73.1976318</ele>
        <time>2011-04-09T22:55:40Z</time>
      </trkpt>
      <trkpt lat="50.42642" lon="2.71754">
        <ele>72.2362061</ele>
        <time>2011-04-09T22:55:45Z</time>
      </trkpt>
      <trkpt lat="50.42649" lon="2.71742">
        <ele>71.2749023</ele>
        <time>2011-04-09T22:55:51Z</time>
      </trkpt>
      <trkpt lat="50.42656" lon="2.71733">
        <ele>71.2749023</ele>
        <time>2011-04-09T22:55:56Z</time>
      </trkpt>
      <trkpt lat="50.42661" lon="2.71727">
        <ele>70.7941895</ele>
        <time>2011-04-09T22:56:00Z</time>
      </trkpt>
      <trkpt lat="50.42666" lon="2.71723">
        <ele>70.3134766</ele>
        <time>2011-04-09T22:56:03Z</time>
      </trkpt>
      <trkpt lat="50.42672" lon="2.71717">
        <ele>70.3134766</ele>
        <time>2011-04-09T22:56:07Z</time>
      </trkpt>
      <trkpt lat="50.42679" lon="2.71706">
        <ele>70.3134766</ele>
        <time>2011-04-09T22:56:13Z</time>
      </trkpt>
      <trkpt lat="50.42681" lon="2.71703">
        <ele>70.3134766</ele>
        <time>2011-04-09T22:56:15Z</time>
      </trkpt>
      <trkpt lat="50.42692" lon="2.71689">
        <ele>70.3134766</ele>
        <time>2011-04-09T22:56:23Z</time>
      </trkpt>
      <trkpt lat="50.42694" lon="2.71686">
        <ele>69.3522949</ele>
        <time>2011-04-09T22:56:25Z</time>
      </trkpt>
      <trkpt lat="50.42701" lon="2.71676">
        <ele>68.871582</ele>
        <time>2011-04-09T22:56:31Z</time>
      </trkpt>
      <trkpt lat="50.42708" lon="2.71668">
        <ele>69.3522949</ele>
        <time>2011-04-09T22:56:36Z</time>
      </trkpt>
      <trkpt lat="50.42711" lon="2.71663">
        <ele>69.3522949</ele>
        <time>2011-04-09T22:56:39Z</time>
      </trkpt>
      <trkpt lat="50.42715" lon="2.71655">
        <ele>69.8328857</ele>
        <time>2011-04-09T22:56:43Z</time>
      </trkpt>
      <trkpt lat="50.42717" lon="2.71651">
        <ele>69.8328857</ele>
        <time>2011-04-09T22:56:45Z</time>
      </trkpt>
      <trkpt lat="50.42722" lon="2.71638">
        <ele>66.9489746</ele>
        <time>2011-04-09T22:56:52Z</time>
      </trkpt>
      <trkpt lat="50.42724" lon="2.71632">
        <ele>65.0263672</ele>
        <time>2011-04-09T22:56:55Z</time>
      </trkpt>
      <trkpt lat="50.42729" lon="2.71619">
        <ele>63.1036377</ele>
        <time>2011-04-09T22:57:01Z</time>
      </trkpt>
      <trkpt lat="50.42733" lon="2.71608">
        <ele>63.1036377</ele>
        <time>2011-04-09T22:57:06Z</time>
      </trkpt>
      <trkpt lat="50.42733" lon="2.71606">
        <ele>63.5843506</ele>
        <time>2011-04-09T22:57:07Z</time>
      </trkpt>
      <trkpt lat="50.4274" lon="2.71594">
        <ele>64.0650635</ele>
        <time>2011-04-09T22:57:13Z</time>
      </trkpt>
      <trkpt lat="50.42742" lon="2.71589">
        <ele>64.0650635</ele>
        <time>2011-04-09T22:57:15Z</time>
      </trkpt>
      <trkpt lat="50.42746" lon="2.71579">
        <ele>66.4682617</ele>
        <time>2011-04-09T22:57:20Z</time>
      </trkpt>
      <trkpt lat="50.42751" lon="2.71562">
        <ele>67.4296875</ele>
        <time>2011-04-09T22:57:27Z</time>
      </trkpt>
      <trkpt lat="50.42755" lon="2.71547">
        <ele>66.9489746</ele>
        <time>2011-04-09T22:57:34Z</time>
      </trkpt>
      <trkpt lat="50.42756" lon="2.71532">
        <ele>63.1036377</ele>
        <time>2011-04-09T22:57:40Z</time>
      </trkpt>
      <trkpt lat="50.42755" lon="2.71514">
        <ele>56.8551025</ele>
        <time>2011-04-09T22:57:47Z</time>
      </trkpt>
      <trkpt lat="50.42756" lon="2.71504">
        <ele>51.5678711</ele>
        <time>2011-04-09T22:57:53Z</time>
      </trkpt>
      <trkpt lat="50.42757" lon="2.71502">
        <ele>51.0871582</ele>
        <time>2011-04-09T22:57:54Z</time>
      </trkpt>
      <trkpt lat="50.42762" lon="2.71492">
        <ele>49.6452637</ele>
        <time>2011-04-09T22:58:00Z</time>
      </trkpt>
      <trkpt lat="50.4277" lon="2.71487">
        <ele>53.0097656</ele>
        <time>2011-04-09T22:58:04Z</time>
      </trkpt>
      <trkpt lat="50.42781" lon="2.71481">
        <ele>58.77771</ele>
        <time>2011-04-09T22:58:09Z</time>
      </trkpt>
      <trkpt lat="50.42792" lon="2.71472">
        <ele>61.6617432</ele>
        <time>2011-04-09T22:58:16Z</time>
      </trkpt>
      <trkpt lat="50.428" lon="2.71467">
        <ele>62.6229248</ele>
        <time>2011-04-09T22:58:22Z</time>
      </trkpt>
      <trkpt lat="50.42804" lon="2.71464">
        <ele>63.1036377</ele>
        <time>2011-04-09T22:58:25Z</time>
      </trkpt>
      <trkpt lat="50.42808" lon="2.71461">
        <ele>65.0263672</ele>
        <time>2011-04-09T22:58:30Z</time>
      </trkpt>
      <trkpt lat="50.42817" lon="2.71451">
        <ele>66.9489746</ele>
        <time>2011-04-09T22:58:37Z</time>
      </trkpt>
      <trkpt lat="50.42819" lon="2.71448">
        <ele>67.9102783</ele>
        <time>2011-04-09T22:58:39Z</time>
      </trkpt>
      <trkpt lat="50.42829" lon="2.71439">
        <ele>68.871582</ele>
        <time>2011-04-09T22:58:47Z</time>
      </trkpt>
      <trkpt lat="50.42838" lon="2.71429">
        <ele>67.9102783</ele>
        <time>2011-04-09T22:58:56Z</time>
      </trkpt>
      <trkpt lat="50.42849" lon="2.71416">
        <ele>67.9102783</ele>
        <time>2011-04-09T22:59:06Z</time>
      </trkpt>
      <trkpt lat="50.42857" lon="2.71408">
        <ele>66.4682617</ele>
        <time>2011-04-09T22:59:13Z</time>
      </trkpt>
      <trkpt lat="50.42864" lon="2.71401">
        <ele>65.5070801</ele>
        <time>2011-04-09T22:59:19Z</time>
      </trkpt>
      <trkpt lat="50.42871" lon="2.71392">
        <ele>67.4296875</ele>
        <time>2011-04-09T22:59:25Z</time>
      </trkpt>
      <trkpt lat="50.4288" lon="2.71383">
        <ele>67.4296875</ele>
        <time>2011-04-09T22:59:32Z</time>
      </trkpt>
      <trkpt lat="50.42893" lon="2.71373">
        <ele>71.7554932</ele>
        <time>2011-04-09T22:59:40Z</time>
      </trkpt>
      <trkpt lat="50.42899" lon="2.71367">
        <ele>71.2749023</ele>
        <time>2011-04-09T22:59:45Z</time>
      </trkpt>
      <trkpt lat="50.429" lon="2.71365">
        <ele>71.2749023</ele>
        <time>2011-04-09T22:59:46Z</time>
      </trkpt>
      <trkpt lat="50.42905" lon="2.71357">
        <ele>71.2749023</ele>
        <time>2011-04-09T22:59:51Z</time>
      </trkpt>
      <trkpt lat="50.42906" lon="2.71351">
        <ele>71.2749023</ele>
        <time>2011-04-09T22:59:55Z</time>
      </trkpt>
      <trkpt lat="50.42902" lon="2.7134">
        <ele>72.7169189</ele>
        <time>2011-04-09T23:00:01Z</time>
      </trkpt>
      <trkpt lat="50.42902" lon="2.71335">
        <ele>73.1976318</ele>
        <time>2011-04-09T23:00:06Z</time>
      </trkpt>
      <trkpt lat="50.42902" lon="2.71333">
        <ele>73.6782227</ele>
        <time>2011-04-09T23:00:12Z</time>
      </trkpt>
      <trkpt lat="50.42894" lon="2.7133">
        <ele>78.0040283</ele>
        <time>2011-04-09T23:00:17Z</time>
      </trkpt>
      <trkpt lat="50.4289" lon="2.71328">
        <ele>78.9654541</ele>
        <time>2011-04-09T23:00:20Z</time>
      </trkpt>
      <trkpt lat="50.42887" lon="2.71302">
        <ele>78.9654541</ele>
        <time>2011-04-09T23:00:25Z</time>
      </trkpt>
      <trkpt lat="50.42879" lon="2.71297">
        <ele>80.4074707</ele>
        <time>2011-04-09T23:00:28Z</time>
      </trkpt>
      <trkpt lat="50.42866" lon="2.71295">
        <ele>77.0428467</ele>
        <time>2011-04-09T23:00:34Z</time>
      </trkpt>
      <trkpt lat="50.42863" lon="2.71293">
        <ele>77.0428467</ele>
        <time>2011-04-09T23:00:36Z</time>
      </trkpt>
      <trkpt lat="50.42854" lon="2.71285">
        <ele>75.1202393</ele>
        <time>2011-04-09T23:00:43Z</time>
      </trkpt>
      <trkpt lat="50.42844" lon="2.7128">
        <ele>73.6782227</ele>
        <time>2011-04-09T23:00:49Z</time>
      </trkpt>
      <trkpt lat="50.42834" lon="2.71271">
        <ele>73.1976318</ele>
        <time>2011-04-09T23:00:56Z</time>
      </trkpt>
      <trkpt lat="50.42826" lon="2.71264">
        <ele>72.7169189</ele>
        <time>2011-04-09T23:01:03Z</time>
      </trkpt>
      <trkpt lat="50.42819" lon="2.71256">
        <ele>73.1976318</ele>
        <time>2011-04-09T23:01:09Z</time>
      </trkpt>
      <trkpt lat="50.42817" lon="2.71255">
        <ele>72.7169189</ele>
        <time>2011-04-09T23:01:10Z</time>
      </trkpt>
      <trkpt lat="50.4281" lon="2.71245">
        <ele>75.1202393</ele>
        <time>2011-04-09T23:01:17Z</time>
      </trkpt>
      <trkpt lat="50.42806" lon="2.71239">
        <ele>79.4460449</ele>
        <time>2011-04-09T23:01:22Z</time>
      </trkpt>
      <trkpt lat="50.42801" lon="2.71234">
        <ele>81.3687744</ele>
        <time>2011-04-09T23:01:27Z</time>
      </trkpt>
      <trkpt lat="50.42797" lon="2.71229">
        <ele>82.3300781</ele>
        <time>2011-04-09T23:01:31Z</time>
      </trkpt>
      <trkpt lat="50.42796" lon="2.71228">
        <ele>82.3300781</ele>
        <time>2011-04-09T23:01:33Z</time>
      </trkpt>
      <trkpt lat="50.42788" lon="2.7122">
        <ele>84.2526855</ele>
        <time>2011-04-09T23:01:40Z</time>
      </trkpt>
      <trkpt lat="50.42778" lon="2.71214">
        <ele>82.810791</ele>
        <time>2011-04-09T23:01:47Z</time>
      </trkpt>
      <trkpt lat="50.42765" lon="2.71208">
        <ele>79.4460449</ele>
        <time>2011-04-09T23:01:55Z</time>
      </trkpt>
      <trkpt lat="50.4276" lon="2.71205">
        <ele>78.4847412</ele>
        <time>2011-04-09T23:01:59Z</time>
      </trkpt>
      <trkpt lat="50.42751" lon="2.71201">
        <ele>77.0428467</ele>
        <time>2011-04-09T23:02:05Z</time>
      </trkpt>
      <trkpt lat="50.4275" lon="2.712">
        <ele>76.5621338</ele>
        <time>2011-04-09T23:02:06Z</time>
      </trkpt>
      <trkpt lat="50.42741" lon="2.71195">
        <ele>75.1202393</ele>
        <time>2011-04-09T23:02:14Z</time>
      </trkpt>
      <trkpt lat="50.42734" lon="2.71191">
        <ele>75.1202393</ele>
        <time>2011-04-09T23:02:19Z</time>
      </trkpt>
      <trkpt lat="50.42726" lon="2.71184">
        <ele>77.5234375</ele>
        <time>2011-04-09T23:02:26Z</time>
      </trkpt>
      <trkpt lat="50.42719" lon="2.71181">
        <ele>77.5234375</ele>
        <time>2011-04-09T23:02:30Z</time>
      </trkpt>
      <trkpt lat="50.42709" lon="2.71176">
        <ele>78.0040283</ele>
        <time>2011-04-09T23:02:37Z</time>
      </trkpt>
      <trkpt lat="50.42698" lon="2.71169">
        <ele>77.0428467</ele>
        <time>2011-04-09T23:02:45Z</time>
      </trkpt>
      <trkpt lat="50.42685" lon="2.71165">
        <ele>69.8328857</ele>
        <time>2011-04-09T23:02:54Z</time>
      </trkpt>
      <trkpt lat="50.42675" lon="2.71162">
        <ele>67.9102783</ele>
        <time>2011-04-09T23:03:02Z</time>
      </trkpt>
      <trkpt lat="50.42673" lon="2.71162">
        <ele>67.4296875</ele>
        <time>2011-04-09T23:03:04Z</time>
      </trkpt>
      <trkpt lat="50.42665" lon="2.71167">
        <ele>66.4682617</ele>
        <time>2011-04-09T23:03:10Z</time>
      </trkpt>
      <trkpt lat="50.42656" lon="2.71167">
        <ele>66.4682617</ele>
        <time>2011-04-09T23:03:17Z</time>
      </trkpt>
      <trkpt lat="50.4265" lon="2.71165">
        <ele>68.3908691</ele>
        <time>2011-04-09T23:03:21Z</time>
      </trkpt>
      <trkpt lat="50.42644" lon="2.71156">
        <ele>68.871582</ele>
        <time>2011-04-09T23:03:27Z</time>
      </trkpt>
      <trkpt lat="50.42641" lon="2.71148">
        <ele>69.3522949</ele>
        <time>2011-04-09T23:03:33Z</time>
      </trkpt>
      <trkpt lat="50.4264" lon="2.71144">
        <ele>69.8328857</ele>
        <time>2011-04-09T23:03:35Z</time>
      </trkpt>
      <trkpt lat="50.42633" lon="2.71129">
        <ele>71.7554932</ele>
        <time>2011-04-09T23:03:42Z</time>
      </trkpt>
      <trkpt lat="50.42626" lon="2.71121">
        <ele>69.3522949</ele>
        <time>2011-04-09T23:03:47Z</time>
      </trkpt>
      <trkpt lat="50.42618" lon="2.71112">
        <ele>66.4682617</ele>
        <time>2011-04-09T23:03:53Z</time>
      </trkpt>
      <trkpt lat="50.42611" lon="2.71104">
        <ele>68.3908691</ele>
        <time>2011-04-09T23:04:00Z</time>
      </trkpt>
      <trkpt lat="50.42606" lon="2.71099">
        <ele>67.9102783</ele>
        <time>2011-04-09T23:04:04Z</time>
      </trkpt>
      <trkpt lat="50.42599" lon="2.7109">
        <ele>70.7941895</ele>
        <time>2011-04-09T23:04:11Z</time>
      </trkpt>
      <trkpt lat="50.42593" lon="2.71083">
        <ele>72.7169189</ele>
        <time>2011-04-09T23:04:16Z</time>
      </trkpt>
      <trkpt lat="50.42582" lon="2.71068">
        <ele>75.1202393</ele>
        <time>2011-04-09T23:04:26Z</time>
      </trkpt>
      <trkpt lat="50.42575" lon="2.7106">
        <ele>76.5621338</ele>
        <time>2011-04-09T23:04:32Z</time>
      </trkpt>
      <trkpt lat="50.42568" lon="2.71052">
        <ele>76.0814209</ele>
        <time>2011-04-09T23:04:38Z</time>
      </trkpt>
      <trkpt lat="50.42561" lon="2.71043">
        <ele>76.5621338</ele>
        <time>2011-04-09T23:04:44Z</time>
      </trkpt>
      <trkpt lat="50.42553" lon="2.71031">
        <ele>77.0428467</ele>
        <time>2011-04-09T23:04:52Z</time>
      </trkpt>
      <trkpt lat="50.42547" lon="2.71023">
        <ele>77.0428467</ele>
        <time>2011-04-09T23:04:58Z</time>
      </trkpt>
      <trkpt lat="50.42541" lon="2.71013">
        <ele>76.5621338</ele>
        <time>2011-04-09T23:05:04Z</time>
      </trkpt>
      <trkpt lat="50.42537" lon="2.71005">
        <ele>76.0814209</ele>
        <time>2011-04-09T23:05:09Z</time>
      </trkpt>
      <trkpt lat="50.42532" lon="2.70994">
        <ele>77.0428467</ele>
        <time>2011-04-09T23:05:15Z</time>
      </trkpt>
      <trkpt lat="50.4253" lon="2.70988">
        <ele>77.5234375</ele>
        <time>2011-04-09T23:05:18Z</time>
      </trkpt>
      <trkpt lat="50.42528" lon="2.70981">
        <ele>78.9654541</ele>
        <time>2011-04-09T23:05:22Z</time>
      </trkpt>
      <trkpt lat="50.42523" lon="2.70969">
        <ele>80.8881836</ele>
        <time>2011-04-09T23:05:28Z</time>
      </trkpt>
      <trkpt lat="50.42517" lon="2.70959">
        <ele>81.8493652</ele>
        <time>2011-04-09T23:05:34Z</time>
      </trkpt>
      <trkpt lat="50.42515" lon="2.70952">
        <ele>81.8493652</ele>
        <time>2011-04-09T23:05:40Z</time>
      </trkpt>
      <trkpt lat="50.42509" lon="2.7094">
        <ele>80.8881836</ele>
        <time>2011-04-09T23:05:47Z</time>
      </trkpt>
      <trkpt lat="50.42505" lon="2.70932">
        <ele>81.8493652</ele>
        <time>2011-04-09T23:05:52Z</time>
      </trkpt>
      <trkpt lat="50.42502" lon="2.70926">
        <ele>82.810791</ele>
        <time>2011-04-09T23:05:55Z</time>
      </trkpt>
      <trkpt lat="50.42495" lon="2.70915">
        <ele>82.3300781</ele>
        <time>2011-04-09T23:06:02Z</time>
      </trkpt>
      <trkpt lat="50.42488" lon="2.70909">
        <ele>80.8881836</ele>
        <time>2011-04-09T23:06:08Z</time>
      </trkpt>
      <trkpt lat="50.4248" lon="2.70898">
        <ele>79.9266357</ele>
        <time>2011-04-09T23:06:16Z</time>
      </trkpt>
      <trkpt lat="50.42473" lon="2.70889">
        <ele>79.9266357</ele>
        <time>2011-04-09T23:06:22Z</time>
      </trkpt>
      <trkpt lat="50.42471" lon="2.70884">
        <ele>80.8881836</ele>
        <time>2011-04-09T23:06:26Z</time>
      </trkpt>
      <trkpt lat="50.42464" lon="2.70874">
        <ele>82.3300781</ele>
        <time>2011-04-09T23:06:33Z</time>
      </trkpt>
      <trkpt lat="50.42463" lon="2.7087">
        <ele>81.8493652</ele>
        <time>2011-04-09T23:06:35Z</time>
      </trkpt>
      <trkpt lat="50.42455" lon="2.70857">
        <ele>81.8493652</ele>
        <time>2011-04-09T23:06:43Z</time>
      </trkpt>
      <trkpt lat="50.42445" lon="2.70851">
        <ele>80.4074707</ele>
        <time>2011-04-09T23:06:48Z</time>
      </trkpt>
      <trkpt lat="50.4244" lon="2.70846">
        <ele>78.4847412</ele>
        <time>2011-04-09T23:06:52Z</time>
      </trkpt>
      <trkpt lat="50.42433" lon="2.70832">
        <ele>80.4074707</ele>
        <time>2011-04-09T23:07:00Z</time>
      </trkpt>
      <trkpt lat="50.42425" lon="2.70819">
        <ele>81.8493652</ele>
        <time>2011-04-09T23:07:08Z</time>
      </trkpt>
      <trkpt lat="50.42416" lon="2.70804">
        <ele>83.7719727</ele>
        <time>2011-04-09T23:07:18Z</time>
      </trkpt>
      <trkpt lat="50.42405" lon="2.7079">
        <ele>84.2526855</ele>
        <time>2011-04-09T23:07:28Z</time>
      </trkpt>
      <trkpt lat="50.42397" lon="2.70772">
        <ele>83.7719727</ele>
        <time>2011-04-09T23:07:38Z</time>
      </trkpt>
      <trkpt lat="50.42389" lon="2.7076">
        <ele>82.810791</ele>
        <time>2011-04-09T23:07:46Z</time>
      </trkpt>
      <trkpt lat="50.4238" lon="2.70746">
        <ele>81.3687744</ele>
        <time>2011-04-09T23:07:55Z</time>
      </trkpt>
      <trkpt lat="50.42369" lon="2.7073">
        <ele>81.3687744</ele>
        <time>2011-04-09T23:08:05Z</time>
      </trkpt>
      <trkpt lat="50.42357" lon="2.70712">
        <ele>81.3687744</ele>
        <time>2011-04-09T23:08:17Z</time>
      </trkpt>
      <trkpt lat="50.42347" lon="2.70699">
        <ele>81.8493652</ele>
        <time>2011-04-09T23:08:26Z</time>
      </trkpt>
      <trkpt lat="50.42335" lon="2.70683">
        <ele>82.3300781</ele>
        <time>2011-04-09T23:08:37Z</time>
      </trkpt>
      <trkpt lat="50.42322" lon="2.70669">
        <ele>82.810791</ele>
        <time>2011-04-09T23:08:48Z</time>
      </trkpt>
      <trkpt lat="50.42309" lon="2.70654">
        <ele>83.7719727</ele>
        <time>2011-04-09T23:08:59Z</time>
      </trkpt>
      <trkpt lat="50.42304" lon="2.70648">
        <ele>84.2526855</ele>
        <time>2011-04-09T23:09:05Z</time>
      </trkpt>
      <trkpt lat="50.42303" lon="2.70646">
        <ele>84.7333984</ele>
        <time>2011-04-09T23:09:09Z</time>
      </trkpt>
      <trkpt lat="50.42235" lon="2.70586">
        <ele>89.539917</ele>
        <time>2011-04-09T23:14:16Z</time>
      </trkpt>
      <trkpt lat="50.42226" lon="2.70577">
        <ele>90.0206299</ele>
        <time>2011-04-09T23:14:23Z</time>
      </trkpt>
      <trkpt lat="50.42224" lon="2.70574">
        <ele>90.0206299</ele>
        <time>2011-04-09T23:14:25Z</time>
      </trkpt>
      <trkpt lat="50.42217" lon="2.70562">
        <ele>89.0593262</ele>
        <time>2011-04-09T23:14:32Z</time>
      </trkpt>
      <trkpt lat="50.42215" lon="2.70545">
        <ele>89.0593262</ele>
        <time>2011-04-09T23:14:38Z</time>
      </trkpt>
      <trkpt lat="50.42214" lon="2.70538">
        <ele>87.6171875</ele>
        <time>2011-04-09T23:14:40Z</time>
      </trkpt>
      <trkpt lat="50.42216" lon="2.70531">
        <ele>84.2526855</ele>
        <time>2011-04-09T23:14:44Z</time>
      </trkpt>
      <trkpt lat="50.42217" lon="2.70522">
        <ele>81.3687744</ele>
        <time>2011-04-09T23:14:48Z</time>
      </trkpt>
      <trkpt lat="50.42217" lon="2.70513">
        <ele>79.4460449</ele>
        <time>2011-04-09T23:14:52Z</time>
      </trkpt>
      <trkpt lat="50.4222" lon="2.70503">
        <ele>78.4847412</ele>
        <time>2011-04-09T23:14:57Z</time>
      </trkpt>
      <trkpt lat="50.42223" lon="2.70497">
        <ele>78.4847412</ele>
        <time>2011-04-09T23:15:02Z</time>
      </trkpt>
      <trkpt lat="50.42224" lon="2.70488">
        <ele>76.0814209</ele>
        <time>2011-04-09T23:15:06Z</time>
      </trkpt>
      <trkpt lat="50.42227" lon="2.7048">
        <ele>75.1202393</ele>
        <time>2011-04-09T23:15:10Z</time>
      </trkpt>
      <trkpt lat="50.42228" lon="2.70468">
        <ele>73.1976318</ele>
        <time>2011-04-09T23:15:15Z</time>
      </trkpt>
      <trkpt lat="50.4223" lon="2.70457">
        <ele>72.2362061</ele>
        <time>2011-04-09T23:15:19Z</time>
      </trkpt>
      <trkpt lat="50.42231" lon="2.70453">
        <ele>71.2749023</ele>
        <time>2011-04-09T23:15:21Z</time>
      </trkpt>
      <trkpt lat="50.42231" lon="2.7045">
        <ele>70.7941895</ele>
        <time>2011-04-09T23:15:23Z</time>
      </trkpt>
      <trkpt lat="50.42231" lon="2.70445">
        <ele>69.3522949</ele>
        <time>2011-04-09T23:15:25Z</time>
      </trkpt>
      <trkpt lat="50.4223" lon="2.70435">
        <ele>67.9102783</ele>
        <time>2011-04-09T23:15:31Z</time>
      </trkpt>
      <trkpt lat="50.42227" lon="2.70431">
        <ele>69.3522949</ele>
        <time>2011-04-09T23:15:34Z</time>
      </trkpt>
      <trkpt lat="50.42221" lon="2.70424">
        <ele>71.7554932</ele>
        <time>2011-04-09T23:15:39Z</time>
      </trkpt>
      <trkpt lat="50.42215" lon="2.70416">
        <ele>74.1588135</ele>
        <time>2011-04-09T23:15:46Z</time>
      </trkpt>
      <trkpt lat="50.42209" lon="2.70409">
        <ele>75.6008301</ele>
        <time>2011-04-09T23:15:52Z</time>
      </trkpt>
      <trkpt lat="50.42207" lon="2.70408">
        <ele>76.0814209</ele>
        <time>2011-04-09T23:15:54Z</time>
      </trkpt>
      <trkpt lat="50.42203" lon="2.70402">
        <ele>79.4460449</ele>
        <time>2011-04-09T23:15:59Z</time>
      </trkpt>
      <trkpt lat="50.42196" lon="2.70393">
        <ele>81.8493652</ele>
        <time>2011-04-09T23:16:05Z</time>
      </trkpt>
      <trkpt lat="50.42189" lon="2.70386">
        <ele>84.7333984</ele>
        <time>2011-04-09T23:16:11Z</time>
      </trkpt>
      <trkpt lat="50.42182" lon="2.70382">
        <ele>87.6171875</ele>
        <time>2011-04-09T23:16:16Z</time>
      </trkpt>
      <trkpt lat="50.42177" lon="2.70377">
        <ele>89.539917</ele>
        <time>2011-04-09T23:16:20Z</time>
      </trkpt>
      <trkpt lat="50.4217" lon="2.70369">
        <ele>90.9819336</ele>
        <time>2011-04-09T23:16:27Z</time>
      </trkpt>
      <trkpt lat="50.42165" lon="2.70364">
        <ele>90.9819336</ele>
        <time>2011-04-09T23:16:31Z</time>
      </trkpt>
      <trkpt lat="50.42162" lon="2.7036">
        <ele>90.9819336</ele>
        <time>2011-04-09T23:16:34Z</time>
      </trkpt>
      <trkpt lat="50.4215" lon="2.7035">
        <ele>91.9432373</ele>
        <time>2011-04-09T23:16:43Z</time>
      </trkpt>
      <trkpt lat="50.42139" lon="2.7034">
        <ele>94.3465576</ele>
        <time>2011-04-09T23:16:51Z</time>
      </trkpt>
      <trkpt lat="50.4213" lon="2.7033">
        <ele>91.4625244</ele>
        <time>2011-04-09T23:16:58Z</time>
      </trkpt>
      <trkpt lat="50.42123" lon="2.70325">
        <ele>90.0206299</ele>
        <time>2011-04-09T23:17:03Z</time>
      </trkpt>
      <trkpt lat="50.42122" lon="2.70324">
        <ele>89.539917</ele>
        <time>2011-04-09T23:17:04Z</time>
      </trkpt>
      <trkpt lat="50.42117" lon="2.70314">
        <ele>88.0980225</ele>
        <time>2011-04-09T23:17:10Z</time>
      </trkpt>
      <trkpt lat="50.42108" lon="2.70309">
        <ele>87.1365967</ele>
        <time>2011-04-09T23:17:16Z</time>
      </trkpt>
      <trkpt lat="50.42102" lon="2.70306">
        <ele>86.175293</ele>
        <time>2011-04-09T23:17:21Z</time>
      </trkpt>
      <trkpt lat="50.42093" lon="2.703">
        <ele>88.0980225</ele>
        <time>2011-04-09T23:17:28Z</time>
      </trkpt>
      <trkpt lat="50.42092" lon="2.70299">
        <ele>88.0980225</ele>
        <time>2011-04-09T23:17:29Z</time>
      </trkpt>
      <trkpt lat="50.42081" lon="2.70289">
        <ele>85.2139893</ele>
        <time>2011-04-09T23:17:36Z</time>
      </trkpt>
      <trkpt lat="50.42078" lon="2.70282">
        <ele>89.0593262</ele>
        <time>2011-04-09T23:17:41Z</time>
      </trkpt>
      <trkpt lat="50.42077" lon="2.7028">
        <ele>90.5013428</ele>
        <time>2011-04-09T23:17:42Z</time>
      </trkpt>
      <trkpt lat="50.42075" lon="2.70275">
        <ele>94.3465576</ele>
        <time>2011-04-09T23:17:45Z</time>
      </trkpt>
      <trkpt lat="50.42071" lon="2.70266">
        <ele>98.6724854</ele>
        <time>2011-04-09T23:17:51Z</time>
      </trkpt>
      <trkpt lat="50.42061" lon="2.70261">
        <ele>98.1918945</ele>
        <time>2011-04-09T23:17:57Z</time>
      </trkpt>
      <trkpt lat="50.42054" lon="2.70258">
        <ele>99.1530762</ele>
        <time>2011-04-09T23:18:02Z</time>
      </trkpt>
      <trkpt lat="50.42042" lon="2.70253">
        <ele>101.0756836</ele>
        <time>2011-04-09T23:18:09Z</time>
      </trkpt>
      <trkpt lat="50.42038" lon="2.70252">
        <ele>100.5950928</ele>
        <time>2011-04-09T23:18:12Z</time>
      </trkpt>
      <trkpt lat="50.42025" lon="2.70244">
        <ele>99.6337891</ele>
        <time>2011-04-09T23:18:20Z</time>
      </trkpt>
      <trkpt lat="50.42021" lon="2.70237">
        <ele>99.1530762</ele>
        <time>2011-04-09T23:18:25Z</time>
      </trkpt>
      <trkpt lat="50.42016" lon="2.70232">
        <ele>99.6337891</ele>
        <time>2011-04-09T23:18:29Z</time>
      </trkpt>
      <trkpt lat="50.4201" lon="2.70224">
        <ele>101.0756836</ele>
        <time>2011-04-09T23:18:34Z</time>
      </trkpt>
      <trkpt lat="50.42003" lon="2.70218">
        <ele>102.0371094</ele>
        <time>2011-04-09T23:18:38Z</time>
      </trkpt>
      <trkpt lat="50.41994" lon="2.7021">
        <ele>100.5950928</ele>
        <time>2011-04-09T23:18:44Z</time>
      </trkpt>
      <trkpt lat="50.41988" lon="2.70203">
        <ele>102.0371094</ele>
        <time>2011-04-09T23:18:49Z</time>
      </trkpt>
      <trkpt lat="50.41979" lon="2.70195">
        <ele>106.3630371</ele>
        <time>2011-04-09T23:18:55Z</time>
      </trkpt>
      <trkpt lat="50.41972" lon="2.70185">
        <ele>110.6888428</ele>
        <time>2011-04-09T23:19:01Z</time>
      </trkpt>
      <trkpt lat="50.41965" lon="2.70178">
        <ele>114.0535889</ele>
        <time>2011-04-09T23:19:06Z</time>
      </trkpt>
      <trkpt lat="50.41964" lon="2.70177">
        <ele>115.0148926</ele>
        <time>2011-04-09T23:19:07Z</time>
      </trkpt>
      <trkpt lat="50.41958" lon="2.70163">
        <ele>116.9375</ele>
        <time>2011-04-09T23:19:14Z</time>
      </trkpt>
      <trkpt lat="50.4195" lon="2.70151">
        <ele>114.0535889</ele>
        <time>2011-04-09T23:19:21Z</time>
      </trkpt>
      <trkpt lat="50.41944" lon="2.70142">
        <ele>112.6115723</ele>
        <time>2011-04-09T23:19:26Z</time>
      </trkpt>
      <trkpt lat="50.41943" lon="2.70141">
        <ele>112.6115723</ele>
        <time>2011-04-09T23:19:27Z</time>
      </trkpt>
      <trkpt lat="50.41939" lon="2.70133">
        <ele>109.7276611</ele>
        <time>2011-04-09T23:19:32Z</time>
      </trkpt>
      <trkpt lat="50.41933" lon="2.70126">
        <ele>107.3243408</ele>
        <time>2011-04-09T23:19:36Z</time>
      </trkpt>
      <trkpt lat="50.41931" lon="2.70122">
        <ele>108.2856445</ele>
        <time>2011-04-09T23:19:38Z</time>
      </trkpt>
      <trkpt lat="50.41927" lon="2.70116">
        <ele>108.7662354</ele>
        <time>2011-04-09T23:19:41Z</time>
      </trkpt>
      <trkpt lat="50.41924" lon="2.70111">
        <ele>108.7662354</ele>
        <time>2011-04-09T23:19:44Z</time>
      </trkpt>
      <trkpt lat="50.41919" lon="2.70097">
        <ele>107.3243408</ele>
        <time>2011-04-09T23:19:51Z</time>
      </trkpt>
      <trkpt lat="50.41918" lon="2.70095">
        <ele>107.8050537</ele>
        <time>2011-04-09T23:19:52Z</time>
      </trkpt>
      <trkpt lat="50.41918" lon="2.70086">
        <ele>107.8050537</ele>
        <time>2011-04-09T23:19:56Z</time>
      </trkpt>
      <trkpt lat="50.41915" lon="2.70076">
        <ele>107.8050537</ele>
        <time>2011-04-09T23:20:01Z</time>
      </trkpt>
      <trkpt lat="50.41911" lon="2.70068">
        <ele>105.8824463</ele>
        <time>2011-04-09T23:20:04Z</time>
      </trkpt>
      <trkpt lat="50.4191" lon="2.70066">
        <ele>104.9210205</ele>
        <time>2011-04-09T23:20:05Z</time>
      </trkpt>
      <trkpt lat="50.41902" lon="2.70052">
        <ele>103.4790039</ele>
        <time>2011-04-09T23:20:13Z</time>
      </trkpt>
      <trkpt lat="50.419" lon="2.70048">
        <ele>103.4790039</ele>
        <time>2011-04-09T23:20:15Z</time>
      </trkpt>
      <trkpt lat="50.41897" lon="2.70041">
        <ele>104.9210205</ele>
        <time>2011-04-09T23:20:19Z</time>
      </trkpt>
      <trkpt lat="50.41892" lon="2.70033">
        <ele>103.4790039</ele>
        <time>2011-04-09T23:20:26Z</time>
      </trkpt>
      <trkpt lat="50.41882" lon="2.70024">
        <ele>103.4790039</ele>
        <time>2011-04-09T23:20:33Z</time>
      </trkpt>
      <trkpt lat="50.41876" lon="2.70016">
        <ele>103.4790039</ele>
        <time>2011-04-09T23:20:37Z</time>
      </trkpt>
      <trkpt lat="50.41869" lon="2.70003">
        <ele>103.4790039</ele>
        <time>2011-04-09T23:20:45Z</time>
      </trkpt>
      <trkpt lat="50.41868" lon="2.70002">
        <ele>103.4790039</ele>
        <time>2011-04-09T23:20:46Z</time>
      </trkpt>
      <trkpt lat="50.41862" lon="2.69996">
        <ele>101.0756836</ele>
        <time>2011-04-09T23:20:51Z</time>
      </trkpt>
      <trkpt lat="50.41861" lon="2.69995">
        <ele>100.5950928</ele>
        <time>2011-04-09T23:20:52Z</time>
      </trkpt>
      <trkpt lat="50.41851" lon="2.69989">
        <ele>100.114502</ele>
        <time>2011-04-09T23:20:58Z</time>
      </trkpt>
      <trkpt lat="50.41846" lon="2.69987">
        <ele>97.7111816</ele>
        <time>2011-04-09T23:21:01Z</time>
      </trkpt>
      <trkpt lat="50.41839" lon="2.69981">
        <ele>94.8271484</ele>
        <time>2011-04-09T23:21:06Z</time>
      </trkpt>
      <trkpt lat="50.41831" lon="2.69976">
        <ele>93.8658447</ele>
        <time>2011-04-09T23:21:12Z</time>
      </trkpt>
      <trkpt lat="50.41824" lon="2.69973">
        <ele>93.8658447</ele>
        <time>2011-04-09T23:21:16Z</time>
      </trkpt>
      <trkpt lat="50.41816" lon="2.69968">
        <ele>92.904541</ele>
        <time>2011-04-09T23:21:22Z</time>
      </trkpt>
      <trkpt lat="50.41814" lon="2.69956">
        <ele>98.6724854</ele>
        <time>2011-04-09T23:21:28Z</time>
      </trkpt>
      <trkpt lat="50.41811" lon="2.6995">
        <ele>101.0756836</ele>
        <time>2011-04-09T23:21:32Z</time>
      </trkpt>
      <trkpt lat="50.41803" lon="2.69942">
        <ele>103.4790039</ele>
        <time>2011-04-09T23:21:39Z</time>
      </trkpt>
      <trkpt lat="50.418" lon="2.6994">
        <ele>103.4790039</ele>
        <time>2011-04-09T23:21:42Z</time>
      </trkpt>
      <trkpt lat="50.41792" lon="2.69935">
        <ele>104.4404297</ele>
        <time>2011-04-09T23:21:48Z</time>
      </trkpt>
      <trkpt lat="50.41788" lon="2.69934">
        <ele>104.9210205</ele>
        <time>2011-04-09T23:21:51Z</time>
      </trkpt>
      <trkpt lat="50.41781" lon="2.69934">
        <ele>104.4404297</ele>
        <time>2011-04-09T23:21:57Z</time>
      </trkpt>
      <trkpt lat="50.41777" lon="2.69934">
        <ele>100.5950928</ele>
        <time>2011-04-09T23:22:03Z</time>
      </trkpt>
      <trkpt lat="50.41767" lon="2.69932">
        <ele>98.6724854</ele>
        <time>2011-04-09T23:22:11Z</time>
      </trkpt>
      <trkpt lat="50.41761" lon="2.69933">
        <ele>98.1918945</ele>
        <time>2011-04-09T23:22:15Z</time>
      </trkpt>
      <trkpt lat="50.41757" lon="2.69935">
        <ele>96.7498779</ele>
        <time>2011-04-09T23:22:18Z</time>
      </trkpt>
      <trkpt lat="50.41749" lon="2.69936">
        <ele>94.8271484</ele>
        <time>2011-04-09T23:22:23Z</time>
      </trkpt>
      <trkpt lat="50.4174" lon="2.69936">
        <ele>91.9432373</ele>
        <time>2011-04-09T23:22:27Z</time>
      </trkpt>
      <trkpt lat="50.41735" lon="2.69936">
        <ele>91.9432373</ele>
        <time>2011-04-09T23:22:30Z</time>
      </trkpt>
      <trkpt lat="50.41728" lon="2.69935">
        <ele>93.3851318</ele>
        <time>2011-04-09T23:22:35Z</time>
      </trkpt>
      <trkpt lat="50.41727" lon="2.69935">
        <ele>94.3465576</ele>
        <time>2011-04-09T23:22:36Z</time>
      </trkpt>
      <trkpt lat="50.41717" lon="2.69936">
        <ele>99.1530762</ele>
        <time>2011-04-09T23:22:42Z</time>
      </trkpt>
      <trkpt lat="50.4171" lon="2.69935">
        <ele>98.6724854</ele>
        <time>2011-04-09T23:22:48Z</time>
      </trkpt>
      <trkpt lat="50.41701" lon="2.69931">
        <ele>99.6337891</ele>
        <time>2011-04-09T23:22:53Z</time>
      </trkpt>
      <trkpt lat="50.41697" lon="2.69927">
        <ele>100.5950928</ele>
        <time>2011-04-09T23:22:57Z</time>
      </trkpt>
      <trkpt lat="50.41696" lon="2.69926">
        <ele>100.5950928</ele>
        <time>2011-04-09T23:22:58Z</time>
      </trkpt>
      <trkpt lat="50.4169" lon="2.6992">
        <ele>99.6337891</ele>
        <time>2011-04-09T23:23:04Z</time>
      </trkpt>
      <trkpt lat="50.41679" lon="2.69913">
        <ele>102.5177002</ele>
        <time>2011-04-09T23:23:12Z</time>
      </trkpt>
      <trkpt lat="50.41669" lon="2.69907">
        <ele>104.4404297</ele>
        <time>2011-04-09T23:23:19Z</time>
      </trkpt>
      <trkpt lat="50.41663" lon="2.69901">
        <ele>105.8824463</ele>
        <time>2011-04-09T23:23:25Z</time>
      </trkpt>
      <trkpt lat="50.41661" lon="2.699">
        <ele>106.8436279</ele>
        <time>2011-04-09T23:23:26Z</time>
      </trkpt>
      <trkpt lat="50.41655" lon="2.69896">
        <ele>107.8050537</ele>
        <time>2011-04-09T23:23:31Z</time>
      </trkpt>
      <trkpt lat="50.41645" lon="2.69888">
        <ele>110.208252</ele>
        <time>2011-04-09T23:23:39Z</time>
      </trkpt>
      <trkpt lat="50.41641" lon="2.69886">
        <ele>111.1695557</ele>
        <time>2011-04-09T23:23:42Z</time>
      </trkpt>
      <trkpt lat="50.41637" lon="2.69881">
        <ele>109.7276611</ele>
        <time>2011-04-09T23:23:46Z</time>
      </trkpt>
      <trkpt lat="50.41634" lon="2.69878">
        <ele>108.7662354</ele>
        <time>2011-04-09T23:23:49Z</time>
      </trkpt>
      <trkpt lat="50.41627" lon="2.69875">
        <ele>106.3630371</ele>
        <time>2011-04-09T23:23:55Z</time>
      </trkpt>
      <trkpt lat="50.41621" lon="2.6987">
        <ele>103.9597168</ele>
        <time>2011-04-09T23:24:00Z</time>
      </trkpt>
      <trkpt lat="50.41616" lon="2.69866">
        <ele>100.5950928</ele>
        <time>2011-04-09T23:24:05Z</time>
      </trkpt>
      <trkpt lat="50.41608" lon="2.69859">
        <ele>99.6337891</ele>
        <time>2011-04-09T23:24:11Z</time>
      </trkpt>
      <trkpt lat="50.41599" lon="2.6985">
        <ele>98.1918945</ele>
        <time>2011-04-09T23:24:18Z</time>
      </trkpt>
      <trkpt lat="50.41597" lon="2.69847">
        <ele>99.1530762</ele>
        <time>2011-04-09T23:24:20Z</time>
      </trkpt>
      <trkpt lat="50.41586" lon="2.69838">
        <ele>101.0756836</ele>
        <time>2011-04-09T23:24:28Z</time>
      </trkpt>
      <trkpt lat="50.41584" lon="2.69836">
        <ele>101.5563965</ele>
        <time>2011-04-09T23:24:30Z</time>
      </trkpt>
      <trkpt lat="50.41581" lon="2.69828">
        <ele>103.9597168</ele>
        <time>2011-04-09T23:24:35Z</time>
      </trkpt>
      <trkpt lat="50.41573" lon="2.69823">
        <ele>105.8824463</ele>
        <time>2011-04-09T23:24:40Z</time>
      </trkpt>
      <trkpt lat="50.4157" lon="2.69818">
        <ele>104.4404297</ele>
        <time>2011-04-09T23:24:43Z</time>
      </trkpt>
      <trkpt lat="50.41567" lon="2.69815">
        <ele>104.4404297</ele>
        <time>2011-04-09T23:24:45Z</time>
      </trkpt>
      <trkpt lat="50.41561" lon="2.69806">
        <ele>105.8824463</ele>
        <time>2011-04-09T23:24:52Z</time>
      </trkpt>
      <trkpt lat="50.41556" lon="2.69803">
        <ele>105.8824463</ele>
        <time>2011-04-09T23:24:56Z</time>
      </trkpt>
      <trkpt lat="50.41552" lon="2.69799">
        <ele>105.4017334</ele>
        <time>2011-04-09T23:25:00Z</time>
      </trkpt>
      <trkpt lat="50.41546" lon="2.69792">
        <ele>103.9597168</ele>
        <time>2011-04-09T23:25:06Z</time>
      </trkpt>
      <trkpt lat="50.41544" lon="2.69789">
        <ele>103.9597168</ele>
        <time>2011-04-09T23:25:08Z</time>
      </trkpt>
      <trkpt lat="50.41539" lon="2.69782">
        <ele>104.9210205</ele>
        <time>2011-04-09T23:25:14Z</time>
      </trkpt>
      <trkpt lat="50.41534" lon="2.69779">
        <ele>104.9210205</ele>
        <time>2011-04-09T23:25:18Z</time>
      </trkpt>
      <trkpt lat="50.41528" lon="2.69772">
        <ele>106.8436279</ele>
        <time>2011-04-09T23:25:24Z</time>
      </trkpt>
      <trkpt lat="50.41524" lon="2.69761">
        <ele>107.3243408</ele>
        <time>2011-04-09T23:25:31Z</time>
      </trkpt>
      <trkpt lat="50.41522" lon="2.69754">
        <ele>107.3243408</ele>
        <time>2011-04-09T23:25:35Z</time>
      </trkpt>
      <trkpt lat="50.4152" lon="2.69747">
        <ele>107.8050537</ele>
        <time>2011-04-09T23:25:39Z</time>
      </trkpt>
      <trkpt lat="50.41518" lon="2.69744">
        <ele>107.8050537</ele>
        <time>2011-04-09T23:25:41Z</time>
      </trkpt>
      <trkpt lat="50.41513" lon="2.69733">
        <ele>108.2856445</ele>
        <time>2011-04-09T23:25:47Z</time>
      </trkpt>
      <trkpt lat="50.41509" lon="2.69717">
        <ele>110.6888428</ele>
        <time>2011-04-09T23:25:54Z</time>
      </trkpt>
      <trkpt lat="50.41507" lon="2.69709">
        <ele>111.1695557</ele>
        <time>2011-04-09T23:25:58Z</time>
      </trkpt>
      <trkpt lat="50.41505" lon="2.69702">
        <ele>111.6502686</ele>
        <time>2011-04-09T23:26:02Z</time>
      </trkpt>
      <trkpt lat="50.41502" lon="2.69696">
        <ele>109.7276611</ele>
        <time>2011-04-09T23:26:07Z</time>
      </trkpt>
      <trkpt lat="50.41501" lon="2.69694">
        <ele>109.7276611</ele>
        <time>2011-04-09T23:26:08Z</time>
      </trkpt>
      <trkpt lat="50.41497" lon="2.69686">
        <ele>109.7276611</ele>
        <time>2011-04-09T23:26:14Z</time>
      </trkpt>
      <trkpt lat="50.41495" lon="2.69676">
        <ele>111.6502686</ele>
        <time>2011-04-09T23:26:20Z</time>
      </trkpt>
      <trkpt lat="50.41494" lon="2.69674">
        <ele>111.6502686</ele>
        <time>2011-04-09T23:26:21Z</time>
      </trkpt>
      <trkpt lat="50.41488" lon="2.69663">
        <ele>113.572998</ele>
        <time>2011-04-09T23:26:29Z</time>
      </trkpt>
      <trkpt lat="50.41486" lon="2.6966">
        <ele>114.5341797</ele>
        <time>2011-04-09T23:26:31Z</time>
      </trkpt>
      <trkpt lat="50.41479" lon="2.69652">
        <ele>115.9761963</ele>
        <time>2011-04-09T23:26:37Z</time>
      </trkpt>
      <trkpt lat="50.41472" lon="2.69637">
        <ele>116.9375</ele>
        <time>2011-04-09T23:26:46Z</time>
      </trkpt>
      <trkpt lat="50.41466" lon="2.69623">
        <ele>117.8988037</ele>
        <time>2011-04-09T23:26:54Z</time>
      </trkpt>
      <trkpt lat="50.41462" lon="2.69612">
        <ele>118.3793945</ele>
        <time>2011-04-09T23:27:01Z</time>
      </trkpt>
      <trkpt lat="50.41458" lon="2.69603">
        <ele>118.3793945</ele>
        <time>2011-04-09T23:27:06Z</time>
      </trkpt>
      <trkpt lat="50.41453" lon="2.69593">
        <ele>118.3793945</ele>
        <time>2011-04-09T23:27:12Z</time>
      </trkpt>
      <trkpt lat="50.41449" lon="2.69583">
        <ele>117.4182129</ele>
        <time>2011-04-09T23:27:18Z</time>
      </trkpt>
      <trkpt lat="50.41445" lon="2.69574">
        <ele>116.4567871</ele>
        <time>2011-04-09T23:27:23Z</time>
      </trkpt>
      <trkpt lat="50.4144" lon="2.69561">
        <ele>116.4567871</ele>
        <time>2011-04-09T23:27:30Z</time>
      </trkpt>
      <trkpt lat="50.41436" lon="2.69552">
        <ele>116.9375</ele>
        <time>2011-04-09T23:27:35Z</time>
      </trkpt>
      <trkpt lat="50.41433" lon="2.69542">
        <ele>117.4182129</ele>
        <time>2011-04-09T23:27:41Z</time>
      </trkpt>
      <trkpt lat="50.41428" lon="2.69534">
        <ele>118.8601074</ele>
        <time>2011-04-09T23:27:45Z</time>
      </trkpt>
      <trkpt lat="50.41424" lon="2.69524">
        <ele>119.8214111</ele>
        <time>2011-04-09T23:27:51Z</time>
      </trkpt>
      <trkpt lat="50.41418" lon="2.69511">
        <ele>122.2247314</ele>
        <time>2011-04-09T23:27:59Z</time>
      </trkpt>
      <trkpt lat="50.41415" lon="2.69502">
        <ele>123.1861572</ele>
        <time>2011-04-09T23:28:04Z</time>
      </trkpt>
      <trkpt lat="50.4141" lon="2.69492">
        <ele>124.6280518</ele>
        <time>2011-04-09T23:28:10Z</time>
      </trkpt>
      <trkpt lat="50.41408" lon="2.69483">
        <ele>127.0313721</ele>
        <time>2011-04-09T23:28:15Z</time>
      </trkpt>
      <trkpt lat="50.41404" lon="2.69474">
        <ele>128.4733887</ele>
        <time>2011-04-09T23:28:20Z</time>
      </trkpt>
      <trkpt lat="50.41401" lon="2.69464">
        <ele>129.4346924</ele>
        <time>2011-04-09T23:28:26Z</time>
      </trkpt>
      <trkpt lat="50.41395" lon="2.69452">
        <ele>129.9152832</ele>
        <time>2011-04-09T23:28:32Z</time>
      </trkpt>
      <trkpt lat="50.41388" lon="2.69439">
        <ele>128.4733887</ele>
        <time>2011-04-09T23:28:39Z</time>
      </trkpt>
      <trkpt lat="50.41381" lon="2.6943">
        <ele>128.4733887</ele>
        <time>2011-04-09T23:28:44Z</time>
      </trkpt>
      <trkpt lat="50.41376" lon="2.69423">
        <ele>128.9541016</ele>
        <time>2011-04-09T23:28:49Z</time>
      </trkpt>
      <trkpt lat="50.41374" lon="2.69419">
        <ele>128.4733887</ele>
        <time>2011-04-09T23:28:52Z</time>
      </trkpt>
      <trkpt lat="50.41369" lon="2.6941">
        <ele>126.0699463</ele>
        <time>2011-04-09T23:28:59Z</time>
      </trkpt>
      <trkpt lat="50.41364" lon="2.69404">
        <ele>124.6280518</ele>
        <time>2011-04-09T23:29:05Z</time>
      </trkpt>
      <trkpt lat="50.41357" lon="2.69398">
        <ele>123.666748</ele>
        <time>2011-04-09T23:29:12Z</time>
      </trkpt>
      <trkpt lat="50.41348" lon="2.69393">
        <ele>125.5893555</ele>
        <time>2011-04-09T23:29:20Z</time>
      </trkpt>
      <trkpt lat="50.41342" lon="2.6939">
        <ele>127.0313721</ele>
        <time>2011-04-09T23:29:25Z</time>
      </trkpt>
      <trkpt lat="50.41333" lon="2.69387">
        <ele>129.4346924</ele>
        <time>2011-04-09T23:29:32Z</time>
      </trkpt>
      <trkpt lat="50.41325" lon="2.69386">
        <ele>130.3959961</ele>
        <time>2011-04-09T23:29:38Z</time>
      </trkpt>
      <trkpt lat="50.41316" lon="2.69375">
        <ele>129.9152832</ele>
        <time>2011-04-09T23:29:47Z</time>
      </trkpt>
      <trkpt lat="50.41315" lon="2.69368">
        <ele>129.4346924</ele>
        <time>2011-04-09T23:29:50Z</time>
      </trkpt>
      <trkpt lat="50.41316" lon="2.6936">
        <ele>129.4346924</ele>
        <time>2011-04-09T23:29:54Z</time>
      </trkpt>
      <trkpt lat="50.41319" lon="2.69354">
        <ele>129.4346924</ele>
        <time>2011-04-09T23:29:58Z</time>
      </trkpt>
      <trkpt lat="50.4132" lon="2.69344">
        <ele>130.3959961</ele>
        <time>2011-04-09T23:30:01Z</time>
      </trkpt>
      <trkpt lat="50.41321" lon="2.69341">
        <ele>128.9541016</ele>
        <time>2011-04-09T23:30:03Z</time>
      </trkpt>
      <trkpt lat="50.41324" lon="2.69333">
        <ele>127.5119629</ele>
        <time>2011-04-09T23:30:07Z</time>
      </trkpt>
      <trkpt lat="50.41325" lon="2.69322">
        <ele>124.6280518</ele>
        <time>2011-04-09T23:30:12Z</time>
      </trkpt>
      <trkpt lat="50.41327" lon="2.69315">
        <ele>122.2247314</ele>
        <time>2011-04-09T23:30:15Z</time>
      </trkpt>
      <trkpt lat="50.41329" lon="2.69307">
        <ele>120.7828369</ele>
        <time>2011-04-09T23:30:18Z</time>
      </trkpt>
      <trkpt lat="50.4133" lon="2.69289">
        <ele>116.4567871</ele>
        <time>2011-04-09T23:30:24Z</time>
      </trkpt>
      <trkpt lat="50.4133" lon="2.69279">
        <ele>115.0148926</ele>
        <time>2011-04-09T23:30:28Z</time>
      </trkpt>
      <trkpt lat="50.41332" lon="2.69268">
        <ele>114.5341797</ele>
        <time>2011-04-09T23:30:34Z</time>
      </trkpt>
      <trkpt lat="50.41334" lon="2.69259">
        <ele>113.572998</ele>
        <time>2011-04-09T23:30:39Z</time>
      </trkpt>
      <trkpt lat="50.41336" lon="2.6925">
        <ele>113.0922852</ele>
        <time>2011-04-09T23:30:44Z</time>
      </trkpt>
      <trkpt lat="50.41339" lon="2.69237">
        <ele>112.6115723</ele>
        <time>2011-04-09T23:30:51Z</time>
      </trkpt>
      <trkpt lat="50.41341" lon="2.69226">
        <ele>113.572998</ele>
        <time>2011-04-09T23:30:57Z</time>
      </trkpt>
      <trkpt lat="50.41344" lon="2.69217">
        <ele>111.6502686</ele>
        <time>2011-04-09T23:31:02Z</time>
      </trkpt>
      <trkpt lat="50.41345" lon="2.69213">
        <ele>111.1695557</ele>
        <time>2011-04-09T23:31:04Z</time>
      </trkpt>
      <trkpt lat="50.41347" lon="2.69196">
        <ele>113.0922852</ele>
        <time>2011-04-09T23:31:12Z</time>
      </trkpt>
      <trkpt lat="50.41348" lon="2.69183">
        <ele>114.0535889</ele>
        <time>2011-04-09T23:31:18Z</time>
      </trkpt>
      <trkpt lat="50.41348" lon="2.69179">
        <ele>115.0148926</ele>
        <time>2011-04-09T23:31:20Z</time>
      </trkpt>
      <trkpt lat="50.41352" lon="2.69156">
        <ele>116.4567871</ele>
        <time>2011-04-09T23:31:30Z</time>
      </trkpt>
      <trkpt lat="50.41355" lon="2.6914">
        <ele>116.9375</ele>
        <time>2011-04-09T23:31:37Z</time>
      </trkpt>
      <trkpt lat="50.41359" lon="2.69119">
        <ele>115.4956055</ele>
        <time>2011-04-09T23:31:47Z</time>
      </trkpt>
      <trkpt lat="50.41363" lon="2.69102">
        <ele>112.1309814</ele>
        <time>2011-04-09T23:31:55Z</time>
      </trkpt>
      <trkpt lat="50.41365" lon="2.69089">
        <ele>109.7276611</ele>
        <time>2011-04-09T23:32:03Z</time>
      </trkpt>
      <trkpt lat="50.41368" lon="2.69074">
        <ele>108.7662354</ele>
        <time>2011-04-09T23:32:10Z</time>
      </trkpt>
      <trkpt lat="50.4137" lon="2.69058">
        <ele>107.8050537</ele>
        <time>2011-04-09T23:32:17Z</time>
      </trkpt>
      <trkpt lat="50.41374" lon="2.69042">
        <ele>105.8824463</ele>
        <time>2011-04-09T23:32:25Z</time>
      </trkpt>
      <trkpt lat="50.41377" lon="2.69027">
        <ele>106.3630371</ele>
        <time>2011-04-09T23:32:32Z</time>
      </trkpt>
      <trkpt lat="50.41378" lon="2.69019">
        <ele>105.4017334</ele>
        <time>2011-04-09T23:32:36Z</time>
      </trkpt>
      <trkpt lat="50.41381" lon="2.69007">
        <ele>106.3630371</ele>
        <time>2011-04-09T23:32:42Z</time>
      </trkpt>
      <trkpt lat="50.41382" lon="2.69003">
        <ele>107.3243408</ele>
        <time>2011-04-09T23:32:44Z</time>
      </trkpt>
      <trkpt lat="50.41383" lon="2.68999">
        <ele>107.8050537</ele>
        <time>2011-04-09T23:32:46Z</time>
      </trkpt>
      <trkpt lat="50.41384" lon="2.68987">
        <ele>108.7662354</ele>
        <time>2011-04-09T23:32:51Z</time>
      </trkpt>
      <trkpt lat="50.41386" lon="2.68978">
        <ele>108.7662354</ele>
        <time>2011-04-09T23:32:56Z</time>
      </trkpt>
      <trkpt lat="50.41389" lon="2.68961">
        <ele>108.7662354</ele>
        <time>2011-04-09T23:33:04Z</time>
      </trkpt>
      <trkpt lat="50.41393" lon="2.68944">
        <ele>109.7276611</ele>
        <time>2011-04-09T23:33:11Z</time>
      </trkpt>
      <trkpt lat="50.41394" lon="2.6894">
        <ele>109.2469482</ele>
        <time>2011-04-09T23:33:13Z</time>
      </trkpt>
      <trkpt lat="50.41397" lon="2.68931">
        <ele>107.3243408</ele>
        <time>2011-04-09T23:33:18Z</time>
      </trkpt>
      <trkpt lat="50.41398" lon="2.68925">
        <ele>107.3243408</ele>
        <time>2011-04-09T23:33:21Z</time>
      </trkpt>
      <trkpt lat="50.41401" lon="2.68907">
        <ele>108.7662354</ele>
        <time>2011-04-09T23:33:29Z</time>
      </trkpt>
      <trkpt lat="50.41403" lon="2.68893">
        <ele>110.6888428</ele>
        <time>2011-04-09T23:33:35Z</time>
      </trkpt>
      <trkpt lat="50.41405" lon="2.68882">
        <ele>111.6502686</ele>
        <time>2011-04-09T23:33:41Z</time>
      </trkpt>
      <trkpt lat="50.41407" lon="2.68869">
        <ele>111.1695557</ele>
        <time>2011-04-09T23:33:47Z</time>
      </trkpt>
      <trkpt lat="50.41411" lon="2.68847">
        <ele>110.6888428</ele>
        <time>2011-04-09T23:33:57Z</time>
      </trkpt>
      <trkpt lat="50.41414" lon="2.68832">
        <ele>111.6502686</ele>
        <time>2011-04-09T23:34:04Z</time>
      </trkpt>
      <trkpt lat="50.41416" lon="2.68817">
        <ele>110.208252</ele>
        <time>2011-04-09T23:34:11Z</time>
      </trkpt>
      <trkpt lat="50.4142" lon="2.68802">
        <ele>107.8050537</ele>
        <time>2011-04-09T23:34:18Z</time>
      </trkpt>
      <trkpt lat="50.41423" lon="2.68782">
        <ele>106.8436279</ele>
        <time>2011-04-09T23:34:27Z</time>
      </trkpt>
      <trkpt lat="50.41424" lon="2.68776">
        <ele>107.3243408</ele>
        <time>2011-04-09T23:34:30Z</time>
      </trkpt>
      <trkpt lat="50.41426" lon="2.6877">
        <ele>105.8824463</ele>
        <time>2011-04-09T23:34:34Z</time>
      </trkpt>
      <trkpt lat="50.41427" lon="2.68756">
        <ele>107.3243408</ele>
        <time>2011-04-09T23:34:40Z</time>
      </trkpt>
      <trkpt lat="50.41428" lon="2.68751">
        <ele>107.8050537</ele>
        <time>2011-04-09T23:34:42Z</time>
      </trkpt>
      <trkpt lat="50.4143" lon="2.68734">
        <ele>106.3630371</ele>
        <time>2011-04-09T23:34:49Z</time>
      </trkpt>
      <trkpt lat="50.41433" lon="2.68721">
        <ele>105.4017334</ele>
        <time>2011-04-09T23:34:55Z</time>
      </trkpt>
      <trkpt lat="50.41437" lon="2.68713">
        <ele>105.4017334</ele>
        <time>2011-04-09T23:35:01Z</time>
      </trkpt>
      <trkpt lat="50.41437" lon="2.6871">
        <ele>105.8824463</ele>
        <time>2011-04-09T23:35:02Z</time>
      </trkpt>
      <trkpt lat="50.41441" lon="2.6869">
        <ele>108.2856445</ele>
        <time>2011-04-09T23:35:11Z</time>
      </trkpt>
      <trkpt lat="50.41445" lon="2.68672">
        <ele>109.7276611</ele>
        <time>2011-04-09T23:35:20Z</time>
      </trkpt>
      <trkpt lat="50.41447" lon="2.68661">
        <ele>110.208252</ele>
        <time>2011-04-09T23:35:26Z</time>
      </trkpt>
      <trkpt lat="50.41451" lon="2.68642">
        <ele>109.7276611</ele>
        <time>2011-04-09T23:35:35Z</time>
      </trkpt>
      <trkpt lat="50.41455" lon="2.68625">
        <ele>110.208252</ele>
        <time>2011-04-09T23:35:42Z</time>
      </trkpt>
      <trkpt lat="50.41458" lon="2.6861">
        <ele>107.8050537</ele>
        <time>2011-04-09T23:35:49Z</time>
      </trkpt>
      <trkpt lat="50.41461" lon="2.68591">
        <ele>106.8436279</ele>
        <time>2011-04-09T23:35:58Z</time>
      </trkpt>
      <trkpt lat="50.41463" lon="2.68582">
        <ele>108.2856445</ele>
        <time>2011-04-09T23:36:02Z</time>
      </trkpt>
      <trkpt lat="50.41467" lon="2.68563">
        <ele>110.6888428</ele>
        <time>2011-04-09T23:36:11Z</time>
      </trkpt>
      <trkpt lat="50.41469" lon="2.68555">
        <ele>113.0922852</ele>
        <time>2011-04-09T23:36:15Z</time>
      </trkpt>
      <trkpt lat="50.41473" lon="2.68542">
        <ele>114.5341797</ele>
        <time>2011-04-09T23:36:21Z</time>
      </trkpt>
      <trkpt lat="50.41475" lon="2.68532">
        <ele>115.0148926</ele>
        <time>2011-04-09T23:36:26Z</time>
      </trkpt>
      <trkpt lat="50.41476" lon="2.68529">
        <ele>115.0148926</ele>
        <time>2011-04-09T23:36:27Z</time>
      </trkpt>
      <trkpt lat="50.41482" lon="2.6852">
        <ele>117.4182129</ele>
        <time>2011-04-09T23:36:33Z</time>
      </trkpt>
      <trkpt lat="50.4149" lon="2.68513">
        <ele>117.4182129</ele>
        <time>2011-04-09T23:36:39Z</time>
      </trkpt>
      <trkpt lat="50.41493" lon="2.68511">
        <ele>118.3793945</ele>
        <time>2011-04-09T23:36:42Z</time>
      </trkpt>
      <trkpt lat="50.41496" lon="2.68508">
        <ele>117.4182129</ele>
        <time>2011-04-09T23:36:45Z</time>
      </trkpt>
      <trkpt lat="50.41503" lon="2.68505">
        <ele>115.4956055</ele>
        <time>2011-04-09T23:36:51Z</time>
      </trkpt>
      <trkpt lat="50.41507" lon="2.68503">
        <ele>115.4956055</ele>
        <time>2011-04-09T23:36:54Z</time>
      </trkpt>
      <trkpt lat="50.41509" lon="2.68501">
        <ele>115.9761963</ele>
        <time>2011-04-09T23:36:56Z</time>
      </trkpt>
      <trkpt lat="50.41515" lon="2.68497">
        <ele>115.9761963</ele>
        <time>2011-04-09T23:37:02Z</time>
      </trkpt>
      <trkpt lat="50.41521" lon="2.68492">
        <ele>116.4567871</ele>
        <time>2011-04-09T23:37:07Z</time>
      </trkpt>
      <trkpt lat="50.41528" lon="2.68489">
        <ele>116.9375</ele>
        <time>2011-04-09T23:37:12Z</time>
      </trkpt>
      <trkpt lat="50.41531" lon="2.68487">
        <ele>116.4567871</ele>
        <time>2011-04-09T23:37:14Z</time>
      </trkpt>
      <trkpt lat="50.41537" lon="2.68483">
        <ele>113.572998</ele>
        <time>2011-04-09T23:37:19Z</time>
      </trkpt>
      <trkpt lat="50.41548" lon="2.68478">
        <ele>112.6115723</ele>
        <time>2011-04-09T23:37:26Z</time>
      </trkpt>
      <trkpt lat="50.41558" lon="2.68475">
        <ele>112.1309814</ele>
        <time>2011-04-09T23:37:32Z</time>
      </trkpt>
      <trkpt lat="50.41566" lon="2.68471">
        <ele>110.6888428</ele>
        <time>2011-04-09T23:37:38Z</time>
      </trkpt>
      <trkpt lat="50.41568" lon="2.6847">
        <ele>110.208252</ele>
        <time>2011-04-09T23:37:39Z</time>
      </trkpt>
      <trkpt lat="50.41576" lon="2.6847">
        <ele>108.7662354</ele>
        <time>2011-04-09T23:37:44Z</time>
      </trkpt>
      <trkpt lat="50.41584" lon="2.68472">
        <ele>108.7662354</ele>
        <time>2011-04-09T23:37:49Z</time>
      </trkpt>
      <trkpt lat="50.41594" lon="2.68467">
        <ele>107.8050537</ele>
        <time>2011-04-09T23:37:56Z</time>
      </trkpt>
      <trkpt lat="50.416" lon="2.68466">
        <ele>108.7662354</ele>
        <time>2011-04-09T23:38:00Z</time>
      </trkpt>
      <trkpt lat="50.41606" lon="2.68464">
        <ele>109.7276611</ele>
        <time>2011-04-09T23:38:04Z</time>
      </trkpt>
      <trkpt lat="50.41612" lon="2.68462">
        <ele>111.1695557</ele>
        <time>2011-04-09T23:38:08Z</time>
      </trkpt>
      <trkpt lat="50.41619" lon="2.68461">
        <ele>111.1695557</ele>
        <time>2011-04-09T23:38:13Z</time>
      </trkpt>
      <trkpt lat="50.41626" lon="2.6846">
        <ele>111.1695557</ele>
        <time>2011-04-09T23:38:18Z</time>
      </trkpt>
      <trkpt lat="50.41628" lon="2.68459">
        <ele>111.1695557</ele>
        <time>2011-04-09T23:38:19Z</time>
      </trkpt>
      <trkpt lat="50.41631" lon="2.68458">
        <ele>111.1695557</ele>
        <time>2011-04-09T23:38:21Z</time>
      </trkpt>
      <trkpt lat="50.4164" lon="2.68456">
        <ele>111.1695557</ele>
        <time>2011-04-09T23:38:26Z</time>
      </trkpt>
      <trkpt lat="50.41642" lon="2.68456">
        <ele>110.6888428</ele>
        <time>2011-04-09T23:38:27Z</time>
      </trkpt>
      <trkpt lat="50.41649" lon="2.68453">
        <ele>110.6888428</ele>
        <time>2011-04-09T23:38:32Z</time>
      </trkpt>
      <trkpt lat="50.41659" lon="2.6845">
        <ele>108.7662354</ele>
        <time>2011-04-09T23:38:38Z</time>
      </trkpt>
      <trkpt lat="50.4167" lon="2.68445">
        <ele>106.8436279</ele>
        <time>2011-04-09T23:38:45Z</time>
      </trkpt>
      <trkpt lat="50.41679" lon="2.68441">
        <ele>105.4017334</ele>
        <time>2011-04-09T23:38:52Z</time>
      </trkpt>
      <trkpt lat="50.41689" lon="2.68438">
        <ele>103.9597168</ele>
        <time>2011-04-09T23:38:58Z</time>
      </trkpt>
      <trkpt lat="50.4169" lon="2.68438">
        <ele>103.9597168</ele>
        <time>2011-04-09T23:38:59Z</time>
      </trkpt>
      <trkpt lat="50.41694" lon="2.68434">
        <ele>103.4790039</ele>
        <time>2011-04-09T23:39:03Z</time>
      </trkpt>
      <trkpt lat="50.41699" lon="2.68428">
        <ele>103.9597168</ele>
        <time>2011-04-09T23:39:08Z</time>
      </trkpt>
      <trkpt lat="50.417" lon="2.68425">
        <ele>104.4404297</ele>
        <time>2011-04-09T23:39:09Z</time>
      </trkpt>
      <trkpt lat="50.41699" lon="2.68415">
        <ele>108.2856445</ele>
        <time>2011-04-09T23:39:14Z</time>
      </trkpt>
      <trkpt lat="50.41698" lon="2.68411">
        <ele>110.6888428</ele>
        <time>2011-04-09T23:39:16Z</time>
      </trkpt>
      <trkpt lat="50.41694" lon="2.68396">
        <ele>117.8988037</ele>
        <time>2011-04-09T23:39:23Z</time>
      </trkpt>
      <trkpt lat="50.41691" lon="2.68383">
        <ele>121.2635498</ele>
        <time>2011-04-09T23:39:29Z</time>
      </trkpt>
      <trkpt lat="50.41688" lon="2.68371">
        <ele>123.1861572</ele>
        <time>2011-04-09T23:39:34Z</time>
      </trkpt>
      <trkpt lat="50.41685" lon="2.68347">
        <ele>125.5893555</ele>
        <time>2011-04-09T23:39:44Z</time>
      </trkpt>
      <trkpt lat="50.41686" lon="2.68339">
        <ele>125.5893555</ele>
        <time>2011-04-09T23:39:48Z</time>
      </trkpt>
      <trkpt lat="50.41687" lon="2.68337">
        <ele>125.5893555</ele>
        <time>2011-04-09T23:39:49Z</time>
      </trkpt>
      <trkpt lat="50.41694" lon="2.68329">
        <ele>123.666748</ele>
        <time>2011-04-09T23:39:55Z</time>
      </trkpt>
      <trkpt lat="50.41695" lon="2.68327">
        <ele>123.1861572</ele>
        <time>2011-04-09T23:39:56Z</time>
      </trkpt>
      <trkpt lat="50.41703" lon="2.68324">
        <ele>120.7828369</ele>
        <time>2011-04-09T23:40:00Z</time>
      </trkpt>
      <trkpt lat="50.41708" lon="2.68325">
        <ele>118.3793945</ele>
        <time>2011-04-09T23:40:03Z</time>
      </trkpt>
      <trkpt lat="50.41711" lon="2.68317">
        <ele>117.8988037</ele>
        <time>2011-04-09T23:40:07Z</time>
      </trkpt>
      <trkpt lat="50.41713" lon="2.68313">
        <ele>116.9375</ele>
        <time>2011-04-09T23:40:09Z</time>
      </trkpt>
      <trkpt lat="50.41721" lon="2.68306">
        <ele>116.4567871</ele>
        <time>2011-04-09T23:40:15Z</time>
      </trkpt>
      <trkpt lat="50.41728" lon="2.68301">
        <ele>114.5341797</ele>
        <time>2011-04-09T23:40:20Z</time>
      </trkpt>
      <trkpt lat="50.41736" lon="2.68292">
        <ele>112.6115723</ele>
        <time>2011-04-09T23:40:27Z</time>
      </trkpt>
      <trkpt lat="50.41738" lon="2.68289">
        <ele>112.1309814</ele>
        <time>2011-04-09T23:40:29Z</time>
      </trkpt>
      <trkpt lat="50.41746" lon="2.68282">
        <ele>111.1695557</ele>
        <time>2011-04-09T23:40:35Z</time>
      </trkpt>
      <trkpt lat="50.41752" lon="2.68278">
        <ele>109.7276611</ele>
        <time>2011-04-09T23:40:39Z</time>
      </trkpt>
      <trkpt lat="50.41756" lon="2.68274">
        <ele>108.2856445</ele>
        <time>2011-04-09T23:40:43Z</time>
      </trkpt>
      <trkpt lat="50.41758" lon="2.68271">
        <ele>108.2856445</ele>
        <time>2011-04-09T23:40:45Z</time>
      </trkpt>
      <trkpt lat="50.41761" lon="2.68263">
        <ele>107.8050537</ele>
        <time>2011-04-09T23:40:49Z</time>
      </trkpt>
      <trkpt lat="50.41768" lon="2.68257">
        <ele>109.7276611</ele>
        <time>2011-04-09T23:40:54Z</time>
      </trkpt>
      <trkpt lat="50.41767" lon="2.68246">
        <ele>110.6888428</ele>
        <time>2011-04-09T23:40:57Z</time>
      </trkpt>
      <trkpt lat="50.41772" lon="2.6824">
        <ele>112.1309814</ele>
        <time>2011-04-09T23:41:01Z</time>
      </trkpt>
      <trkpt lat="50.41773" lon="2.68239">
        <ele>112.1309814</ele>
        <time>2011-04-09T23:41:02Z</time>
      </trkpt>
      <trkpt lat="50.41779" lon="2.68234">
        <ele>113.572998</ele>
        <time>2011-04-09T23:41:07Z</time>
      </trkpt>
      <trkpt lat="50.41783" lon="2.68227">
        <ele>114.5341797</ele>
        <time>2011-04-09T23:41:12Z</time>
      </trkpt>
      <trkpt lat="50.41787" lon="2.68219">
        <ele>114.5341797</ele>
        <time>2011-04-09T23:41:17Z</time>
      </trkpt>
      <trkpt lat="50.41792" lon="2.68213">
        <ele>115.4956055</ele>
        <time>2011-04-09T23:41:21Z</time>
      </trkpt>
      <trkpt lat="50.41792" lon="2.68208">
        <ele>115.4956055</ele>
        <time>2011-04-09T23:41:25Z</time>
      </trkpt>
      <trkpt lat="50.41789" lon="2.68199">
        <ele>116.4567871</ele>
        <time>2011-04-09T23:41:31Z</time>
      </trkpt>
      <trkpt lat="50.41789" lon="2.68197">
        <ele>116.4567871</ele>
        <time>2011-04-09T23:41:32Z</time>
      </trkpt>
      <trkpt lat="50.41783" lon="2.68189">
        <ele>117.4182129</ele>
        <time>2011-04-09T23:41:37Z</time>
      </trkpt>
      <trkpt lat="50.41778" lon="2.68181">
        <ele>117.8988037</ele>
        <time>2011-04-09T23:41:41Z</time>
      </trkpt>
      <trkpt lat="50.41771" lon="2.68173">
        <ele>115.9761963</ele>
        <time>2011-04-09T23:41:46Z</time>
      </trkpt>
      <trkpt lat="50.41766" lon="2.68165">
        <ele>114.0535889</ele>
        <time>2011-04-09T23:41:51Z</time>
      </trkpt>
      <trkpt lat="50.41759" lon="2.68156">
        <ele>114.0535889</ele>
        <time>2011-04-09T23:41:56Z</time>
      </trkpt>
      <trkpt lat="50.41753" lon="2.68146">
        <ele>113.572998</ele>
        <time>2011-04-09T23:42:02Z</time>
      </trkpt>
      <trkpt lat="50.41745" lon="2.68141">
        <ele>113.0922852</ele>
        <time>2011-04-09T23:42:06Z</time>
      </trkpt>
      <trkpt lat="50.4174" lon="2.68133">
        <ele>112.6115723</ele>
        <time>2011-04-09T23:42:10Z</time>
      </trkpt>
      <trkpt lat="50.41737" lon="2.68125">
        <ele>113.572998</ele>
        <time>2011-04-09T23:42:14Z</time>
      </trkpt>
      <trkpt lat="50.41734" lon="2.68117">
        <ele>116.4567871</ele>
        <time>2011-04-09T23:42:19Z</time>
      </trkpt>
      <trkpt lat="50.41728" lon="2.68107">
        <ele>118.3793945</ele>
        <time>2011-04-09T23:42:25Z</time>
      </trkpt>
      <trkpt lat="50.41725" lon="2.68105">
        <ele>119.8214111</ele>
        <time>2011-04-09T23:42:27Z</time>
      </trkpt>
      <trkpt lat="50.41717" lon="2.68093">
        <ele>123.666748</ele>
        <time>2011-04-09T23:42:35Z</time>
      </trkpt>
      <trkpt lat="50.41709" lon="2.6808">
        <ele>123.1861572</ele>
        <time>2011-04-09T23:42:42Z</time>
      </trkpt>
      <trkpt lat="50.41703" lon="2.68071">
        <ele>121.7441406</ele>
        <time>2011-04-09T23:42:47Z</time>
      </trkpt>
      <trkpt lat="50.41698" lon="2.68063">
        <ele>121.2635498</ele>
        <time>2011-04-09T23:42:52Z</time>
      </trkpt>
      <trkpt lat="50.41692" lon="2.68052">
        <ele>119.8214111</ele>
        <time>2011-04-09T23:42:59Z</time>
      </trkpt>
      <trkpt lat="50.41687" lon="2.68044">
        <ele>120.302124</ele>
        <time>2011-04-09T23:43:04Z</time>
      </trkpt>
      <trkpt lat="50.41682" lon="2.68035">
        <ele>119.8214111</ele>
        <time>2011-04-09T23:43:10Z</time>
      </trkpt>
      <trkpt lat="50.41675" lon="2.68024">
        <ele>121.2635498</ele>
        <time>2011-04-09T23:43:18Z</time>
      </trkpt>
      <trkpt lat="50.4167" lon="2.68016">
        <ele>122.7054443</ele>
        <time>2011-04-09T23:43:23Z</time>
      </trkpt>
      <trkpt lat="50.41664" lon="2.68004">
        <ele>123.1861572</ele>
        <time>2011-04-09T23:43:31Z</time>
      </trkpt>
      <trkpt lat="50.41659" lon="2.67996">
        <ele>122.2247314</ele>
        <time>2011-04-09T23:43:36Z</time>
      </trkpt>
      <trkpt lat="50.41654" lon="2.67986">
        <ele>122.2247314</ele>
        <time>2011-04-09T23:43:43Z</time>
      </trkpt>
      <trkpt lat="50.41653" lon="2.67985">
        <ele>122.2247314</ele>
        <time>2011-04-09T23:43:44Z</time>
      </trkpt>
      <trkpt lat="50.41648" lon="2.67975">
        <ele>122.7054443</ele>
        <time>2011-04-09T23:43:50Z</time>
      </trkpt>
      <trkpt lat="50.41647" lon="2.67973">
        <ele>122.2247314</ele>
        <time>2011-04-09T23:43:51Z</time>
      </trkpt>
      <trkpt lat="50.41642" lon="2.67962">
        <ele>122.7054443</ele>
        <time>2011-04-09T23:43:58Z</time>
      </trkpt>
      <trkpt lat="50.41636" lon="2.67948">
        <ele>122.2247314</ele>
        <time>2011-04-09T23:44:07Z</time>
      </trkpt>
      <trkpt lat="50.4163" lon="2.67938">
        <ele>121.2635498</ele>
        <time>2011-04-09T23:44:13Z</time>
      </trkpt>
      <trkpt lat="50.41626" lon="2.6793">
        <ele>121.2635498</ele>
        <time>2011-04-09T23:44:18Z</time>
      </trkpt>
      <trkpt lat="50.4162" lon="2.6792">
        <ele>123.1861572</ele>
        <time>2011-04-09T23:44:25Z</time>
      </trkpt>
      <trkpt lat="50.41615" lon="2.67913">
        <ele>126.0699463</ele>
        <time>2011-04-09T23:44:31Z</time>
      </trkpt>
      <trkpt lat="50.41611" lon="2.67904">
        <ele>127.5119629</ele>
        <time>2011-04-09T23:44:37Z</time>
      </trkpt>
      <trkpt lat="50.41606" lon="2.67895">
        <ele>128.4733887</ele>
        <time>2011-04-09T23:44:43Z</time>
      </trkpt>
      <trkpt lat="50.41601" lon="2.67884">
        <ele>130.876709</ele>
        <time>2011-04-09T23:44:50Z</time>
      </trkpt>
      <trkpt lat="50.41597" lon="2.67875">
        <ele>132.3186035</ele>
        <time>2011-04-09T23:44:55Z</time>
      </trkpt>
      <trkpt lat="50.41596" lon="2.67873">
        <ele>132.7993164</ele>
        <time>2011-04-09T23:44:57Z</time>
      </trkpt>
      <trkpt lat="50.41595" lon="2.67869">
        <ele>133.2799072</ele>
        <time>2011-04-09T23:45:01Z</time>
      </trkpt>
      <trkpt lat="50.41597" lon="2.67858">
        <ele>130.876709</ele>
        <time>2011-04-09T23:45:06Z</time>
      </trkpt>
      <trkpt lat="50.416" lon="2.67855">
        <ele>132.3186035</ele>
        <time>2011-04-09T23:45:09Z</time>
      </trkpt>
      <trkpt lat="50.41607" lon="2.67848">
        <ele>135.6831055</ele>
        <time>2011-04-09T23:45:15Z</time>
      </trkpt>
      <trkpt lat="50.41611" lon="2.67843">
        <ele>139.0478516</ele>
        <time>2011-04-09T23:45:20Z</time>
      </trkpt>
      <trkpt lat="50.41612" lon="2.67841">
        <ele>139.0478516</ele>
        <time>2011-04-09T23:45:22Z</time>
      </trkpt>
      <trkpt lat="50.41618" lon="2.67832">
        <ele>138.0865479</ele>
        <time>2011-04-09T23:45:27Z</time>
      </trkpt>
      <trkpt lat="50.41621" lon="2.67827">
        <ele>138.0865479</ele>
        <time>2011-04-09T23:45:31Z</time>
      </trkpt>
      <trkpt lat="50.41625" lon="2.67822">
        <ele>138.5672607</ele>
        <time>2011-04-09T23:45:36Z</time>
      </trkpt>
      <trkpt lat="50.41632" lon="2.67812">
        <ele>143.3736572</ele>
        <time>2011-04-09T23:45:42Z</time>
      </trkpt>
      <trkpt lat="50.4164" lon="2.67802">
        <ele>141.4510498</ele>
        <time>2011-04-09T23:45:49Z</time>
      </trkpt>
      <trkpt lat="50.41643" lon="2.67797">
        <ele>141.4510498</ele>
        <time>2011-04-09T23:45:52Z</time>
      </trkpt>
      <trkpt lat="50.41648" lon="2.67787">
        <ele>137.1252441</ele>
        <time>2011-04-09T23:45:57Z</time>
      </trkpt>
      <trkpt lat="50.4165" lon="2.67783">
        <ele>136.1639404</ele>
        <time>2011-04-09T23:45:59Z</time>
      </trkpt>
      <trkpt lat="50.41656" lon="2.67772">
        <ele>137.605835</ele>
        <time>2011-04-09T23:46:05Z</time>
      </trkpt>
      <trkpt lat="50.41661" lon="2.67765">
        <ele>137.605835</ele>
        <time>2011-04-09T23:46:10Z</time>
      </trkpt>
      <trkpt lat="50.41666" lon="2.67759">
        <ele>138.0865479</ele>
        <time>2011-04-09T23:46:15Z</time>
      </trkpt>
      <trkpt lat="50.41671" lon="2.67752">
        <ele>137.605835</ele>
        <time>2011-04-09T23:46:20Z</time>
      </trkpt>
      <trkpt lat="50.41674" lon="2.67744">
        <ele>134.2412109</ele>
        <time>2011-04-09T23:46:24Z</time>
      </trkpt>
      <trkpt lat="50.41683" lon="2.6773">
        <ele>136.6446533</ele>
        <time>2011-04-09T23:46:32Z</time>
      </trkpt>
      <trkpt lat="50.41686" lon="2.67724">
        <ele>139.5284424</ele>
        <time>2011-04-09T23:46:36Z</time>
      </trkpt>
      <trkpt lat="50.41692" lon="2.67715">
        <ele>137.605835</ele>
        <time>2011-04-09T23:46:42Z</time>
      </trkpt>
      <trkpt lat="50.41693" lon="2.67713">
        <ele>137.1252441</ele>
        <time>2011-04-09T23:46:43Z</time>
      </trkpt>
      <trkpt lat="50.41694" lon="2.6771">
        <ele>136.1639404</ele>
        <time>2011-04-09T23:46:45Z</time>
      </trkpt>
      <trkpt lat="50.417" lon="2.67698">
        <ele>135.2025146</ele>
        <time>2011-04-09T23:46:53Z</time>
      </trkpt>
      <trkpt lat="50.417" lon="2.67697">
        <ele>135.2025146</ele>
        <time>2011-04-09T23:46:54Z</time>
      </trkpt>
      <trkpt lat="50.41705" lon="2.67689">
        <ele>134.7219238</ele>
        <time>2011-04-09T23:46:59Z</time>
      </trkpt>
      <trkpt lat="50.4171" lon="2.6768">
        <ele>137.605835</ele>
        <time>2011-04-09T23:47:04Z</time>
      </trkpt>
      <trkpt lat="50.41717" lon="2.67668">
        <ele>137.1252441</ele>
        <time>2011-04-09T23:47:11Z</time>
      </trkpt>
      <trkpt lat="50.41719" lon="2.67665">
        <ele>137.1252441</ele>
        <time>2011-04-09T23:47:13Z</time>
      </trkpt>
      <trkpt lat="50.41724" lon="2.67652">
        <ele>138.0865479</ele>
        <time>2011-04-09T23:47:18Z</time>
      </trkpt>
      <trkpt lat="50.41725" lon="2.6765">
        <ele>137.605835</ele>
        <time>2011-04-09T23:47:19Z</time>
      </trkpt>
      <trkpt lat="50.41732" lon="2.67639">
        <ele>139.0478516</ele>
        <time>2011-04-09T23:47:26Z</time>
      </trkpt>
      <trkpt lat="50.41736" lon="2.67626">
        <ele>139.5284424</ele>
        <time>2011-04-09T23:47:33Z</time>
      </trkpt>
      <trkpt lat="50.41743" lon="2.67612">
        <ele>140.0091553</ele>
        <time>2011-04-09T23:47:41Z</time>
      </trkpt>
      <trkpt lat="50.41745" lon="2.67607">
        <ele>140.4898682</ele>
        <time>2011-04-09T23:47:43Z</time>
      </trkpt>
      <trkpt lat="50.41746" lon="2.67596">
        <ele>141.9317627</ele>
        <time>2011-04-09T23:47:48Z</time>
      </trkpt>
      <trkpt lat="50.41747" lon="2.67585">
        <ele>142.4124756</ele>
        <time>2011-04-09T23:47:51Z</time>
      </trkpt>
      <trkpt lat="50.41746" lon="2.67577">
        <ele>143.3736572</ele>
        <time>2011-04-09T23:47:55Z</time>
      </trkpt>
      <trkpt lat="50.41746" lon="2.67572">
        <ele>143.3736572</ele>
        <time>2011-04-09T23:47:57Z</time>
      </trkpt>
      <trkpt lat="50.41749" lon="2.67562">
        <ele>143.3736572</ele>
        <time>2011-04-09T23:48:02Z</time>
      </trkpt>
      <trkpt lat="50.41751" lon="2.67557">
        <ele>143.3736572</ele>
        <time>2011-04-09T23:48:04Z</time>
      </trkpt>
      <trkpt lat="50.41755" lon="2.67545">
        <ele>140.970459</ele>
        <time>2011-04-09T23:48:10Z</time>
      </trkpt>
      <trkpt lat="50.41758" lon="2.6754">
        <ele>140.970459</ele>
        <time>2011-04-09T23:48:14Z</time>
      </trkpt>
      <trkpt lat="50.41761" lon="2.67533">
        <ele>140.4898682</ele>
        <time>2011-04-09T23:48:17Z</time>
      </trkpt>
      <trkpt lat="50.41764" lon="2.6753">
        <ele>140.4898682</ele>
        <time>2011-04-09T23:48:20Z</time>
      </trkpt>
      <trkpt lat="50.41767" lon="2.67527">
        <ele>140.4898682</ele>
        <time>2011-04-09T23:48:24Z</time>
      </trkpt>
      <trkpt lat="50.41772" lon="2.67512">
        <ele>139.0478516</ele>
        <time>2011-04-09T23:48:32Z</time>
      </trkpt>
      <trkpt lat="50.41774" lon="2.67503">
        <ele>138.0865479</ele>
        <time>2011-04-09T23:48:36Z</time>
      </trkpt>
      <trkpt lat="50.4178" lon="2.6749">
        <ele>138.5672607</ele>
        <time>2011-04-09T23:48:43Z</time>
      </trkpt>
      <trkpt lat="50.41778" lon="2.67483">
        <ele>139.0478516</ele>
        <time>2011-04-09T23:48:44Z</time>
      </trkpt>
      <trkpt lat="50.41775" lon="2.67472">
        <ele>139.0478516</ele>
        <time>2011-04-09T23:48:46Z</time>
      </trkpt>
      <trkpt lat="50.41781" lon="2.67467">
        <ele>137.605835</ele>
        <time>2011-04-09T23:48:49Z</time>
      </trkpt>
      <trkpt lat="50.41783" lon="2.67466">
        <ele>137.1252441</ele>
        <time>2011-04-09T23:48:50Z</time>
      </trkpt>
      <trkpt lat="50.41787" lon="2.67462">
        <ele>134.7219238</ele>
        <time>2011-04-09T23:48:52Z</time>
      </trkpt>
      <trkpt lat="50.4179" lon="2.67459">
        <ele>132.7993164</ele>
        <time>2011-04-09T23:48:55Z</time>
      </trkpt>
      <trkpt lat="50.4179" lon="2.67456">
        <ele>129.9152832</ele>
        <time>2011-04-09T23:48:58Z</time>
      </trkpt>
      <trkpt lat="50.41791" lon="2.67447">
        <ele>125.1087646</ele>
        <time>2011-04-09T23:49:03Z</time>
      </trkpt>
      <trkpt lat="50.41792" lon="2.67446">
        <ele>124.6280518</ele>
        <time>2011-04-09T23:49:04Z</time>
      </trkpt>
      <trkpt lat="50.4179" lon="2.67435">
        <ele>123.666748</ele>
        <time>2011-04-09T23:49:08Z</time>
      </trkpt>
      <trkpt lat="50.4179" lon="2.67421">
        <ele>123.666748</ele>
        <time>2011-04-09T23:49:12Z</time>
      </trkpt>
      <trkpt lat="50.41793" lon="2.67408">
        <ele>124.1473389</ele>
        <time>2011-04-09T23:49:19Z</time>
      </trkpt>
      <trkpt lat="50.41794" lon="2.67399">
        <ele>124.6280518</ele>
        <time>2011-04-09T23:49:23Z</time>
      </trkpt>
      <trkpt lat="50.41796" lon="2.67389">
        <ele>125.5893555</ele>
        <time>2011-04-09T23:49:27Z</time>
      </trkpt>
      <trkpt lat="50.41797" lon="2.67378">
        <ele>124.6280518</ele>
        <time>2011-04-09T23:49:31Z</time>
      </trkpt>
      <trkpt lat="50.41798" lon="2.6737">
        <ele>122.2247314</ele>
        <time>2011-04-09T23:49:35Z</time>
      </trkpt>
      <trkpt lat="50.41798" lon="2.6736">
        <ele>120.302124</ele>
        <time>2011-04-09T23:49:39Z</time>
      </trkpt>
      <trkpt lat="50.418" lon="2.67352">
        <ele>118.3793945</ele>
        <time>2011-04-09T23:49:44Z</time>
      </trkpt>
      <trkpt lat="50.41801" lon="2.67343">
        <ele>118.8601074</ele>
        <time>2011-04-09T23:49:49Z</time>
      </trkpt>
      <trkpt lat="50.41801" lon="2.67335">
        <ele>119.8214111</ele>
        <time>2011-04-09T23:49:52Z</time>
      </trkpt>
      <trkpt lat="50.41801" lon="2.67325">
        <ele>121.7441406</ele>
        <time>2011-04-09T23:49:56Z</time>
      </trkpt>
      <trkpt lat="50.41803" lon="2.67315">
        <ele>124.6280518</ele>
        <time>2011-04-09T23:50:01Z</time>
      </trkpt>
      <trkpt lat="50.41805" lon="2.67311">
        <ele>125.1087646</ele>
        <time>2011-04-09T23:50:03Z</time>
      </trkpt>
      <trkpt lat="50.41809" lon="2.67302">
        <ele>125.5893555</ele>
        <time>2011-04-09T23:50:08Z</time>
      </trkpt>
      <trkpt lat="50.4181" lon="2.67298">
        <ele>124.6280518</ele>
        <time>2011-04-09T23:50:10Z</time>
      </trkpt>
      <trkpt lat="50.41813" lon="2.67293">
        <ele>121.2635498</ele>
        <time>2011-04-09T23:50:15Z</time>
      </trkpt>
      <trkpt lat="50.41814" lon="2.67284">
        <ele>118.3793945</ele>
        <time>2011-04-09T23:50:21Z</time>
      </trkpt>
      <trkpt lat="50.41814" lon="2.6728">
        <ele>118.8601074</ele>
        <time>2011-04-09T23:50:24Z</time>
      </trkpt>
      <trkpt lat="50.41813" lon="2.67277">
        <ele>118.8601074</ele>
        <time>2011-04-09T23:50:25Z</time>
      </trkpt>
      <trkpt lat="50.41815" lon="2.67262">
        <ele>118.8601074</ele>
        <time>2011-04-09T23:50:31Z</time>
      </trkpt>
      <trkpt lat="50.41817" lon="2.67247">
        <ele>120.7828369</ele>
        <time>2011-04-09T23:50:36Z</time>
      </trkpt>
      <trkpt lat="50.4182" lon="2.67238">
        <ele>123.1861572</ele>
        <time>2011-04-09T23:50:42Z</time>
      </trkpt>
      <trkpt lat="50.41821" lon="2.67232">
        <ele>125.5893555</ele>
        <time>2011-04-09T23:50:46Z</time>
      </trkpt>
      <trkpt lat="50.41821" lon="2.67231">
        <ele>126.0699463</ele>
        <time>2011-04-09T23:50:47Z</time>
      </trkpt>
      <trkpt lat="50.41824" lon="2.67216">
        <ele>126.0699463</ele>
        <time>2011-04-09T23:50:52Z</time>
      </trkpt>
      <trkpt lat="50.41824" lon="2.67208">
        <ele>126.0699463</ele>
        <time>2011-04-09T23:50:56Z</time>
      </trkpt>
      <trkpt lat="50.41825" lon="2.67198">
        <ele>125.1087646</ele>
        <time>2011-04-09T23:51:00Z</time>
      </trkpt>
      <trkpt lat="50.41828" lon="2.67184">
        <ele>123.666748</ele>
        <time>2011-04-09T23:51:06Z</time>
      </trkpt>
      <trkpt lat="50.4183" lon="2.67172">
        <ele>124.1473389</ele>
        <time>2011-04-09T23:51:12Z</time>
      </trkpt>
      <trkpt lat="50.41831" lon="2.67166">
        <ele>124.6280518</ele>
        <time>2011-04-09T23:51:15Z</time>
      </trkpt>
      <trkpt lat="50.41832" lon="2.67162">
        <ele>125.5893555</ele>
        <time>2011-04-09T23:51:17Z</time>
      </trkpt>
      <trkpt lat="50.41835" lon="2.67154">
        <ele>124.6280518</ele>
        <time>2011-04-09T23:51:21Z</time>
      </trkpt>
      <trkpt lat="50.41835" lon="2.67147">
        <ele>125.1087646</ele>
        <time>2011-04-09T23:51:24Z</time>
      </trkpt>
      <trkpt lat="50.41837" lon="2.67136">
        <ele>125.1087646</ele>
        <time>2011-04-09T23:51:29Z</time>
      </trkpt>
      <trkpt lat="50.41838" lon="2.67125">
        <ele>125.1087646</ele>
        <time>2011-04-09T23:51:34Z</time>
      </trkpt>
      <trkpt lat="50.41839" lon="2.67119">
        <ele>124.1473389</ele>
        <time>2011-04-09T23:51:38Z</time>
      </trkpt>
      <trkpt lat="50.41841" lon="2.67101">
        <ele>126.0699463</ele>
        <time>2011-04-09T23:51:46Z</time>
      </trkpt>
      <trkpt lat="50.41842" lon="2.67088">
        <ele>127.0313721</ele>
        <time>2011-04-09T23:51:51Z</time>
      </trkpt>
      <trkpt lat="50.41843" lon="2.67074">
        <ele>128.9541016</ele>
        <time>2011-04-09T23:51:58Z</time>
      </trkpt>
      <trkpt lat="50.41843" lon="2.67072">
        <ele>128.9541016</ele>
        <time>2011-04-09T23:51:59Z</time>
      </trkpt>
      <trkpt lat="50.41845" lon="2.67061">
        <ele>128.9541016</ele>
        <time>2011-04-09T23:52:04Z</time>
      </trkpt>
      <trkpt lat="50.41846" lon="2.67055">
        <ele>128.9541016</ele>
        <time>2011-04-09T23:52:07Z</time>
      </trkpt>
      <trkpt lat="50.41847" lon="2.67039">
        <ele>128.4733887</ele>
        <time>2011-04-09T23:52:14Z</time>
      </trkpt>
      <trkpt lat="50.41847" lon="2.67034">
        <ele>127.9925537</ele>
        <time>2011-04-09T23:52:16Z</time>
      </trkpt>
      <trkpt lat="50.41845" lon="2.67025">
        <ele>129.9152832</ele>
        <time>2011-04-09T23:52:21Z</time>
      </trkpt>
      <trkpt lat="50.41846" lon="2.67021">
        <ele>130.3959961</ele>
        <time>2011-04-09T23:52:23Z</time>
      </trkpt>
      <trkpt lat="50.41849" lon="2.67011">
        <ele>132.3186035</ele>
        <time>2011-04-09T23:52:28Z</time>
      </trkpt>
      <trkpt lat="50.41851" lon="2.67007">
        <ele>132.7993164</ele>
        <time>2011-04-09T23:52:30Z</time>
      </trkpt>
      <trkpt lat="50.41854" lon="2.67001">
        <ele>134.7219238</ele>
        <time>2011-04-09T23:52:34Z</time>
      </trkpt>
      <trkpt lat="50.41862" lon="2.66992">
        <ele>135.6831055</ele>
        <time>2011-04-09T23:52:40Z</time>
      </trkpt>
      <trkpt lat="50.41867" lon="2.66987">
        <ele>137.1252441</ele>
        <time>2011-04-09T23:52:44Z</time>
      </trkpt>
      <trkpt lat="50.41874" lon="2.66982">
        <ele>137.1252441</ele>
        <time>2011-04-09T23:52:49Z</time>
      </trkpt>
      <trkpt lat="50.41875" lon="2.66974">
        <ele>137.1252441</ele>
        <time>2011-04-09T23:52:54Z</time>
      </trkpt>
      <trkpt lat="50.41872" lon="2.66959">
        <ele>135.6831055</ele>
        <time>2011-04-09T23:53:01Z</time>
      </trkpt>
      <trkpt lat="50.41869" lon="2.66951">
        <ele>134.7219238</ele>
        <time>2011-04-09T23:53:06Z</time>
      </trkpt>
      <trkpt lat="50.41867" lon="2.66943">
        <ele>133.760498</ele>
        <time>2011-04-09T23:53:09Z</time>
      </trkpt>
      <trkpt lat="50.41863" lon="2.66933">
        <ele>134.2412109</ele>
        <time>2011-04-09T23:53:14Z</time>
      </trkpt>
      <trkpt lat="50.41862" lon="2.66923">
        <ele>136.1639404</ele>
        <time>2011-04-09T23:53:19Z</time>
      </trkpt>
      <trkpt lat="50.41861" lon="2.66921">
        <ele>136.6446533</ele>
        <time>2011-04-09T23:53:20Z</time>
      </trkpt>
      <trkpt lat="50.41856" lon="2.6691">
        <ele>138.5672607</ele>
        <time>2011-04-09T23:53:26Z</time>
      </trkpt>
      <trkpt lat="50.41856" lon="2.66908">
        <ele>138.5672607</ele>
        <time>2011-04-09T23:53:27Z</time>
      </trkpt>
      <trkpt lat="50.41851" lon="2.66897">
        <ele>138.5672607</ele>
        <time>2011-04-09T23:53:32Z</time>
      </trkpt>
      <trkpt lat="50.4185" lon="2.66894">
        <ele>138.5672607</ele>
        <time>2011-04-09T23:53:34Z</time>
      </trkpt>
      <trkpt lat="50.41849" lon="2.66888">
        <ele>138.0865479</ele>
        <time>2011-04-09T23:53:37Z</time>
      </trkpt>
      <trkpt lat="50.41845" lon="2.66878">
        <ele>137.605835</ele>
        <time>2011-04-09T23:53:43Z</time>
      </trkpt>
      <trkpt lat="50.41845" lon="2.6687">
        <ele>137.1252441</ele>
        <time>2011-04-09T23:53:48Z</time>
      </trkpt>
      <trkpt lat="50.41844" lon="2.66865">
        <ele>137.605835</ele>
        <time>2011-04-09T23:53:50Z</time>
      </trkpt>
      <trkpt lat="50.41844" lon="2.6686">
        <ele>137.1252441</ele>
        <time>2011-04-09T23:53:52Z</time>
      </trkpt>
      <trkpt lat="50.41843" lon="2.66844">
        <ele>138.5672607</ele>
        <time>2011-04-09T23:53:57Z</time>
      </trkpt>
      <trkpt lat="50.41842" lon="2.66838">
        <ele>140.0091553</ele>
        <time>2011-04-09T23:54:00Z</time>
      </trkpt>
      <trkpt lat="50.41841" lon="2.66829">
        <ele>139.0478516</ele>
        <time>2011-04-09T23:54:04Z</time>
      </trkpt>
      <trkpt lat="50.41839" lon="2.66819">
        <ele>139.5284424</ele>
        <time>2011-04-09T23:54:09Z</time>
      </trkpt>
      <trkpt lat="50.41839" lon="2.66812">
        <ele>140.0091553</ele>
        <time>2011-04-09T23:54:14Z</time>
      </trkpt>
      <trkpt lat="50.41837" lon="2.66803">
        <ele>140.970459</ele>
        <time>2011-04-09T23:54:21Z</time>
      </trkpt>
      <trkpt lat="50.41836" lon="2.66797">
        <ele>140.0091553</ele>
        <time>2011-04-09T23:54:24Z</time>
      </trkpt>
      <trkpt lat="50.41834" lon="2.66786">
        <ele>140.970459</ele>
        <time>2011-04-09T23:54:30Z</time>
      </trkpt>
      <trkpt lat="50.41834" lon="2.66784">
        <ele>141.4510498</ele>
        <time>2011-04-09T23:54:31Z</time>
      </trkpt>
      <trkpt lat="50.41833" lon="2.66776">
        <ele>142.4124756</ele>
        <time>2011-04-09T23:54:36Z</time>
      </trkpt>
      <trkpt lat="50.41831" lon="2.66768">
        <ele>142.8930664</ele>
        <time>2011-04-09T23:54:40Z</time>
      </trkpt>
      <trkpt lat="50.41831" lon="2.6676">
        <ele>143.8543701</ele>
        <time>2011-04-09T23:54:45Z</time>
      </trkpt>
      <trkpt lat="50.41829" lon="2.66744">
        <ele>143.3736572</ele>
        <time>2011-04-09T23:54:53Z</time>
      </trkpt>
      <trkpt lat="50.41829" lon="2.66735">
        <ele>144.8157959</ele>
        <time>2011-04-09T23:54:57Z</time>
      </trkpt>
      <trkpt lat="50.4183" lon="2.6673">
        <ele>146.2578125</ele>
        <time>2011-04-09T23:55:00Z</time>
      </trkpt>
      <trkpt lat="50.41831" lon="2.66725">
        <ele>147.699707</ele>
        <time>2011-04-09T23:55:03Z</time>
      </trkpt>
      <trkpt lat="50.41832" lon="2.66714">
        <ele>148.6610107</ele>
        <time>2011-04-09T23:55:09Z</time>
      </trkpt>
      <trkpt lat="50.41832" lon="2.66704">
        <ele>149.6223145</ele>
        <time>2011-04-09T23:55:12Z</time>
      </trkpt>
      <trkpt lat="50.41832" lon="2.66697">
        <ele>150.1030273</ele>
        <time>2011-04-09T23:55:14Z</time>
      </trkpt>
      <trkpt lat="50.41833" lon="2.66686">
        <ele>152.0257568</ele>
        <time>2011-04-09T23:55:20Z</time>
      </trkpt>
      <trkpt lat="50.41833" lon="2.66685">
        <ele>152.5063477</ele>
        <time>2011-04-09T23:55:21Z</time>
      </trkpt>
      <trkpt lat="50.41833" lon="2.66677">
        <ele>154.9095459</ele>
        <time>2011-04-09T23:55:27Z</time>
      </trkpt>
      <trkpt lat="50.41835" lon="2.66669">
        <ele>154.9095459</ele>
        <time>2011-04-09T23:55:33Z</time>
      </trkpt>
      <trkpt lat="50.41835" lon="2.66656">
        <ele>153.4676514</ele>
        <time>2011-04-09T23:55:40Z</time>
      </trkpt>
      <trkpt lat="50.41835" lon="2.66646">
        <ele>154.9095459</ele>
        <time>2011-04-09T23:55:46Z</time>
      </trkpt>
      <trkpt lat="50.41836" lon="2.66638">
        <ele>153.9483643</ele>
        <time>2011-04-09T23:55:51Z</time>
      </trkpt>
      <trkpt lat="50.41837" lon="2.66624">
        <ele>152.5063477</ele>
        <time>2011-04-09T23:55:59Z</time>
      </trkpt>
      <trkpt lat="50.41837" lon="2.66622">
        <ele>152.5063477</ele>
        <time>2011-04-09T23:56:00Z</time>
      </trkpt>
      <trkpt lat="50.41838" lon="2.66609">
        <ele>154.4289551</ele>
        <time>2011-04-09T23:56:07Z</time>
      </trkpt>
      <trkpt lat="50.41838" lon="2.66605">
        <ele>154.4289551</ele>
        <time>2011-04-09T23:56:09Z</time>
      </trkpt>
      <trkpt lat="50.41838" lon="2.66591">
        <ele>154.9095459</ele>
        <time>2011-04-09T23:56:16Z</time>
      </trkpt>
      <trkpt lat="50.41838" lon="2.6659">
        <ele>155.3902588</ele>
        <time>2011-04-09T23:56:17Z</time>
      </trkpt>
      <trkpt lat="50.41838" lon="2.66587">
        <ele>155.8709717</ele>
        <time>2011-04-09T23:56:19Z</time>
      </trkpt>
      <trkpt lat="50.4184" lon="2.66573">
        <ele>157.3128662</ele>
        <time>2011-04-09T23:56:27Z</time>
      </trkpt>
      <trkpt lat="50.41839" lon="2.66567">
        <ele>158.7547607</ele>
        <time>2011-04-09T23:56:30Z</time>
      </trkpt>
      <trkpt lat="50.41838" lon="2.66564">
        <ele>159.7161865</ele>
        <time>2011-04-09T23:56:32Z</time>
      </trkpt>
      <trkpt lat="50.41838" lon="2.66557">
        <ele>162.1195068</ele>
        <time>2011-04-09T23:56:36Z</time>
      </trkpt>
      <trkpt lat="50.4184" lon="2.66552">
        <ele>165.9647217</ele>
        <time>2011-04-09T23:56:39Z</time>
      </trkpt>
      <trkpt lat="50.41838" lon="2.66548">
        <ele>166.9260254</ele>
        <time>2011-04-09T23:56:41Z</time>
      </trkpt>
      <trkpt lat="50.4184" lon="2.66542">
        <ele>168.8487549</ele>
        <time>2011-04-09T23:56:45Z</time>
      </trkpt>
      <trkpt lat="50.41838" lon="2.66536">
        <ele>170.2906494</ele>
        <time>2011-04-09T23:56:49Z</time>
      </trkpt>
      <trkpt lat="50.41839" lon="2.66531">
        <ele>170.2906494</ele>
        <time>2011-04-09T23:56:52Z</time>
      </trkpt>
      <trkpt lat="50.41838" lon="2.6652">
        <ele>172.2132568</ele>
        <time>2011-04-09T23:56:58Z</time>
      </trkpt>
      <trkpt lat="50.41836" lon="2.66506">
        <ele>171.2520752</ele>
        <time>2011-04-09T23:57:04Z</time>
      </trkpt>
      <trkpt lat="50.41838" lon="2.66494">
        <ele>169.3294678</ele>
        <time>2011-04-09T23:57:10Z</time>
      </trkpt>
      <trkpt lat="50.41839" lon="2.66485">
        <ele>170.7713623</ele>
        <time>2011-04-09T23:57:15Z</time>
      </trkpt>
      <trkpt lat="50.4184" lon="2.66473">
        <ele>173.6552734</ele>
        <time>2011-04-09T23:57:22Z</time>
      </trkpt>
      <trkpt lat="50.4184" lon="2.66471">
        <ele>173.6552734</ele>
        <time>2011-04-09T23:57:23Z</time>
      </trkpt>
      <trkpt lat="50.4184" lon="2.66464">
        <ele>171.732666</ele>
        <time>2011-04-09T23:57:26Z</time>
      </trkpt>
      <trkpt lat="50.41841" lon="2.66454">
        <ele>171.2520752</ele>
        <time>2011-04-09T23:57:32Z</time>
      </trkpt>
      <trkpt lat="50.41841" lon="2.66445">
        <ele>168.8487549</ele>
        <time>2011-04-09T23:57:37Z</time>
      </trkpt>
      <trkpt lat="50.41842" lon="2.6644">
        <ele>168.368042</ele>
        <time>2011-04-09T23:57:40Z</time>
      </trkpt>
      <trkpt lat="50.41839" lon="2.66428">
        <ele>169.3294678</ele>
        <time>2011-04-09T23:57:46Z</time>
      </trkpt>
      <trkpt lat="50.41839" lon="2.66419">
        <ele>171.732666</ele>
        <time>2011-04-09T23:57:51Z</time>
      </trkpt>
      <trkpt lat="50.41839" lon="2.6641">
        <ele>174.6165771</ele>
        <time>2011-04-09T23:57:56Z</time>
      </trkpt>
      <trkpt lat="50.4184" lon="2.66403">
        <ele>178.942627</ele>
        <time>2011-04-09T23:57:59Z</time>
      </trkpt>
      <trkpt lat="50.4184" lon="2.66391">
        <ele>178.942627</ele>
        <time>2011-04-09T23:58:05Z</time>
      </trkpt>
      <trkpt lat="50.4184" lon="2.66384">
        <ele>181.3458252</ele>
        <time>2011-04-09T23:58:08Z</time>
      </trkpt>
      <trkpt lat="50.41839" lon="2.66375">
        <ele>182.7878418</ele>
        <time>2011-04-09T23:58:13Z</time>
      </trkpt>
      <trkpt lat="50.4184" lon="2.66359">
        <ele>184.7105713</ele>
        <time>2011-04-09T23:58:21Z</time>
      </trkpt>
      <trkpt lat="50.4184" lon="2.66358">
        <ele>184.7105713</ele>
        <time>2011-04-09T23:58:22Z</time>
      </trkpt>
      <trkpt lat="50.4184" lon="2.66353">
        <ele>185.6717529</ele>
        <time>2011-04-09T23:58:25Z</time>
      </trkpt>
      <trkpt lat="50.41841" lon="2.66344">
        <ele>189.036377</ele>
        <time>2011-04-09T23:58:31Z</time>
      </trkpt>
      <trkpt lat="50.41839" lon="2.66334">
        <ele>187.1137695</ele>
        <time>2011-04-09T23:58:37Z</time>
      </trkpt>
      <trkpt lat="50.41836" lon="2.66326">
        <ele>187.5943604</ele>
        <time>2011-04-09T23:58:41Z</time>
      </trkpt>
      <trkpt lat="50.41833" lon="2.66314">
        <ele>187.1137695</ele>
        <time>2011-04-09T23:58:47Z</time>
      </trkpt>
      <trkpt lat="50.41832" lon="2.66311">
        <ele>186.6331787</ele>
        <time>2011-04-09T23:58:49Z</time>
      </trkpt>
      <trkpt lat="50.41826" lon="2.66304">
        <ele>187.1137695</ele>
        <time>2011-04-09T23:58:55Z</time>
      </trkpt>
      <trkpt lat="50.41822" lon="2.663">
        <ele>185.6717529</ele>
        <time>2011-04-09T23:58:58Z</time>
      </trkpt>
      <trkpt lat="50.41817" lon="2.6629">
        <ele>184.7105713</ele>
        <time>2011-04-09T23:59:05Z</time>
      </trkpt>
      <trkpt lat="50.41809" lon="2.66277">
        <ele>182.3071289</ele>
        <time>2011-04-09T23:59:13Z</time>
      </trkpt>
      <trkpt lat="50.41803" lon="2.66266">
        <ele>184.7105713</ele>
        <time>2011-04-09T23:59:21Z</time>
      </trkpt>
      <trkpt lat="50.41796" lon="2.66258">
        <ele>186.6331787</ele>
        <time>2011-04-09T23:59:26Z</time>
      </trkpt>
      <trkpt lat="50.41792" lon="2.66245">
        <ele>188.5557861</ele>
        <time>2011-04-09T23:59:32Z</time>
      </trkpt>
      <trkpt lat="50.41792" lon="2.66243">
        <ele>189.036377</ele>
        <time>2011-04-09T23:59:33Z</time>
      </trkpt>
      <trkpt lat="50.41795" lon="2.66233">
        <ele>188.5557861</ele>
        <time>2011-04-09T23:59:38Z</time>
      </trkpt>
      <trkpt lat="50.418" lon="2.66217">
        <ele>187.5943604</ele>
        <time>2011-04-09T23:59:47Z</time>
      </trkpt>
      <trkpt lat="50.41804" lon="2.66206">
        <ele>185.6717529</ele>
        <time>2011-04-09T23:59:54Z</time>
      </trkpt>
      <trkpt lat="50.41806" lon="2.66204">
        <ele>185.6717529</ele>
        <time>2011-04-09T23:59:56Z</time>
      </trkpt>
      <trkpt lat="50.41807" lon="2.662">
        <ele>188.0750732</ele>
        <time>2011-04-10T00:00:04Z</time>
      </trkpt>
      <trkpt lat="50.41807" lon="2.66199">
        <ele>189.9976807</ele>
        <time>2011-04-10T00:00:12Z</time>
      </trkpt>
      <trkpt lat="50.41808" lon="2.66197">
        <ele>190.9589844</ele>
        <time>2011-04-10T00:00:21Z</time>
      </trkpt>
      <trkpt lat="50.41808" lon="2.66198">
        <ele>189.036377</ele>
        <time>2011-04-10T00:00:30Z</time>
      </trkpt>
      <trkpt lat="50.41808" lon="2.66199">
        <ele>188.5557861</ele>
        <time>2011-04-10T00:00:32Z</time>
      </trkpt>
      <trkpt lat="50.41794" lon="2.66178">
        <ele>186.6331787</ele>
        <time>2011-04-10T00:04:21Z</time>
      </trkpt>
      <trkpt lat="50.41791" lon="2.66177">
        <ele>186.6331787</ele>
        <time>2011-04-10T00:04:22Z</time>
      </trkpt>
      <trkpt lat="50.41786" lon="2.66176">
        <ele>186.1524658</ele>
        <time>2011-04-10T00:04:26Z</time>
      </trkpt>
      <trkpt lat="50.41776" lon="2.66171">
        <ele>186.1524658</ele>
        <time>2011-04-10T00:04:33Z</time>
      </trkpt>
      <trkpt lat="50.41766" lon="2.66166">
        <ele>185.1911621</ele>
        <time>2011-04-10T00:04:40Z</time>
      </trkpt>
      <trkpt lat="50.41751" lon="2.66158">
        <ele>183.7490234</ele>
        <time>2011-04-10T00:04:51Z</time>
      </trkpt>
      <trkpt lat="50.41745" lon="2.66153">
        <ele>182.3071289</ele>
        <time>2011-04-10T00:04:55Z</time>
      </trkpt>
      <trkpt lat="50.41736" lon="2.66148">
        <ele>181.3458252</ele>
        <time>2011-04-10T00:05:01Z</time>
      </trkpt>
      <trkpt lat="50.41727" lon="2.66143">
        <ele>179.9038086</ele>
        <time>2011-04-10T00:05:06Z</time>
      </trkpt>
      <trkpt lat="50.4172" lon="2.6614">
        <ele>177.9812012</ele>
        <time>2011-04-10T00:05:10Z</time>
      </trkpt>
      <trkpt lat="50.4171" lon="2.66134">
        <ele>175.5778809</ele>
        <time>2011-04-10T00:05:15Z</time>
      </trkpt>
      <trkpt lat="50.41701" lon="2.6613">
        <ele>176.0585938</ele>
        <time>2011-04-10T00:05:22Z</time>
      </trkpt>
      <trkpt lat="50.41698" lon="2.66129">
        <ele>176.5393066</ele>
        <time>2011-04-10T00:05:24Z</time>
      </trkpt>
      <trkpt lat="50.41686" lon="2.66124">
        <ele>175.5778809</ele>
        <time>2011-04-10T00:05:30Z</time>
      </trkpt>
      <trkpt lat="50.41685" lon="2.66123">
        <ele>175.5778809</ele>
        <time>2011-04-10T00:05:31Z</time>
      </trkpt>
      <trkpt lat="50.41677" lon="2.6612">
        <ele>176.5393066</ele>
        <time>2011-04-10T00:05:38Z</time>
      </trkpt>
      <trkpt lat="50.41671" lon="2.66118">
        <ele>176.5393066</ele>
        <time>2011-04-10T00:05:43Z</time>
      </trkpt>
      <trkpt lat="50.41663" lon="2.66114">
        <ele>176.5393066</ele>
        <time>2011-04-10T00:05:48Z</time>
      </trkpt>
      <trkpt lat="50.41661" lon="2.66114">
        <ele>176.5393066</ele>
        <time>2011-04-10T00:05:49Z</time>
      </trkpt>
      <trkpt lat="50.4165" lon="2.66108">
        <ele>176.5393066</ele>
        <time>2011-04-10T00:05:56Z</time>
      </trkpt>
      <trkpt lat="50.41641" lon="2.66105">
        <ele>176.0585938</ele>
        <time>2011-04-10T00:06:02Z</time>
      </trkpt>
      <trkpt lat="50.41634" lon="2.66102">
        <ele>176.0585938</ele>
        <time>2011-04-10T00:06:08Z</time>
      </trkpt>
      <trkpt lat="50.41623" lon="2.66097">
        <ele>174.6165771</ele>
        <time>2011-04-10T00:06:15Z</time>
      </trkpt>
      <trkpt lat="50.41616" lon="2.66094">
        <ele>173.6552734</ele>
        <time>2011-04-10T00:06:20Z</time>
      </trkpt>
      <trkpt lat="50.41609" lon="2.66091">
        <ele>171.732666</ele>
        <time>2011-04-10T00:06:25Z</time>
      </trkpt>
      <trkpt lat="50.41599" lon="2.66086">
        <ele>170.7713623</ele>
        <time>2011-04-10T00:06:33Z</time>
      </trkpt>
      <trkpt lat="50.41592" lon="2.66083">
        <ele>171.2520752</ele>
        <time>2011-04-10T00:06:39Z</time>
      </trkpt>
      <trkpt lat="50.41584" lon="2.66078">
        <ele>171.2520752</ele>
        <time>2011-04-10T00:06:44Z</time>
      </trkpt>
      <trkpt lat="50.41575" lon="2.66075">
        <ele>171.732666</ele>
        <time>2011-04-10T00:06:50Z</time>
      </trkpt>
      <trkpt lat="50.41566" lon="2.6607">
        <ele>171.2520752</ele>
        <time>2011-04-10T00:06:55Z</time>
      </trkpt>
      <trkpt lat="50.41562" lon="2.66068">
        <ele>171.2520752</ele>
        <time>2011-04-10T00:06:59Z</time>
      </trkpt>
      <trkpt lat="50.41552" lon="2.66061">
        <ele>170.7713623</ele>
        <time>2011-04-10T00:07:06Z</time>
      </trkpt>
      <trkpt lat="50.41544" lon="2.66056">
        <ele>170.2906494</ele>
        <time>2011-04-10T00:07:12Z</time>
      </trkpt>
      <trkpt lat="50.41536" lon="2.6605">
        <ele>170.2906494</ele>
        <time>2011-04-10T00:07:18Z</time>
      </trkpt>
      <trkpt lat="50.41528" lon="2.66045">
        <ele>170.2906494</ele>
        <time>2011-04-10T00:07:23Z</time>
      </trkpt>
      <trkpt lat="50.41518" lon="2.66038">
        <ele>169.8100586</ele>
        <time>2011-04-10T00:07:29Z</time>
      </trkpt>
      <trkpt lat="50.41508" lon="2.66031">
        <ele>170.7713623</ele>
        <time>2011-04-10T00:07:36Z</time>
      </trkpt>
      <trkpt lat="50.41502" lon="2.66027">
        <ele>170.7713623</ele>
        <time>2011-04-10T00:07:40Z</time>
      </trkpt>
      <trkpt lat="50.41498" lon="2.66023">
        <ele>170.7713623</ele>
        <time>2011-04-10T00:07:44Z</time>
      </trkpt>
      <trkpt lat="50.41489" lon="2.66015">
        <ele>171.2520752</ele>
        <time>2011-04-10T00:07:50Z</time>
      </trkpt>
      <trkpt lat="50.41481" lon="2.66009">
        <ele>170.7713623</ele>
        <time>2011-04-10T00:07:56Z</time>
      </trkpt>
      <trkpt lat="50.41473" lon="2.66001">
        <ele>170.7713623</ele>
        <time>2011-04-10T00:08:02Z</time>
      </trkpt>
      <trkpt lat="50.41468" lon="2.65995">
        <ele>170.7713623</ele>
        <time>2011-04-10T00:08:07Z</time>
      </trkpt>
      <trkpt lat="50.41461" lon="2.6599">
        <ele>171.2520752</ele>
        <time>2011-04-10T00:08:12Z</time>
      </trkpt>
      <trkpt lat="50.41453" lon="2.65982">
        <ele>171.2520752</ele>
        <time>2011-04-10T00:08:18Z</time>
      </trkpt>
      <trkpt lat="50.41446" lon="2.65975">
        <ele>170.7713623</ele>
        <time>2011-04-10T00:08:24Z</time>
      </trkpt>
      <trkpt lat="50.41441" lon="2.6597">
        <ele>171.2520752</ele>
        <time>2011-04-10T00:08:28Z</time>
      </trkpt>
      <trkpt lat="50.41434" lon="2.65963">
        <ele>170.7713623</ele>
        <time>2011-04-10T00:08:33Z</time>
      </trkpt>
      <trkpt lat="50.41427" lon="2.65956">
        <ele>171.2520752</ele>
        <time>2011-04-10T00:08:38Z</time>
      </trkpt>
      <trkpt lat="50.41417" lon="2.65947">
        <ele>170.7713623</ele>
        <time>2011-04-10T00:08:45Z</time>
      </trkpt>
      <trkpt lat="50.41412" lon="2.65941">
        <ele>170.2906494</ele>
        <time>2011-04-10T00:08:50Z</time>
      </trkpt>
      <trkpt lat="50.41408" lon="2.65933">
        <ele>169.3294678</ele>
        <time>2011-04-10T00:08:56Z</time>
      </trkpt>
      <trkpt lat="50.41403" lon="2.65927">
        <ele>167.8873291</ele>
        <time>2011-04-10T00:09:01Z</time>
      </trkpt>
      <trkpt lat="50.41396" lon="2.65919">
        <ele>166.9260254</ele>
        <time>2011-04-10T00:09:07Z</time>
      </trkpt>
      <trkpt lat="50.41388" lon="2.65912">
        <ele>165.4841309</ele>
        <time>2011-04-10T00:09:13Z</time>
      </trkpt>
      <trkpt lat="50.41384" lon="2.65908">
        <ele>165.003418</ele>
        <time>2011-04-10T00:09:17Z</time>
      </trkpt>
      <trkpt lat="50.41377" lon="2.65901">
        <ele>165.4841309</ele>
        <time>2011-04-10T00:09:24Z</time>
      </trkpt>
      <trkpt lat="50.41371" lon="2.65895">
        <ele>165.9647217</ele>
        <time>2011-04-10T00:09:29Z</time>
      </trkpt>
      <trkpt lat="50.41365" lon="2.65888">
        <ele>165.003418</ele>
        <time>2011-04-10T00:09:35Z</time>
      </trkpt>
      <trkpt lat="50.41358" lon="2.65881">
        <ele>165.003418</ele>
        <time>2011-04-10T00:09:40Z</time>
      </trkpt>
      <trkpt lat="50.41351" lon="2.65873">
        <ele>164.0421143</ele>
        <time>2011-04-10T00:09:46Z</time>
      </trkpt>
      <trkpt lat="50.41346" lon="2.65868">
        <ele>164.0421143</ele>
        <time>2011-04-10T00:09:50Z</time>
      </trkpt>
      <trkpt lat="50.41344" lon="2.65863">
        <ele>164.5227051</ele>
        <time>2011-04-10T00:09:55Z</time>
      </trkpt>
      <trkpt lat="50.41343" lon="2.65862">
        <ele>164.5227051</ele>
        <time>2011-04-10T00:09:56Z</time>
      </trkpt>
      <trkpt lat="50.41338" lon="2.65857">
        <ele>164.5227051</ele>
        <time>2011-04-10T00:10:00Z</time>
      </trkpt>
      <trkpt lat="50.41332" lon="2.65848">
        <ele>166.4453125</ele>
        <time>2011-04-10T00:10:07Z</time>
      </trkpt>
      <trkpt lat="50.41326" lon="2.65839">
        <ele>166.4453125</ele>
        <time>2011-04-10T00:10:13Z</time>
      </trkpt>
      <trkpt lat="50.4132" lon="2.65831">
        <ele>165.003418</ele>
        <time>2011-04-10T00:10:18Z</time>
      </trkpt>
      <trkpt lat="50.41314" lon="2.65821">
        <ele>163.5615234</ele>
        <time>2011-04-10T00:10:25Z</time>
      </trkpt>
      <trkpt lat="50.41313" lon="2.6582">
        <ele>163.5615234</ele>
        <time>2011-04-10T00:10:26Z</time>
      </trkpt>
      <trkpt lat="50.41311" lon="2.65813">
        <ele>162.6000977</ele>
        <time>2011-04-10T00:10:30Z</time>
      </trkpt>
      <trkpt lat="50.41305" lon="2.658">
        <ele>160.1968994</ele>
        <time>2011-04-10T00:10:37Z</time>
      </trkpt>
      <trkpt lat="50.41299" lon="2.65792">
        <ele>157.7935791</ele>
        <time>2011-04-10T00:10:42Z</time>
      </trkpt>
      <trkpt lat="50.41293" lon="2.65782">
        <ele>154.9095459</ele>
        <time>2011-04-10T00:10:48Z</time>
      </trkpt>
      <trkpt lat="50.41286" lon="2.65771">
        <ele>151.5449219</ele>
        <time>2011-04-10T00:10:55Z</time>
      </trkpt>
      <trkpt lat="50.41277" lon="2.65761">
        <ele>151.5449219</ele>
        <time>2011-04-10T00:11:03Z</time>
      </trkpt>
      <trkpt lat="50.41269" lon="2.65753">
        <ele>153.9483643</ele>
        <time>2011-04-10T00:11:09Z</time>
      </trkpt>
      <trkpt lat="50.41261" lon="2.65745">
        <ele>155.8709717</ele>
        <time>2011-04-10T00:11:15Z</time>
      </trkpt>
      <trkpt lat="50.41259" lon="2.65743">
        <ele>155.8709717</ele>
        <time>2011-04-10T00:11:17Z</time>
      </trkpt>
      <trkpt lat="50.41251" lon="2.65738">
        <ele>157.7935791</ele>
        <time>2011-04-10T00:11:22Z</time>
      </trkpt>
      <trkpt lat="50.41245" lon="2.65732">
        <ele>159.2354736</ele>
        <time>2011-04-10T00:11:26Z</time>
      </trkpt>
      <trkpt lat="50.41236" lon="2.65724">
        <ele>160.1968994</ele>
        <time>2011-04-10T00:11:32Z</time>
      </trkpt>
      <trkpt lat="50.41229" lon="2.65719">
        <ele>160.1968994</ele>
        <time>2011-04-10T00:11:36Z</time>
      </trkpt>
      <trkpt lat="50.41222" lon="2.65713">
        <ele>160.6774902</ele>
        <time>2011-04-10T00:11:41Z</time>
      </trkpt>
      <trkpt lat="50.41218" lon="2.65707">
        <ele>160.1968994</ele>
        <time>2011-04-10T00:11:47Z</time>
      </trkpt>
      <trkpt lat="50.41213" lon="2.65701">
        <ele>160.1968994</ele>
        <time>2011-04-10T00:11:52Z</time>
      </trkpt>
      <trkpt lat="50.41207" lon="2.65695">
        <ele>160.6774902</ele>
        <time>2011-04-10T00:11:58Z</time>
      </trkpt>
      <trkpt lat="50.412" lon="2.65687">
        <ele>160.1968994</ele>
        <time>2011-04-10T00:12:05Z</time>
      </trkpt>
      <trkpt lat="50.4119" lon="2.65679">
        <ele>160.1968994</ele>
        <time>2011-04-10T00:12:12Z</time>
      </trkpt>
      <trkpt lat="50.41185" lon="2.65674">
        <ele>160.1968994</ele>
        <time>2011-04-10T00:12:16Z</time>
      </trkpt>
      <trkpt lat="50.41181" lon="2.65669">
        <ele>159.2354736</ele>
        <time>2011-04-10T00:12:20Z</time>
      </trkpt>
      <trkpt lat="50.41179" lon="2.65664">
        <ele>158.2741699</ele>
        <time>2011-04-10T00:12:24Z</time>
      </trkpt>
      <trkpt lat="50.41172" lon="2.65658">
        <ele>157.7935791</ele>
        <time>2011-04-10T00:12:29Z</time>
      </trkpt>
      <trkpt lat="50.41166" lon="2.65652">
        <ele>157.3128662</ele>
        <time>2011-04-10T00:12:34Z</time>
      </trkpt>
      <trkpt lat="50.41163" lon="2.65647">
        <ele>157.3128662</ele>
        <time>2011-04-10T00:12:37Z</time>
      </trkpt>
      <trkpt lat="50.41159" lon="2.65643">
        <ele>156.8321533</ele>
        <time>2011-04-10T00:12:41Z</time>
      </trkpt>
      <trkpt lat="50.41149" lon="2.65635">
        <ele>157.3128662</ele>
        <time>2011-04-10T00:12:48Z</time>
      </trkpt>
      <trkpt lat="50.41142" lon="2.65629">
        <ele>155.8709717</ele>
        <time>2011-04-10T00:12:54Z</time>
      </trkpt>
      <trkpt lat="50.41136" lon="2.65624">
        <ele>156.8321533</ele>
        <time>2011-04-10T00:12:59Z</time>
      </trkpt>
      <trkpt lat="50.41129" lon="2.65618">
        <ele>156.8321533</ele>
        <time>2011-04-10T00:13:04Z</time>
      </trkpt>
      <trkpt lat="50.41123" lon="2.65612">
        <ele>157.3128662</ele>
        <time>2011-04-10T00:13:08Z</time>
      </trkpt>
      <trkpt lat="50.41116" lon="2.65607">
        <ele>157.7935791</ele>
        <time>2011-04-10T00:13:13Z</time>
      </trkpt>
      <trkpt lat="50.41108" lon="2.656">
        <ele>159.2354736</ele>
        <time>2011-04-10T00:13:19Z</time>
      </trkpt>
      <trkpt lat="50.411" lon="2.65593">
        <ele>160.6774902</ele>
        <time>2011-04-10T00:13:25Z</time>
      </trkpt>
      <trkpt lat="50.41099" lon="2.6559">
        <ele>160.6774902</ele>
        <time>2011-04-10T00:13:27Z</time>
      </trkpt>
      <trkpt lat="50.41091" lon="2.65584">
        <ele>160.1968994</ele>
        <time>2011-04-10T00:13:33Z</time>
      </trkpt>
      <trkpt lat="50.41084" lon="2.65577">
        <ele>159.7161865</ele>
        <time>2011-04-10T00:13:39Z</time>
      </trkpt>
      <trkpt lat="50.41083" lon="2.65576">
        <ele>159.2354736</ele>
        <time>2011-04-10T00:13:40Z</time>
      </trkpt>
      <trkpt lat="50.41072" lon="2.65565">
        <ele>158.7547607</ele>
        <time>2011-04-10T00:13:49Z</time>
      </trkpt>
      <trkpt lat="50.41065" lon="2.65557">
        <ele>159.2354736</ele>
        <time>2011-04-10T00:13:54Z</time>
      </trkpt>
      <trkpt lat="50.41056" lon="2.65548">
        <ele>158.7547607</ele>
        <time>2011-04-10T00:14:01Z</time>
      </trkpt>
      <trkpt lat="50.41052" lon="2.65541">
        <ele>158.2741699</ele>
        <time>2011-04-10T00:14:06Z</time>
      </trkpt>
      <trkpt lat="50.4105" lon="2.65535">
        <ele>157.3128662</ele>
        <time>2011-04-10T00:14:10Z</time>
      </trkpt>
      <trkpt lat="50.41048" lon="2.65526">
        <ele>154.4289551</ele>
        <time>2011-04-10T00:14:15Z</time>
      </trkpt>
      <trkpt lat="50.41044" lon="2.65519">
        <ele>152.9869385</ele>
        <time>2011-04-10T00:14:20Z</time>
      </trkpt>
      <trkpt lat="50.41043" lon="2.65517">
        <ele>152.5063477</ele>
        <time>2011-04-10T00:14:21Z</time>
      </trkpt>
      <trkpt lat="50.41038" lon="2.65509">
        <ele>150.5836182</ele>
        <time>2011-04-10T00:14:26Z</time>
      </trkpt>
      <trkpt lat="50.41032" lon="2.65496">
        <ele>149.1416016</ele>
        <time>2011-04-10T00:14:32Z</time>
      </trkpt>
      <trkpt lat="50.41029" lon="2.65491">
        <ele>148.1804199</ele>
        <time>2011-04-10T00:14:35Z</time>
      </trkpt>
      <trkpt lat="50.41027" lon="2.65484">
        <ele>146.2578125</ele>
        <time>2011-04-10T00:14:39Z</time>
      </trkpt>
      <trkpt lat="50.41023" lon="2.65477">
        <ele>143.8543701</ele>
        <time>2011-04-10T00:14:43Z</time>
      </trkpt>
      <trkpt lat="50.41016" lon="2.65468">
        <ele>142.8930664</ele>
        <time>2011-04-10T00:14:49Z</time>
      </trkpt>
      <trkpt lat="50.41012" lon="2.65461">
        <ele>142.8930664</ele>
        <time>2011-04-10T00:14:53Z</time>
      </trkpt>
      <trkpt lat="50.41008" lon="2.65453">
        <ele>141.4510498</ele>
        <time>2011-04-10T00:14:58Z</time>
      </trkpt>
      <trkpt lat="50.41003" lon="2.65443">
        <ele>141.9317627</ele>
        <time>2011-04-10T00:15:03Z</time>
      </trkpt>
      <trkpt lat="50.40998" lon="2.65428">
        <ele>141.9317627</ele>
        <time>2011-04-10T00:15:09Z</time>
      </trkpt>
      <trkpt lat="50.40997" lon="2.65426">
        <ele>141.9317627</ele>
        <time>2011-04-10T00:15:10Z</time>
      </trkpt>
      <trkpt lat="50.40991" lon="2.65413">
        <ele>141.9317627</ele>
        <time>2011-04-10T00:15:16Z</time>
      </trkpt>
      <trkpt lat="50.40987" lon="2.65402">
        <ele>140.0091553</ele>
        <time>2011-04-10T00:15:21Z</time>
      </trkpt>
      <trkpt lat="50.40983" lon="2.65393">
        <ele>138.5672607</ele>
        <time>2011-04-10T00:15:26Z</time>
      </trkpt>
      <trkpt lat="50.4098" lon="2.65388">
        <ele>137.1252441</ele>
        <time>2011-04-10T00:15:29Z</time>
      </trkpt>
      <trkpt lat="50.40977" lon="2.65383">
        <ele>136.1639404</ele>
        <time>2011-04-10T00:15:33Z</time>
      </trkpt>
      <trkpt lat="50.40974" lon="2.65381">
        <ele>135.6831055</ele>
        <time>2011-04-10T00:15:35Z</time>
      </trkpt>
      <trkpt lat="50.40966" lon="2.65375">
        <ele>136.1639404</ele>
        <time>2011-04-10T00:15:41Z</time>
      </trkpt>
      <trkpt lat="50.40958" lon="2.65366">
        <ele>137.1252441</ele>
        <time>2011-04-10T00:15:47Z</time>
      </trkpt>
      <trkpt lat="50.4095" lon="2.65358">
        <ele>137.1252441</ele>
        <time>2011-04-10T00:15:53Z</time>
      </trkpt>
      <trkpt lat="50.40943" lon="2.65349">
        <ele>137.1252441</ele>
        <time>2011-04-10T00:15:59Z</time>
      </trkpt>
      <trkpt lat="50.40942" lon="2.65348">
        <ele>136.6446533</ele>
        <time>2011-04-10T00:16:00Z</time>
      </trkpt>
      <trkpt lat="50.40937" lon="2.65339">
        <ele>135.6831055</ele>
        <time>2011-04-10T00:16:05Z</time>
      </trkpt>
      <trkpt lat="50.4093" lon="2.65332">
        <ele>135.2025146</ele>
        <time>2011-04-10T00:16:10Z</time>
      </trkpt>
      <trkpt lat="50.40924" lon="2.65326">
        <ele>135.2025146</ele>
        <time>2011-04-10T00:16:15Z</time>
      </trkpt>
      <trkpt lat="50.40922" lon="2.65323">
        <ele>135.2025146</ele>
        <time>2011-04-10T00:16:17Z</time>
      </trkpt>
      <trkpt lat="50.40918" lon="2.65317">
        <ele>135.6831055</ele>
        <time>2011-04-10T00:16:22Z</time>
      </trkpt>
      <trkpt lat="50.40917" lon="2.65316">
        <ele>135.6831055</ele>
        <time>2011-04-10T00:16:23Z</time>
      </trkpt>
      <trkpt lat="50.40908" lon="2.65308">
        <ele>138.5672607</ele>
        <time>2011-04-10T00:16:30Z</time>
      </trkpt>
      <trkpt lat="50.40899" lon="2.65301">
        <ele>141.4510498</ele>
        <time>2011-04-10T00:16:36Z</time>
      </trkpt>
      <trkpt lat="50.40893" lon="2.65294">
        <ele>141.9317627</ele>
        <time>2011-04-10T00:16:41Z</time>
      </trkpt>
      <trkpt lat="50.40886" lon="2.65287">
        <ele>141.9317627</ele>
        <time>2011-04-10T00:16:47Z</time>
      </trkpt>
      <trkpt lat="50.40878" lon="2.65279">
        <ele>142.8930664</ele>
        <time>2011-04-10T00:16:53Z</time>
      </trkpt>
      <trkpt lat="50.40872" lon="2.65269">
        <ele>141.4510498</ele>
        <time>2011-04-10T00:16:59Z</time>
      </trkpt>
      <trkpt lat="50.40866" lon="2.65262">
        <ele>140.4898682</ele>
        <time>2011-04-10T00:17:05Z</time>
      </trkpt>
      <trkpt lat="50.4086" lon="2.65257">
        <ele>140.0091553</ele>
        <time>2011-04-10T00:17:10Z</time>
      </trkpt>
      <trkpt lat="50.40857" lon="2.65253">
        <ele>140.0091553</ele>
        <time>2011-04-10T00:17:13Z</time>
      </trkpt>
      <trkpt lat="50.40854" lon="2.65249">
        <ele>140.4898682</ele>
        <time>2011-04-10T00:17:16Z</time>
      </trkpt>
      <trkpt lat="50.40847" lon="2.65239">
        <ele>141.4510498</ele>
        <time>2011-04-10T00:17:23Z</time>
      </trkpt>
      <trkpt lat="50.4084" lon="2.65232">
        <ele>141.4510498</ele>
        <time>2011-04-10T00:17:29Z</time>
      </trkpt>
      <trkpt lat="50.40833" lon="2.65224">
        <ele>141.4510498</ele>
        <time>2011-04-10T00:17:35Z</time>
      </trkpt>
      <trkpt lat="50.40824" lon="2.65214">
        <ele>142.8930664</ele>
        <time>2011-04-10T00:17:42Z</time>
      </trkpt>
      <trkpt lat="50.40822" lon="2.65211">
        <ele>142.8930664</ele>
        <time>2011-04-10T00:17:44Z</time>
      </trkpt>
      <trkpt lat="50.40813" lon="2.65201">
        <ele>143.3736572</ele>
        <time>2011-04-10T00:17:51Z</time>
      </trkpt>
      <trkpt lat="50.40802" lon="2.65193">
        <ele>144.3352051</ele>
        <time>2011-04-10T00:17:58Z</time>
      </trkpt>
      <trkpt lat="50.40794" lon="2.65185">
        <ele>143.8543701</ele>
        <time>2011-04-10T00:18:04Z</time>
      </trkpt>
      <trkpt lat="50.40789" lon="2.65178">
        <ele>143.8543701</ele>
        <time>2011-04-10T00:18:10Z</time>
      </trkpt>
      <trkpt lat="50.40783" lon="2.65172">
        <ele>143.8543701</ele>
        <time>2011-04-10T00:18:16Z</time>
      </trkpt>
      <trkpt lat="50.40782" lon="2.65171">
        <ele>144.3352051</ele>
        <time>2011-04-10T00:18:17Z</time>
      </trkpt>
      <trkpt lat="50.40775" lon="2.65165">
        <ele>145.2963867</ele>
        <time>2011-04-10T00:18:23Z</time>
      </trkpt>
      <trkpt lat="50.40767" lon="2.65157">
        <ele>145.2963867</ele>
        <time>2011-04-10T00:18:30Z</time>
      </trkpt>
      <trkpt lat="50.4076" lon="2.65152">
        <ele>144.8157959</ele>
        <time>2011-04-10T00:18:36Z</time>
      </trkpt>
      <trkpt lat="50.40751" lon="2.65146">
        <ele>145.2963867</ele>
        <time>2011-04-10T00:18:42Z</time>
      </trkpt>
      <trkpt lat="50.40746" lon="2.65142">
        <ele>145.2963867</ele>
        <time>2011-04-10T00:18:46Z</time>
      </trkpt>
      <trkpt lat="50.40738" lon="2.65139">
        <ele>145.7770996</ele>
        <time>2011-04-10T00:18:52Z</time>
      </trkpt>
      <trkpt lat="50.40727" lon="2.65132">
        <ele>147.2189941</ele>
        <time>2011-04-10T00:19:00Z</time>
      </trkpt>
      <trkpt lat="50.4072" lon="2.65129">
        <ele>148.1804199</ele>
        <time>2011-04-10T00:19:05Z</time>
      </trkpt>
      <trkpt lat="50.40714" lon="2.65126">
        <ele>148.6610107</ele>
        <time>2011-04-10T00:19:10Z</time>
      </trkpt>
      <trkpt lat="50.40709" lon="2.65119">
        <ele>148.6610107</ele>
        <time>2011-04-10T00:19:15Z</time>
      </trkpt>
      <trkpt lat="50.40704" lon="2.65113">
        <ele>148.1804199</ele>
        <time>2011-04-10T00:19:20Z</time>
      </trkpt>
      <trkpt lat="50.40701" lon="2.65107">
        <ele>147.2189941</ele>
        <time>2011-04-10T00:19:24Z</time>
      </trkpt>
      <trkpt lat="50.40697" lon="2.65102">
        <ele>145.7770996</ele>
        <time>2011-04-10T00:19:28Z</time>
      </trkpt>
      <trkpt lat="50.40695" lon="2.65101">
        <ele>145.7770996</ele>
        <time>2011-04-10T00:19:29Z</time>
      </trkpt>
      <trkpt lat="50.40688" lon="2.65088">
        <ele>143.8543701</ele>
        <time>2011-04-10T00:19:37Z</time>
      </trkpt>
      <trkpt lat="50.40688" lon="2.65086">
        <ele>143.3736572</ele>
        <time>2011-04-10T00:19:38Z</time>
      </trkpt>
      <trkpt lat="50.40684" lon="2.65079">
        <ele>142.8930664</ele>
        <time>2011-04-10T00:19:43Z</time>
      </trkpt>
      <trkpt lat="50.40678" lon="2.65069">
        <ele>143.8543701</ele>
        <time>2011-04-10T00:19:49Z</time>
      </trkpt>
      <trkpt lat="50.4067" lon="2.65061">
        <ele>143.8543701</ele>
        <time>2011-04-10T00:19:56Z</time>
      </trkpt>
      <trkpt lat="50.40663" lon="2.65054">
        <ele>145.7770996</ele>
        <time>2011-04-10T00:20:02Z</time>
      </trkpt>
      <trkpt lat="50.40659" lon="2.6505">
        <ele>147.2189941</ele>
        <time>2011-04-10T00:20:06Z</time>
      </trkpt>
      <trkpt lat="50.40648" lon="2.65042">
        <ele>148.1804199</ele>
        <time>2011-04-10T00:20:15Z</time>
      </trkpt>
      <trkpt lat="50.40646" lon="2.65042">
        <ele>148.6610107</ele>
        <time>2011-04-10T00:20:17Z</time>
      </trkpt>
      <trkpt lat="50.40642" lon="2.65037">
        <ele>148.6610107</ele>
        <time>2011-04-10T00:20:21Z</time>
      </trkpt>
      <trkpt lat="50.40634" lon="2.65028">
        <ele>148.6610107</ele>
        <time>2011-04-10T00:20:27Z</time>
      </trkpt>
      <trkpt lat="50.40629" lon="2.65022">
        <ele>151.064209</ele>
        <time>2011-04-10T00:20:31Z</time>
      </trkpt>
      <trkpt lat="50.40628" lon="2.6502">
        <ele>151.064209</ele>
        <time>2011-04-10T00:20:32Z</time>
      </trkpt>
      <trkpt lat="50.40626" lon="2.65017">
        <ele>151.5449219</ele>
        <time>2011-04-10T00:20:34Z</time>
      </trkpt>
      <trkpt lat="50.4062" lon="2.65011">
        <ele>152.5063477</ele>
        <time>2011-04-10T00:20:40Z</time>
      </trkpt>
      <trkpt lat="50.40614" lon="2.65005">
        <ele>151.5449219</ele>
        <time>2011-04-10T00:20:45Z</time>
      </trkpt>
      <trkpt lat="50.40609" lon="2.64998">
        <ele>150.5836182</ele>
        <time>2011-04-10T00:20:51Z</time>
      </trkpt>
      <trkpt lat="50.40601" lon="2.6499">
        <ele>149.6223145</ele>
        <time>2011-04-10T00:20:57Z</time>
      </trkpt>
      <trkpt lat="50.40599" lon="2.64989">
        <ele>150.1030273</ele>
        <time>2011-04-10T00:20:58Z</time>
      </trkpt>
      <trkpt lat="50.40595" lon="2.64984">
        <ele>148.6610107</ele>
        <time>2011-04-10T00:21:02Z</time>
      </trkpt>
      <trkpt lat="50.40593" lon="2.64982">
        <ele>148.6610107</ele>
        <time>2011-04-10T00:21:04Z</time>
      </trkpt>
      <trkpt lat="50.40585" lon="2.64974">
        <ele>148.1804199</ele>
        <time>2011-04-10T00:21:11Z</time>
      </trkpt>
      <trkpt lat="50.40577" lon="2.6497">
        <ele>149.1416016</ele>
        <time>2011-04-10T00:21:17Z</time>
      </trkpt>
      <trkpt lat="50.40576" lon="2.64969">
        <ele>149.6223145</ele>
        <time>2011-04-10T00:21:18Z</time>
      </trkpt>
      <trkpt lat="50.40572" lon="2.64967">
        <ele>150.1030273</ele>
        <time>2011-04-10T00:21:21Z</time>
      </trkpt>
      <trkpt lat="50.40569" lon="2.64965">
        <ele>150.1030273</ele>
        <time>2011-04-10T00:21:23Z</time>
      </trkpt>
      <trkpt lat="50.40562" lon="2.64964">
        <ele>151.5449219</ele>
        <time>2011-04-10T00:21:29Z</time>
      </trkpt>
      <trkpt lat="50.40559" lon="2.64964">
        <ele>152.5063477</ele>
        <time>2011-04-10T00:21:31Z</time>
      </trkpt>
      <trkpt lat="50.40555" lon="2.64963">
        <ele>152.9869385</ele>
        <time>2011-04-10T00:21:36Z</time>
      </trkpt>
      <trkpt lat="50.40553" lon="2.64961">
        <ele>152.0257568</ele>
        <time>2011-04-10T00:21:39Z</time>
      </trkpt>
      <trkpt lat="50.40552" lon="2.6496">
        <ele>152.5063477</ele>
        <time>2011-04-10T00:21:46Z</time>
      </trkpt>
      <trkpt lat="50.40552" lon="2.6496">
        <ele>152.0257568</ele>
        <time>2011-04-10T00:21:47Z</time>
      </trkpt>
      <trkpt lat="50.40551" lon="2.6496">
        <ele>152.0257568</ele>
        <time>2011-04-10T00:21:48Z</time>
      </trkpt>
      <trkpt lat="50.40545" lon="2.64957">
        <ele>152.5063477</ele>
        <time>2011-04-10T00:21:53Z</time>
      </trkpt>
      <trkpt lat="50.40541" lon="2.64956">
        <ele>152.0257568</ele>
        <time>2011-04-10T00:21:56Z</time>
      </trkpt>
      <trkpt lat="50.40531" lon="2.64951">
        <ele>152.0257568</ele>
        <time>2011-04-10T00:22:03Z</time>
      </trkpt>
      <trkpt lat="50.4052" lon="2.6495">
        <ele>152.0257568</ele>
        <time>2011-04-10T00:22:11Z</time>
      </trkpt>
      <trkpt lat="50.40516" lon="2.64949">
        <ele>152.0257568</ele>
        <time>2011-04-10T00:22:14Z</time>
      </trkpt>
      <trkpt lat="50.4051" lon="2.64949">
        <ele>152.5063477</ele>
        <time>2011-04-10T00:22:19Z</time>
      </trkpt>
      <trkpt lat="50.40502" lon="2.64948">
        <ele>152.9869385</ele>
        <time>2011-04-10T00:22:25Z</time>
      </trkpt>
      <trkpt lat="50.40499" lon="2.64949">
        <ele>153.4676514</ele>
        <time>2011-04-10T00:22:27Z</time>
      </trkpt>
      <trkpt lat="50.40492" lon="2.64947">
        <ele>153.4676514</ele>
        <time>2011-04-10T00:22:32Z</time>
      </trkpt>
      <trkpt lat="50.40484" lon="2.64946">
        <ele>152.0257568</ele>
        <time>2011-04-10T00:22:38Z</time>
      </trkpt>
      <trkpt lat="50.40481" lon="2.64943">
        <ele>152.0257568</ele>
        <time>2011-04-10T00:22:41Z</time>
      </trkpt>
      <trkpt lat="50.4048" lon="2.64936">
        <ele>151.5449219</ele>
        <time>2011-04-10T00:22:45Z</time>
      </trkpt>
      <trkpt lat="50.40483" lon="2.6493">
        <ele>151.064209</ele>
        <time>2011-04-10T00:22:49Z</time>
      </trkpt>
      <trkpt lat="50.40484" lon="2.64921">
        <ele>149.1416016</ele>
        <time>2011-04-10T00:22:53Z</time>
      </trkpt>
      <trkpt lat="50.40487" lon="2.64914">
        <ele>148.6610107</ele>
        <time>2011-04-10T00:22:57Z</time>
      </trkpt>
      <trkpt lat="50.40488" lon="2.6491">
        <ele>148.6610107</ele>
        <time>2011-04-10T00:22:59Z</time>
      </trkpt>
      <trkpt lat="50.40489" lon="2.64896">
        <ele>149.6223145</ele>
        <time>2011-04-10T00:23:05Z</time>
      </trkpt>
      <trkpt lat="50.40485" lon="2.64875">
        <ele>155.8709717</ele>
        <time>2011-04-10T00:23:13Z</time>
      </trkpt>
      <trkpt lat="50.40484" lon="2.64859">
        <ele>158.7547607</ele>
        <time>2011-04-10T00:23:19Z</time>
      </trkpt>
      <trkpt lat="50.40484" lon="2.64855">
        <ele>158.7547607</ele>
        <time>2011-04-10T00:23:21Z</time>
      </trkpt>
      <trkpt lat="50.40482" lon="2.64843">
        <ele>159.2354736</ele>
        <time>2011-04-10T00:23:26Z</time>
      </trkpt>
      <trkpt lat="50.40482" lon="2.64837">
        <ele>159.2354736</ele>
        <time>2011-04-10T00:23:29Z</time>
      </trkpt>
      <trkpt lat="50.40482" lon="2.64827">
        <ele>161.1582031</ele>
        <time>2011-04-10T00:23:33Z</time>
      </trkpt>
      <trkpt lat="50.40484" lon="2.6482">
        <ele>160.6774902</ele>
        <time>2011-04-10T00:23:37Z</time>
      </trkpt>
      <trkpt lat="50.40485" lon="2.64816">
        <ele>160.6774902</ele>
        <time>2011-04-10T00:23:39Z</time>
      </trkpt>
      <trkpt lat="50.40486" lon="2.64811">
        <ele>159.7161865</ele>
        <time>2011-04-10T00:23:41Z</time>
      </trkpt>
      <trkpt lat="50.40492" lon="2.648">
        <ele>160.6774902</ele>
        <time>2011-04-10T00:23:47Z</time>
      </trkpt>
      <trkpt lat="50.40499" lon="2.64781">
        <ele>161.1582031</ele>
        <time>2011-04-10T00:23:57Z</time>
      </trkpt>
      <trkpt lat="50.40501" lon="2.64775">
        <ele>161.1582031</ele>
        <time>2011-04-10T00:24:00Z</time>
      </trkpt>
      <trkpt lat="50.40504" lon="2.64767">
        <ele>162.1195068</ele>
        <time>2011-04-10T00:24:04Z</time>
      </trkpt>
      <trkpt lat="50.4051" lon="2.64749">
        <ele>162.6000977</ele>
        <time>2011-04-10T00:24:14Z</time>
      </trkpt>
      <trkpt lat="50.40515" lon="2.64738">
        <ele>162.1195068</ele>
        <time>2011-04-10T00:24:20Z</time>
      </trkpt>
      <trkpt lat="50.40518" lon="2.64726">
        <ele>162.1195068</ele>
        <time>2011-04-10T00:24:26Z</time>
      </trkpt>
      <trkpt lat="50.40521" lon="2.6472">
        <ele>161.638916</ele>
        <time>2011-04-10T00:24:30Z</time>
      </trkpt>
      <trkpt lat="50.40528" lon="2.64704">
        <ele>161.638916</ele>
        <time>2011-04-10T00:24:39Z</time>
      </trkpt>
      <trkpt lat="50.40539" lon="2.64687">
        <ele>164.5227051</ele>
        <time>2011-04-10T00:24:49Z</time>
      </trkpt>
      <trkpt lat="50.40542" lon="2.64677">
        <ele>163.0808105</ele>
        <time>2011-04-10T00:24:54Z</time>
      </trkpt>
      <trkpt lat="50.40545" lon="2.64666">
        <ele>161.638916</ele>
        <time>2011-04-10T00:24:59Z</time>
      </trkpt>
      <trkpt lat="50.40548" lon="2.64659">
        <ele>161.1582031</ele>
        <time>2011-04-10T00:25:03Z</time>
      </trkpt>
      <trkpt lat="50.40554" lon="2.64642">
        <ele>161.1582031</ele>
        <time>2011-04-10T00:25:12Z</time>
      </trkpt>
      <trkpt lat="50.40555" lon="2.6464">
        <ele>160.6774902</ele>
        <time>2011-04-10T00:25:13Z</time>
      </trkpt>
      <trkpt lat="50.40557" lon="2.64632">
        <ele>161.1582031</ele>
        <time>2011-04-10T00:25:17Z</time>
      </trkpt>
      <trkpt lat="50.40561" lon="2.64618">
        <ele>159.2354736</ele>
        <time>2011-04-10T00:25:24Z</time>
      </trkpt>
      <trkpt lat="50.40566" lon="2.64607">
        <ele>159.2354736</ele>
        <time>2011-04-10T00:25:30Z</time>
      </trkpt>
      <trkpt lat="50.40566" lon="2.64606">
        <ele>159.7161865</ele>
        <time>2011-04-10T00:25:31Z</time>
      </trkpt>
      <trkpt lat="50.4057" lon="2.64598">
        <ele>160.6774902</ele>
        <time>2011-04-10T00:25:35Z</time>
      </trkpt>
      <trkpt lat="50.40576" lon="2.64581">
        <ele>159.7161865</ele>
        <time>2011-04-10T00:25:43Z</time>
      </trkpt>
      <trkpt lat="50.4058" lon="2.64572">
        <ele>158.7547607</ele>
        <time>2011-04-10T00:25:48Z</time>
      </trkpt>
      <trkpt lat="50.40585" lon="2.64559">
        <ele>157.3128662</ele>
        <time>2011-04-10T00:25:55Z</time>
      </trkpt>
      <trkpt lat="50.4059" lon="2.6455">
        <ele>157.3128662</ele>
        <time>2011-04-10T00:26:00Z</time>
      </trkpt>
      <trkpt lat="50.40592" lon="2.64544">
        <ele>157.3128662</ele>
        <time>2011-04-10T00:26:03Z</time>
      </trkpt>
      <trkpt lat="50.40599" lon="2.64531">
        <ele>157.7935791</ele>
        <time>2011-04-10T00:26:10Z</time>
      </trkpt>
      <trkpt lat="50.40606" lon="2.64521">
        <ele>157.3128662</ele>
        <time>2011-04-10T00:26:17Z</time>
      </trkpt>
      <trkpt lat="50.40614" lon="2.64508">
        <ele>158.7547607</ele>
        <time>2011-04-10T00:26:25Z</time>
      </trkpt>
      <trkpt lat="50.4062" lon="2.64501">
        <ele>158.7547607</ele>
        <time>2011-04-10T00:26:31Z</time>
      </trkpt>
      <trkpt lat="50.4063" lon="2.64493">
        <ele>156.8321533</ele>
        <time>2011-04-10T00:26:40Z</time>
      </trkpt>
      <trkpt lat="50.40632" lon="2.64492">
        <ele>157.3128662</ele>
        <time>2011-04-10T00:26:42Z</time>
      </trkpt>
      <trkpt lat="50.40637" lon="2.64489">
        <ele>157.7935791</ele>
        <time>2011-04-10T00:26:48Z</time>
      </trkpt>
      <trkpt lat="50.4064" lon="2.64487">
        <ele>158.2741699</ele>
        <time>2011-04-10T00:26:50Z</time>
      </trkpt>
      <trkpt lat="50.40645" lon="2.64479">
        <ele>159.2354736</ele>
        <time>2011-04-10T00:26:55Z</time>
      </trkpt>
      <trkpt lat="50.40651" lon="2.64472">
        <ele>158.7547607</ele>
        <time>2011-04-10T00:27:00Z</time>
      </trkpt>
      <trkpt lat="50.40653" lon="2.6447">
        <ele>158.2741699</ele>
        <time>2011-04-10T00:27:02Z</time>
      </trkpt>
      <trkpt lat="50.40665" lon="2.64461">
        <ele>157.7935791</ele>
        <time>2011-04-10T00:27:11Z</time>
      </trkpt>
      <trkpt lat="50.40667" lon="2.6446">
        <ele>157.7935791</ele>
        <time>2011-04-10T00:27:12Z</time>
      </trkpt>
      <trkpt lat="50.40672" lon="2.64454">
        <ele>158.2741699</ele>
        <time>2011-04-10T00:27:16Z</time>
      </trkpt>
      <trkpt lat="50.4068" lon="2.64449">
        <ele>157.3128662</ele>
        <time>2011-04-10T00:27:22Z</time>
      </trkpt>
      <trkpt lat="50.40688" lon="2.64442">
        <ele>156.8321533</ele>
        <time>2011-04-10T00:27:29Z</time>
      </trkpt>
      <trkpt lat="50.40695" lon="2.64437">
        <ele>156.8321533</ele>
        <time>2011-04-10T00:27:35Z</time>
      </trkpt>
      <trkpt lat="50.40703" lon="2.64432">
        <ele>157.3128662</ele>
        <time>2011-04-10T00:27:42Z</time>
      </trkpt>
      <trkpt lat="50.40708" lon="2.64428">
        <ele>157.7935791</ele>
        <time>2011-04-10T00:27:48Z</time>
      </trkpt>
      <trkpt lat="50.40714" lon="2.64425">
        <ele>155.8709717</ele>
        <time>2011-04-10T00:27:53Z</time>
      </trkpt>
      <trkpt lat="50.40716" lon="2.64424">
        <ele>154.9095459</ele>
        <time>2011-04-10T00:27:55Z</time>
      </trkpt>
      <trkpt lat="50.40718" lon="2.64422">
        <ele>154.4289551</ele>
        <time>2011-04-10T00:27:57Z</time>
      </trkpt>
      <trkpt lat="50.40723" lon="2.64419">
        <ele>153.9483643</ele>
        <time>2011-04-10T00:28:01Z</time>
      </trkpt>
      <trkpt lat="50.40726" lon="2.64418">
        <ele>153.9483643</ele>
        <time>2011-04-10T00:28:03Z</time>
      </trkpt>
      <trkpt lat="50.40733" lon="2.64414">
        <ele>153.9483643</ele>
        <time>2011-04-10T00:28:10Z</time>
      </trkpt>
      <trkpt lat="50.40742" lon="2.64407">
        <ele>153.9483643</ele>
        <time>2011-04-10T00:28:18Z</time>
      </trkpt>
      <trkpt lat="50.40746" lon="2.64403">
        <ele>154.4289551</ele>
        <time>2011-04-10T00:28:22Z</time>
      </trkpt>
      <trkpt lat="50.40752" lon="2.64398">
        <ele>155.8709717</ele>
        <time>2011-04-10T00:28:28Z</time>
      </trkpt>
      <trkpt lat="50.40755" lon="2.64394">
        <ele>156.8321533</ele>
        <time>2011-04-10T00:28:31Z</time>
      </trkpt>
      <trkpt lat="50.40759" lon="2.6439">
        <ele>158.7547607</ele>
        <time>2011-04-10T00:28:35Z</time>
      </trkpt>
      <trkpt lat="50.40769" lon="2.64388">
        <ele>158.2741699</ele>
        <time>2011-04-10T00:28:41Z</time>
      </trkpt>
      <trkpt lat="50.40775" lon="2.64385">
        <ele>157.7935791</ele>
        <time>2011-04-10T00:28:45Z</time>
      </trkpt>
      <trkpt lat="50.40781" lon="2.64382">
        <ele>156.8321533</ele>
        <time>2011-04-10T00:28:49Z</time>
      </trkpt>
      <trkpt lat="50.40788" lon="2.64374">
        <ele>158.7547607</ele>
        <time>2011-04-10T00:28:56Z</time>
      </trkpt>
      <trkpt lat="50.40795" lon="2.64369">
        <ele>160.6774902</ele>
        <time>2011-04-10T00:29:02Z</time>
      </trkpt>
      <trkpt lat="50.40803" lon="2.64364">
        <ele>161.1582031</ele>
        <time>2011-04-10T00:29:08Z</time>
      </trkpt>
      <trkpt lat="50.40807" lon="2.64361">
        <ele>161.638916</ele>
        <time>2011-04-10T00:29:11Z</time>
      </trkpt>
      <trkpt lat="50.40813" lon="2.64359">
        <ele>160.1968994</ele>
        <time>2011-04-10T00:29:15Z</time>
      </trkpt>
      <trkpt lat="50.40822" lon="2.64357">
        <ele>158.2741699</ele>
        <time>2011-04-10T00:29:21Z</time>
      </trkpt>
      <trkpt lat="50.40829" lon="2.64352">
        <ele>156.8321533</ele>
        <time>2011-04-10T00:29:27Z</time>
      </trkpt>
      <trkpt lat="50.40838" lon="2.64347">
        <ele>156.8321533</ele>
        <time>2011-04-10T00:29:34Z</time>
      </trkpt>
      <trkpt lat="50.40847" lon="2.64342">
        <ele>154.9095459</ele>
        <time>2011-04-10T00:29:41Z</time>
      </trkpt>
      <trkpt lat="50.40858" lon="2.64338">
        <ele>153.9483643</ele>
        <time>2011-04-10T00:29:49Z</time>
      </trkpt>
      <trkpt lat="50.40865" lon="2.64337">
        <ele>152.9869385</ele>
        <time>2011-04-10T00:29:54Z</time>
      </trkpt>
      <trkpt lat="50.40876" lon="2.64336">
        <ele>153.4676514</ele>
        <time>2011-04-10T00:30:01Z</time>
      </trkpt>
      <trkpt lat="50.40886" lon="2.64336">
        <ele>153.4676514</ele>
        <time>2011-04-10T00:30:07Z</time>
      </trkpt>
      <trkpt lat="50.40888" lon="2.64338">
        <ele>152.9869385</ele>
        <time>2011-04-10T00:30:09Z</time>
      </trkpt>
      <trkpt lat="50.4089" lon="2.64339">
        <ele>152.5063477</ele>
        <time>2011-04-10T00:30:11Z</time>
      </trkpt>
      <trkpt lat="50.40899" lon="2.64341">
        <ele>152.0257568</ele>
        <time>2011-04-10T00:30:18Z</time>
      </trkpt>
      <trkpt lat="50.40905" lon="2.64342">
        <ele>152.0257568</ele>
        <time>2011-04-10T00:30:22Z</time>
      </trkpt>
      <trkpt lat="50.40911" lon="2.64342">
        <ele>152.9869385</ele>
        <time>2011-04-10T00:30:27Z</time>
      </trkpt>
      <trkpt lat="50.40916" lon="2.64341">
        <ele>153.9483643</ele>
        <time>2011-04-10T00:30:32Z</time>
      </trkpt>
      <trkpt lat="50.40921" lon="2.64341">
        <ele>155.3902588</ele>
        <time>2011-04-10T00:30:36Z</time>
      </trkpt>
      <trkpt lat="50.40926" lon="2.6434">
        <ele>155.8709717</ele>
        <time>2011-04-10T00:30:40Z</time>
      </trkpt>
      <trkpt lat="50.40934" lon="2.64343">
        <ele>155.8709717</ele>
        <time>2011-04-10T00:30:46Z</time>
      </trkpt>
      <trkpt lat="50.40937" lon="2.64344">
        <ele>155.8709717</ele>
        <time>2011-04-10T00:30:48Z</time>
      </trkpt>
      <trkpt lat="50.40947" lon="2.64345">
        <ele>156.8321533</ele>
        <time>2011-04-10T00:30:54Z</time>
      </trkpt>
      <trkpt lat="50.40952" lon="2.64345">
        <ele>158.2741699</ele>
        <time>2011-04-10T00:30:59Z</time>
      </trkpt>
      <trkpt lat="50.40958" lon="2.6434">
        <ele>158.7547607</ele>
        <time>2011-04-10T00:31:05Z</time>
      </trkpt>
      <trkpt lat="50.40965" lon="2.6433">
        <ele>159.2354736</ele>
        <time>2011-04-10T00:31:12Z</time>
      </trkpt>
      <trkpt lat="50.40967" lon="2.64324">
        <ele>159.7161865</ele>
        <time>2011-04-10T00:31:15Z</time>
      </trkpt>
      <trkpt lat="50.4097" lon="2.64315">
        <ele>160.1968994</ele>
        <time>2011-04-10T00:31:20Z</time>
      </trkpt>
      <trkpt lat="50.40973" lon="2.64308">
        <ele>160.1968994</ele>
        <time>2011-04-10T00:31:24Z</time>
      </trkpt>
      <trkpt lat="50.40976" lon="2.64302">
        <ele>158.7547607</ele>
        <time>2011-04-10T00:31:28Z</time>
      </trkpt>
      <trkpt lat="50.40982" lon="2.6428">
        <ele>157.7935791</ele>
        <time>2011-04-10T00:31:39Z</time>
      </trkpt>
      <trkpt lat="50.40989" lon="2.64268">
        <ele>159.2354736</ele>
        <time>2011-04-10T00:31:46Z</time>
      </trkpt>
      <trkpt lat="50.4099" lon="2.64266">
        <ele>159.2354736</ele>
        <time>2011-04-10T00:31:47Z</time>
      </trkpt>
      <trkpt lat="50.40999" lon="2.64253">
        <ele>161.1582031</ele>
        <time>2011-04-10T00:31:55Z</time>
      </trkpt>
      <trkpt lat="50.41" lon="2.64248">
        <ele>160.6774902</ele>
        <time>2011-04-10T00:31:58Z</time>
      </trkpt>
      <trkpt lat="50.40999" lon="2.64235">
        <ele>157.3128662</ele>
        <time>2011-04-10T00:32:05Z</time>
      </trkpt>
      <trkpt lat="50.40999" lon="2.64233">
        <ele>156.8321533</ele>
        <time>2011-04-10T00:32:06Z</time>
      </trkpt>
      <trkpt lat="50.40995" lon="2.64219">
        <ele>156.8321533</ele>
        <time>2011-04-10T00:32:12Z</time>
      </trkpt>
      <trkpt lat="50.40994" lon="2.64208">
        <ele>157.3128662</ele>
        <time>2011-04-10T00:32:16Z</time>
      </trkpt>
      <trkpt lat="50.40995" lon="2.64193">
        <ele>157.7935791</ele>
        <time>2011-04-10T00:32:22Z</time>
      </trkpt>
      <trkpt lat="50.40996" lon="2.64184">
        <ele>157.3128662</ele>
        <time>2011-04-10T00:32:27Z</time>
      </trkpt>
      <trkpt lat="50.40997" lon="2.64173">
        <ele>156.8321533</ele>
        <time>2011-04-10T00:32:32Z</time>
      </trkpt>
      <trkpt lat="50.40996" lon="2.64164">
        <ele>157.3128662</ele>
        <time>2011-04-10T00:32:36Z</time>
      </trkpt>
      <trkpt lat="50.40996" lon="2.64148">
        <ele>157.7935791</ele>
        <time>2011-04-10T00:32:43Z</time>
      </trkpt>
      <trkpt lat="50.40993" lon="2.64135">
        <ele>158.2741699</ele>
        <time>2011-04-10T00:32:49Z</time>
      </trkpt>
      <trkpt lat="50.40989" lon="2.64127">
        <ele>158.7547607</ele>
        <time>2011-04-10T00:32:53Z</time>
      </trkpt>
      <trkpt lat="50.40986" lon="2.6412">
        <ele>157.3128662</ele>
        <time>2011-04-10T00:32:57Z</time>
      </trkpt>
      <trkpt lat="50.40984" lon="2.64113">
        <ele>157.3128662</ele>
        <time>2011-04-10T00:33:01Z</time>
      </trkpt>
      <trkpt lat="50.40982" lon="2.64109">
        <ele>157.7935791</ele>
        <time>2011-04-10T00:33:03Z</time>
      </trkpt>
      <trkpt lat="50.40976" lon="2.64094">
        <ele>159.7161865</ele>
        <time>2011-04-10T00:33:10Z</time>
      </trkpt>
      <trkpt lat="50.40973" lon="2.64084">
        <ele>159.2354736</ele>
        <time>2011-04-10T00:33:16Z</time>
      </trkpt>
      <trkpt lat="50.40972" lon="2.64079">
        <ele>159.7161865</ele>
        <time>2011-04-10T00:33:18Z</time>
      </trkpt>
      <trkpt lat="50.40968" lon="2.64071">
        <ele>159.7161865</ele>
        <time>2011-04-10T00:33:22Z</time>
      </trkpt>
      <trkpt lat="50.40962" lon="2.64058">
        <ele>158.7547607</ele>
        <time>2011-04-10T00:33:29Z</time>
      </trkpt>
      <trkpt lat="50.40956" lon="2.64045">
        <ele>160.6774902</ele>
        <time>2011-04-10T00:33:35Z</time>
      </trkpt>
      <trkpt lat="50.40952" lon="2.64032">
        <ele>161.638916</ele>
        <time>2011-04-10T00:33:41Z</time>
      </trkpt>
      <trkpt lat="50.40948" lon="2.6402">
        <ele>161.638916</ele>
        <time>2011-04-10T00:33:46Z</time>
      </trkpt>
      <trkpt lat="50.40944" lon="2.64012">
        <ele>161.1582031</ele>
        <time>2011-04-10T00:33:51Z</time>
      </trkpt>
      <trkpt lat="50.40944" lon="2.6401">
        <ele>161.1582031</ele>
        <time>2011-04-10T00:33:52Z</time>
      </trkpt>
      <trkpt lat="50.40939" lon="2.63995">
        <ele>161.638916</ele>
        <time>2011-04-10T00:33:59Z</time>
      </trkpt>
      <trkpt lat="50.40934" lon="2.63981">
        <ele>163.0808105</ele>
        <time>2011-04-10T00:34:06Z</time>
      </trkpt>
      <trkpt lat="50.4093" lon="2.6397">
        <ele>163.0808105</ele>
        <time>2011-04-10T00:34:12Z</time>
      </trkpt>
      <trkpt lat="50.40929" lon="2.63965">
        <ele>163.0808105</ele>
        <time>2011-04-10T00:34:14Z</time>
      </trkpt>
      <trkpt lat="50.40923" lon="2.63954">
        <ele>162.1195068</ele>
        <time>2011-04-10T00:34:20Z</time>
      </trkpt>
      <trkpt lat="50.40921" lon="2.63949">
        <ele>161.638916</ele>
        <time>2011-04-10T00:34:23Z</time>
      </trkpt>
      <trkpt lat="50.40918" lon="2.63939">
        <ele>161.1582031</ele>
        <time>2011-04-10T00:34:29Z</time>
      </trkpt>
      <trkpt lat="50.40915" lon="2.6393">
        <ele>161.638916</ele>
        <time>2011-04-10T00:34:33Z</time>
      </trkpt>
      <trkpt lat="50.4091" lon="2.6392">
        <ele>162.1195068</ele>
        <time>2011-04-10T00:34:37Z</time>
      </trkpt>
      <trkpt lat="50.40909" lon="2.63916">
        <ele>161.638916</ele>
        <time>2011-04-10T00:34:39Z</time>
      </trkpt>
      <trkpt lat="50.40908" lon="2.63906">
        <ele>158.7547607</ele>
        <time>2011-04-10T00:34:45Z</time>
      </trkpt>
      <trkpt lat="50.40908" lon="2.63904">
        <ele>158.2741699</ele>
        <time>2011-04-10T00:34:46Z</time>
      </trkpt>
      <trkpt lat="50.40906" lon="2.6389">
        <ele>156.3515625</ele>
        <time>2011-04-10T00:34:53Z</time>
      </trkpt>
      <trkpt lat="50.40901" lon="2.63884">
        <ele>153.9483643</ele>
        <time>2011-04-10T00:34:57Z</time>
      </trkpt>
      <trkpt lat="50.40899" lon="2.6387">
        <ele>152.5063477</ele>
        <time>2011-04-10T00:35:04Z</time>
      </trkpt>
      <trkpt lat="50.40896" lon="2.63858">
        <ele>152.9869385</ele>
        <time>2011-04-10T00:35:09Z</time>
      </trkpt>
      <trkpt lat="50.40893" lon="2.63847">
        <ele>151.064209</ele>
        <time>2011-04-10T00:35:14Z</time>
      </trkpt>
      <trkpt lat="50.40892" lon="2.63836">
        <ele>147.699707</ele>
        <time>2011-04-10T00:35:19Z</time>
      </trkpt>
      <trkpt lat="50.40891" lon="2.63832">
        <ele>146.2578125</ele>
        <time>2011-04-10T00:35:21Z</time>
      </trkpt>
      <trkpt lat="50.40889" lon="2.63822">
        <ele>143.3736572</ele>
        <time>2011-04-10T00:35:27Z</time>
      </trkpt>
      <trkpt lat="50.40888" lon="2.63819">
        <ele>142.4124756</ele>
        <time>2011-04-10T00:35:29Z</time>
      </trkpt>
      <trkpt lat="50.40885" lon="2.63805">
        <ele>139.5284424</ele>
        <time>2011-04-10T00:35:37Z</time>
      </trkpt>
      <trkpt lat="50.40885" lon="2.63802">
        <ele>139.0478516</ele>
        <time>2011-04-10T00:35:39Z</time>
      </trkpt>
      <trkpt lat="50.40882" lon="2.63795">
        <ele>137.1252441</ele>
        <time>2011-04-10T00:35:44Z</time>
      </trkpt>
      <trkpt lat="50.40875" lon="2.63785">
        <ele>136.1639404</ele>
        <time>2011-04-10T00:35:50Z</time>
      </trkpt>
      <trkpt lat="50.40874" lon="2.63783">
        <ele>136.6446533</ele>
        <time>2011-04-10T00:35:51Z</time>
      </trkpt>
      <trkpt lat="50.40871" lon="2.63771">
        <ele>138.0865479</ele>
        <time>2011-04-10T00:35:58Z</time>
      </trkpt>
      <trkpt lat="50.4087" lon="2.63761">
        <ele>140.0091553</ele>
        <time>2011-04-10T00:36:03Z</time>
      </trkpt>
      <trkpt lat="50.4087" lon="2.63749">
        <ele>142.8930664</ele>
        <time>2011-04-10T00:36:09Z</time>
      </trkpt>
      <trkpt lat="50.4087" lon="2.63736">
        <ele>144.8157959</ele>
        <time>2011-04-10T00:36:14Z</time>
      </trkpt>
      <trkpt lat="50.40867" lon="2.63727">
        <ele>146.2578125</ele>
        <time>2011-04-10T00:36:18Z</time>
      </trkpt>
      <trkpt lat="50.40863" lon="2.63713">
        <ele>150.1030273</ele>
        <time>2011-04-10T00:36:24Z</time>
      </trkpt>
      <trkpt lat="50.4086" lon="2.63699">
        <ele>151.5449219</ele>
        <time>2011-04-10T00:36:30Z</time>
      </trkpt>
      <trkpt lat="50.40857" lon="2.63688">
        <ele>151.5449219</ele>
        <time>2011-04-10T00:36:36Z</time>
      </trkpt>
      <trkpt lat="50.40852" lon="2.63678">
        <ele>153.4676514</ele>
        <time>2011-04-10T00:36:43Z</time>
      </trkpt>
      <trkpt lat="50.40849" lon="2.63667">
        <ele>155.3902588</ele>
        <time>2011-04-10T00:36:48Z</time>
      </trkpt>
      <trkpt lat="50.40846" lon="2.63656">
        <ele>156.3515625</ele>
        <time>2011-04-10T00:36:54Z</time>
      </trkpt>
      <trkpt lat="50.40841" lon="2.63642">
        <ele>156.8321533</ele>
        <time>2011-04-10T00:37:00Z</time>
      </trkpt>
      <trkpt lat="50.40838" lon="2.63634">
        <ele>157.3128662</ele>
        <time>2011-04-10T00:37:03Z</time>
      </trkpt>
      <trkpt lat="50.40832" lon="2.63626">
        <ele>156.3515625</ele>
        <time>2011-04-10T00:37:08Z</time>
      </trkpt>
      <trkpt lat="50.4083" lon="2.63622">
        <ele>155.8709717</ele>
        <time>2011-04-10T00:37:11Z</time>
      </trkpt>
      <trkpt lat="50.40823" lon="2.63614">
        <ele>154.4289551</ele>
        <time>2011-04-10T00:37:15Z</time>
      </trkpt>
      <trkpt lat="50.4082" lon="2.63611">
        <ele>154.4289551</ele>
        <time>2011-04-10T00:37:18Z</time>
      </trkpt>
      <trkpt lat="50.40816" lon="2.63603">
        <ele>155.3902588</ele>
        <time>2011-04-10T00:37:23Z</time>
      </trkpt>
      <trkpt lat="50.40815" lon="2.63599">
        <ele>156.8321533</ele>
        <time>2011-04-10T00:37:25Z</time>
      </trkpt>
      <trkpt lat="50.4081" lon="2.63588">
        <ele>158.7547607</ele>
        <time>2011-04-10T00:37:30Z</time>
      </trkpt>
      <trkpt lat="50.4081" lon="2.63579">
        <ele>157.3128662</ele>
        <time>2011-04-10T00:37:35Z</time>
      </trkpt>
      <trkpt lat="50.40807" lon="2.63569">
        <ele>157.3128662</ele>
        <time>2011-04-10T00:37:40Z</time>
      </trkpt>
      <trkpt lat="50.40805" lon="2.6356">
        <ele>158.2741699</ele>
        <time>2011-04-10T00:37:45Z</time>
      </trkpt>
      <trkpt lat="50.40803" lon="2.6355">
        <ele>159.2354736</ele>
        <time>2011-04-10T00:37:48Z</time>
      </trkpt>
      <trkpt lat="50.40802" lon="2.63546">
        <ele>158.2741699</ele>
        <time>2011-04-10T00:37:50Z</time>
      </trkpt>
      <trkpt lat="50.40802" lon="2.63538">
        <ele>155.3902588</ele>
        <time>2011-04-10T00:37:56Z</time>
      </trkpt>
      <trkpt lat="50.40801" lon="2.63536">
        <ele>154.9095459</ele>
        <time>2011-04-10T00:37:57Z</time>
      </trkpt>
      <trkpt lat="50.40798" lon="2.6353">
        <ele>153.9483643</ele>
        <time>2011-04-10T00:38:01Z</time>
      </trkpt>
      <trkpt lat="50.40793" lon="2.63523">
        <ele>153.9483643</ele>
        <time>2011-04-10T00:38:05Z</time>
      </trkpt>
      <trkpt lat="50.4079" lon="2.63512">
        <ele>155.3902588</ele>
        <time>2011-04-10T00:38:11Z</time>
      </trkpt>
      <trkpt lat="50.40789" lon="2.63501">
        <ele>156.3515625</ele>
        <time>2011-04-10T00:38:16Z</time>
      </trkpt>
      <trkpt lat="50.40786" lon="2.6349">
        <ele>156.3515625</ele>
        <time>2011-04-10T00:38:21Z</time>
      </trkpt>
      <trkpt lat="50.40784" lon="2.63483">
        <ele>155.3902588</ele>
        <time>2011-04-10T00:38:25Z</time>
      </trkpt>
      <trkpt lat="50.40782" lon="2.63473">
        <ele>156.3515625</ele>
        <time>2011-04-10T00:38:30Z</time>
      </trkpt>
      <trkpt lat="50.40782" lon="2.63469">
        <ele>156.8321533</ele>
        <time>2011-04-10T00:38:32Z</time>
      </trkpt>
      <trkpt lat="50.40785" lon="2.63456">
        <ele>158.2741699</ele>
        <time>2011-04-10T00:38:38Z</time>
      </trkpt>
      <trkpt lat="50.40791" lon="2.63446">
        <ele>157.7935791</ele>
        <time>2011-04-10T00:38:44Z</time>
      </trkpt>
      <trkpt lat="50.40792" lon="2.63444">
        <ele>157.7935791</ele>
        <time>2011-04-10T00:38:45Z</time>
      </trkpt>
      <trkpt lat="50.40794" lon="2.63442">
        <ele>158.2741699</ele>
        <time>2011-04-10T00:38:47Z</time>
      </trkpt>
      <trkpt lat="50.40801" lon="2.6343">
        <ele>159.2354736</ele>
        <time>2011-04-10T00:38:55Z</time>
      </trkpt>
      <trkpt lat="50.40805" lon="2.63416">
        <ele>159.2354736</ele>
        <time>2011-04-10T00:39:03Z</time>
      </trkpt>
      <trkpt lat="50.4081" lon="2.63406">
        <ele>159.7161865</ele>
        <time>2011-04-10T00:39:10Z</time>
      </trkpt>
      <trkpt lat="50.40813" lon="2.63402">
        <ele>159.7161865</ele>
        <time>2011-04-10T00:39:13Z</time>
      </trkpt>
      <trkpt lat="50.40815" lon="2.63397">
        <ele>160.1968994</ele>
        <time>2011-04-10T00:39:16Z</time>
      </trkpt>
      <trkpt lat="50.40821" lon="2.6339">
        <ele>160.1968994</ele>
        <time>2011-04-10T00:39:21Z</time>
      </trkpt>
      <trkpt lat="50.40827" lon="2.63382">
        <ele>161.1582031</ele>
        <time>2011-04-10T00:39:27Z</time>
      </trkpt>
      <trkpt lat="50.40835" lon="2.63372">
        <ele>161.638916</ele>
        <time>2011-04-10T00:39:34Z</time>
      </trkpt>
      <trkpt lat="50.4084" lon="2.63364">
        <ele>161.1582031</ele>
        <time>2011-04-10T00:39:39Z</time>
      </trkpt>
      <trkpt lat="50.4085" lon="2.63355">
        <ele>163.0808105</ele>
        <time>2011-04-10T00:39:47Z</time>
      </trkpt>
      <trkpt lat="50.40859" lon="2.63347">
        <ele>163.5615234</ele>
        <time>2011-04-10T00:39:54Z</time>
      </trkpt>
      <trkpt lat="50.40863" lon="2.6334">
        <ele>163.0808105</ele>
        <time>2011-04-10T00:39:58Z</time>
      </trkpt>
      <trkpt lat="50.40867" lon="2.63335">
        <ele>163.5615234</ele>
        <time>2011-04-10T00:40:03Z</time>
      </trkpt>
      <trkpt lat="50.40874" lon="2.63328">
        <ele>164.0421143</ele>
        <time>2011-04-10T00:40:09Z</time>
      </trkpt>
      <trkpt lat="50.40881" lon="2.6332">
        <ele>163.0808105</ele>
        <time>2011-04-10T00:40:16Z</time>
      </trkpt>
      <trkpt lat="50.40886" lon="2.63316">
        <ele>163.5615234</ele>
        <time>2011-04-10T00:40:19Z</time>
      </trkpt>
      <trkpt lat="50.40894" lon="2.63307">
        <ele>164.5227051</ele>
        <time>2011-04-10T00:40:25Z</time>
      </trkpt>
      <trkpt lat="50.40894" lon="2.63306">
        <ele>164.5227051</ele>
        <time>2011-04-10T00:40:26Z</time>
      </trkpt>
      <trkpt lat="50.40898" lon="2.63294">
        <ele>164.5227051</ele>
        <time>2011-04-10T00:40:33Z</time>
      </trkpt>
      <trkpt lat="50.40901" lon="2.63283">
        <ele>164.5227051</ele>
        <time>2011-04-10T00:40:39Z</time>
      </trkpt>
      <trkpt lat="50.40903" lon="2.63273">
        <ele>164.5227051</ele>
        <time>2011-04-10T00:40:44Z</time>
      </trkpt>
      <trkpt lat="50.40905" lon="2.63266">
        <ele>163.5615234</ele>
        <time>2011-04-10T00:40:48Z</time>
      </trkpt>
      <trkpt lat="50.40907" lon="2.63257">
        <ele>164.0421143</ele>
        <time>2011-04-10T00:40:52Z</time>
      </trkpt>
      <trkpt lat="50.40909" lon="2.63255">
        <ele>163.5615234</ele>
        <time>2011-04-10T00:40:53Z</time>
      </trkpt>
      <trkpt lat="50.40914" lon="2.63246">
        <ele>164.5227051</ele>
        <time>2011-04-10T00:40:58Z</time>
      </trkpt>
      <trkpt lat="50.40915" lon="2.63236">
        <ele>164.5227051</ele>
        <time>2011-04-10T00:41:03Z</time>
      </trkpt>
      <trkpt lat="50.40917" lon="2.63225">
        <ele>163.5615234</ele>
        <time>2011-04-10T00:41:08Z</time>
      </trkpt>
      <trkpt lat="50.4092" lon="2.63218">
        <ele>163.0808105</ele>
        <time>2011-04-10T00:41:12Z</time>
      </trkpt>
      <trkpt lat="50.40922" lon="2.63208">
        <ele>162.6000977</ele>
        <time>2011-04-10T00:41:17Z</time>
      </trkpt>
      <trkpt lat="50.40923" lon="2.63204">
        <ele>162.1195068</ele>
        <time>2011-04-10T00:41:19Z</time>
      </trkpt>
      <trkpt lat="50.40927" lon="2.63194">
        <ele>160.6774902</ele>
        <time>2011-04-10T00:41:24Z</time>
      </trkpt>
      <trkpt lat="50.40926" lon="2.63184">
        <ele>160.6774902</ele>
        <time>2011-04-10T00:41:29Z</time>
      </trkpt>
      <trkpt lat="50.40928" lon="2.63179">
        <ele>159.7161865</ele>
        <time>2011-04-10T00:41:32Z</time>
      </trkpt>
      <trkpt lat="50.4093" lon="2.63177">
        <ele>159.2354736</ele>
        <time>2011-04-10T00:41:33Z</time>
      </trkpt>
      <trkpt lat="50.40931" lon="2.63174">
        <ele>159.2354736</ele>
        <time>2011-04-10T00:41:35Z</time>
      </trkpt>
      <trkpt lat="50.40932" lon="2.63156">
        <ele>160.6774902</ele>
        <time>2011-04-10T00:41:44Z</time>
      </trkpt>
      <trkpt lat="50.40933" lon="2.63148">
        <ele>160.1968994</ele>
        <time>2011-04-10T00:41:48Z</time>
      </trkpt>
      <trkpt lat="50.40932" lon="2.63137">
        <ele>160.6774902</ele>
        <time>2011-04-10T00:41:52Z</time>
      </trkpt>
      <trkpt lat="50.40934" lon="2.6313">
        <ele>161.638916</ele>
        <time>2011-04-10T00:41:55Z</time>
      </trkpt>
      <trkpt lat="50.40933" lon="2.63118">
        <ele>164.5227051</ele>
        <time>2011-04-10T00:42:00Z</time>
      </trkpt>
      <trkpt lat="50.40934" lon="2.6311">
        <ele>165.9647217</ele>
        <time>2011-04-10T00:42:03Z</time>
      </trkpt>
      <trkpt lat="50.40938" lon="2.63102">
        <ele>165.9647217</ele>
        <time>2011-04-10T00:42:07Z</time>
      </trkpt>
      <trkpt lat="50.4094" lon="2.63094">
        <ele>164.5227051</ele>
        <time>2011-04-10T00:42:11Z</time>
      </trkpt>
      <trkpt lat="50.4094" lon="2.6309">
        <ele>164.5227051</ele>
        <time>2011-04-10T00:42:13Z</time>
      </trkpt>
      <trkpt lat="50.4094" lon="2.63084">
        <ele>163.5615234</ele>
        <time>2011-04-10T00:42:16Z</time>
      </trkpt>
      <trkpt lat="50.40943" lon="2.63076">
        <ele>162.6000977</ele>
        <time>2011-04-10T00:42:20Z</time>
      </trkpt>
      <trkpt lat="50.40946" lon="2.63068">
        <ele>158.7547607</ele>
        <time>2011-04-10T00:42:25Z</time>
      </trkpt>
      <trkpt lat="50.40947" lon="2.63067">
        <ele>158.2741699</ele>
        <time>2011-04-10T00:42:26Z</time>
      </trkpt>
      <trkpt lat="50.40947" lon="2.63064">
        <ele>157.7935791</ele>
        <time>2011-04-10T00:42:28Z</time>
      </trkpt>
      <trkpt lat="50.40947" lon="2.63048">
        <ele>160.6774902</ele>
        <time>2011-04-10T00:42:35Z</time>
      </trkpt>
      <trkpt lat="50.40947" lon="2.63043">
        <ele>161.638916</ele>
        <time>2011-04-10T00:42:37Z</time>
      </trkpt>
      <trkpt lat="50.40947" lon="2.63035">
        <ele>162.1195068</ele>
        <time>2011-04-10T00:42:41Z</time>
      </trkpt>
      <trkpt lat="50.40947" lon="2.63032">
        <ele>162.1195068</ele>
        <time>2011-04-10T00:42:43Z</time>
      </trkpt>
      <trkpt lat="50.40949" lon="2.6302">
        <ele>164.5227051</ele>
        <time>2011-04-10T00:42:49Z</time>
      </trkpt>
      <trkpt lat="50.40949" lon="2.63017">
        <ele>165.4841309</ele>
        <time>2011-04-10T00:42:50Z</time>
      </trkpt>
      <trkpt lat="50.40949" lon="2.63006">
        <ele>166.4453125</ele>
        <time>2011-04-10T00:42:55Z</time>
      </trkpt>
      <trkpt lat="50.4095" lon="2.62999">
        <ele>165.9647217</ele>
        <time>2011-04-10T00:42:59Z</time>
      </trkpt>
      <trkpt lat="50.40951" lon="2.62996">
        <ele>164.5227051</ele>
        <time>2011-04-10T00:43:01Z</time>
      </trkpt>
      <trkpt lat="50.40951" lon="2.6299">
        <ele>164.0421143</ele>
        <time>2011-04-10T00:43:04Z</time>
      </trkpt>
      <trkpt lat="50.40957" lon="2.62982">
        <ele>162.6000977</ele>
        <time>2011-04-10T00:43:09Z</time>
      </trkpt>
      <trkpt lat="50.40959" lon="2.62971">
        <ele>160.6774902</ele>
        <time>2011-04-10T00:43:16Z</time>
      </trkpt>
      <trkpt lat="50.40956" lon="2.62948">
        <ele>159.7161865</ele>
        <time>2011-04-10T00:43:27Z</time>
      </trkpt>
      <trkpt lat="50.40955" lon="2.62938">
        <ele>158.7547607</ele>
        <time>2011-04-10T00:43:31Z</time>
      </trkpt>
      <trkpt lat="50.40951" lon="2.62922">
        <ele>160.1968994</ele>
        <time>2011-04-10T00:43:37Z</time>
      </trkpt>
      <trkpt lat="50.4095" lon="2.62912">
        <ele>160.6774902</ele>
        <time>2011-04-10T00:43:42Z</time>
      </trkpt>
      <trkpt lat="50.40948" lon="2.629">
        <ele>162.1195068</ele>
        <time>2011-04-10T00:43:48Z</time>
      </trkpt>
      <trkpt lat="50.40944" lon="2.62893">
        <ele>164.0421143</ele>
        <time>2011-04-10T00:43:52Z</time>
      </trkpt>
      <trkpt lat="50.40941" lon="2.62876">
        <ele>164.5227051</ele>
        <time>2011-04-10T00:44:00Z</time>
      </trkpt>
      <trkpt lat="50.4094" lon="2.62864">
        <ele>164.0421143</ele>
        <time>2011-04-10T00:44:05Z</time>
      </trkpt>
      <trkpt lat="50.40937" lon="2.62856">
        <ele>164.0421143</ele>
        <time>2011-04-10T00:44:09Z</time>
      </trkpt>
      <trkpt lat="50.40936" lon="2.62854">
        <ele>164.0421143</ele>
        <time>2011-04-10T00:44:10Z</time>
      </trkpt>
      <trkpt lat="50.40934" lon="2.62835">
        <ele>162.1195068</ele>
        <time>2011-04-10T00:44:18Z</time>
      </trkpt>
      <trkpt lat="50.40931" lon="2.62821">
        <ele>161.638916</ele>
        <time>2011-04-10T00:44:24Z</time>
      </trkpt>
      <trkpt lat="50.40927" lon="2.62812">
        <ele>159.7161865</ele>
        <time>2011-04-10T00:44:28Z</time>
      </trkpt>
      <trkpt lat="50.40924" lon="2.62793">
        <ele>159.2354736</ele>
        <time>2011-04-10T00:44:37Z</time>
      </trkpt>
      <trkpt lat="50.40925" lon="2.62779">
        <ele>158.7547607</ele>
        <time>2011-04-10T00:44:44Z</time>
      </trkpt>
      <trkpt lat="50.40927" lon="2.62762">
        <ele>158.7547607</ele>
        <time>2011-04-10T00:44:52Z</time>
      </trkpt>
      <trkpt lat="50.40931" lon="2.6275">
        <ele>158.2741699</ele>
        <time>2011-04-10T00:44:58Z</time>
      </trkpt>
      <trkpt lat="50.40936" lon="2.62744">
        <ele>157.7935791</ele>
        <time>2011-04-10T00:45:02Z</time>
      </trkpt>
      <trkpt lat="50.40939" lon="2.62738">
        <ele>157.3128662</ele>
        <time>2011-04-10T00:45:06Z</time>
      </trkpt>
      <trkpt lat="50.40942" lon="2.62731">
        <ele>157.7935791</ele>
        <time>2011-04-10T00:45:10Z</time>
      </trkpt>
      <trkpt lat="50.4095" lon="2.62719">
        <ele>160.1968994</ele>
        <time>2011-04-10T00:45:18Z</time>
      </trkpt>
      <trkpt lat="50.40954" lon="2.62711">
        <ele>161.1582031</ele>
        <time>2011-04-10T00:45:23Z</time>
      </trkpt>
      <trkpt lat="50.4096" lon="2.62703">
        <ele>162.1195068</ele>
        <time>2011-04-10T00:45:28Z</time>
      </trkpt>
      <trkpt lat="50.40964" lon="2.62695">
        <ele>163.0808105</ele>
        <time>2011-04-10T00:45:33Z</time>
      </trkpt>
      <trkpt lat="50.40968" lon="2.62688">
        <ele>164.0421143</ele>
        <time>2011-04-10T00:45:38Z</time>
      </trkpt>
      <trkpt lat="50.40973" lon="2.6268">
        <ele>163.5615234</ele>
        <time>2011-04-10T00:45:43Z</time>
      </trkpt>
      <trkpt lat="50.40978" lon="2.62675">
        <ele>163.0808105</ele>
        <time>2011-04-10T00:45:47Z</time>
      </trkpt>
      <trkpt lat="50.40984" lon="2.62669">
        <ele>162.1195068</ele>
        <time>2011-04-10T00:45:52Z</time>
      </trkpt>
      <trkpt lat="50.40984" lon="2.62667">
        <ele>162.1195068</ele>
        <time>2011-04-10T00:45:53Z</time>
      </trkpt>
      <trkpt lat="50.40987" lon="2.62654">
        <ele>161.638916</ele>
        <time>2011-04-10T00:46:00Z</time>
      </trkpt>
      <trkpt lat="50.40988" lon="2.6264">
        <ele>161.638916</ele>
        <time>2011-04-10T00:46:07Z</time>
      </trkpt>
      <trkpt lat="50.40991" lon="2.62626">
        <ele>160.6774902</ele>
        <time>2011-04-10T00:46:14Z</time>
      </trkpt>
      <trkpt lat="50.40993" lon="2.62619">
        <ele>160.1968994</ele>
        <time>2011-04-10T00:46:17Z</time>
      </trkpt>
      <trkpt lat="50.40997" lon="2.62605">
        <ele>160.1968994</ele>
        <time>2011-04-10T00:46:24Z</time>
      </trkpt>
      <trkpt lat="50.41003" lon="2.62588">
        <ele>160.1968994</ele>
        <time>2011-04-10T00:46:33Z</time>
      </trkpt>
      <trkpt lat="50.41005" lon="2.62583">
        <ele>160.6774902</ele>
        <time>2011-04-10T00:46:36Z</time>
      </trkpt>
      <trkpt lat="50.41007" lon="2.62575">
        <ele>161.1582031</ele>
        <time>2011-04-10T00:46:41Z</time>
      </trkpt>
      <trkpt lat="50.41009" lon="2.62572">
        <ele>161.638916</ele>
        <time>2011-04-10T00:46:43Z</time>
      </trkpt>
      <trkpt lat="50.41016" lon="2.62561">
        <ele>161.638916</ele>
        <time>2011-04-10T00:46:51Z</time>
      </trkpt>
      <trkpt lat="50.41022" lon="2.62553">
        <ele>160.6774902</ele>
        <time>2011-04-10T00:46:57Z</time>
      </trkpt>
      <trkpt lat="50.41023" lon="2.62551">
        <ele>160.6774902</ele>
        <time>2011-04-10T00:46:58Z</time>
      </trkpt>
      <trkpt lat="50.41028" lon="2.62544">
        <ele>160.6774902</ele>
        <time>2011-04-10T00:47:03Z</time>
      </trkpt>
      <trkpt lat="50.41034" lon="2.62535">
        <ele>161.1582031</ele>
        <time>2011-04-10T00:47:10Z</time>
      </trkpt>
      <trkpt lat="50.4104" lon="2.62526">
        <ele>161.638916</ele>
        <time>2011-04-10T00:47:17Z</time>
      </trkpt>
      <trkpt lat="50.41048" lon="2.62514">
        <ele>161.638916</ele>
        <time>2011-04-10T00:47:25Z</time>
      </trkpt>
      <trkpt lat="50.41052" lon="2.62508">
        <ele>161.638916</ele>
        <time>2011-04-10T00:47:29Z</time>
      </trkpt>
      <trkpt lat="50.41058" lon="2.625">
        <ele>162.1195068</ele>
        <time>2011-04-10T00:47:35Z</time>
      </trkpt>
      <trkpt lat="50.41063" lon="2.62496">
        <ele>162.1195068</ele>
        <time>2011-04-10T00:47:39Z</time>
      </trkpt>
      <trkpt lat="50.41068" lon="2.62487">
        <ele>162.6000977</ele>
        <time>2011-04-10T00:47:45Z</time>
      </trkpt>
      <trkpt lat="50.41074" lon="2.62478">
        <ele>162.1195068</ele>
        <time>2011-04-10T00:47:52Z</time>
      </trkpt>
      <trkpt lat="50.41074" lon="2.62477">
        <ele>161.638916</ele>
        <time>2011-04-10T00:47:53Z</time>
      </trkpt>
      <trkpt lat="50.4108" lon="2.62463">
        <ele>161.638916</ele>
        <time>2011-04-10T00:48:02Z</time>
      </trkpt>
      <trkpt lat="50.41086" lon="2.62452">
        <ele>161.638916</ele>
        <time>2011-04-10T00:48:09Z</time>
      </trkpt>
      <trkpt lat="50.4109" lon="2.62446">
        <ele>162.6000977</ele>
        <time>2011-04-10T00:48:13Z</time>
      </trkpt>
      <trkpt lat="50.41097" lon="2.62433">
        <ele>162.1195068</ele>
        <time>2011-04-10T00:48:21Z</time>
      </trkpt>
      <trkpt lat="50.41098" lon="2.62432">
        <ele>162.1195068</ele>
        <time>2011-04-10T00:48:22Z</time>
      </trkpt>
      <trkpt lat="50.41101" lon="2.62423">
        <ele>161.638916</ele>
        <time>2011-04-10T00:48:26Z</time>
      </trkpt>
      <trkpt lat="50.41102" lon="2.62421">
        <ele>161.638916</ele>
        <time>2011-04-10T00:48:27Z</time>
      </trkpt>
      <trkpt lat="50.41099" lon="2.62407">
        <ele>162.6000977</ele>
        <time>2011-04-10T00:48:34Z</time>
      </trkpt>
      <trkpt lat="50.41093" lon="2.62396">
        <ele>162.1195068</ele>
        <time>2011-04-10T00:48:41Z</time>
      </trkpt>
      <trkpt lat="50.41092" lon="2.62393">
        <ele>162.1195068</ele>
        <time>2011-04-10T00:48:43Z</time>
      </trkpt>
      <trkpt lat="50.41086" lon="2.62385">
        <ele>162.1195068</ele>
        <time>2011-04-10T00:48:49Z</time>
      </trkpt>
      <trkpt lat="50.41081" lon="2.62373">
        <ele>161.638916</ele>
        <time>2011-04-10T00:48:54Z</time>
      </trkpt>
      <trkpt lat="50.4108" lon="2.62363">
        <ele>161.1582031</ele>
        <time>2011-04-10T00:48:58Z</time>
      </trkpt>
      <trkpt lat="50.41082" lon="2.6235">
        <ele>160.1968994</ele>
        <time>2011-04-10T00:49:04Z</time>
      </trkpt>
      <trkpt lat="50.41084" lon="2.62344">
        <ele>160.1968994</ele>
        <time>2011-04-10T00:49:07Z</time>
      </trkpt>
      <trkpt lat="50.4109" lon="2.62333">
        <ele>162.6000977</ele>
        <time>2011-04-10T00:49:13Z</time>
      </trkpt>
      <trkpt lat="50.41092" lon="2.62332">
        <ele>162.6000977</ele>
        <time>2011-04-10T00:49:14Z</time>
      </trkpt>
      <trkpt lat="50.41095" lon="2.62323">
        <ele>162.1195068</ele>
        <time>2011-04-10T00:49:18Z</time>
      </trkpt>
      <trkpt lat="50.41098" lon="2.6231">
        <ele>160.6774902</ele>
        <time>2011-04-10T00:49:24Z</time>
      </trkpt>
      <trkpt lat="50.41102" lon="2.62306">
        <ele>160.6774902</ele>
        <time>2011-04-10T00:49:27Z</time>
      </trkpt>
      <trkpt lat="50.41107" lon="2.623">
        <ele>160.1968994</ele>
        <time>2011-04-10T00:49:31Z</time>
      </trkpt>
      <trkpt lat="50.41107" lon="2.62298">
        <ele>159.7161865</ele>
        <time>2011-04-10T00:49:32Z</time>
      </trkpt>
      <trkpt lat="50.41108" lon="2.62295">
        <ele>159.7161865</ele>
        <time>2011-04-10T00:49:34Z</time>
      </trkpt>
      <trkpt lat="50.41112" lon="2.62285">
        <ele>160.1968994</ele>
        <time>2011-04-10T00:49:39Z</time>
      </trkpt>
      <trkpt lat="50.41115" lon="2.62277">
        <ele>160.1968994</ele>
        <time>2011-04-10T00:49:43Z</time>
      </trkpt>
      <trkpt lat="50.41117" lon="2.62271">
        <ele>160.1968994</ele>
        <time>2011-04-10T00:49:46Z</time>
      </trkpt>
      <trkpt lat="50.41124" lon="2.62258">
        <ele>159.2354736</ele>
        <time>2011-04-10T00:49:54Z</time>
      </trkpt>
      <trkpt lat="50.41125" lon="2.62255">
        <ele>159.2354736</ele>
        <time>2011-04-10T00:49:56Z</time>
      </trkpt>
      <trkpt lat="50.41129" lon="2.62246">
        <ele>158.2741699</ele>
        <time>2011-04-10T00:50:01Z</time>
      </trkpt>
      <trkpt lat="50.41135" lon="2.62233">
        <ele>157.7935791</ele>
        <time>2011-04-10T00:50:08Z</time>
      </trkpt>
      <trkpt lat="50.41141" lon="2.62222">
        <ele>157.3128662</ele>
        <time>2011-04-10T00:50:14Z</time>
      </trkpt>
      <trkpt lat="50.41144" lon="2.62215">
        <ele>157.3128662</ele>
        <time>2011-04-10T00:50:18Z</time>
      </trkpt>
      <trkpt lat="50.41152" lon="2.62207">
        <ele>156.3515625</ele>
        <time>2011-04-10T00:50:24Z</time>
      </trkpt>
      <trkpt lat="50.41153" lon="2.62206">
        <ele>156.3515625</ele>
        <time>2011-04-10T00:50:25Z</time>
      </trkpt>
      <trkpt lat="50.4116" lon="2.62195">
        <ele>155.3902588</ele>
        <time>2011-04-10T00:50:32Z</time>
      </trkpt>
      <trkpt lat="50.41163" lon="2.62191">
        <ele>155.3902588</ele>
        <time>2011-04-10T00:50:35Z</time>
      </trkpt>
      <trkpt lat="50.41168" lon="2.62182">
        <ele>155.3902588</ele>
        <time>2011-04-10T00:50:41Z</time>
      </trkpt>
      <trkpt lat="50.41172" lon="2.62174">
        <ele>154.4289551</ele>
        <time>2011-04-10T00:50:46Z</time>
      </trkpt>
      <trkpt lat="50.41175" lon="2.62168">
        <ele>154.4289551</ele>
        <time>2011-04-10T00:50:49Z</time>
      </trkpt>
      <trkpt lat="50.41178" lon="2.62164">
        <ele>154.4289551</ele>
        <time>2011-04-10T00:50:52Z</time>
      </trkpt>
      <trkpt lat="50.41182" lon="2.62156">
        <ele>154.9095459</ele>
        <time>2011-04-10T00:50:57Z</time>
      </trkpt>
      <trkpt lat="50.41186" lon="2.6215">
        <ele>154.4289551</ele>
        <time>2011-04-10T00:51:01Z</time>
      </trkpt>
      <trkpt lat="50.41192" lon="2.6214">
        <ele>154.4289551</ele>
        <time>2011-04-10T00:51:07Z</time>
      </trkpt>
      <trkpt lat="50.41193" lon="2.62139">
        <ele>153.9483643</ele>
        <time>2011-04-10T00:51:08Z</time>
      </trkpt>
      <trkpt lat="50.41198" lon="2.62127">
        <ele>152.9869385</ele>
        <time>2011-04-10T00:51:14Z</time>
      </trkpt>
      <trkpt lat="50.41203" lon="2.62116">
        <ele>152.9869385</ele>
        <time>2011-04-10T00:51:20Z</time>
      </trkpt>
      <trkpt lat="50.41208" lon="2.62107">
        <ele>153.4676514</ele>
        <time>2011-04-10T00:51:25Z</time>
      </trkpt>
      <trkpt lat="50.4121" lon="2.62104">
        <ele>153.4676514</ele>
        <time>2011-04-10T00:51:27Z</time>
      </trkpt>
      <trkpt lat="50.41216" lon="2.62099">
        <ele>154.4289551</ele>
        <time>2011-04-10T00:51:31Z</time>
      </trkpt>
      <trkpt lat="50.41222" lon="2.62094">
        <ele>155.8709717</ele>
        <time>2011-04-10T00:51:35Z</time>
      </trkpt>
      <trkpt lat="50.41228" lon="2.62083">
        <ele>156.8321533</ele>
        <time>2011-04-10T00:51:41Z</time>
      </trkpt>
      <trkpt lat="50.41229" lon="2.62081">
        <ele>156.8321533</ele>
        <time>2011-04-10T00:51:42Z</time>
      </trkpt>
      <trkpt lat="50.41234" lon="2.62069">
        <ele>156.8321533</ele>
        <time>2011-04-10T00:51:48Z</time>
      </trkpt>
      <trkpt lat="50.41237" lon="2.6206">
        <ele>157.3128662</ele>
        <time>2011-04-10T00:51:52Z</time>
      </trkpt>
      <trkpt lat="50.41243" lon="2.62043">
        <ele>156.3515625</ele>
        <time>2011-04-10T00:52:00Z</time>
      </trkpt>
      <trkpt lat="50.41247" lon="2.62035">
        <ele>156.8321533</ele>
        <time>2011-04-10T00:52:04Z</time>
      </trkpt>
      <trkpt lat="50.41252" lon="2.62028">
        <ele>156.3515625</ele>
        <time>2011-04-10T00:52:08Z</time>
      </trkpt>
      <trkpt lat="50.41255" lon="2.62019">
        <ele>156.8321533</ele>
        <time>2011-04-10T00:52:13Z</time>
      </trkpt>
      <trkpt lat="50.41258" lon="2.62014">
        <ele>157.3128662</ele>
        <time>2011-04-10T00:52:16Z</time>
      </trkpt>
      <trkpt lat="50.41263" lon="2.61999">
        <ele>157.3128662</ele>
        <time>2011-04-10T00:52:23Z</time>
      </trkpt>
      <trkpt lat="50.41268" lon="2.61987">
        <ele>155.8709717</ele>
        <time>2011-04-10T00:52:29Z</time>
      </trkpt>
      <trkpt lat="50.41271" lon="2.61978">
        <ele>154.4289551</ele>
        <time>2011-04-10T00:52:34Z</time>
      </trkpt>
      <trkpt lat="50.41275" lon="2.61968">
        <ele>153.4676514</ele>
        <time>2011-04-10T00:52:39Z</time>
      </trkpt>
      <trkpt lat="50.41278" lon="2.61958">
        <ele>152.5063477</ele>
        <time>2011-04-10T00:52:44Z</time>
      </trkpt>
      <trkpt lat="50.4128" lon="2.61954">
        <ele>152.0257568</ele>
        <time>2011-04-10T00:52:46Z</time>
      </trkpt>
      <trkpt lat="50.41282" lon="2.61944">
        <ele>152.9869385</ele>
        <time>2011-04-10T00:52:51Z</time>
      </trkpt>
      <trkpt lat="50.41286" lon="2.61931">
        <ele>153.4676514</ele>
        <time>2011-04-10T00:52:58Z</time>
      </trkpt>
      <trkpt lat="50.41287" lon="2.61929">
        <ele>153.9483643</ele>
        <time>2011-04-10T00:52:59Z</time>
      </trkpt>
      <trkpt lat="50.41291" lon="2.61921">
        <ele>155.3902588</ele>
        <time>2011-04-10T00:53:04Z</time>
      </trkpt>
      <trkpt lat="50.41292" lon="2.61913">
        <ele>155.8709717</ele>
        <time>2011-04-10T00:53:08Z</time>
      </trkpt>
      <trkpt lat="50.41294" lon="2.61906">
        <ele>158.2741699</ele>
        <time>2011-04-10T00:53:12Z</time>
      </trkpt>
      <trkpt lat="50.41297" lon="2.61896">
        <ele>159.2354736</ele>
        <time>2011-04-10T00:53:17Z</time>
      </trkpt>
      <trkpt lat="50.41301" lon="2.61889">
        <ele>160.1968994</ele>
        <time>2011-04-10T00:53:21Z</time>
      </trkpt>
      <trkpt lat="50.41305" lon="2.61877">
        <ele>160.1968994</ele>
        <time>2011-04-10T00:53:27Z</time>
      </trkpt>
      <trkpt lat="50.41305" lon="2.61875">
        <ele>160.1968994</ele>
        <time>2011-04-10T00:53:28Z</time>
      </trkpt>
      <trkpt lat="50.41312" lon="2.61857">
        <ele>161.1582031</ele>
        <time>2011-04-10T00:53:38Z</time>
      </trkpt>
      <trkpt lat="50.41318" lon="2.61843">
        <ele>160.1968994</ele>
        <time>2011-04-10T00:53:46Z</time>
      </trkpt>
      <trkpt lat="50.41326" lon="2.61823">
        <ele>159.7161865</ele>
        <time>2011-04-10T00:53:57Z</time>
      </trkpt>
      <trkpt lat="50.41334" lon="2.61808">
        <ele>159.7161865</ele>
        <time>2011-04-10T00:54:06Z</time>
      </trkpt>
      <trkpt lat="50.4134" lon="2.61793">
        <ele>158.2741699</ele>
        <time>2011-04-10T00:54:14Z</time>
      </trkpt>
      <trkpt lat="50.41344" lon="2.61781">
        <ele>157.7935791</ele>
        <time>2011-04-10T00:54:20Z</time>
      </trkpt>
      <trkpt lat="50.41349" lon="2.61771">
        <ele>158.7547607</ele>
        <time>2011-04-10T00:54:26Z</time>
      </trkpt>
      <trkpt lat="50.41355" lon="2.61756">
        <ele>159.2354736</ele>
        <time>2011-04-10T00:54:34Z</time>
      </trkpt>
      <trkpt lat="50.41357" lon="2.61751">
        <ele>159.7161865</ele>
        <time>2011-04-10T00:54:37Z</time>
      </trkpt>
      <trkpt lat="50.41361" lon="2.61743">
        <ele>160.6774902</ele>
        <time>2011-04-10T00:54:42Z</time>
      </trkpt>
      <trkpt lat="50.41368" lon="2.61738">
        <ele>162.1195068</ele>
        <time>2011-04-10T00:54:48Z</time>
      </trkpt>
      <trkpt lat="50.41371" lon="2.61733">
        <ele>162.6000977</ele>
        <time>2011-04-10T00:54:51Z</time>
      </trkpt>
      <trkpt lat="50.41375" lon="2.61718">
        <ele>163.0808105</ele>
        <time>2011-04-10T00:54:59Z</time>
      </trkpt>
      <trkpt lat="50.41378" lon="2.61706">
        <ele>163.0808105</ele>
        <time>2011-04-10T00:55:05Z</time>
      </trkpt>
      <trkpt lat="50.41383" lon="2.61695">
        <ele>162.6000977</ele>
        <time>2011-04-10T00:55:11Z</time>
      </trkpt>
      <trkpt lat="50.41385" lon="2.6169">
        <ele>163.0808105</ele>
        <time>2011-04-10T00:55:14Z</time>
      </trkpt>
      <trkpt lat="50.41387" lon="2.61681">
        <ele>163.5615234</ele>
        <time>2011-04-10T00:55:19Z</time>
      </trkpt>
      <trkpt lat="50.41393" lon="2.61665">
        <ele>164.0421143</ele>
        <time>2011-04-10T00:55:28Z</time>
      </trkpt>
      <trkpt lat="50.41397" lon="2.61654">
        <ele>163.5615234</ele>
        <time>2011-04-10T00:55:34Z</time>
      </trkpt>
      <trkpt lat="50.414" lon="2.61644">
        <ele>164.0421143</ele>
        <time>2011-04-10T00:55:39Z</time>
      </trkpt>
      <trkpt lat="50.41407" lon="2.61622">
        <ele>162.6000977</ele>
        <time>2011-04-10T00:55:50Z</time>
      </trkpt>
      <trkpt lat="50.4141" lon="2.61614">
        <ele>162.6000977</ele>
        <time>2011-04-10T00:55:54Z</time>
      </trkpt>
      <trkpt lat="50.41415" lon="2.61607">
        <ele>163.0808105</ele>
        <time>2011-04-10T00:55:59Z</time>
      </trkpt>
      <trkpt lat="50.41419" lon="2.61597">
        <ele>163.5615234</ele>
        <time>2011-04-10T00:56:04Z</time>
      </trkpt>
      <trkpt lat="50.41422" lon="2.61589">
        <ele>164.5227051</ele>
        <time>2011-04-10T00:56:08Z</time>
      </trkpt>
      <trkpt lat="50.41426" lon="2.61579">
        <ele>165.003418</ele>
        <time>2011-04-10T00:56:13Z</time>
      </trkpt>
      <trkpt lat="50.41433" lon="2.61562">
        <ele>165.4841309</ele>
        <time>2011-04-10T00:56:22Z</time>
      </trkpt>
      <trkpt lat="50.41437" lon="2.61549">
        <ele>165.003418</ele>
        <time>2011-04-10T00:56:29Z</time>
      </trkpt>
      <trkpt lat="50.41438" lon="2.61545">
        <ele>165.003418</ele>
        <time>2011-04-10T00:56:31Z</time>
      </trkpt>
      <trkpt lat="50.4144" lon="2.61536">
        <ele>164.0421143</ele>
        <time>2011-04-10T00:56:36Z</time>
      </trkpt>
      <trkpt lat="50.41442" lon="2.61531">
        <ele>163.0808105</ele>
        <time>2011-04-10T00:56:39Z</time>
      </trkpt>
      <trkpt lat="50.41447" lon="2.61517">
        <ele>161.1582031</ele>
        <time>2011-04-10T00:56:46Z</time>
      </trkpt>
      <trkpt lat="50.41451" lon="2.61503">
        <ele>161.1582031</ele>
        <time>2011-04-10T00:56:53Z</time>
      </trkpt>
      <trkpt lat="50.41454" lon="2.6149">
        <ele>162.6000977</ele>
        <time>2011-04-10T00:57:00Z</time>
      </trkpt>
      <trkpt lat="50.41457" lon="2.61475">
        <ele>164.0421143</ele>
        <time>2011-04-10T00:57:07Z</time>
      </trkpt>
      <trkpt lat="50.41461" lon="2.61461">
        <ele>165.003418</ele>
        <time>2011-04-10T00:57:14Z</time>
      </trkpt>
      <trkpt lat="50.41465" lon="2.61449">
        <ele>164.5227051</ele>
        <time>2011-04-10T00:57:20Z</time>
      </trkpt>
      <trkpt lat="50.41465" lon="2.61448">
        <ele>164.5227051</ele>
        <time>2011-04-10T00:57:21Z</time>
      </trkpt>
      <trkpt lat="50.41469" lon="2.6144">
        <ele>164.0421143</ele>
        <time>2011-04-10T00:57:25Z</time>
      </trkpt>
      <trkpt lat="50.41472" lon="2.61435">
        <ele>164.0421143</ele>
        <time>2011-04-10T00:57:28Z</time>
      </trkpt>
      <trkpt lat="50.41476" lon="2.61425">
        <ele>163.5615234</ele>
        <time>2011-04-10T00:57:33Z</time>
      </trkpt>
      <trkpt lat="50.41479" lon="2.61418">
        <ele>163.0808105</ele>
        <time>2011-04-10T00:57:37Z</time>
      </trkpt>
      <trkpt lat="50.41483" lon="2.61406">
        <ele>161.638916</ele>
        <time>2011-04-10T00:57:43Z</time>
      </trkpt>
      <trkpt lat="50.41488" lon="2.61391">
        <ele>163.0808105</ele>
        <time>2011-04-10T00:57:51Z</time>
      </trkpt>
      <trkpt lat="50.41489" lon="2.61386">
        <ele>163.5615234</ele>
        <time>2011-04-10T00:57:54Z</time>
      </trkpt>
      <trkpt lat="50.41491" lon="2.61379">
        <ele>163.0808105</ele>
        <time>2011-04-10T00:57:57Z</time>
      </trkpt>
      <trkpt lat="50.41493" lon="2.61373">
        <ele>163.5615234</ele>
        <time>2011-04-10T00:58:01Z</time>
      </trkpt>
      <trkpt lat="50.41494" lon="2.61367">
        <ele>164.0421143</ele>
        <time>2011-04-10T00:58:04Z</time>
      </trkpt>
      <trkpt lat="50.41497" lon="2.61355">
        <ele>164.5227051</ele>
        <time>2011-04-10T00:58:09Z</time>
      </trkpt>
      <trkpt lat="50.41501" lon="2.61346">
        <ele>165.003418</ele>
        <time>2011-04-10T00:58:14Z</time>
      </trkpt>
      <trkpt lat="50.41505" lon="2.61339">
        <ele>165.003418</ele>
        <time>2011-04-10T00:58:19Z</time>
      </trkpt>
      <trkpt lat="50.41506" lon="2.61332">
        <ele>165.9647217</ele>
        <time>2011-04-10T00:58:23Z</time>
      </trkpt>
      <trkpt lat="50.4151" lon="2.61315">
        <ele>165.4841309</ele>
        <time>2011-04-10T00:58:30Z</time>
      </trkpt>
      <trkpt lat="50.41514" lon="2.61306">
        <ele>164.0421143</ele>
        <time>2011-04-10T00:58:35Z</time>
      </trkpt>
      <trkpt lat="50.41514" lon="2.61304">
        <ele>163.5615234</ele>
        <time>2011-04-10T00:58:36Z</time>
      </trkpt>
      <trkpt lat="50.41515" lon="2.61296">
        <ele>163.0808105</ele>
        <time>2011-04-10T00:58:40Z</time>
      </trkpt>
      <trkpt lat="50.41516" lon="2.61292">
        <ele>163.0808105</ele>
        <time>2011-04-10T00:58:42Z</time>
      </trkpt>
      <trkpt lat="50.41521" lon="2.61282">
        <ele>164.0421143</ele>
        <time>2011-04-10T00:58:48Z</time>
      </trkpt>
      <trkpt lat="50.41524" lon="2.61273">
        <ele>164.0421143</ele>
        <time>2011-04-10T00:58:53Z</time>
      </trkpt>
      <trkpt lat="50.41526" lon="2.61267">
        <ele>163.0808105</ele>
        <time>2011-04-10T00:58:56Z</time>
      </trkpt>
      <trkpt lat="50.41527" lon="2.61256">
        <ele>162.6000977</ele>
        <time>2011-04-10T00:59:01Z</time>
      </trkpt>
      <trkpt lat="50.41533" lon="2.61245">
        <ele>161.638916</ele>
        <time>2011-04-10T00:59:07Z</time>
      </trkpt>
      <trkpt lat="50.41536" lon="2.61234">
        <ele>160.6774902</ele>
        <time>2011-04-10T00:59:12Z</time>
      </trkpt>
      <trkpt lat="50.41539" lon="2.61227">
        <ele>160.1968994</ele>
        <time>2011-04-10T00:59:16Z</time>
      </trkpt>
      <trkpt lat="50.4154" lon="2.61217">
        <ele>160.6774902</ele>
        <time>2011-04-10T00:59:21Z</time>
      </trkpt>
      <trkpt lat="50.41543" lon="2.61205">
        <ele>160.6774902</ele>
        <time>2011-04-10T00:59:26Z</time>
      </trkpt>
      <trkpt lat="50.41548" lon="2.61202">
        <ele>159.7161865</ele>
        <time>2011-04-10T00:59:31Z</time>
      </trkpt>
      <trkpt lat="50.41555" lon="2.61203">
        <ele>160.1968994</ele>
        <time>2011-04-10T00:59:38Z</time>
      </trkpt>
      <trkpt lat="50.41562" lon="2.61206">
        <ele>161.1582031</ele>
        <time>2011-04-10T00:59:43Z</time>
      </trkpt>
      <trkpt lat="50.4157" lon="2.61207">
        <ele>161.638916</ele>
        <time>2011-04-10T00:59:49Z</time>
      </trkpt>
      <trkpt lat="50.41579" lon="2.6121">
        <ele>162.6000977</ele>
        <time>2011-04-10T00:59:56Z</time>
      </trkpt>
      <trkpt lat="50.4159" lon="2.61214">
        <ele>162.1195068</ele>
        <time>2011-04-10T01:00:02Z</time>
      </trkpt>
      <trkpt lat="50.41597" lon="2.61217">
        <ele>162.1195068</ele>
        <time>2011-04-10T01:00:07Z</time>
      </trkpt>
      <trkpt lat="50.41598" lon="2.61217">
        <ele>162.6000977</ele>
        <time>2011-04-10T01:00:08Z</time>
      </trkpt>
      <trkpt lat="50.41602" lon="2.61219">
        <ele>162.6000977</ele>
        <time>2011-04-10T01:00:11Z</time>
      </trkpt>
      <trkpt lat="50.41609" lon="2.6122">
        <ele>164.0421143</ele>
        <time>2011-04-10T01:00:17Z</time>
      </trkpt>
      <trkpt lat="50.41621" lon="2.61222">
        <ele>164.0421143</ele>
        <time>2011-04-10T01:00:24Z</time>
      </trkpt>
      <trkpt lat="50.41632" lon="2.61225">
        <ele>163.0808105</ele>
        <time>2011-04-10T01:00:31Z</time>
      </trkpt>
      <trkpt lat="50.41645" lon="2.61227">
        <ele>161.638916</ele>
        <time>2011-04-10T01:00:40Z</time>
      </trkpt>
      <trkpt lat="50.41656" lon="2.61228">
        <ele>161.638916</ele>
        <time>2011-04-10T01:00:48Z</time>
      </trkpt>
      <trkpt lat="50.41666" lon="2.61228">
        <ele>162.1195068</ele>
        <time>2011-04-10T01:00:56Z</time>
      </trkpt>
      <trkpt lat="50.41674" lon="2.61227">
        <ele>161.638916</ele>
        <time>2011-04-10T01:01:02Z</time>
      </trkpt>
      <trkpt lat="50.41684" lon="2.61226">
        <ele>161.638916</ele>
        <time>2011-04-10T01:01:09Z</time>
      </trkpt>
      <trkpt lat="50.41693" lon="2.61224">
        <ele>161.638916</ele>
        <time>2011-04-10T01:01:16Z</time>
      </trkpt>
      <trkpt lat="50.41695" lon="2.61224">
        <ele>161.638916</ele>
        <time>2011-04-10T01:01:17Z</time>
      </trkpt>
      <trkpt lat="50.41703" lon="2.61223">
        <ele>161.638916</ele>
        <time>2011-04-10T01:01:24Z</time>
      </trkpt>
      <trkpt lat="50.41713" lon="2.61223">
        <ele>161.1582031</ele>
        <time>2011-04-10T01:01:31Z</time>
      </trkpt>
      <trkpt lat="50.41722" lon="2.61222">
        <ele>161.1582031</ele>
        <time>2011-04-10T01:01:39Z</time>
      </trkpt>
      <trkpt lat="50.41729" lon="2.61221">
        <ele>161.1582031</ele>
        <time>2011-04-10T01:01:44Z</time>
      </trkpt>
      <trkpt lat="50.41738" lon="2.6122">
        <ele>160.1968994</ele>
        <time>2011-04-10T01:01:52Z</time>
      </trkpt>
      <trkpt lat="50.41748" lon="2.61217">
        <ele>161.1582031</ele>
        <time>2011-04-10T01:01:59Z</time>
      </trkpt>
      <trkpt lat="50.41756" lon="2.61216">
        <ele>161.638916</ele>
        <time>2011-04-10T01:02:05Z</time>
      </trkpt>
      <trkpt lat="50.41766" lon="2.61213">
        <ele>161.638916</ele>
        <time>2011-04-10T01:02:13Z</time>
      </trkpt>
      <trkpt lat="50.41778" lon="2.6121">
        <ele>161.638916</ele>
        <time>2011-04-10T01:02:22Z</time>
      </trkpt>
      <trkpt lat="50.41786" lon="2.61209">
        <ele>161.1582031</ele>
        <time>2011-04-10T01:02:28Z</time>
      </trkpt>
      <trkpt lat="50.41795" lon="2.61207">
        <ele>162.1195068</ele>
        <time>2011-04-10T01:02:35Z</time>
      </trkpt>
      <trkpt lat="50.41804" lon="2.61205">
        <ele>162.6000977</ele>
        <time>2011-04-10T01:02:42Z</time>
      </trkpt>
      <trkpt lat="50.41815" lon="2.61203">
        <ele>162.6000977</ele>
        <time>2011-04-10T01:02:50Z</time>
      </trkpt>
      <trkpt lat="50.41822" lon="2.61201">
        <ele>163.0808105</ele>
        <time>2011-04-10T01:02:55Z</time>
      </trkpt>
      <trkpt lat="50.41828" lon="2.61199">
        <ele>164.0421143</ele>
        <time>2011-04-10T01:03:00Z</time>
      </trkpt>
      <trkpt lat="50.4184" lon="2.61197">
        <ele>164.5227051</ele>
        <time>2011-04-10T01:03:08Z</time>
      </trkpt>
      <trkpt lat="50.41848" lon="2.61195">
        <ele>164.5227051</ele>
        <time>2011-04-10T01:03:14Z</time>
      </trkpt>
      <trkpt lat="50.41856" lon="2.61193">
        <ele>165.003418</ele>
        <time>2011-04-10T01:03:20Z</time>
      </trkpt>
      <trkpt lat="50.41864" lon="2.61191">
        <ele>165.4841309</ele>
        <time>2011-04-10T01:03:26Z</time>
      </trkpt>
      <trkpt lat="50.41872" lon="2.61188">
        <ele>166.4453125</ele>
        <time>2011-04-10T01:03:32Z</time>
      </trkpt>
      <trkpt lat="50.41879" lon="2.61186">
        <ele>167.8873291</ele>
        <time>2011-04-10T01:03:38Z</time>
      </trkpt>
      <trkpt lat="50.41889" lon="2.61184">
        <ele>167.8873291</ele>
        <time>2011-04-10T01:03:45Z</time>
      </trkpt>
      <trkpt lat="50.41897" lon="2.61183">
        <ele>167.8873291</ele>
        <time>2011-04-10T01:03:51Z</time>
      </trkpt>
      <trkpt lat="50.41904" lon="2.61181">
        <ele>168.368042</ele>
        <time>2011-04-10T01:03:56Z</time>
      </trkpt>
      <trkpt lat="50.41909" lon="2.61179">
        <ele>168.368042</ele>
        <time>2011-04-10T01:04:00Z</time>
      </trkpt>
      <trkpt lat="50.41919" lon="2.61178">
        <ele>168.368042</ele>
        <time>2011-04-10T01:04:07Z</time>
      </trkpt>
      <trkpt lat="50.41934" lon="2.61174">
        <ele>168.368042</ele>
        <time>2011-04-10T01:04:18Z</time>
      </trkpt>
      <trkpt lat="50.41944" lon="2.6117">
        <ele>168.368042</ele>
        <time>2011-04-10T01:04:26Z</time>
      </trkpt>
      <trkpt lat="50.41953" lon="2.61168">
        <ele>167.8873291</ele>
        <time>2011-04-10T01:04:32Z</time>
      </trkpt>
      <trkpt lat="50.41963" lon="2.61164">
        <ele>168.8487549</ele>
        <time>2011-04-10T01:04:39Z</time>
      </trkpt>
      <trkpt lat="50.41973" lon="2.61161">
        <ele>169.3294678</ele>
        <time>2011-04-10T01:04:46Z</time>
      </trkpt>
      <trkpt lat="50.41978" lon="2.61159">
        <ele>170.2906494</ele>
        <time>2011-04-10T01:04:50Z</time>
      </trkpt>
      <trkpt lat="50.41989" lon="2.61155">
        <ele>170.2906494</ele>
        <time>2011-04-10T01:04:58Z</time>
      </trkpt>
      <trkpt lat="50.41997" lon="2.61153">
        <ele>170.2906494</ele>
        <time>2011-04-10T01:05:04Z</time>
      </trkpt>
      <trkpt lat="50.42003" lon="2.61151">
        <ele>170.2906494</ele>
        <time>2011-04-10T01:05:08Z</time>
      </trkpt>
      <trkpt lat="50.42011" lon="2.61148">
        <ele>171.2520752</ele>
        <time>2011-04-10T01:05:15Z</time>
      </trkpt>
      <trkpt lat="50.42012" lon="2.61148">
        <ele>171.2520752</ele>
        <time>2011-04-10T01:05:16Z</time>
      </trkpt>
      <trkpt lat="50.42018" lon="2.61146">
        <ele>171.732666</ele>
        <time>2011-04-10T01:05:20Z</time>
      </trkpt>
      <trkpt lat="50.4203" lon="2.61144">
        <ele>171.732666</ele>
        <time>2011-04-10T01:05:28Z</time>
      </trkpt>
      <trkpt lat="50.4204" lon="2.61143">
        <ele>171.2520752</ele>
        <time>2011-04-10T01:05:35Z</time>
      </trkpt>
      <trkpt lat="50.42051" lon="2.61147">
        <ele>171.732666</ele>
        <time>2011-04-10T01:05:42Z</time>
      </trkpt>
      <trkpt lat="50.4206" lon="2.61154">
        <ele>170.7713623</ele>
        <time>2011-04-10T01:05:49Z</time>
      </trkpt>
      <trkpt lat="50.42068" lon="2.61161">
        <ele>171.2520752</ele>
        <time>2011-04-10T01:05:56Z</time>
      </trkpt>
      <trkpt lat="50.42073" lon="2.61168">
        <ele>170.7713623</ele>
        <time>2011-04-10T01:06:00Z</time>
      </trkpt>
      <trkpt lat="50.42079" lon="2.61175">
        <ele>170.2906494</ele>
        <time>2011-04-10T01:06:05Z</time>
      </trkpt>
      <trkpt lat="50.42086" lon="2.61182">
        <ele>169.8100586</ele>
        <time>2011-04-10T01:06:11Z</time>
      </trkpt>
      <trkpt lat="50.42092" lon="2.61188">
        <ele>169.8100586</ele>
        <time>2011-04-10T01:06:16Z</time>
      </trkpt>
      <trkpt lat="50.42098" lon="2.61195">
        <ele>171.2520752</ele>
        <time>2011-04-10T01:06:22Z</time>
      </trkpt>
      <trkpt lat="50.42105" lon="2.61203">
        <ele>172.2132568</ele>
        <time>2011-04-10T01:06:29Z</time>
      </trkpt>
      <trkpt lat="50.4211" lon="2.61207">
        <ele>173.1746826</ele>
        <time>2011-04-10T01:06:33Z</time>
      </trkpt>
      <trkpt lat="50.42115" lon="2.61214">
        <ele>173.6552734</ele>
        <time>2011-04-10T01:06:39Z</time>
      </trkpt>
      <trkpt lat="50.42118" lon="2.61218">
        <ele>173.1746826</ele>
        <time>2011-04-10T01:06:42Z</time>
      </trkpt>
      <trkpt lat="50.42122" lon="2.61221">
        <ele>174.6165771</ele>
        <time>2011-04-10T01:06:47Z</time>
      </trkpt>
      <trkpt lat="50.42127" lon="2.61225">
        <ele>174.1358643</ele>
        <time>2011-04-10T01:06:52Z</time>
      </trkpt>
      <trkpt lat="50.42129" lon="2.61228">
        <ele>173.6552734</ele>
        <time>2011-04-10T01:06:55Z</time>
      </trkpt>
      <trkpt lat="50.42135" lon="2.61233">
        <ele>172.2132568</ele>
        <time>2011-04-10T01:07:02Z</time>
      </trkpt>
      <trkpt lat="50.42137" lon="2.61236">
        <ele>174.6165771</ele>
        <time>2011-04-10T01:07:06Z</time>
      </trkpt>
      <trkpt lat="50.42141" lon="2.61242">
        <ele>177.5006104</ele>
        <time>2011-04-10T01:07:11Z</time>
      </trkpt>
      <trkpt lat="50.42144" lon="2.61246">
        <ele>178.942627</ele>
        <time>2011-04-10T01:07:15Z</time>
      </trkpt>
      <trkpt lat="50.4215" lon="2.61253">
        <ele>178.4619141</ele>
        <time>2011-04-10T01:07:21Z</time>
      </trkpt>
      <trkpt lat="50.42151" lon="2.61254">
        <ele>177.9812012</ele>
        <time>2011-04-10T01:07:22Z</time>
      </trkpt>
      <trkpt lat="50.42154" lon="2.61258">
        <ele>177.9812012</ele>
        <time>2011-04-10T01:07:27Z</time>
      </trkpt>
      <trkpt lat="50.42156" lon="2.61259">
        <ele>177.0200195</ele>
        <time>2011-04-10T01:07:34Z</time>
      </trkpt>
      <trkpt lat="50.42158" lon="2.61259">
        <ele>177.0200195</ele>
        <time>2011-04-10T01:07:42Z</time>
      </trkpt>
      <trkpt lat="50.42158" lon="2.61259">
        <ele>177.0200195</ele>
        <time>2011-04-10T01:07:47Z</time>
      </trkpt>
      <trkpt lat="50.4216" lon="2.61259">
        <ele>177.0200195</ele>
        <time>2011-04-10T01:07:56Z</time>
      </trkpt>
      <trkpt lat="50.42161" lon="2.61261">
        <ele>175.5778809</ele>
        <time>2011-04-10T01:08:07Z</time>
      </trkpt>
      <trkpt lat="50.42161" lon="2.6126">
        <ele>176.0585938</ele>
        <time>2011-04-10T01:08:15Z</time>
      </trkpt>
      <trkpt lat="50.4217" lon="2.61279">
        <ele>174.1358643</ele>
        <time>2011-04-10T01:24:24Z</time>
      </trkpt>
      <trkpt lat="50.42176" lon="2.61284">
        <ele>172.6939697</ele>
        <time>2011-04-10T01:24:28Z</time>
      </trkpt>
      <trkpt lat="50.4218" lon="2.61287">
        <ele>171.732666</ele>
        <time>2011-04-10T01:24:33Z</time>
      </trkpt>
      <trkpt lat="50.42181" lon="2.61288">
        <ele>171.732666</ele>
        <time>2011-04-10T01:24:34Z</time>
      </trkpt>
      <trkpt lat="50.42184" lon="2.61293">
        <ele>171.2520752</ele>
        <time>2011-04-10T01:24:38Z</time>
      </trkpt>
      <trkpt lat="50.42191" lon="2.61298">
        <ele>171.2520752</ele>
        <time>2011-04-10T01:24:42Z</time>
      </trkpt>
      <trkpt lat="50.422" lon="2.61307">
        <ele>170.2906494</ele>
        <time>2011-04-10T01:24:48Z</time>
      </trkpt>
      <trkpt lat="50.42205" lon="2.61313">
        <ele>169.3294678</ele>
        <time>2011-04-10T01:24:52Z</time>
      </trkpt>
      <trkpt lat="50.42216" lon="2.61323">
        <ele>169.3294678</ele>
        <time>2011-04-10T01:25:00Z</time>
      </trkpt>
      <trkpt lat="50.4222" lon="2.61328">
        <ele>171.2520752</ele>
        <time>2011-04-10T01:25:04Z</time>
      </trkpt>
      <trkpt lat="50.42226" lon="2.61336">
        <ele>173.6552734</ele>
        <time>2011-04-10T01:25:10Z</time>
      </trkpt>
      <trkpt lat="50.42226" lon="2.61338">
        <ele>174.1358643</ele>
        <time>2011-04-10T01:25:11Z</time>
      </trkpt>
      <trkpt lat="50.42231" lon="2.61343">
        <ele>174.6165771</ele>
        <time>2011-04-10T01:25:16Z</time>
      </trkpt>
      <trkpt lat="50.42241" lon="2.61353">
        <ele>174.6165771</ele>
        <time>2011-04-10T01:25:22Z</time>
      </trkpt>
      <trkpt lat="50.42244" lon="2.61357">
        <ele>175.5778809</ele>
        <time>2011-04-10T01:25:25Z</time>
      </trkpt>
      <trkpt lat="50.42249" lon="2.61363">
        <ele>176.5393066</ele>
        <time>2011-04-10T01:25:30Z</time>
      </trkpt>
      <trkpt lat="50.42257" lon="2.61369">
        <ele>176.0585938</ele>
        <time>2011-04-10T01:25:35Z</time>
      </trkpt>
      <trkpt lat="50.42261" lon="2.61374">
        <ele>174.6165771</ele>
        <time>2011-04-10T01:25:39Z</time>
      </trkpt>
      <trkpt lat="50.42268" lon="2.61382">
        <ele>173.1746826</ele>
        <time>2011-04-10T01:25:45Z</time>
      </trkpt>
      <trkpt lat="50.42274" lon="2.61388">
        <ele>172.6939697</ele>
        <time>2011-04-10T01:25:50Z</time>
      </trkpt>
      <trkpt lat="50.42277" lon="2.61391">
        <ele>172.6939697</ele>
        <time>2011-04-10T01:25:53Z</time>
      </trkpt>
      <trkpt lat="50.42283" lon="2.61397">
        <ele>171.732666</ele>
        <time>2011-04-10T01:25:58Z</time>
      </trkpt>
      <trkpt lat="50.42291" lon="2.61401">
        <ele>171.2520752</ele>
        <time>2011-04-10T01:26:03Z</time>
      </trkpt>
      <trkpt lat="50.42297" lon="2.61408">
        <ele>169.3294678</ele>
        <time>2011-04-10T01:26:08Z</time>
      </trkpt>
      <trkpt lat="50.42297" lon="2.61408">
        <ele>170.2906494</ele>
        <time>2011-04-10T01:26:09Z</time>
      </trkpt>
      <trkpt lat="50.42297" lon="2.61413">
        <ele>169.8100586</ele>
        <time>2011-04-10T01:26:11Z</time>
      </trkpt>
      <trkpt lat="50.42303" lon="2.61422">
        <ele>170.7713623</ele>
        <time>2011-04-10T01:26:17Z</time>
      </trkpt>
      <trkpt lat="50.42305" lon="2.61423">
        <ele>170.7713623</ele>
        <time>2011-04-10T01:26:18Z</time>
      </trkpt>
      <trkpt lat="50.42315" lon="2.61433">
        <ele>172.2132568</ele>
        <time>2011-04-10T01:26:27Z</time>
      </trkpt>
      <trkpt lat="50.42321" lon="2.6144">
        <ele>174.6165771</ele>
        <time>2011-04-10T01:26:32Z</time>
      </trkpt>
      <trkpt lat="50.42325" lon="2.61443">
        <ele>174.1358643</ele>
        <time>2011-04-10T01:26:35Z</time>
      </trkpt>
      <trkpt lat="50.42333" lon="2.61453">
        <ele>174.1358643</ele>
        <time>2011-04-10T01:26:42Z</time>
      </trkpt>
      <trkpt lat="50.42339" lon="2.61461">
        <ele>171.2520752</ele>
        <time>2011-04-10T01:26:48Z</time>
      </trkpt>
      <trkpt lat="50.4234" lon="2.61463">
        <ele>170.7713623</ele>
        <time>2011-04-10T01:26:49Z</time>
      </trkpt>
      <trkpt lat="50.42347" lon="2.6147">
        <ele>169.3294678</ele>
        <time>2011-04-10T01:26:53Z</time>
      </trkpt>
      <trkpt lat="50.42355" lon="2.6148">
        <ele>165.9647217</ele>
        <time>2011-04-10T01:27:00Z</time>
      </trkpt>
      <trkpt lat="50.42356" lon="2.61481">
        <ele>166.4453125</ele>
        <time>2011-04-10T01:27:01Z</time>
      </trkpt>
      <trkpt lat="50.42356" lon="2.61481">
        <ele>166.4453125</ele>
        <time>2011-04-10T01:27:01Z</time>
      </trkpt>
      <trkpt lat="50.4236" lon="2.61484">
        <ele>166.9260254</ele>
        <time>2011-04-10T01:27:04Z</time>
      </trkpt>
      <trkpt lat="50.4237" lon="2.61493">
        <ele>167.8873291</ele>
        <time>2011-04-10T01:27:10Z</time>
      </trkpt>
      <trkpt lat="50.42376" lon="2.61499">
        <ele>168.368042</ele>
        <time>2011-04-10T01:27:14Z</time>
      </trkpt>
      <trkpt lat="50.42381" lon="2.61504">
        <ele>168.368042</ele>
        <time>2011-04-10T01:27:19Z</time>
      </trkpt>
      <trkpt lat="50.42387" lon="2.61511">
        <ele>170.2906494</ele>
        <time>2011-04-10T01:27:25Z</time>
      </trkpt>
      <trkpt lat="50.4239" lon="2.61511">
        <ele>173.1746826</ele>
        <time>2011-04-10T01:27:30Z</time>
      </trkpt>
      <trkpt lat="50.42393" lon="2.61506">
        <ele>173.6552734</ele>
        <time>2011-04-10T01:27:34Z</time>
      </trkpt>
      <trkpt lat="50.424" lon="2.61494">
        <ele>175.09729</ele>
        <time>2011-04-10T01:27:41Z</time>
      </trkpt>
      <trkpt lat="50.42408" lon="2.61487">
        <ele>176.0585938</ele>
        <time>2011-04-10T01:27:46Z</time>
      </trkpt>
      <trkpt lat="50.42413" lon="2.61475">
        <ele>175.09729</ele>
        <time>2011-04-10T01:27:52Z</time>
      </trkpt>
      <trkpt lat="50.42416" lon="2.61469">
        <ele>175.5778809</ele>
        <time>2011-04-10T01:27:57Z</time>
      </trkpt>
      <trkpt lat="50.4242" lon="2.61463">
        <ele>176.5393066</ele>
        <time>2011-04-10T01:28:01Z</time>
      </trkpt>
      <trkpt lat="50.42422" lon="2.6146">
        <ele>176.0585938</ele>
        <time>2011-04-10T01:28:03Z</time>
      </trkpt>
      <trkpt lat="50.42425" lon="2.61457">
        <ele>176.0585938</ele>
        <time>2011-04-10T01:28:05Z</time>
      </trkpt>
      <trkpt lat="50.42429" lon="2.61449">
        <ele>176.0585938</ele>
        <time>2011-04-10T01:28:10Z</time>
      </trkpt>
      <trkpt lat="50.4243" lon="2.61447">
        <ele>176.5393066</ele>
        <time>2011-04-10T01:28:11Z</time>
      </trkpt>
      <trkpt lat="50.42433" lon="2.61443">
        <ele>177.9812012</ele>
        <time>2011-04-10T01:28:14Z</time>
      </trkpt>
      <trkpt lat="50.42437" lon="2.61434">
        <ele>178.942627</ele>
        <time>2011-04-10T01:28:19Z</time>
      </trkpt>
      <trkpt lat="50.42442" lon="2.61424">
        <ele>180.8652344</ele>
        <time>2011-04-10T01:28:25Z</time>
      </trkpt>
      <trkpt lat="50.42443" lon="2.6142">
        <ele>180.8652344</ele>
        <time>2011-04-10T01:28:27Z</time>
      </trkpt>
      <trkpt lat="50.42449" lon="2.61409">
        <ele>179.9038086</ele>
        <time>2011-04-10T01:28:34Z</time>
      </trkpt>
      <trkpt lat="50.4245" lon="2.61408">
        <ele>179.9038086</ele>
        <time>2011-04-10T01:28:35Z</time>
      </trkpt>
      <trkpt lat="50.42456" lon="2.61402">
        <ele>180.8652344</ele>
        <time>2011-04-10T01:28:40Z</time>
      </trkpt>
      <trkpt lat="50.42459" lon="2.61397">
        <ele>180.8652344</ele>
        <time>2011-04-10T01:28:43Z</time>
      </trkpt>
      <trkpt lat="50.42463" lon="2.61385">
        <ele>181.826416</ele>
        <time>2011-04-10T01:28:49Z</time>
      </trkpt>
      <trkpt lat="50.42468" lon="2.61382">
        <ele>182.7878418</ele>
        <time>2011-04-10T01:28:53Z</time>
      </trkpt>
      <trkpt lat="50.42474" lon="2.61369">
        <ele>185.1911621</ele>
        <time>2011-04-10T01:29:00Z</time>
      </trkpt>
      <trkpt lat="50.42481" lon="2.61363">
        <ele>185.6717529</ele>
        <time>2011-04-10T01:29:05Z</time>
      </trkpt>
      <trkpt lat="50.42486" lon="2.61355">
        <ele>183.7490234</ele>
        <time>2011-04-10T01:29:09Z</time>
      </trkpt>
      <trkpt lat="50.42487" lon="2.61351">
        <ele>183.2684326</ele>
        <time>2011-04-10T01:29:11Z</time>
      </trkpt>
      <trkpt lat="50.42492" lon="2.6134">
        <ele>181.3458252</ele>
        <time>2011-04-10T01:29:17Z</time>
      </trkpt>
      <trkpt lat="50.42494" lon="2.61333">
        <ele>180.3845215</ele>
        <time>2011-04-10T01:29:21Z</time>
      </trkpt>
      <trkpt lat="50.425" lon="2.61326">
        <ele>180.3845215</ele>
        <time>2011-04-10T01:29:26Z</time>
      </trkpt>
      <trkpt lat="50.42503" lon="2.61316">
        <ele>179.9038086</ele>
        <time>2011-04-10T01:29:32Z</time>
      </trkpt>
      <trkpt lat="50.42507" lon="2.61307">
        <ele>179.9038086</ele>
        <time>2011-04-10T01:29:37Z</time>
      </trkpt>
      <trkpt lat="50.42505" lon="2.61297">
        <ele>179.4232178</ele>
        <time>2011-04-10T01:29:43Z</time>
      </trkpt>
      <trkpt lat="50.42504" lon="2.61296">
        <ele>179.4232178</ele>
        <time>2011-04-10T01:29:44Z</time>
      </trkpt>
      <trkpt lat="50.42493" lon="2.61286">
        <ele>177.0200195</ele>
        <time>2011-04-10T01:29:51Z</time>
      </trkpt>
      <trkpt lat="50.42485" lon="2.6128">
        <ele>178.942627</ele>
        <time>2011-04-10T01:29:58Z</time>
      </trkpt>
      <trkpt lat="50.42479" lon="2.61272">
        <ele>182.7878418</ele>
        <time>2011-04-10T01:30:04Z</time>
      </trkpt>
      <trkpt lat="50.42473" lon="2.61265">
        <ele>184.2298584</ele>
        <time>2011-04-10T01:30:09Z</time>
      </trkpt>
      <trkpt lat="50.42472" lon="2.61264">
        <ele>184.7105713</ele>
        <time>2011-04-10T01:30:10Z</time>
      </trkpt>
      <trkpt lat="50.42467" lon="2.61254">
        <ele>186.1524658</ele>
        <time>2011-04-10T01:30:16Z</time>
      </trkpt>
      <trkpt lat="50.42466" lon="2.6125">
        <ele>185.6717529</ele>
        <time>2011-04-10T01:30:18Z</time>
      </trkpt>
      <trkpt lat="50.42464" lon="2.61246">
        <ele>185.1911621</ele>
        <time>2011-04-10T01:30:20Z</time>
      </trkpt>
      <trkpt lat="50.42459" lon="2.6124">
        <ele>185.1911621</ele>
        <time>2011-04-10T01:30:24Z</time>
      </trkpt>
      <trkpt lat="50.42454" lon="2.61233">
        <ele>185.1911621</ele>
        <time>2011-04-10T01:30:31Z</time>
      </trkpt>
      <trkpt lat="50.42452" lon="2.61232">
        <ele>185.1911621</ele>
        <time>2011-04-10T01:30:32Z</time>
      </trkpt>
      <trkpt lat="50.42448" lon="2.61227">
        <ele>186.6331787</ele>
        <time>2011-04-10T01:30:38Z</time>
      </trkpt>
      <trkpt lat="50.42441" lon="2.61218">
        <ele>189.9976807</ele>
        <time>2011-04-10T01:30:43Z</time>
      </trkpt>
      <trkpt lat="50.42436" lon="2.61211">
        <ele>192.401123</ele>
        <time>2011-04-10T01:30:49Z</time>
      </trkpt>
      <trkpt lat="50.42429" lon="2.61203">
        <ele>193.8430176</ele>
        <time>2011-04-10T01:30:55Z</time>
      </trkpt>
      <trkpt lat="50.42428" lon="2.61201">
        <ele>193.8430176</ele>
        <time>2011-04-10T01:30:56Z</time>
      </trkpt>
      <trkpt lat="50.42423" lon="2.61194">
        <ele>194.8043213</ele>
        <time>2011-04-10T01:31:01Z</time>
      </trkpt>
      <trkpt lat="50.42416" lon="2.61185">
        <ele>195.2849121</ele>
        <time>2011-04-10T01:31:07Z</time>
      </trkpt>
      <trkpt lat="50.42408" lon="2.61175">
        <ele>198.1689453</ele>
        <time>2011-04-10T01:31:15Z</time>
      </trkpt>
      <trkpt lat="50.42403" lon="2.61169">
        <ele>200.0916748</ele>
        <time>2011-04-10T01:31:19Z</time>
      </trkpt>
      <trkpt lat="50.42399" lon="2.61162">
        <ele>201.0528564</ele>
        <time>2011-04-10T01:31:23Z</time>
      </trkpt>
      <trkpt lat="50.42392" lon="2.61154">
        <ele>202.0142822</ele>
        <time>2011-04-10T01:31:30Z</time>
      </trkpt>
      <trkpt lat="50.42388" lon="2.61148">
        <ele>202.494873</ele>
        <time>2011-04-10T01:31:34Z</time>
      </trkpt>
      <trkpt lat="50.42382" lon="2.6114">
        <ele>201.0528564</ele>
        <time>2011-04-10T01:31:40Z</time>
      </trkpt>
      <trkpt lat="50.42376" lon="2.61133">
        <ele>199.6108398</ele>
        <time>2011-04-10T01:31:45Z</time>
      </trkpt>
      <trkpt lat="50.42369" lon="2.61123">
        <ele>196.7269287</ele>
        <time>2011-04-10T01:31:51Z</time>
      </trkpt>
      <trkpt lat="50.42362" lon="2.61115">
        <ele>195.2849121</ele>
        <time>2011-04-10T01:31:56Z</time>
      </trkpt>
      <trkpt lat="50.42356" lon="2.61108">
        <ele>193.8430176</ele>
        <time>2011-04-10T01:32:01Z</time>
      </trkpt>
      <trkpt lat="50.42355" lon="2.61107">
        <ele>193.3623047</ele>
        <time>2011-04-10T01:32:02Z</time>
      </trkpt>
      <trkpt lat="50.42353" lon="2.61103">
        <ele>192.401123</ele>
        <time>2011-04-10T01:32:05Z</time>
      </trkpt>
      <trkpt lat="50.42346" lon="2.61096">
        <ele>192.8817139</ele>
        <time>2011-04-10T01:32:11Z</time>
      </trkpt>
      <trkpt lat="50.42343" lon="2.61092">
        <ele>193.3623047</ele>
        <time>2011-04-10T01:32:14Z</time>
      </trkpt>
      <trkpt lat="50.42334" lon="2.6108">
        <ele>192.8817139</ele>
        <time>2011-04-10T01:32:23Z</time>
      </trkpt>
      <trkpt lat="50.42329" lon="2.61073">
        <ele>193.8430176</ele>
        <time>2011-04-10T01:32:28Z</time>
      </trkpt>
      <trkpt lat="50.42324" lon="2.61067">
        <ele>196.2463379</ele>
        <time>2011-04-10T01:32:34Z</time>
      </trkpt>
      <trkpt lat="50.42319" lon="2.61062">
        <ele>198.6495361</ele>
        <time>2011-04-10T01:32:40Z</time>
      </trkpt>
      <trkpt lat="50.42316" lon="2.61057">
        <ele>200.0916748</ele>
        <time>2011-04-10T01:32:44Z</time>
      </trkpt>
      <trkpt lat="50.42312" lon="2.61053">
        <ele>202.0142822</ele>
        <time>2011-04-10T01:32:48Z</time>
      </trkpt>
      <trkpt lat="50.4231" lon="2.61048">
        <ele>198.1689453</ele>
        <time>2011-04-10T01:32:52Z</time>
      </trkpt>
      <trkpt lat="50.42309" lon="2.61047">
        <ele>197.6882324</ele>
        <time>2011-04-10T01:32:54Z</time>
      </trkpt>
      <trkpt lat="50.42304" lon="2.61042">
        <ele>195.2849121</ele>
        <time>2011-04-10T01:32:59Z</time>
      </trkpt>
      <trkpt lat="50.42298" lon="2.61037">
        <ele>193.3623047</ele>
        <time>2011-04-10T01:33:04Z</time>
      </trkpt>
      <trkpt lat="50.42292" lon="2.61032">
        <ele>191.9202881</ele>
        <time>2011-04-10T01:33:09Z</time>
      </trkpt>
      <trkpt lat="50.42282" lon="2.6103">
        <ele>189.5169678</ele>
        <time>2011-04-10T01:33:14Z</time>
      </trkpt>
      <trkpt lat="50.42278" lon="2.61025">
        <ele>188.5557861</ele>
        <time>2011-04-10T01:33:18Z</time>
      </trkpt>
      <trkpt lat="50.42276" lon="2.61017">
        <ele>187.1137695</ele>
        <time>2011-04-10T01:33:22Z</time>
      </trkpt>
      <trkpt lat="50.42275" lon="2.61012">
        <ele>186.6331787</ele>
        <time>2011-04-10T01:33:24Z</time>
      </trkpt>
      <trkpt lat="50.42275" lon="2.61002">
        <ele>187.5943604</ele>
        <time>2011-04-10T01:33:29Z</time>
      </trkpt>
      <trkpt lat="50.42274" lon="2.60996">
        <ele>187.1137695</ele>
        <time>2011-04-10T01:33:32Z</time>
      </trkpt>
      <trkpt lat="50.42272" lon="2.60991">
        <ele>186.1524658</ele>
        <time>2011-04-10T01:33:35Z</time>
      </trkpt>
      <trkpt lat="50.4227" lon="2.60979">
        <ele>183.7490234</ele>
        <time>2011-04-10T01:33:40Z</time>
      </trkpt>
      <trkpt lat="50.42266" lon="2.60968">
        <ele>181.826416</ele>
        <time>2011-04-10T01:33:45Z</time>
      </trkpt>
      <trkpt lat="50.42265" lon="2.60966">
        <ele>180.8652344</ele>
        <time>2011-04-10T01:33:46Z</time>
      </trkpt>
      <trkpt lat="50.42264" lon="2.60961">
        <ele>178.942627</ele>
        <time>2011-04-10T01:33:48Z</time>
      </trkpt>
      <trkpt lat="50.42263" lon="2.60955">
        <ele>175.5778809</ele>
        <time>2011-04-10T01:33:52Z</time>
      </trkpt>
      <trkpt lat="50.42261" lon="2.6094">
        <ele>173.6552734</ele>
        <time>2011-04-10T01:34:00Z</time>
      </trkpt>
      <trkpt lat="50.4226" lon="2.60932">
        <ele>176.5393066</ele>
        <time>2011-04-10T01:34:04Z</time>
      </trkpt>
      <trkpt lat="50.4226" lon="2.60927">
        <ele>178.4619141</ele>
        <time>2011-04-10T01:34:06Z</time>
      </trkpt>
      <trkpt lat="50.42258" lon="2.6092">
        <ele>182.7878418</ele>
        <time>2011-04-10T01:34:10Z</time>
      </trkpt>
      <trkpt lat="50.42257" lon="2.60914">
        <ele>184.7105713</ele>
        <time>2011-04-10T01:34:15Z</time>
      </trkpt>
      <trkpt lat="50.42254" lon="2.60901">
        <ele>182.7878418</ele>
        <time>2011-04-10T01:34:23Z</time>
      </trkpt>
      <trkpt lat="50.42252" lon="2.60896">
        <ele>179.4232178</ele>
        <time>2011-04-10T01:34:26Z</time>
      </trkpt>
      <trkpt lat="50.42251" lon="2.60884">
        <ele>175.5778809</ele>
        <time>2011-04-10T01:34:31Z</time>
      </trkpt>
      <trkpt lat="50.42251" lon="2.6088">
        <ele>176.0585938</ele>
        <time>2011-04-10T01:34:33Z</time>
      </trkpt>
      <trkpt lat="50.42252" lon="2.6087">
        <ele>176.0585938</ele>
        <time>2011-04-10T01:34:39Z</time>
      </trkpt>
      <trkpt lat="50.42246" lon="2.60856">
        <ele>182.3071289</ele>
        <time>2011-04-10T01:34:49Z</time>
      </trkpt>
      <trkpt lat="50.42243" lon="2.60849">
        <ele>183.7490234</ele>
        <time>2011-04-10T01:34:52Z</time>
      </trkpt>
      <trkpt lat="50.42237" lon="2.6083">
        <ele>181.3458252</ele>
        <time>2011-04-10T01:34:59Z</time>
      </trkpt>
      <trkpt lat="50.42235" lon="2.60815">
        <ele>176.0585938</ele>
        <time>2011-04-10T01:35:05Z</time>
      </trkpt>
      <trkpt lat="50.42233" lon="2.60798">
        <ele>173.6552734</ele>
        <time>2011-04-10T01:35:12Z</time>
      </trkpt>
      <trkpt lat="50.42235" lon="2.60788">
        <ele>172.6939697</ele>
        <time>2011-04-10T01:35:17Z</time>
      </trkpt>
      <trkpt lat="50.42237" lon="2.60774">
        <ele>172.2132568</ele>
        <time>2011-04-10T01:35:23Z</time>
      </trkpt>
      <trkpt lat="50.42238" lon="2.60765">
        <ele>172.2132568</ele>
        <time>2011-04-10T01:35:28Z</time>
      </trkpt>
      <trkpt lat="50.42238" lon="2.60756">
        <ele>172.6939697</ele>
        <time>2011-04-10T01:35:32Z</time>
      </trkpt>
      <trkpt lat="50.42239" lon="2.60747">
        <ele>173.1746826</ele>
        <time>2011-04-10T01:35:39Z</time>
      </trkpt>
      <trkpt lat="50.42239" lon="2.60739">
        <ele>174.6165771</ele>
        <time>2011-04-10T01:35:42Z</time>
      </trkpt>
      <trkpt lat="50.42237" lon="2.60735">
        <ele>175.5778809</ele>
        <time>2011-04-10T01:35:44Z</time>
      </trkpt>
      <trkpt lat="50.42238" lon="2.60723">
        <ele>174.6165771</ele>
        <time>2011-04-10T01:35:50Z</time>
      </trkpt>
      <trkpt lat="50.42237" lon="2.60714">
        <ele>175.5778809</ele>
        <time>2011-04-10T01:35:55Z</time>
      </trkpt>
      <trkpt lat="50.42236" lon="2.60706">
        <ele>177.9812012</ele>
        <time>2011-04-10T01:35:59Z</time>
      </trkpt>
      <trkpt lat="50.4223" lon="2.60697">
        <ele>179.4232178</ele>
        <time>2011-04-10T01:36:03Z</time>
      </trkpt>
      <trkpt lat="50.42229" lon="2.60679">
        <ele>178.4619141</ele>
        <time>2011-04-10T01:36:09Z</time>
      </trkpt>
      <trkpt lat="50.42229" lon="2.60676">
        <ele>177.9812012</ele>
        <time>2011-04-10T01:36:10Z</time>
      </trkpt>
      <trkpt lat="50.42229" lon="2.60671">
        <ele>177.0200195</ele>
        <time>2011-04-10T01:36:13Z</time>
      </trkpt>
      <trkpt lat="50.42228" lon="2.60662">
        <ele>175.09729</ele>
        <time>2011-04-10T01:36:18Z</time>
      </trkpt>
      <trkpt lat="50.42228" lon="2.6066">
        <ele>174.6165771</ele>
        <time>2011-04-10T01:36:19Z</time>
      </trkpt>
      <trkpt lat="50.42228" lon="2.60647">
        <ele>170.2906494</ele>
        <time>2011-04-10T01:36:24Z</time>
      </trkpt>
      <trkpt lat="50.42228" lon="2.60645">
        <ele>169.8100586</ele>
        <time>2011-04-10T01:36:25Z</time>
      </trkpt>
      <trkpt lat="50.4223" lon="2.60631">
        <ele>165.4841309</ele>
        <time>2011-04-10T01:36:32Z</time>
      </trkpt>
      <trkpt lat="50.42232" lon="2.60621">
        <ele>163.0808105</ele>
        <time>2011-04-10T01:36:37Z</time>
      </trkpt>
      <trkpt lat="50.42232" lon="2.60616">
        <ele>162.6000977</ele>
        <time>2011-04-10T01:36:40Z</time>
      </trkpt>
      <trkpt lat="50.42232" lon="2.60609">
        <ele>159.2354736</ele>
        <time>2011-04-10T01:36:44Z</time>
      </trkpt>
      <trkpt lat="50.42233" lon="2.60603">
        <ele>156.3515625</ele>
        <time>2011-04-10T01:36:47Z</time>
      </trkpt>
      <trkpt lat="50.42234" lon="2.60599">
        <ele>153.4676514</ele>
        <time>2011-04-10T01:36:50Z</time>
      </trkpt>
      <trkpt lat="50.42238" lon="2.60591">
        <ele>148.6610107</ele>
        <time>2011-04-10T01:36:55Z</time>
      </trkpt>
      <trkpt lat="50.42238" lon="2.60588">
        <ele>147.2189941</ele>
        <time>2011-04-10T01:36:57Z</time>
      </trkpt>
      <trkpt lat="50.4224" lon="2.60578">
        <ele>143.8543701</ele>
        <time>2011-04-10T01:37:02Z</time>
      </trkpt>
      <trkpt lat="50.42243" lon="2.60566">
        <ele>140.0091553</ele>
        <time>2011-04-10T01:37:08Z</time>
      </trkpt>
      <trkpt lat="50.42244" lon="2.60554">
        <ele>137.1252441</ele>
        <time>2011-04-10T01:37:14Z</time>
      </trkpt>
      <trkpt lat="50.42244" lon="2.60549">
        <ele>137.1252441</ele>
        <time>2011-04-10T01:37:17Z</time>
      </trkpt>
      <trkpt lat="50.42247" lon="2.60541">
        <ele>139.0478516</ele>
        <time>2011-04-10T01:37:23Z</time>
      </trkpt>
      <trkpt lat="50.42246" lon="2.60531">
        <ele>141.9317627</ele>
        <time>2011-04-10T01:37:27Z</time>
      </trkpt>
      <trkpt lat="50.42247" lon="2.60519">
        <ele>142.4124756</ele>
        <time>2011-04-10T01:37:32Z</time>
      </trkpt>
      <trkpt lat="50.42249" lon="2.60516">
        <ele>144.3352051</ele>
        <time>2011-04-10T01:37:34Z</time>
      </trkpt>
      <trkpt lat="50.42254" lon="2.6051">
        <ele>146.2578125</ele>
        <time>2011-04-10T01:37:39Z</time>
      </trkpt>
      <trkpt lat="50.42257" lon="2.60506">
        <ele>148.6610107</ele>
        <time>2011-04-10T01:37:42Z</time>
      </trkpt>
      <trkpt lat="50.42253" lon="2.60499">
        <ele>153.4676514</ele>
        <time>2011-04-10T01:37:46Z</time>
      </trkpt>
      <trkpt lat="50.4225" lon="2.6049">
        <ele>156.3515625</ele>
        <time>2011-04-10T01:37:50Z</time>
      </trkpt>
      <trkpt lat="50.42247" lon="2.60483">
        <ele>158.2741699</ele>
        <time>2011-04-10T01:37:54Z</time>
      </trkpt>
      <trkpt lat="50.42242" lon="2.60477">
        <ele>160.1968994</ele>
        <time>2011-04-10T01:37:59Z</time>
      </trkpt>
      <trkpt lat="50.42237" lon="2.60474">
        <ele>160.6774902</ele>
        <time>2011-04-10T01:38:02Z</time>
      </trkpt>
      <trkpt lat="50.42228" lon="2.60467">
        <ele>164.0421143</ele>
        <time>2011-04-10T01:38:08Z</time>
      </trkpt>
      <trkpt lat="50.42222" lon="2.60466">
        <ele>164.0421143</ele>
        <time>2011-04-10T01:38:13Z</time>
      </trkpt>
      <trkpt lat="50.42216" lon="2.60466">
        <ele>166.9260254</ele>
        <time>2011-04-10T01:38:18Z</time>
      </trkpt>
      <trkpt lat="50.42213" lon="2.60463">
        <ele>167.4067383</ele>
        <time>2011-04-10T01:38:21Z</time>
      </trkpt>
      <trkpt lat="50.42211" lon="2.60448">
        <ele>163.5615234</ele>
        <time>2011-04-10T01:38:28Z</time>
      </trkpt>
      <trkpt lat="50.42211" lon="2.6044">
        <ele>164.0421143</ele>
        <time>2011-04-10T01:38:31Z</time>
      </trkpt>
      <trkpt lat="50.42208" lon="2.60429">
        <ele>163.0808105</ele>
        <time>2011-04-10T01:38:37Z</time>
      </trkpt>
      <trkpt lat="50.42208" lon="2.60427">
        <ele>163.0808105</ele>
        <time>2011-04-10T01:38:38Z</time>
      </trkpt>
      <trkpt lat="50.42205" lon="2.60421">
        <ele>163.0808105</ele>
        <time>2011-04-10T01:38:43Z</time>
      </trkpt>
      <trkpt lat="50.42201" lon="2.60412">
        <ele>164.0421143</ele>
        <time>2011-04-10T01:38:49Z</time>
      </trkpt>
      <trkpt lat="50.42198" lon="2.60407">
        <ele>165.003418</ele>
        <time>2011-04-10T01:38:52Z</time>
      </trkpt>
      <trkpt lat="50.42194" lon="2.60401">
        <ele>165.003418</ele>
        <time>2011-04-10T01:38:58Z</time>
      </trkpt>
      <trkpt lat="50.42193" lon="2.604">
        <ele>165.003418</ele>
        <time>2011-04-10T01:38:59Z</time>
      </trkpt>
      <trkpt lat="50.42188" lon="2.60391">
        <ele>165.4841309</ele>
        <time>2011-04-10T01:39:04Z</time>
      </trkpt>
      <trkpt lat="50.42179" lon="2.60377">
        <ele>167.4067383</ele>
        <time>2011-04-10T01:39:12Z</time>
      </trkpt>
      <trkpt lat="50.42176" lon="2.60369">
        <ele>167.4067383</ele>
        <time>2011-04-10T01:39:16Z</time>
      </trkpt>
      <trkpt lat="50.42169" lon="2.6036">
        <ele>167.8873291</ele>
        <time>2011-04-10T01:39:21Z</time>
      </trkpt>
      <trkpt lat="50.42166" lon="2.60354">
        <ele>167.4067383</ele>
        <time>2011-04-10T01:39:25Z</time>
      </trkpt>
      <trkpt lat="50.42158" lon="2.60346">
        <ele>168.8487549</ele>
        <time>2011-04-10T01:39:31Z</time>
      </trkpt>
      <trkpt lat="50.42153" lon="2.60337">
        <ele>170.2906494</ele>
        <time>2011-04-10T01:39:36Z</time>
      </trkpt>
      <trkpt lat="50.4215" lon="2.6033">
        <ele>169.3294678</ele>
        <time>2011-04-10T01:39:40Z</time>
      </trkpt>
      <trkpt lat="50.42155" lon="2.60322">
        <ele>172.2132568</ele>
        <time>2011-04-10T01:39:46Z</time>
      </trkpt>
      <trkpt lat="50.42155" lon="2.60316">
        <ele>172.2132568</ele>
        <time>2011-04-10T01:39:49Z</time>
      </trkpt>
      <trkpt lat="50.42159" lon="2.60305">
        <ele>172.2132568</ele>
        <time>2011-04-10T01:39:54Z</time>
      </trkpt>
      <trkpt lat="50.42165" lon="2.60288">
        <ele>168.368042</ele>
        <time>2011-04-10T01:40:02Z</time>
      </trkpt>
      <trkpt lat="50.42167" lon="2.60276">
        <ele>165.9647217</ele>
        <time>2011-04-10T01:40:09Z</time>
      </trkpt>
      <trkpt lat="50.4217" lon="2.60271">
        <ele>164.0421143</ele>
        <time>2011-04-10T01:40:13Z</time>
      </trkpt>
      <trkpt lat="50.42172" lon="2.60267">
        <ele>163.0808105</ele>
        <time>2011-04-10T01:40:16Z</time>
      </trkpt>
      <trkpt lat="50.42177" lon="2.60261">
        <ele>164.0421143</ele>
        <time>2011-04-10T01:40:21Z</time>
      </trkpt>
      <trkpt lat="50.4218" lon="2.60259">
        <ele>163.5615234</ele>
        <time>2011-04-10T01:40:23Z</time>
      </trkpt>
      <trkpt lat="50.42186" lon="2.60254">
        <ele>163.0808105</ele>
        <time>2011-04-10T01:40:28Z</time>
      </trkpt>
      <trkpt lat="50.42186" lon="2.60241">
        <ele>164.0421143</ele>
        <time>2011-04-10T01:40:34Z</time>
      </trkpt>
      <trkpt lat="50.42189" lon="2.6023">
        <ele>161.638916</ele>
        <time>2011-04-10T01:40:40Z</time>
      </trkpt>
      <trkpt lat="50.42188" lon="2.60224">
        <ele>160.1968994</ele>
        <time>2011-04-10T01:40:43Z</time>
      </trkpt>
      <trkpt lat="50.42191" lon="2.60216">
        <ele>160.1968994</ele>
        <time>2011-04-10T01:40:48Z</time>
      </trkpt>
      <trkpt lat="50.4219" lon="2.60212">
        <ele>160.1968994</ele>
        <time>2011-04-10T01:40:50Z</time>
      </trkpt>
      <trkpt lat="50.42196" lon="2.60204">
        <ele>158.7547607</ele>
        <time>2011-04-10T01:40:56Z</time>
      </trkpt>
      <trkpt lat="50.42203" lon="2.602">
        <ele>157.7935791</ele>
        <time>2011-04-10T01:41:01Z</time>
      </trkpt>
      <trkpt lat="50.42206" lon="2.60196">
        <ele>157.7935791</ele>
        <time>2011-04-10T01:41:04Z</time>
      </trkpt>
      <trkpt lat="50.42213" lon="2.60196">
        <ele>156.8321533</ele>
        <time>2011-04-10T01:41:10Z</time>
      </trkpt>
      <trkpt lat="50.42221" lon="2.60205">
        <ele>153.4676514</ele>
        <time>2011-04-10T01:41:17Z</time>
      </trkpt>
      <trkpt lat="50.42224" lon="2.60206">
        <ele>152.0257568</ele>
        <time>2011-04-10T01:41:21Z</time>
      </trkpt>
      <trkpt lat="50.42227" lon="2.60204">
        <ele>151.5449219</ele>
        <time>2011-04-10T01:41:25Z</time>
      </trkpt>
      <trkpt lat="50.42234" lon="2.60201">
        <ele>152.0257568</ele>
        <time>2011-04-10T01:41:32Z</time>
      </trkpt>
      <trkpt lat="50.42241" lon="2.60201">
        <ele>151.064209</ele>
        <time>2011-04-10T01:41:37Z</time>
      </trkpt>
      <trkpt lat="50.42243" lon="2.60203">
        <ele>150.5836182</ele>
        <time>2011-04-10T01:41:39Z</time>
      </trkpt>
      <trkpt lat="50.42251" lon="2.60207">
        <ele>150.5836182</ele>
        <time>2011-04-10T01:41:45Z</time>
      </trkpt>
      <trkpt lat="50.42257" lon="2.60212">
        <ele>152.0257568</ele>
        <time>2011-04-10T01:41:49Z</time>
      </trkpt>
      <trkpt lat="50.42259" lon="2.60218">
        <ele>151.064209</ele>
        <time>2011-04-10T01:41:53Z</time>
      </trkpt>
      <trkpt lat="50.4226" lon="2.60223">
        <ele>150.1030273</ele>
        <time>2011-04-10T01:41:57Z</time>
      </trkpt>
      <trkpt lat="50.42266" lon="2.60227">
        <ele>150.5836182</ele>
        <time>2011-04-10T01:42:03Z</time>
      </trkpt>
      <trkpt lat="50.42271" lon="2.60224">
        <ele>151.5449219</ele>
        <time>2011-04-10T01:42:10Z</time>
      </trkpt>
      <trkpt lat="50.42273" lon="2.60222">
        <ele>152.5063477</ele>
        <time>2011-04-10T01:42:13Z</time>
      </trkpt>
      <trkpt lat="50.42279" lon="2.60217">
        <ele>154.4289551</ele>
        <time>2011-04-10T01:42:20Z</time>
      </trkpt>
      <trkpt lat="50.42284" lon="2.60217">
        <ele>153.9483643</ele>
        <time>2011-04-10T01:42:25Z</time>
      </trkpt>
      <trkpt lat="50.42285" lon="2.60217">
        <ele>153.4676514</ele>
        <time>2011-04-10T01:42:26Z</time>
      </trkpt>
      <trkpt lat="50.42291" lon="2.60219">
        <ele>150.5836182</ele>
        <time>2011-04-10T01:42:31Z</time>
      </trkpt>
      <trkpt lat="50.42296" lon="2.60223">
        <ele>147.699707</ele>
        <time>2011-04-10T01:42:36Z</time>
      </trkpt>
      <trkpt lat="50.42299" lon="2.60227">
        <ele>147.2189941</ele>
        <time>2011-04-10T01:42:40Z</time>
      </trkpt>
      <trkpt lat="50.42306" lon="2.60231">
        <ele>149.6223145</ele>
        <time>2011-04-10T01:42:46Z</time>
      </trkpt>
      <trkpt lat="50.42307" lon="2.60232">
        <ele>150.1030273</ele>
        <time>2011-04-10T01:42:48Z</time>
      </trkpt>
      <trkpt lat="50.42314" lon="2.60236">
        <ele>149.6223145</ele>
        <time>2011-04-10T01:42:54Z</time>
      </trkpt>
      <trkpt lat="50.42317" lon="2.6024">
        <ele>149.1416016</ele>
        <time>2011-04-10T01:42:57Z</time>
      </trkpt>
      <trkpt lat="50.42322" lon="2.60244">
        <ele>148.1804199</ele>
        <time>2011-04-10T01:43:03Z</time>
      </trkpt>
      <trkpt lat="50.42328" lon="2.60245">
        <ele>150.1030273</ele>
        <time>2011-04-10T01:43:09Z</time>
      </trkpt>
      <trkpt lat="50.42333" lon="2.60245">
        <ele>152.5063477</ele>
        <time>2011-04-10T01:43:15Z</time>
      </trkpt>
      <trkpt lat="50.42335" lon="2.60247">
        <ele>152.5063477</ele>
        <time>2011-04-10T01:43:17Z</time>
      </trkpt>
      <trkpt lat="50.4234" lon="2.6025">
        <ele>152.9869385</ele>
        <time>2011-04-10T01:43:23Z</time>
      </trkpt>
      <trkpt lat="50.42344" lon="2.60248">
        <ele>150.5836182</ele>
        <time>2011-04-10T01:43:28Z</time>
      </trkpt>
      <trkpt lat="50.42344" lon="2.60246">
        <ele>150.1030273</ele>
        <time>2011-04-10T01:43:29Z</time>
      </trkpt>
      <trkpt lat="50.42348" lon="2.60239">
        <ele>149.1416016</ele>
        <time>2011-04-10T01:43:35Z</time>
      </trkpt>
      <trkpt lat="50.42349" lon="2.60238">
        <ele>148.6610107</ele>
        <time>2011-04-10T01:43:36Z</time>
      </trkpt>
      <trkpt lat="50.4235" lon="2.60237">
        <ele>147.699707</ele>
        <time>2011-04-10T01:43:38Z</time>
      </trkpt>
      <trkpt lat="50.42352" lon="2.60231">
        <ele>147.699707</ele>
        <time>2011-04-10T01:43:42Z</time>
      </trkpt>
      <trkpt lat="50.42353" lon="2.60227">
        <ele>147.699707</ele>
        <time>2011-04-10T01:43:45Z</time>
      </trkpt>
      <trkpt lat="50.42355" lon="2.60221">
        <ele>148.1804199</ele>
        <time>2011-04-10T01:43:48Z</time>
      </trkpt>
      <trkpt lat="50.42357" lon="2.60217">
        <ele>148.1804199</ele>
        <time>2011-04-10T01:43:51Z</time>
      </trkpt>
      <trkpt lat="50.4236" lon="2.60213">
        <ele>147.699707</ele>
        <time>2011-04-10T01:43:54Z</time>
      </trkpt>
      <trkpt lat="50.42362" lon="2.60209">
        <ele>147.2189941</ele>
        <time>2011-04-10T01:43:57Z</time>
      </trkpt>
      <trkpt lat="50.42363" lon="2.60205">
        <ele>148.6610107</ele>
        <time>2011-04-10T01:43:59Z</time>
      </trkpt>
      <trkpt lat="50.42365" lon="2.60195">
        <ele>144.3352051</ele>
        <time>2011-04-10T01:44:06Z</time>
      </trkpt>
      <trkpt lat="50.42366" lon="2.60192">
        <ele>143.8543701</ele>
        <time>2011-04-10T01:44:08Z</time>
      </trkpt>
      <trkpt lat="50.42369" lon="2.60183">
        <ele>142.8930664</ele>
        <time>2011-04-10T01:44:13Z</time>
      </trkpt>
      <trkpt lat="50.42371" lon="2.60175">
        <ele>142.4124756</ele>
        <time>2011-04-10T01:44:18Z</time>
      </trkpt>
      <trkpt lat="50.42375" lon="2.60164">
        <ele>142.4124756</ele>
        <time>2011-04-10T01:44:25Z</time>
      </trkpt>
      <trkpt lat="50.42381" lon="2.60158">
        <ele>144.3352051</ele>
        <time>2011-04-10T01:44:30Z</time>
      </trkpt>
      <trkpt lat="50.42385" lon="2.60148">
        <ele>144.8157959</ele>
        <time>2011-04-10T01:44:36Z</time>
      </trkpt>
      <trkpt lat="50.42387" lon="2.60141">
        <ele>144.8157959</ele>
        <time>2011-04-10T01:44:40Z</time>
      </trkpt>
      <trkpt lat="50.42388" lon="2.60137">
        <ele>143.3736572</ele>
        <time>2011-04-10T01:44:43Z</time>
      </trkpt>
      <trkpt lat="50.42394" lon="2.60129">
        <ele>140.970459</ele>
        <time>2011-04-10T01:44:49Z</time>
      </trkpt>
      <trkpt lat="50.42396" lon="2.60127">
        <ele>140.4898682</ele>
        <time>2011-04-10T01:44:51Z</time>
      </trkpt>
      <trkpt lat="50.424" lon="2.60119">
        <ele>138.0865479</ele>
        <time>2011-04-10T01:44:56Z</time>
      </trkpt>
      <trkpt lat="50.42401" lon="2.6011">
        <ele>135.6831055</ele>
        <time>2011-04-10T01:45:00Z</time>
      </trkpt>
      <trkpt lat="50.42402" lon="2.60105">
        <ele>134.2412109</ele>
        <time>2011-04-10T01:45:03Z</time>
      </trkpt>
      <trkpt lat="50.42405" lon="2.60092">
        <ele>136.1639404</ele>
        <time>2011-04-10T01:45:10Z</time>
      </trkpt>
      <trkpt lat="50.42406" lon="2.60082">
        <ele>136.6446533</ele>
        <time>2011-04-10T01:45:14Z</time>
      </trkpt>
      <trkpt lat="50.42406" lon="2.60078">
        <ele>136.6446533</ele>
        <time>2011-04-10T01:45:16Z</time>
      </trkpt>
      <trkpt lat="50.4241" lon="2.60067">
        <ele>136.6446533</ele>
        <time>2011-04-10T01:45:22Z</time>
      </trkpt>
      <trkpt lat="50.42413" lon="2.60054">
        <ele>137.1252441</ele>
        <time>2011-04-10T01:45:27Z</time>
      </trkpt>
      <trkpt lat="50.42416" lon="2.60042">
        <ele>135.2025146</ele>
        <time>2011-04-10T01:45:33Z</time>
      </trkpt>
      <trkpt lat="50.42416" lon="2.60039">
        <ele>134.7219238</ele>
        <time>2011-04-10T01:45:34Z</time>
      </trkpt>
      <trkpt lat="50.42417" lon="2.60035">
        <ele>133.760498</ele>
        <time>2011-04-10T01:45:36Z</time>
      </trkpt>
      <trkpt lat="50.42417" lon="2.60023">
        <ele>132.3186035</ele>
        <time>2011-04-10T01:45:41Z</time>
      </trkpt>
      <trkpt lat="50.42419" lon="2.60019">
        <ele>131.8378906</ele>
        <time>2011-04-10T01:45:43Z</time>
      </trkpt>
      <trkpt lat="50.4242" lon="2.60015">
        <ele>130.876709</ele>
        <time>2011-04-10T01:45:45Z</time>
      </trkpt>
      <trkpt lat="50.42425" lon="2.60007">
        <ele>130.3959961</ele>
        <time>2011-04-10T01:45:50Z</time>
      </trkpt>
      <trkpt lat="50.42427" lon="2.60002">
        <ele>129.9152832</ele>
        <time>2011-04-10T01:45:53Z</time>
      </trkpt>
      <trkpt lat="50.42431" lon="2.59998">
        <ele>129.4346924</ele>
        <time>2011-04-10T01:45:56Z</time>
      </trkpt>
      <trkpt lat="50.42434" lon="2.59994">
        <ele>129.9152832</ele>
        <time>2011-04-10T01:45:59Z</time>
      </trkpt>
      <trkpt lat="50.42434" lon="2.59983">
        <ele>130.876709</ele>
        <time>2011-04-10T01:46:03Z</time>
      </trkpt>
      <trkpt lat="50.42435" lon="2.59975">
        <ele>131.3572998</ele>
        <time>2011-04-10T01:46:07Z</time>
      </trkpt>
      <trkpt lat="50.42438" lon="2.59964">
        <ele>129.9152832</ele>
        <time>2011-04-10T01:46:13Z</time>
      </trkpt>
      <trkpt lat="50.42439" lon="2.59954">
        <ele>128.9541016</ele>
        <time>2011-04-10T01:46:18Z</time>
      </trkpt>
      <trkpt lat="50.42441" lon="2.59946">
        <ele>128.9541016</ele>
        <time>2011-04-10T01:46:22Z</time>
      </trkpt>
      <trkpt lat="50.42441" lon="2.59941">
        <ele>127.5119629</ele>
        <time>2011-04-10T01:46:25Z</time>
      </trkpt>
      <trkpt lat="50.42443" lon="2.59932">
        <ele>126.5506592</ele>
        <time>2011-04-10T01:46:30Z</time>
      </trkpt>
      <trkpt lat="50.42445" lon="2.59927">
        <ele>126.5506592</ele>
        <time>2011-04-10T01:46:33Z</time>
      </trkpt>
      <trkpt lat="50.42443" lon="2.59915">
        <ele>125.1087646</ele>
        <time>2011-04-10T01:46:37Z</time>
      </trkpt>
      <trkpt lat="50.42445" lon="2.59904">
        <ele>123.666748</ele>
        <time>2011-04-10T01:46:43Z</time>
      </trkpt>
      <trkpt lat="50.42446" lon="2.59902">
        <ele>123.666748</ele>
        <time>2011-04-10T01:46:45Z</time>
      </trkpt>
      <trkpt lat="50.42445" lon="2.59895">
        <ele>122.2247314</ele>
        <time>2011-04-10T01:46:52Z</time>
      </trkpt>
      <trkpt lat="50.42443" lon="2.59885">
        <ele>121.7441406</ele>
        <time>2011-04-10T01:46:59Z</time>
      </trkpt>
      <trkpt lat="50.42442" lon="2.5988">
        <ele>121.7441406</ele>
        <time>2011-04-10T01:47:01Z</time>
      </trkpt>
      <trkpt lat="50.42441" lon="2.59871">
        <ele>120.7828369</ele>
        <time>2011-04-10T01:47:07Z</time>
      </trkpt>
      <trkpt lat="50.4244" lon="2.59862">
        <ele>121.2635498</ele>
        <time>2011-04-10T01:47:13Z</time>
      </trkpt>
      <trkpt lat="50.4244" lon="2.59853">
        <ele>121.2635498</ele>
        <time>2011-04-10T01:47:21Z</time>
      </trkpt>
      <trkpt lat="50.42438" lon="2.59843">
        <ele>119.8214111</ele>
        <time>2011-04-10T01:47:25Z</time>
      </trkpt>
      <trkpt lat="50.42437" lon="2.59841">
        <ele>119.8214111</ele>
        <time>2011-04-10T01:47:26Z</time>
      </trkpt>
      <trkpt lat="50.42439" lon="2.59829">
        <ele>117.8988037</ele>
        <time>2011-04-10T01:47:33Z</time>
      </trkpt>
      <trkpt lat="50.4244" lon="2.5982">
        <ele>116.9375</ele>
        <time>2011-04-10T01:47:38Z</time>
      </trkpt>
      <trkpt lat="50.42442" lon="2.59813">
        <ele>116.9375</ele>
        <time>2011-04-10T01:47:42Z</time>
      </trkpt>
      <trkpt lat="50.42441" lon="2.59798">
        <ele>117.4182129</ele>
        <time>2011-04-10T01:47:48Z</time>
      </trkpt>
      <trkpt lat="50.42443" lon="2.59785">
        <ele>117.8988037</ele>
        <time>2011-04-10T01:47:55Z</time>
      </trkpt>
      <trkpt lat="50.42444" lon="2.59781">
        <ele>117.8988037</ele>
        <time>2011-04-10T01:47:58Z</time>
      </trkpt>
      <trkpt lat="50.42448" lon="2.59777">
        <ele>118.3793945</ele>
        <time>2011-04-10T01:48:01Z</time>
      </trkpt>
      <trkpt lat="50.4245" lon="2.59771">
        <ele>118.8601074</ele>
        <time>2011-04-10T01:48:05Z</time>
      </trkpt>
      <trkpt lat="50.42452" lon="2.59765">
        <ele>118.8601074</ele>
        <time>2011-04-10T01:48:09Z</time>
      </trkpt>
      <trkpt lat="50.42453" lon="2.59762">
        <ele>118.8601074</ele>
        <time>2011-04-10T01:48:11Z</time>
      </trkpt>
      <trkpt lat="50.42453" lon="2.59752">
        <ele>118.8601074</ele>
        <time>2011-04-10T01:48:16Z</time>
      </trkpt>
      <trkpt lat="50.42457" lon="2.5975">
        <ele>119.3408203</ele>
        <time>2011-04-10T01:48:19Z</time>
      </trkpt>
      <trkpt lat="50.42458" lon="2.59743">
        <ele>119.3408203</ele>
        <time>2011-04-10T01:48:23Z</time>
      </trkpt>
      <trkpt lat="50.42462" lon="2.59739">
        <ele>119.3408203</ele>
        <time>2011-04-10T01:48:27Z</time>
      </trkpt>
      <trkpt lat="50.42471" lon="2.59727">
        <ele>120.7828369</ele>
        <time>2011-04-10T01:48:34Z</time>
      </trkpt>
      <trkpt lat="50.42473" lon="2.59722">
        <ele>121.2635498</ele>
        <time>2011-04-10T01:48:37Z</time>
      </trkpt>
      <trkpt lat="50.42474" lon="2.59715">
        <ele>119.3408203</ele>
        <time>2011-04-10T01:48:40Z</time>
      </trkpt>
      <trkpt lat="50.42475" lon="2.59709">
        <ele>117.8988037</ele>
        <time>2011-04-10T01:48:44Z</time>
      </trkpt>
      <trkpt lat="50.42478" lon="2.59701">
        <ele>115.4956055</ele>
        <time>2011-04-10T01:48:49Z</time>
      </trkpt>
      <trkpt lat="50.4248" lon="2.59698">
        <ele>115.4956055</ele>
        <time>2011-04-10T01:48:50Z</time>
      </trkpt>
      <trkpt lat="50.42482" lon="2.59693">
        <ele>113.0922852</ele>
        <time>2011-04-10T01:48:54Z</time>
      </trkpt>
      <trkpt lat="50.42487" lon="2.59689">
        <ele>110.6888428</ele>
        <time>2011-04-10T01:49:00Z</time>
      </trkpt>
      <trkpt lat="50.42488" lon="2.59685">
        <ele>108.2856445</ele>
        <time>2011-04-10T01:49:04Z</time>
      </trkpt>
      <trkpt lat="50.4249" lon="2.59682">
        <ele>107.8050537</ele>
        <time>2011-04-10T01:49:06Z</time>
      </trkpt>
      <trkpt lat="50.42496" lon="2.59674">
        <ele>107.3243408</ele>
        <time>2011-04-10T01:49:11Z</time>
      </trkpt>
      <trkpt lat="50.42502" lon="2.5967">
        <ele>106.3630371</ele>
        <time>2011-04-10T01:49:16Z</time>
      </trkpt>
      <trkpt lat="50.42507" lon="2.59666">
        <ele>103.9597168</ele>
        <time>2011-04-10T01:49:21Z</time>
      </trkpt>
      <trkpt lat="50.42513" lon="2.59658">
        <ele>102.998291</ele>
        <time>2011-04-10T01:49:27Z</time>
      </trkpt>
      <trkpt lat="50.42518" lon="2.59652">
        <ele>102.998291</ele>
        <time>2011-04-10T01:49:33Z</time>
      </trkpt>
      <trkpt lat="50.42524" lon="2.59648">
        <ele>102.998291</ele>
        <time>2011-04-10T01:49:38Z</time>
      </trkpt>
      <trkpt lat="50.42529" lon="2.59644">
        <ele>103.9597168</ele>
        <time>2011-04-10T01:49:43Z</time>
      </trkpt>
      <trkpt lat="50.42535" lon="2.5964">
        <ele>104.4404297</ele>
        <time>2011-04-10T01:49:48Z</time>
      </trkpt>
      <trkpt lat="50.42539" lon="2.59636">
        <ele>104.9210205</ele>
        <time>2011-04-10T01:49:52Z</time>
      </trkpt>
      <trkpt lat="50.42544" lon="2.59632">
        <ele>104.4404297</ele>
        <time>2011-04-10T01:49:57Z</time>
      </trkpt>
      <trkpt lat="50.4255" lon="2.59628">
        <ele>104.4404297</ele>
        <time>2011-04-10T01:50:02Z</time>
      </trkpt>
      <trkpt lat="50.42556" lon="2.59623">
        <ele>104.9210205</ele>
        <time>2011-04-10T01:50:07Z</time>
      </trkpt>
      <trkpt lat="50.42559" lon="2.59617">
        <ele>104.9210205</ele>
        <time>2011-04-10T01:50:11Z</time>
      </trkpt>
      <trkpt lat="50.4256" lon="2.59614">
        <ele>104.9210205</ele>
        <time>2011-04-10T01:50:13Z</time>
      </trkpt>
      <trkpt lat="50.42562" lon="2.59601">
        <ele>104.9210205</ele>
        <time>2011-04-10T01:50:19Z</time>
      </trkpt>
      <trkpt lat="50.42562" lon="2.59593">
        <ele>104.4404297</ele>
        <time>2011-04-10T01:50:23Z</time>
      </trkpt>
      <trkpt lat="50.42562" lon="2.59579">
        <ele>102.998291</ele>
        <time>2011-04-10T01:50:29Z</time>
      </trkpt>
      <trkpt lat="50.42562" lon="2.5957">
        <ele>101.5563965</ele>
        <time>2011-04-10T01:50:33Z</time>
      </trkpt>
      <trkpt lat="50.42562" lon="2.59566">
        <ele>101.0756836</ele>
        <time>2011-04-10T01:50:35Z</time>
      </trkpt>
      <trkpt lat="50.42562" lon="2.59551">
        <ele>100.5950928</ele>
        <time>2011-04-10T01:50:41Z</time>
      </trkpt>
      <trkpt lat="50.42561" lon="2.59534">
        <ele>100.5950928</ele>
        <time>2011-04-10T01:50:48Z</time>
      </trkpt>
      <trkpt lat="50.42561" lon="2.59532">
        <ele>100.114502</ele>
        <time>2011-04-10T01:50:49Z</time>
      </trkpt>
      <trkpt lat="50.42562" lon="2.59521">
        <ele>99.1530762</ele>
        <time>2011-04-10T01:50:53Z</time>
      </trkpt>
      <trkpt lat="50.42562" lon="2.59513">
        <ele>99.1530762</ele>
        <time>2011-04-10T01:50:57Z</time>
      </trkpt>
      <trkpt lat="50.42561" lon="2.59503">
        <ele>99.1530762</ele>
        <time>2011-04-10T01:51:02Z</time>
      </trkpt>
      <trkpt lat="50.42561" lon="2.59491">
        <ele>98.6724854</ele>
        <time>2011-04-10T01:51:08Z</time>
      </trkpt>
      <trkpt lat="50.42558" lon="2.59479">
        <ele>97.7111816</ele>
        <time>2011-04-10T01:51:13Z</time>
      </trkpt>
      <trkpt lat="50.42556" lon="2.59468">
        <ele>97.2304688</ele>
        <time>2011-04-10T01:51:17Z</time>
      </trkpt>
      <trkpt lat="50.42555" lon="2.59457">
        <ele>95.3077393</ele>
        <time>2011-04-10T01:51:22Z</time>
      </trkpt>
      <trkpt lat="50.42556" lon="2.59449">
        <ele>94.3465576</ele>
        <time>2011-04-10T01:51:26Z</time>
      </trkpt>
      <trkpt lat="50.42554" lon="2.59441">
        <ele>93.3851318</ele>
        <time>2011-04-10T01:51:29Z</time>
      </trkpt>
      <trkpt lat="50.42552" lon="2.5943">
        <ele>92.4239502</ele>
        <time>2011-04-10T01:51:34Z</time>
      </trkpt>
      <trkpt lat="50.4255" lon="2.59419">
        <ele>90.5013428</ele>
        <time>2011-04-10T01:51:39Z</time>
      </trkpt>
      <trkpt lat="50.42548" lon="2.59409">
        <ele>90.0206299</ele>
        <time>2011-04-10T01:51:44Z</time>
      </trkpt>
      <trkpt lat="50.42546" lon="2.59405">
        <ele>90.0206299</ele>
        <time>2011-04-10T01:51:46Z</time>
      </trkpt>
      <trkpt lat="50.42544" lon="2.59395">
        <ele>90.0206299</ele>
        <time>2011-04-10T01:51:51Z</time>
      </trkpt>
      <trkpt lat="50.42543" lon="2.5939">
        <ele>90.9819336</ele>
        <time>2011-04-10T01:51:54Z</time>
      </trkpt>
      <trkpt lat="50.42545" lon="2.59381">
        <ele>91.9432373</ele>
        <time>2011-04-10T01:51:59Z</time>
      </trkpt>
      <trkpt lat="50.42542" lon="2.59368">
        <ele>91.9432373</ele>
        <time>2011-04-10T01:52:04Z</time>
      </trkpt>
      <trkpt lat="50.4254" lon="2.59363">
        <ele>92.4239502</ele>
        <time>2011-04-10T01:52:08Z</time>
      </trkpt>
      <trkpt lat="50.42537" lon="2.59358">
        <ele>92.904541</ele>
        <time>2011-04-10T01:52:11Z</time>
      </trkpt>
      <trkpt lat="50.42532" lon="2.59349">
        <ele>94.8271484</ele>
        <time>2011-04-10T01:52:15Z</time>
      </trkpt>
      <trkpt lat="50.42529" lon="2.59343">
        <ele>95.7884521</ele>
        <time>2011-04-10T01:52:18Z</time>
      </trkpt>
      <trkpt lat="50.42525" lon="2.59338">
        <ele>98.1918945</ele>
        <time>2011-04-10T01:52:23Z</time>
      </trkpt>
      <trkpt lat="50.42525" lon="2.59337">
        <ele>98.1918945</ele>
        <time>2011-04-10T01:52:24Z</time>
      </trkpt>
      <trkpt lat="50.42521" lon="2.59326">
        <ele>97.7111816</ele>
        <time>2011-04-10T01:52:30Z</time>
      </trkpt>
      <trkpt lat="50.4252" lon="2.59321">
        <ele>97.7111816</ele>
        <time>2011-04-10T01:52:32Z</time>
      </trkpt>
      <trkpt lat="50.42515" lon="2.59312">
        <ele>98.1918945</ele>
        <time>2011-04-10T01:52:38Z</time>
      </trkpt>
      <trkpt lat="50.42511" lon="2.59305">
        <ele>99.6337891</ele>
        <time>2011-04-10T01:52:43Z</time>
      </trkpt>
      <trkpt lat="50.4251" lon="2.59304">
        <ele>99.6337891</ele>
        <time>2011-04-10T01:52:44Z</time>
      </trkpt>
      <trkpt lat="50.42507" lon="2.59295">
        <ele>100.5950928</ele>
        <time>2011-04-10T01:52:49Z</time>
      </trkpt>
      <trkpt lat="50.425" lon="2.59281">
        <ele>100.5950928</ele>
        <time>2011-04-10T01:52:57Z</time>
      </trkpt>
      <trkpt lat="50.42493" lon="2.5927">
        <ele>100.5950928</ele>
        <time>2011-04-10T01:53:02Z</time>
      </trkpt>
      <trkpt lat="50.4249" lon="2.59264">
        <ele>100.114502</ele>
        <time>2011-04-10T01:53:06Z</time>
      </trkpt>
      <trkpt lat="50.42487" lon="2.59259">
        <ele>101.0756836</ele>
        <time>2011-04-10T01:53:11Z</time>
      </trkpt>
      <trkpt lat="50.42482" lon="2.5925">
        <ele>101.5563965</ele>
        <time>2011-04-10T01:53:17Z</time>
      </trkpt>
      <trkpt lat="50.42477" lon="2.59241">
        <ele>102.5177002</ele>
        <time>2011-04-10T01:53:22Z</time>
      </trkpt>
      <trkpt lat="50.42472" lon="2.59232">
        <ele>102.998291</ele>
        <time>2011-04-10T01:53:27Z</time>
      </trkpt>
      <trkpt lat="50.4247" lon="2.59227">
        <ele>103.4790039</ele>
        <time>2011-04-10T01:53:31Z</time>
      </trkpt>
      <trkpt lat="50.42465" lon="2.59216">
        <ele>105.4017334</ele>
        <time>2011-04-10T01:53:37Z</time>
      </trkpt>
      <trkpt lat="50.42459" lon="2.59201">
        <ele>105.8824463</ele>
        <time>2011-04-10T01:53:44Z</time>
      </trkpt>
      <trkpt lat="50.42457" lon="2.59194">
        <ele>105.4017334</ele>
        <time>2011-04-10T01:53:47Z</time>
      </trkpt>
      <trkpt lat="50.42455" lon="2.59184">
        <ele>104.4404297</ele>
        <time>2011-04-10T01:53:51Z</time>
      </trkpt>
      <trkpt lat="50.42454" lon="2.59182">
        <ele>104.4404297</ele>
        <time>2011-04-10T01:53:52Z</time>
      </trkpt>
      <trkpt lat="50.42452" lon="2.5917">
        <ele>102.5177002</ele>
        <time>2011-04-10T01:53:57Z</time>
      </trkpt>
      <trkpt lat="50.42452" lon="2.59157">
        <ele>101.0756836</ele>
        <time>2011-04-10T01:54:02Z</time>
      </trkpt>
      <trkpt lat="50.42453" lon="2.59151">
        <ele>100.114502</ele>
        <time>2011-04-10T01:54:05Z</time>
      </trkpt>
      <trkpt lat="50.42455" lon="2.5914">
        <ele>99.6337891</ele>
        <time>2011-04-10T01:54:10Z</time>
      </trkpt>
      <trkpt lat="50.42457" lon="2.59127">
        <ele>98.6724854</ele>
        <time>2011-04-10T01:54:16Z</time>
      </trkpt>
      <trkpt lat="50.42459" lon="2.59113">
        <ele>98.1918945</ele>
        <time>2011-04-10T01:54:22Z</time>
      </trkpt>
      <trkpt lat="50.42459" lon="2.5911">
        <ele>98.1918945</ele>
        <time>2011-04-10T01:54:23Z</time>
      </trkpt>
      <trkpt lat="50.42461" lon="2.59089">
        <ele>98.1918945</ele>
        <time>2011-04-10T01:54:32Z</time>
      </trkpt>
      <trkpt lat="50.42464" lon="2.59075">
        <ele>97.2304688</ele>
        <time>2011-04-10T01:54:39Z</time>
      </trkpt>
      <trkpt lat="50.42465" lon="2.59067">
        <ele>95.7884521</ele>
        <time>2011-04-10T01:54:43Z</time>
      </trkpt>
      <trkpt lat="50.42466" lon="2.5906">
        <ele>95.3077393</ele>
        <time>2011-04-10T01:54:47Z</time>
      </trkpt>
      <trkpt lat="50.42469" lon="2.59038">
        <ele>94.3465576</ele>
        <time>2011-04-10T01:54:57Z</time>
      </trkpt>
      <trkpt lat="50.42469" lon="2.59027">
        <ele>92.4239502</ele>
        <time>2011-04-10T01:55:02Z</time>
      </trkpt>
      <trkpt lat="50.42467" lon="2.59018">
        <ele>91.4625244</ele>
        <time>2011-04-10T01:55:06Z</time>
      </trkpt>
      <trkpt lat="50.42463" lon="2.59005">
        <ele>90.5013428</ele>
        <time>2011-04-10T01:55:11Z</time>
      </trkpt>
      <trkpt lat="50.4246" lon="2.58996">
        <ele>90.0206299</ele>
        <time>2011-04-10T01:55:16Z</time>
      </trkpt>
      <trkpt lat="50.42457" lon="2.5899">
        <ele>89.539917</ele>
        <time>2011-04-10T01:55:20Z</time>
      </trkpt>
      <trkpt lat="50.42452" lon="2.58981">
        <ele>90.9819336</ele>
        <time>2011-04-10T01:55:27Z</time>
      </trkpt>
      <trkpt lat="50.42446" lon="2.58973">
        <ele>93.8658447</ele>
        <time>2011-04-10T01:55:33Z</time>
      </trkpt>
      <trkpt lat="50.42438" lon="2.58963">
        <ele>96.7498779</ele>
        <time>2011-04-10T01:55:40Z</time>
      </trkpt>
      <trkpt lat="50.42434" lon="2.58958">
        <ele>97.7111816</ele>
        <time>2011-04-10T01:55:43Z</time>
      </trkpt>
      <trkpt lat="50.42428" lon="2.58952">
        <ele>100.114502</ele>
        <time>2011-04-10T01:55:49Z</time>
      </trkpt>
      <trkpt lat="50.42425" lon="2.58949">
        <ele>101.0756836</ele>
        <time>2011-04-10T01:55:52Z</time>
      </trkpt>
      <trkpt lat="50.42418" lon="2.58942">
        <ele>105.8824463</ele>
        <time>2011-04-10T01:56:00Z</time>
      </trkpt>
      <trkpt lat="50.42412" lon="2.58932">
        <ele>107.3243408</ele>
        <time>2011-04-10T01:56:07Z</time>
      </trkpt>
      <trkpt lat="50.4241" lon="2.58928">
        <ele>108.2856445</ele>
        <time>2011-04-10T01:56:10Z</time>
      </trkpt>
      <trkpt lat="50.42405" lon="2.58921">
        <ele>106.3630371</ele>
        <time>2011-04-10T01:56:16Z</time>
      </trkpt>
      <trkpt lat="50.424" lon="2.58917">
        <ele>109.7276611</ele>
        <time>2011-04-10T01:56:21Z</time>
      </trkpt>
      <trkpt lat="50.42395" lon="2.58908">
        <ele>107.8050537</ele>
        <time>2011-04-10T01:56:26Z</time>
      </trkpt>
      <trkpt lat="50.42393" lon="2.58904">
        <ele>105.8824463</ele>
        <time>2011-04-10T01:56:28Z</time>
      </trkpt>
      <trkpt lat="50.42384" lon="2.58891">
        <ele>102.998291</ele>
        <time>2011-04-10T01:56:37Z</time>
      </trkpt>
      <trkpt lat="50.42377" lon="2.5888">
        <ele>100.5950928</ele>
        <time>2011-04-10T01:56:44Z</time>
      </trkpt>
      <trkpt lat="50.42368" lon="2.58871">
        <ele>101.0756836</ele>
        <time>2011-04-10T01:56:52Z</time>
      </trkpt>
      <trkpt lat="50.42362" lon="2.58865">
        <ele>101.0756836</ele>
        <time>2011-04-10T01:56:58Z</time>
      </trkpt>
      <trkpt lat="50.42354" lon="2.58857">
        <ele>101.0756836</ele>
        <time>2011-04-10T01:57:05Z</time>
      </trkpt>
      <trkpt lat="50.42351" lon="2.58855">
        <ele>101.0756836</ele>
        <time>2011-04-10T01:57:07Z</time>
      </trkpt>
      <trkpt lat="50.42344" lon="2.58849">
        <ele>100.5950928</ele>
        <time>2011-04-10T01:57:13Z</time>
      </trkpt>
      <trkpt lat="50.42343" lon="2.58848">
        <ele>100.5950928</ele>
        <time>2011-04-10T01:57:14Z</time>
      </trkpt>
      <trkpt lat="50.42335" lon="2.58845">
        <ele>101.0756836</ele>
        <time>2011-04-10T01:57:20Z</time>
      </trkpt>
      <trkpt lat="50.42325" lon="2.58844">
        <ele>100.114502</ele>
        <time>2011-04-10T01:57:26Z</time>
      </trkpt>
      <trkpt lat="50.42317" lon="2.58844">
        <ele>98.6724854</ele>
        <time>2011-04-10T01:57:32Z</time>
      </trkpt>
      <trkpt lat="50.42311" lon="2.58845">
        <ele>97.2304688</ele>
        <time>2011-04-10T01:57:36Z</time>
      </trkpt>
      <trkpt lat="50.42308" lon="2.58845">
        <ele>96.2692871</ele>
        <time>2011-04-10T01:57:38Z</time>
      </trkpt>
      <trkpt lat="50.42301" lon="2.58847">
        <ele>94.8271484</ele>
        <time>2011-04-10T01:57:42Z</time>
      </trkpt>
      <trkpt lat="50.42291" lon="2.58851">
        <ele>93.3851318</ele>
        <time>2011-04-10T01:57:50Z</time>
      </trkpt>
      <trkpt lat="50.42283" lon="2.58854">
        <ele>90.0206299</ele>
        <time>2011-04-10T01:57:55Z</time>
      </trkpt>
      <trkpt lat="50.42278" lon="2.58858">
        <ele>88.5787354</ele>
        <time>2011-04-10T01:58:00Z</time>
      </trkpt>
      <trkpt lat="50.42271" lon="2.58859">
        <ele>85.6945801</ele>
        <time>2011-04-10T01:58:04Z</time>
      </trkpt>
      <trkpt lat="50.42266" lon="2.58864">
        <ele>85.6945801</ele>
        <time>2011-04-10T01:58:09Z</time>
      </trkpt>
      <trkpt lat="50.42262" lon="2.58869">
        <ele>87.1365967</ele>
        <time>2011-04-10T01:58:13Z</time>
      </trkpt>
      <trkpt lat="50.42258" lon="2.58873">
        <ele>85.6945801</ele>
        <time>2011-04-10T01:58:17Z</time>
      </trkpt>
      <trkpt lat="50.4225" lon="2.58884">
        <ele>86.6560059</ele>
        <time>2011-04-10T01:58:25Z</time>
      </trkpt>
      <trkpt lat="50.42245" lon="2.58889">
        <ele>86.175293</ele>
        <time>2011-04-10T01:58:30Z</time>
      </trkpt>
      <trkpt lat="50.42241" lon="2.58893">
        <ele>85.6945801</ele>
        <time>2011-04-10T01:58:34Z</time>
      </trkpt>
      <trkpt lat="50.42235" lon="2.58901">
        <ele>85.6945801</ele>
        <time>2011-04-10T01:58:39Z</time>
      </trkpt>
      <trkpt lat="50.42233" lon="2.58903">
        <ele>85.6945801</ele>
        <time>2011-04-10T01:58:41Z</time>
      </trkpt>
      <trkpt lat="50.42229" lon="2.5891">
        <ele>84.7333984</ele>
        <time>2011-04-10T01:58:46Z</time>
      </trkpt>
      <trkpt lat="50.42225" lon="2.58914">
        <ele>83.7719727</ele>
        <time>2011-04-10T01:58:50Z</time>
      </trkpt>
      <trkpt lat="50.42221" lon="2.5892">
        <ele>82.810791</ele>
        <time>2011-04-10T01:58:55Z</time>
      </trkpt>
      <trkpt lat="50.42216" lon="2.58927">
        <ele>82.810791</ele>
        <time>2011-04-10T01:59:00Z</time>
      </trkpt>
      <trkpt lat="50.42212" lon="2.58928">
        <ele>83.2913818</ele>
        <time>2011-04-10T01:59:04Z</time>
      </trkpt>
      <trkpt lat="50.42206" lon="2.58934">
        <ele>83.7719727</ele>
        <time>2011-04-10T01:59:09Z</time>
      </trkpt>
      <trkpt lat="50.42202" lon="2.58942">
        <ele>84.2526855</ele>
        <time>2011-04-10T01:59:14Z</time>
      </trkpt>
      <trkpt lat="50.42194" lon="2.58948">
        <ele>86.6560059</ele>
        <time>2011-04-10T01:59:20Z</time>
      </trkpt>
      <trkpt lat="50.42188" lon="2.58958">
        <ele>86.6560059</ele>
        <time>2011-04-10T01:59:26Z</time>
      </trkpt>
      <trkpt lat="50.42184" lon="2.58961">
        <ele>86.6560059</ele>
        <time>2011-04-10T01:59:29Z</time>
      </trkpt>
      <trkpt lat="50.4218" lon="2.58968">
        <ele>83.7719727</ele>
        <time>2011-04-10T01:59:34Z</time>
      </trkpt>
      <trkpt lat="50.42179" lon="2.58969">
        <ele>83.7719727</ele>
        <time>2011-04-10T01:59:35Z</time>
      </trkpt>
      <trkpt lat="50.42169" lon="2.58982">
        <ele>86.175293</ele>
        <time>2011-04-10T01:59:44Z</time>
      </trkpt>
      <trkpt lat="50.42162" lon="2.58992">
        <ele>87.6171875</ele>
        <time>2011-04-10T01:59:51Z</time>
      </trkpt>
      <trkpt lat="50.42161" lon="2.58993">
        <ele>88.0980225</ele>
        <time>2011-04-10T01:59:52Z</time>
      </trkpt>
      <trkpt lat="50.42155" lon="2.58998">
        <ele>88.5787354</ele>
        <time>2011-04-10T01:59:57Z</time>
      </trkpt>
      <trkpt lat="50.42145" lon="2.59009">
        <ele>90.9819336</ele>
        <time>2011-04-10T02:00:06Z</time>
      </trkpt>
      <trkpt lat="50.42138" lon="2.59017">
        <ele>91.4625244</ele>
        <time>2011-04-10T02:00:12Z</time>
      </trkpt>
      <trkpt lat="50.42127" lon="2.59033">
        <ele>92.904541</ele>
        <time>2011-04-10T02:00:22Z</time>
      </trkpt>
      <trkpt lat="50.42116" lon="2.59052">
        <ele>100.114502</ele>
        <time>2011-04-10T02:00:32Z</time>
      </trkpt>
      <trkpt lat="50.42114" lon="2.59055">
        <ele>101.0756836</ele>
        <time>2011-04-10T02:00:34Z</time>
      </trkpt>
      <trkpt lat="50.42109" lon="2.59064">
        <ele>102.5177002</ele>
        <time>2011-04-10T02:00:39Z</time>
      </trkpt>
      <trkpt lat="50.421" lon="2.59074">
        <ele>102.998291</ele>
        <time>2011-04-10T02:00:47Z</time>
      </trkpt>
      <trkpt lat="50.4209" lon="2.59086">
        <ele>103.9597168</ele>
        <time>2011-04-10T02:00:56Z</time>
      </trkpt>
      <trkpt lat="50.42081" lon="2.59098">
        <ele>104.9210205</ele>
        <time>2011-04-10T02:01:04Z</time>
      </trkpt>
      <trkpt lat="50.42072" lon="2.59107">
        <ele>104.9210205</ele>
        <time>2011-04-10T02:01:12Z</time>
      </trkpt>
      <trkpt lat="50.42063" lon="2.59114">
        <ele>102.998291</ele>
        <time>2011-04-10T02:01:19Z</time>
      </trkpt>
      <trkpt lat="50.42055" lon="2.5912">
        <ele>102.5177002</ele>
        <time>2011-04-10T02:01:25Z</time>
      </trkpt>
      <trkpt lat="50.42049" lon="2.59127">
        <ele>102.998291</ele>
        <time>2011-04-10T02:01:30Z</time>
      </trkpt>
      <trkpt lat="50.42044" lon="2.59132">
        <ele>103.4790039</ele>
        <time>2011-04-10T02:01:34Z</time>
      </trkpt>
      <trkpt lat="50.42035" lon="2.59139">
        <ele>105.8824463</ele>
        <time>2011-04-10T02:01:41Z</time>
      </trkpt>
      <trkpt lat="50.42028" lon="2.59149">
        <ele>107.3243408</ele>
        <time>2011-04-10T02:01:48Z</time>
      </trkpt>
      <trkpt lat="50.42021" lon="2.59158">
        <ele>108.7662354</ele>
        <time>2011-04-10T02:01:55Z</time>
      </trkpt>
      <trkpt lat="50.42011" lon="2.59165">
        <ele>108.2856445</ele>
        <time>2011-04-10T02:02:03Z</time>
      </trkpt>
      <trkpt lat="50.42004" lon="2.59172">
        <ele>108.7662354</ele>
        <time>2011-04-10T02:02:09Z</time>
      </trkpt>
      <trkpt lat="50.42002" lon="2.59175">
        <ele>108.7662354</ele>
        <time>2011-04-10T02:02:11Z</time>
      </trkpt>
      <trkpt lat="50.41995" lon="2.59181">
        <ele>109.2469482</ele>
        <time>2011-04-10T02:02:17Z</time>
      </trkpt>
      <trkpt lat="50.41988" lon="2.59192">
        <ele>108.7662354</ele>
        <time>2011-04-10T02:02:23Z</time>
      </trkpt>
      <trkpt lat="50.41984" lon="2.59197">
        <ele>107.8050537</ele>
        <time>2011-04-10T02:02:28Z</time>
      </trkpt>
      <trkpt lat="50.41981" lon="2.59199">
        <ele>108.7662354</ele>
        <time>2011-04-10T02:02:30Z</time>
      </trkpt>
      <trkpt lat="50.41976" lon="2.59204">
        <ele>109.2469482</ele>
        <time>2011-04-10T02:02:35Z</time>
      </trkpt>
      <trkpt lat="50.41975" lon="2.59206">
        <ele>109.7276611</ele>
        <time>2011-04-10T02:02:36Z</time>
      </trkpt>
      <trkpt lat="50.41968" lon="2.59214">
        <ele>108.7662354</ele>
        <time>2011-04-10T02:02:42Z</time>
      </trkpt>
      <trkpt lat="50.41962" lon="2.59221">
        <ele>106.3630371</ele>
        <time>2011-04-10T02:02:47Z</time>
      </trkpt>
      <trkpt lat="50.41958" lon="2.59224">
        <ele>104.9210205</ele>
        <time>2011-04-10T02:02:50Z</time>
      </trkpt>
      <trkpt lat="50.41952" lon="2.59223">
        <ele>104.9210205</ele>
        <time>2011-04-10T02:02:55Z</time>
      </trkpt>
      <trkpt lat="50.41944" lon="2.59217">
        <ele>106.8436279</ele>
        <time>2011-04-10T02:03:02Z</time>
      </trkpt>
      <trkpt lat="50.41937" lon="2.5921">
        <ele>108.2856445</ele>
        <time>2011-04-10T02:03:10Z</time>
      </trkpt>
      <trkpt lat="50.4193" lon="2.59205">
        <ele>110.6888428</ele>
        <time>2011-04-10T02:03:18Z</time>
      </trkpt>
      <trkpt lat="50.41925" lon="2.59202">
        <ele>112.6115723</ele>
        <time>2011-04-10T02:03:23Z</time>
      </trkpt>
      <trkpt lat="50.4192" lon="2.59198">
        <ele>114.0535889</ele>
        <time>2011-04-10T02:03:29Z</time>
      </trkpt>
      <trkpt lat="50.41918" lon="2.59196">
        <ele>114.0535889</ele>
        <time>2011-04-10T02:03:31Z</time>
      </trkpt>
      <trkpt lat="50.41913" lon="2.5919">
        <ele>115.0148926</ele>
        <time>2011-04-10T02:03:35Z</time>
      </trkpt>
      <trkpt lat="50.41902" lon="2.59185">
        <ele>114.0535889</ele>
        <time>2011-04-10T02:03:43Z</time>
      </trkpt>
      <trkpt lat="50.41893" lon="2.59181">
        <ele>113.572998</ele>
        <time>2011-04-10T02:03:50Z</time>
      </trkpt>
      <trkpt lat="50.4189" lon="2.59181">
        <ele>113.572998</ele>
        <time>2011-04-10T02:03:52Z</time>
      </trkpt>
      <trkpt lat="50.41887" lon="2.59177">
        <ele>114.0535889</ele>
        <time>2011-04-10T02:03:56Z</time>
      </trkpt>
      <trkpt lat="50.41886" lon="2.59177">
        <ele>114.0535889</ele>
        <time>2011-04-10T02:03:57Z</time>
      </trkpt>
      <trkpt lat="50.41882" lon="2.59175">
        <ele>114.5341797</ele>
        <time>2011-04-10T02:04:01Z</time>
      </trkpt>
      <trkpt lat="50.41876" lon="2.59176">
        <ele>114.5341797</ele>
        <time>2011-04-10T02:04:06Z</time>
      </trkpt>
      <trkpt lat="50.41868" lon="2.59173">
        <ele>114.0535889</ele>
        <time>2011-04-10T02:04:12Z</time>
      </trkpt>
      <trkpt lat="50.41863" lon="2.59172">
        <ele>113.572998</ele>
        <time>2011-04-10T02:04:15Z</time>
      </trkpt>
      <trkpt lat="50.41856" lon="2.5917">
        <ele>112.6115723</ele>
        <time>2011-04-10T02:04:22Z</time>
      </trkpt>
      <trkpt lat="50.41846" lon="2.5917">
        <ele>113.0922852</ele>
        <time>2011-04-10T02:04:29Z</time>
      </trkpt>
      <trkpt lat="50.41839" lon="2.59168">
        <ele>113.572998</ele>
        <time>2011-04-10T02:04:35Z</time>
      </trkpt>
      <trkpt lat="50.41828" lon="2.59168">
        <ele>113.572998</ele>
        <time>2011-04-10T02:04:45Z</time>
      </trkpt>
      <trkpt lat="50.41818" lon="2.59169">
        <ele>114.0535889</ele>
        <time>2011-04-10T02:04:53Z</time>
      </trkpt>
      <trkpt lat="50.4181" lon="2.59172">
        <ele>113.572998</ele>
        <time>2011-04-10T02:05:00Z</time>
      </trkpt>
      <trkpt lat="50.41797" lon="2.59175">
        <ele>114.5341797</ele>
        <time>2011-04-10T02:05:09Z</time>
      </trkpt>
      <trkpt lat="50.4179" lon="2.59178">
        <ele>115.4956055</ele>
        <time>2011-04-10T02:05:14Z</time>
      </trkpt>
      <trkpt lat="50.41776" lon="2.59186">
        <ele>117.4182129</ele>
        <time>2011-04-10T02:05:25Z</time>
      </trkpt>
      <trkpt lat="50.4177" lon="2.59191">
        <ele>118.3793945</ele>
        <time>2011-04-10T02:05:30Z</time>
      </trkpt>
      <trkpt lat="50.41762" lon="2.59197">
        <ele>118.8601074</ele>
        <time>2011-04-10T02:05:37Z</time>
      </trkpt>
      <trkpt lat="50.41756" lon="2.59201">
        <ele>119.3408203</ele>
        <time>2011-04-10T02:05:43Z</time>
      </trkpt>
      <trkpt lat="50.41751" lon="2.59204">
        <ele>117.4182129</ele>
        <time>2011-04-10T02:05:48Z</time>
      </trkpt>
      <trkpt lat="50.41745" lon="2.59208">
        <ele>116.4567871</ele>
        <time>2011-04-10T02:05:54Z</time>
      </trkpt>
      <trkpt lat="50.41739" lon="2.59214">
        <ele>115.4956055</ele>
        <time>2011-04-10T02:06:00Z</time>
      </trkpt>
      <trkpt lat="50.41736" lon="2.59217">
        <ele>114.5341797</ele>
        <time>2011-04-10T02:06:04Z</time>
      </trkpt>
      <trkpt lat="50.41735" lon="2.59219">
        <ele>114.0535889</ele>
        <time>2011-04-10T02:06:06Z</time>
      </trkpt>
      <trkpt lat="50.41729" lon="2.59224">
        <ele>112.1309814</ele>
        <time>2011-04-10T02:06:11Z</time>
      </trkpt>
      <trkpt lat="50.41727" lon="2.59225">
        <ele>111.1695557</ele>
        <time>2011-04-10T02:06:13Z</time>
      </trkpt>
      <trkpt lat="50.41726" lon="2.59226">
        <ele>110.6888428</ele>
        <time>2011-04-10T02:06:15Z</time>
      </trkpt>
      <trkpt lat="50.41721" lon="2.59231">
        <ele>108.7662354</ele>
        <time>2011-04-10T02:06:21Z</time>
      </trkpt>
      <trkpt lat="50.41717" lon="2.59234">
        <ele>107.3243408</ele>
        <time>2011-04-10T02:06:24Z</time>
      </trkpt>
      <trkpt lat="50.41712" lon="2.59239">
        <ele>105.8824463</ele>
        <time>2011-04-10T02:06:29Z</time>
      </trkpt>
      <trkpt lat="50.41706" lon="2.59247">
        <ele>105.8824463</ele>
        <time>2011-04-10T02:06:36Z</time>
      </trkpt>
      <trkpt lat="50.417" lon="2.59254">
        <ele>106.8436279</ele>
        <time>2011-04-10T02:06:42Z</time>
      </trkpt>
      <trkpt lat="50.41697" lon="2.59258">
        <ele>105.8824463</ele>
        <time>2011-04-10T02:06:45Z</time>
      </trkpt>
      <trkpt lat="50.41694" lon="2.59262">
        <ele>104.9210205</ele>
        <time>2011-04-10T02:06:49Z</time>
      </trkpt>
      <trkpt lat="50.41687" lon="2.59266">
        <ele>104.4404297</ele>
        <time>2011-04-10T02:06:56Z</time>
      </trkpt>
      <trkpt lat="50.41683" lon="2.59272">
        <ele>109.7276611</ele>
        <time>2011-04-10T02:06:59Z</time>
      </trkpt>
      <trkpt lat="50.41675" lon="2.59279">
        <ele>109.2469482</ele>
        <time>2011-04-10T02:07:07Z</time>
      </trkpt>
      <trkpt lat="50.41669" lon="2.59288">
        <ele>109.2469482</ele>
        <time>2011-04-10T02:07:14Z</time>
      </trkpt>
      <trkpt lat="50.41665" lon="2.59293">
        <ele>109.7276611</ele>
        <time>2011-04-10T02:07:18Z</time>
      </trkpt>
      <trkpt lat="50.41659" lon="2.593">
        <ele>110.208252</ele>
        <time>2011-04-10T02:07:24Z</time>
      </trkpt>
      <trkpt lat="50.41651" lon="2.5931">
        <ele>109.7276611</ele>
        <time>2011-04-10T02:07:32Z</time>
      </trkpt>
      <trkpt lat="50.41644" lon="2.5932">
        <ele>108.7662354</ele>
        <time>2011-04-10T02:07:40Z</time>
      </trkpt>
      <trkpt lat="50.41636" lon="2.59332">
        <ele>109.7276611</ele>
        <time>2011-04-10T02:07:49Z</time>
      </trkpt>
      <trkpt lat="50.41633" lon="2.59337">
        <ele>110.6888428</ele>
        <time>2011-04-10T02:07:52Z</time>
      </trkpt>
      <trkpt lat="50.41625" lon="2.59347">
        <ele>111.6502686</ele>
        <time>2011-04-10T02:08:00Z</time>
      </trkpt>
      <trkpt lat="50.41621" lon="2.59355">
        <ele>111.6502686</ele>
        <time>2011-04-10T02:08:05Z</time>
      </trkpt>
      <trkpt lat="50.41616" lon="2.59362">
        <ele>112.6115723</ele>
        <time>2011-04-10T02:08:10Z</time>
      </trkpt>
      <trkpt lat="50.41613" lon="2.59368">
        <ele>112.6115723</ele>
        <time>2011-04-10T02:08:15Z</time>
      </trkpt>
      <trkpt lat="50.4161" lon="2.59372">
        <ele>113.0922852</ele>
        <time>2011-04-10T02:08:18Z</time>
      </trkpt>
      <trkpt lat="50.41603" lon="2.59382">
        <ele>112.1309814</ele>
        <time>2011-04-10T02:08:26Z</time>
      </trkpt>
      <trkpt lat="50.41597" lon="2.59393">
        <ele>113.572998</ele>
        <time>2011-04-10T02:08:33Z</time>
      </trkpt>
      <trkpt lat="50.41593" lon="2.594">
        <ele>114.5341797</ele>
        <time>2011-04-10T02:08:37Z</time>
      </trkpt>
      <trkpt lat="50.41585" lon="2.59412">
        <ele>113.0922852</ele>
        <time>2011-04-10T02:08:45Z</time>
      </trkpt>
      <trkpt lat="50.41579" lon="2.59422">
        <ele>113.0922852</ele>
        <time>2011-04-10T02:08:53Z</time>
      </trkpt>
      <trkpt lat="50.41576" lon="2.59427">
        <ele>113.0922852</ele>
        <time>2011-04-10T02:08:56Z</time>
      </trkpt>
      <trkpt lat="50.41573" lon="2.59435">
        <ele>114.0535889</ele>
        <time>2011-04-10T02:09:01Z</time>
      </trkpt>
      <trkpt lat="50.41567" lon="2.59447">
        <ele>117.4182129</ele>
        <time>2011-04-10T02:09:09Z</time>
      </trkpt>
      <trkpt lat="50.41562" lon="2.59452">
        <ele>117.8988037</ele>
        <time>2011-04-10T02:09:14Z</time>
      </trkpt>
      <trkpt lat="50.41556" lon="2.59458">
        <ele>114.5341797</ele>
        <time>2011-04-10T02:09:21Z</time>
      </trkpt>
      <trkpt lat="50.41555" lon="2.59458">
        <ele>113.572998</ele>
        <time>2011-04-10T02:09:22Z</time>
      </trkpt>
      <trkpt lat="50.41551" lon="2.59464">
        <ele>114.0535889</ele>
        <time>2011-04-10T02:09:26Z</time>
      </trkpt>
      <trkpt lat="50.41543" lon="2.59475">
        <ele>111.1695557</ele>
        <time>2011-04-10T02:09:34Z</time>
      </trkpt>
      <trkpt lat="50.41541" lon="2.59477">
        <ele>107.3243408</ele>
        <time>2011-04-10T02:09:37Z</time>
      </trkpt>
      <trkpt lat="50.4154" lon="2.59479">
        <ele>107.8050537</ele>
        <time>2011-04-10T02:09:38Z</time>
      </trkpt>
      <trkpt lat="50.41534" lon="2.5949">
        <ele>110.6888428</ele>
        <time>2011-04-10T02:09:45Z</time>
      </trkpt>
      <trkpt lat="50.4153" lon="2.59497">
        <ele>109.2469482</ele>
        <time>2011-04-10T02:09:49Z</time>
      </trkpt>
      <trkpt lat="50.41528" lon="2.595">
        <ele>106.8436279</ele>
        <time>2011-04-10T02:09:52Z</time>
      </trkpt>
      <trkpt lat="50.41523" lon="2.5951">
        <ele>107.3243408</ele>
        <time>2011-04-10T02:09:59Z</time>
      </trkpt>
      <trkpt lat="50.4152" lon="2.59514">
        <ele>104.9210205</ele>
        <time>2011-04-10T02:10:02Z</time>
      </trkpt>
      <trkpt lat="50.41517" lon="2.59522">
        <ele>104.9210205</ele>
        <time>2011-04-10T02:10:07Z</time>
      </trkpt>
      <trkpt lat="50.41513" lon="2.59531">
        <ele>99.6337891</ele>
        <time>2011-04-10T02:10:13Z</time>
      </trkpt>
      <trkpt lat="50.41507" lon="2.59543">
        <ele>102.998291</ele>
        <time>2011-04-10T02:10:19Z</time>
      </trkpt>
      <trkpt lat="50.41506" lon="2.59546">
        <ele>104.4404297</ele>
        <time>2011-04-10T02:10:20Z</time>
      </trkpt>
      <trkpt lat="50.41503" lon="2.59554">
        <ele>108.2856445</ele>
        <time>2011-04-10T02:10:24Z</time>
      </trkpt>
      <trkpt lat="50.41498" lon="2.59565">
        <ele>105.8824463</ele>
        <time>2011-04-10T02:10:31Z</time>
      </trkpt>
      <trkpt lat="50.41495" lon="2.59572">
        <ele>102.998291</ele>
        <time>2011-04-10T02:10:35Z</time>
      </trkpt>
      <trkpt lat="50.41492" lon="2.59578">
        <ele>101.0756836</ele>
        <time>2011-04-10T02:10:39Z</time>
      </trkpt>
      <trkpt lat="50.4149" lon="2.5958">
        <ele>101.5563965</ele>
        <time>2011-04-10T02:10:40Z</time>
      </trkpt>
      <trkpt lat="50.41486" lon="2.5959">
        <ele>106.8436279</ele>
        <time>2011-04-10T02:10:44Z</time>
      </trkpt>
      <trkpt lat="50.41481" lon="2.59598">
        <ele>102.5177002</ele>
        <time>2011-04-10T02:10:49Z</time>
      </trkpt>
      <trkpt lat="50.41476" lon="2.59605">
        <ele>103.9597168</ele>
        <time>2011-04-10T02:10:55Z</time>
      </trkpt>
      <trkpt lat="50.41473" lon="2.59611">
        <ele>106.3630371</ele>
        <time>2011-04-10T02:10:59Z</time>
      </trkpt>
      <trkpt lat="50.41468" lon="2.59618">
        <ele>107.3243408</ele>
        <time>2011-04-10T02:11:05Z</time>
      </trkpt>
      <trkpt lat="50.41463" lon="2.59625">
        <ele>106.8436279</ele>
        <time>2011-04-10T02:11:09Z</time>
      </trkpt>
      <trkpt lat="50.41457" lon="2.59631">
        <ele>102.0371094</ele>
        <time>2011-04-10T02:11:15Z</time>
      </trkpt>
      <trkpt lat="50.41455" lon="2.59632">
        <ele>101.0756836</ele>
        <time>2011-04-10T02:11:17Z</time>
      </trkpt>
      <trkpt lat="50.41449" lon="2.59638">
        <ele>103.9597168</ele>
        <time>2011-04-10T02:11:23Z</time>
      </trkpt>
      <trkpt lat="50.41445" lon="2.59643">
        <ele>108.2856445</ele>
        <time>2011-04-10T02:11:27Z</time>
      </trkpt>
      <trkpt lat="50.41439" lon="2.59646">
        <ele>108.2856445</ele>
        <time>2011-04-10T02:11:30Z</time>
      </trkpt>
      <trkpt lat="50.41436" lon="2.59648">
        <ele>108.2856445</ele>
        <time>2011-04-10T02:11:32Z</time>
      </trkpt>
      <trkpt lat="50.4143" lon="2.59654">
        <ele>112.1309814</ele>
        <time>2011-04-10T02:11:38Z</time>
      </trkpt>
      <trkpt lat="50.41422" lon="2.59663">
        <ele>114.5341797</ele>
        <time>2011-04-10T02:11:45Z</time>
      </trkpt>
      <trkpt lat="50.41411" lon="2.59673">
        <ele>116.9375</ele>
        <time>2011-04-10T02:11:53Z</time>
      </trkpt>
      <trkpt lat="50.41404" lon="2.59681">
        <ele>118.8601074</ele>
        <time>2011-04-10T02:11:59Z</time>
      </trkpt>
      <trkpt lat="50.41398" lon="2.59686">
        <ele>119.8214111</ele>
        <time>2011-04-10T02:12:04Z</time>
      </trkpt>
      <trkpt lat="50.41392" lon="2.59692">
        <ele>121.2635498</ele>
        <time>2011-04-10T02:12:10Z</time>
      </trkpt>
      <trkpt lat="50.41389" lon="2.59694">
        <ele>121.7441406</ele>
        <time>2011-04-10T02:12:12Z</time>
      </trkpt>
      <trkpt lat="50.41379" lon="2.59705">
        <ele>123.666748</ele>
        <time>2011-04-10T02:12:22Z</time>
      </trkpt>
      <trkpt lat="50.41371" lon="2.59713">
        <ele>126.0699463</ele>
        <time>2011-04-10T02:12:30Z</time>
      </trkpt>
      <trkpt lat="50.41366" lon="2.59719">
        <ele>126.5506592</ele>
        <time>2011-04-10T02:12:35Z</time>
      </trkpt>
      <trkpt lat="50.41362" lon="2.59723">
        <ele>126.5506592</ele>
        <time>2011-04-10T02:12:39Z</time>
      </trkpt>
      <trkpt lat="50.41355" lon="2.59731">
        <ele>127.9925537</ele>
        <time>2011-04-10T02:12:46Z</time>
      </trkpt>
      <trkpt lat="50.41348" lon="2.59739">
        <ele>127.9925537</ele>
        <time>2011-04-10T02:12:53Z</time>
      </trkpt>
      <trkpt lat="50.41345" lon="2.59742">
        <ele>127.9925537</ele>
        <time>2011-04-10T02:12:56Z</time>
      </trkpt>
      <trkpt lat="50.41341" lon="2.59748">
        <ele>128.9541016</ele>
        <time>2011-04-10T02:13:01Z</time>
      </trkpt>
      <trkpt lat="50.4134" lon="2.59749">
        <ele>129.9152832</ele>
        <time>2011-04-10T02:13:03Z</time>
      </trkpt>
      <trkpt lat="50.4133" lon="2.59761">
        <ele>127.9925537</ele>
        <time>2011-04-10T02:13:12Z</time>
      </trkpt>
      <trkpt lat="50.41323" lon="2.59771">
        <ele>128.4733887</ele>
        <time>2011-04-10T02:13:19Z</time>
      </trkpt>
      <trkpt lat="50.41316" lon="2.59779">
        <ele>127.5119629</ele>
        <time>2011-04-10T02:13:25Z</time>
      </trkpt>
      <trkpt lat="50.41309" lon="2.59784">
        <ele>125.5893555</ele>
        <time>2011-04-10T02:13:29Z</time>
      </trkpt>
      <trkpt lat="50.41302" lon="2.59792">
        <ele>120.7828369</ele>
        <time>2011-04-10T02:13:36Z</time>
      </trkpt>
      <trkpt lat="50.41301" lon="2.59794">
        <ele>120.302124</ele>
        <time>2011-04-10T02:13:37Z</time>
      </trkpt>
      <trkpt lat="50.41296" lon="2.59803">
        <ele>120.7828369</ele>
        <time>2011-04-10T02:13:44Z</time>
      </trkpt>
      <trkpt lat="50.41295" lon="2.59804">
        <ele>121.2635498</ele>
        <time>2011-04-10T02:13:45Z</time>
      </trkpt>
      <trkpt lat="50.4129" lon="2.5981">
        <ele>120.302124</ele>
        <time>2011-04-10T02:13:51Z</time>
      </trkpt>
      <trkpt lat="50.41284" lon="2.59816">
        <ele>120.302124</ele>
        <time>2011-04-10T02:13:57Z</time>
      </trkpt>
      <trkpt lat="50.41279" lon="2.59823">
        <ele>119.3408203</ele>
        <time>2011-04-10T02:14:02Z</time>
      </trkpt>
      <trkpt lat="50.41275" lon="2.59828">
        <ele>119.8214111</ele>
        <time>2011-04-10T02:14:05Z</time>
      </trkpt>
      <trkpt lat="50.41273" lon="2.59831">
        <ele>119.3408203</ele>
        <time>2011-04-10T02:14:08Z</time>
      </trkpt>
      <trkpt lat="50.41267" lon="2.5984">
        <ele>119.8214111</ele>
        <time>2011-04-10T02:14:14Z</time>
      </trkpt>
      <trkpt lat="50.41263" lon="2.59845">
        <ele>118.8601074</ele>
        <time>2011-04-10T02:14:18Z</time>
      </trkpt>
      <trkpt lat="50.41262" lon="2.59848">
        <ele>118.3793945</ele>
        <time>2011-04-10T02:14:20Z</time>
      </trkpt>
      <trkpt lat="50.41255" lon="2.59857">
        <ele>116.9375</ele>
        <time>2011-04-10T02:14:28Z</time>
      </trkpt>
      <trkpt lat="50.41252" lon="2.59861">
        <ele>116.9375</ele>
        <time>2011-04-10T02:14:31Z</time>
      </trkpt>
      <trkpt lat="50.41247" lon="2.5987">
        <ele>118.8601074</ele>
        <time>2011-04-10T02:14:37Z</time>
      </trkpt>
      <trkpt lat="50.41242" lon="2.59876">
        <ele>118.8601074</ele>
        <time>2011-04-10T02:14:41Z</time>
      </trkpt>
      <trkpt lat="50.41241" lon="2.59878">
        <ele>119.3408203</ele>
        <time>2011-04-10T02:14:42Z</time>
      </trkpt>
      <trkpt lat="50.41236" lon="2.59884">
        <ele>121.2635498</ele>
        <time>2011-04-10T02:14:47Z</time>
      </trkpt>
      <trkpt lat="50.41227" lon="2.59896">
        <ele>123.666748</ele>
        <time>2011-04-10T02:14:58Z</time>
      </trkpt>
      <trkpt lat="50.4122" lon="2.59907">
        <ele>126.0699463</ele>
        <time>2011-04-10T02:15:07Z</time>
      </trkpt>
      <trkpt lat="50.41215" lon="2.59913">
        <ele>126.5506592</ele>
        <time>2011-04-10T02:15:12Z</time>
      </trkpt>
      <trkpt lat="50.41208" lon="2.59924">
        <ele>128.9541016</ele>
        <time>2011-04-10T02:15:19Z</time>
      </trkpt>
      <trkpt lat="50.41201" lon="2.59932">
        <ele>128.4733887</ele>
        <time>2011-04-10T02:15:26Z</time>
      </trkpt>
      <trkpt lat="50.41197" lon="2.59938">
        <ele>127.9925537</ele>
        <time>2011-04-10T02:15:31Z</time>
      </trkpt>
      <trkpt lat="50.41192" lon="2.59944">
        <ele>129.4346924</ele>
        <time>2011-04-10T02:15:36Z</time>
      </trkpt>
      <trkpt lat="50.41186" lon="2.59952">
        <ele>130.3959961</ele>
        <time>2011-04-10T02:15:42Z</time>
      </trkpt>
      <trkpt lat="50.41181" lon="2.5996">
        <ele>130.3959961</ele>
        <time>2011-04-10T02:15:48Z</time>
      </trkpt>
      <trkpt lat="50.41178" lon="2.59965">
        <ele>130.876709</ele>
        <time>2011-04-10T02:15:52Z</time>
      </trkpt>
      <trkpt lat="50.4117" lon="2.59976">
        <ele>132.7993164</ele>
        <time>2011-04-10T02:16:00Z</time>
      </trkpt>
      <trkpt lat="50.41165" lon="2.59984">
        <ele>134.2412109</ele>
        <time>2011-04-10T02:16:06Z</time>
      </trkpt>
      <trkpt lat="50.41162" lon="2.59987">
        <ele>134.7219238</ele>
        <time>2011-04-10T02:16:09Z</time>
      </trkpt>
      <trkpt lat="50.41157" lon="2.59996">
        <ele>136.6446533</ele>
        <time>2011-04-10T02:16:16Z</time>
      </trkpt>
      <trkpt lat="50.41149" lon="2.60007">
        <ele>138.5672607</ele>
        <time>2011-04-10T02:16:24Z</time>
      </trkpt>
      <trkpt lat="50.41144" lon="2.60014">
        <ele>139.5284424</ele>
        <time>2011-04-10T02:16:29Z</time>
      </trkpt>
      <trkpt lat="50.41139" lon="2.60018">
        <ele>138.5672607</ele>
        <time>2011-04-10T02:16:34Z</time>
      </trkpt>
      <trkpt lat="50.41138" lon="2.60019">
        <ele>138.5672607</ele>
        <time>2011-04-10T02:16:35Z</time>
      </trkpt>
      <trkpt lat="50.41131" lon="2.60027">
        <ele>136.1639404</ele>
        <time>2011-04-10T02:16:44Z</time>
      </trkpt>
      <trkpt lat="50.41128" lon="2.6003">
        <ele>134.7219238</ele>
        <time>2011-04-10T02:16:47Z</time>
      </trkpt>
      <trkpt lat="50.41123" lon="2.60037">
        <ele>134.2412109</ele>
        <time>2011-04-10T02:16:53Z</time>
      </trkpt>
      <trkpt lat="50.41115" lon="2.60047">
        <ele>134.2412109</ele>
        <time>2011-04-10T02:17:01Z</time>
      </trkpt>
      <trkpt lat="50.41109" lon="2.60055">
        <ele>136.1639404</ele>
        <time>2011-04-10T02:17:07Z</time>
      </trkpt>
      <trkpt lat="50.41099" lon="2.60068">
        <ele>137.1252441</ele>
        <time>2011-04-10T02:17:17Z</time>
      </trkpt>
      <trkpt lat="50.41092" lon="2.60075">
        <ele>137.1252441</ele>
        <time>2011-04-10T02:17:24Z</time>
      </trkpt>
      <trkpt lat="50.41089" lon="2.60079">
        <ele>136.6446533</ele>
        <time>2011-04-10T02:17:27Z</time>
      </trkpt>
      <trkpt lat="50.41082" lon="2.60086">
        <ele>136.6446533</ele>
        <time>2011-04-10T02:17:34Z</time>
      </trkpt>
      <trkpt lat="50.41078" lon="2.60087">
        <ele>137.605835</ele>
        <time>2011-04-10T02:17:38Z</time>
      </trkpt>
      <trkpt lat="50.41072" lon="2.60094">
        <ele>136.6446533</ele>
        <time>2011-04-10T02:17:43Z</time>
      </trkpt>
      <trkpt lat="50.4107" lon="2.60097">
        <ele>136.6446533</ele>
        <time>2011-04-10T02:17:45Z</time>
      </trkpt>
      <trkpt lat="50.41065" lon="2.60102">
        <ele>135.6831055</ele>
        <time>2011-04-10T02:17:50Z</time>
      </trkpt>
      <trkpt lat="50.41056" lon="2.60114">
        <ele>141.9317627</ele>
        <time>2011-04-10T02:17:58Z</time>
      </trkpt>
      <trkpt lat="50.41049" lon="2.60121">
        <ele>142.4124756</ele>
        <time>2011-04-10T02:18:05Z</time>
      </trkpt>
      <trkpt lat="50.41044" lon="2.60126">
        <ele>141.9317627</ele>
        <time>2011-04-10T02:18:10Z</time>
      </trkpt>
      <trkpt lat="50.41038" lon="2.60133">
        <ele>141.4510498</ele>
        <time>2011-04-10T02:18:15Z</time>
      </trkpt>
      <trkpt lat="50.41033" lon="2.60145">
        <ele>140.4898682</ele>
        <time>2011-04-10T02:18:23Z</time>
      </trkpt>
      <trkpt lat="50.41031" lon="2.60155">
        <ele>142.8930664</ele>
        <time>2011-04-10T02:18:27Z</time>
      </trkpt>
      <trkpt lat="50.41026" lon="2.60174">
        <ele>149.6223145</ele>
        <time>2011-04-10T02:18:36Z</time>
      </trkpt>
      <trkpt lat="50.41025" lon="2.60176">
        <ele>150.1030273</ele>
        <time>2011-04-10T02:18:37Z</time>
      </trkpt>
      <trkpt lat="50.41026" lon="2.60183">
        <ele>151.5449219</ele>
        <time>2011-04-10T02:18:40Z</time>
      </trkpt>
      <trkpt lat="50.41023" lon="2.60195">
        <ele>154.4289551</ele>
        <time>2011-04-10T02:18:46Z</time>
      </trkpt>
      <trkpt lat="50.4102" lon="2.60207">
        <ele>153.9483643</ele>
        <time>2011-04-10T02:18:52Z</time>
      </trkpt>
      <trkpt lat="50.41015" lon="2.60222">
        <ele>153.4676514</ele>
        <time>2011-04-10T02:18:59Z</time>
      </trkpt>
      <trkpt lat="50.41009" lon="2.60234">
        <ele>151.5449219</ele>
        <time>2011-04-10T02:19:05Z</time>
      </trkpt>
      <trkpt lat="50.41005" lon="2.60245">
        <ele>150.1030273</ele>
        <time>2011-04-10T02:19:11Z</time>
      </trkpt>
      <trkpt lat="50.41007" lon="2.6025">
        <ele>150.1030273</ele>
        <time>2011-04-10T02:19:14Z</time>
      </trkpt>
      <trkpt lat="50.41006" lon="2.60252">
        <ele>149.1416016</ele>
        <time>2011-04-10T02:19:15Z</time>
      </trkpt>
      <trkpt lat="50.41003" lon="2.60266">
        <ele>148.6610107</ele>
        <time>2011-04-10T02:19:21Z</time>
      </trkpt>
      <trkpt lat="50.40997" lon="2.60279">
        <ele>149.1416016</ele>
        <time>2011-04-10T02:19:27Z</time>
      </trkpt>
      <trkpt lat="50.40997" lon="2.60288">
        <ele>150.5836182</ele>
        <time>2011-04-10T02:19:31Z</time>
      </trkpt>
      <trkpt lat="50.40995" lon="2.60303">
        <ele>154.9095459</ele>
        <time>2011-04-10T02:19:35Z</time>
      </trkpt>
      <trkpt lat="50.40993" lon="2.60318">
        <ele>159.2354736</ele>
        <time>2011-04-10T02:19:40Z</time>
      </trkpt>
      <trkpt lat="50.4099" lon="2.60329">
        <ele>164.0421143</ele>
        <time>2011-04-10T02:19:44Z</time>
      </trkpt>
      <trkpt lat="50.40988" lon="2.60343">
        <ele>170.2906494</ele>
        <time>2011-04-10T02:19:49Z</time>
      </trkpt>
      <trkpt lat="50.40987" lon="2.6035">
        <ele>165.003418</ele>
        <time>2011-04-10T02:19:53Z</time>
      </trkpt>
      <trkpt lat="50.40987" lon="2.60352">
        <ele>164.0421143</ele>
        <time>2011-04-10T02:19:54Z</time>
      </trkpt>
      <trkpt lat="50.40987" lon="2.60362">
        <ele>165.9647217</ele>
        <time>2011-04-10T02:19:58Z</time>
      </trkpt>
      <trkpt lat="50.40983" lon="2.60377">
        <ele>159.7161865</ele>
        <time>2011-04-10T02:20:03Z</time>
      </trkpt>
      <trkpt lat="50.40982" lon="2.60385">
        <ele>159.2354736</ele>
        <time>2011-04-10T02:20:06Z</time>
      </trkpt>
      <trkpt lat="50.4098" lon="2.60394">
        <ele>155.3902588</ele>
        <time>2011-04-10T02:20:11Z</time>
      </trkpt>
      <trkpt lat="50.40979" lon="2.60402">
        <ele>153.9483643</ele>
        <time>2011-04-10T02:20:16Z</time>
      </trkpt>
      <trkpt lat="50.40974" lon="2.60413">
        <ele>154.9095459</ele>
        <time>2011-04-10T02:20:22Z</time>
      </trkpt>
      <trkpt lat="50.40973" lon="2.60417">
        <ele>156.3515625</ele>
        <time>2011-04-10T02:20:24Z</time>
      </trkpt>
      <trkpt lat="50.40969" lon="2.60426">
        <ele>158.7547607</ele>
        <time>2011-04-10T02:20:30Z</time>
      </trkpt>
      <trkpt lat="50.40966" lon="2.60434">
        <ele>159.2354736</ele>
        <time>2011-04-10T02:20:34Z</time>
      </trkpt>
      <trkpt lat="50.40961" lon="2.60443">
        <ele>159.2354736</ele>
        <time>2011-04-10T02:20:39Z</time>
      </trkpt>
      <trkpt lat="50.40957" lon="2.60455">
        <ele>160.1968994</ele>
        <time>2011-04-10T02:20:45Z</time>
      </trkpt>
      <trkpt lat="50.40954" lon="2.60464">
        <ele>160.6774902</ele>
        <time>2011-04-10T02:20:50Z</time>
      </trkpt>
      <trkpt lat="50.4095" lon="2.60474">
        <ele>159.7161865</ele>
        <time>2011-04-10T02:20:55Z</time>
      </trkpt>
      <trkpt lat="50.40947" lon="2.60481">
        <ele>159.2354736</ele>
        <time>2011-04-10T02:20:59Z</time>
      </trkpt>
      <trkpt lat="50.40942" lon="2.60493">
        <ele>157.3128662</ele>
        <time>2011-04-10T02:21:06Z</time>
      </trkpt>
      <trkpt lat="50.40938" lon="2.60506">
        <ele>158.2741699</ele>
        <time>2011-04-10T02:21:13Z</time>
      </trkpt>
      <trkpt lat="50.40934" lon="2.60514">
        <ele>158.2741699</ele>
        <time>2011-04-10T02:21:19Z</time>
      </trkpt>
      <trkpt lat="50.40929" lon="2.60525">
        <ele>158.2741699</ele>
        <time>2011-04-10T02:21:25Z</time>
      </trkpt>
      <trkpt lat="50.40926" lon="2.60536">
        <ele>162.1195068</ele>
        <time>2011-04-10T02:21:31Z</time>
      </trkpt>
      <trkpt lat="50.40921" lon="2.60546">
        <ele>160.1968994</ele>
        <time>2011-04-10T02:21:37Z</time>
      </trkpt>
      <trkpt lat="50.40914" lon="2.60556">
        <ele>158.7547607</ele>
        <time>2011-04-10T02:21:44Z</time>
      </trkpt>
      <trkpt lat="50.40905" lon="2.60564">
        <ele>157.7935791</ele>
        <time>2011-04-10T02:21:52Z</time>
      </trkpt>
      <trkpt lat="50.40895" lon="2.60573">
        <ele>156.8321533</ele>
        <time>2011-04-10T02:22:01Z</time>
      </trkpt>
      <trkpt lat="50.40891" lon="2.60576">
        <ele>156.3515625</ele>
        <time>2011-04-10T02:22:04Z</time>
      </trkpt>
      <trkpt lat="50.40885" lon="2.6058">
        <ele>154.9095459</ele>
        <time>2011-04-10T02:22:09Z</time>
      </trkpt>
      <trkpt lat="50.40877" lon="2.60588">
        <ele>152.9869385</ele>
        <time>2011-04-10T02:22:16Z</time>
      </trkpt>
      <trkpt lat="50.40871" lon="2.60596">
        <ele>152.0257568</ele>
        <time>2011-04-10T02:22:22Z</time>
      </trkpt>
      <trkpt lat="50.40863" lon="2.60612">
        <ele>154.4289551</ele>
        <time>2011-04-10T02:22:30Z</time>
      </trkpt>
      <trkpt lat="50.4086" lon="2.60623">
        <ele>155.8709717</ele>
        <time>2011-04-10T02:22:35Z</time>
      </trkpt>
      <trkpt lat="50.40859" lon="2.60634">
        <ele>159.2354736</ele>
        <time>2011-04-10T02:22:40Z</time>
      </trkpt>
      <trkpt lat="50.40858" lon="2.60642">
        <ele>160.6774902</ele>
        <time>2011-04-10T02:22:43Z</time>
      </trkpt>
      <trkpt lat="50.40857" lon="2.60652">
        <ele>161.638916</ele>
        <time>2011-04-10T02:22:48Z</time>
      </trkpt>
      <trkpt lat="50.40856" lon="2.60654">
        <ele>161.638916</ele>
        <time>2011-04-10T02:22:49Z</time>
      </trkpt>
      <trkpt lat="50.40853" lon="2.60669">
        <ele>161.638916</ele>
        <time>2011-04-10T02:22:56Z</time>
      </trkpt>
      <trkpt lat="50.40851" lon="2.60682">
        <ele>161.1582031</ele>
        <time>2011-04-10T02:23:01Z</time>
      </trkpt>
      <trkpt lat="50.4085" lon="2.60684">
        <ele>161.1582031</ele>
        <time>2011-04-10T02:23:02Z</time>
      </trkpt>
      <trkpt lat="50.40849" lon="2.60693">
        <ele>160.6774902</ele>
        <time>2011-04-10T02:23:06Z</time>
      </trkpt>
      <trkpt lat="50.40846" lon="2.60706">
        <ele>160.6774902</ele>
        <time>2011-04-10T02:23:12Z</time>
      </trkpt>
      <trkpt lat="50.40844" lon="2.60717">
        <ele>160.1968994</ele>
        <time>2011-04-10T02:23:17Z</time>
      </trkpt>
      <trkpt lat="50.40841" lon="2.60729">
        <ele>160.6774902</ele>
        <time>2011-04-10T02:23:22Z</time>
      </trkpt>
      <trkpt lat="50.4084" lon="2.60737">
        <ele>160.6774902</ele>
        <time>2011-04-10T02:23:26Z</time>
      </trkpt>
      <trkpt lat="50.40838" lon="2.60747">
        <ele>163.0808105</ele>
        <time>2011-04-10T02:23:31Z</time>
      </trkpt>
      <trkpt lat="50.40836" lon="2.60755">
        <ele>164.5227051</ele>
        <time>2011-04-10T02:23:35Z</time>
      </trkpt>
      <trkpt lat="50.40833" lon="2.60764">
        <ele>166.9260254</ele>
        <time>2011-04-10T02:23:40Z</time>
      </trkpt>
      <trkpt lat="50.40829" lon="2.60778">
        <ele>170.7713623</ele>
        <time>2011-04-10T02:23:46Z</time>
      </trkpt>
      <trkpt lat="50.40826" lon="2.60788">
        <ele>174.6165771</ele>
        <time>2011-04-10T02:23:50Z</time>
      </trkpt>
      <trkpt lat="50.40822" lon="2.608">
        <ele>180.3845215</ele>
        <time>2011-04-10T02:23:55Z</time>
      </trkpt>
      <trkpt lat="50.40819" lon="2.60808">
        <ele>182.7878418</ele>
        <time>2011-04-10T02:23:59Z</time>
      </trkpt>
      <trkpt lat="50.40816" lon="2.60816">
        <ele>185.6717529</ele>
        <time>2011-04-10T02:24:03Z</time>
      </trkpt>
      <trkpt lat="50.4081" lon="2.60827">
        <ele>191.4395752</ele>
        <time>2011-04-10T02:24:09Z</time>
      </trkpt>
      <trkpt lat="50.40809" lon="2.60829">
        <ele>192.8817139</ele>
        <time>2011-04-10T02:24:10Z</time>
      </trkpt>
      <trkpt lat="50.40806" lon="2.60833">
        <ele>190.9589844</ele>
        <time>2011-04-10T02:24:15Z</time>
      </trkpt>
      <trkpt lat="50.408" lon="2.60841">
        <ele>188.0750732</ele>
        <time>2011-04-10T02:24:22Z</time>
      </trkpt>
      <trkpt lat="50.40793" lon="2.60851">
        <ele>185.1911621</ele>
        <time>2011-04-10T02:24:30Z</time>
      </trkpt>
      <trkpt lat="50.40789" lon="2.60858">
        <ele>184.2298584</ele>
        <time>2011-04-10T02:24:35Z</time>
      </trkpt>
      <trkpt lat="50.40784" lon="2.6087">
        <ele>182.3071289</ele>
        <time>2011-04-10T02:24:42Z</time>
      </trkpt>
      <trkpt lat="50.40778" lon="2.60883">
        <ele>181.3458252</ele>
        <time>2011-04-10T02:24:50Z</time>
      </trkpt>
      <trkpt lat="50.40774" lon="2.60891">
        <ele>178.4619141</ele>
        <time>2011-04-10T02:24:56Z</time>
      </trkpt>
      <trkpt lat="50.40768" lon="2.609">
        <ele>172.6939697</ele>
        <time>2011-04-10T02:25:03Z</time>
      </trkpt>
      <trkpt lat="50.40764" lon="2.60908">
        <ele>172.2132568</ele>
        <time>2011-04-10T02:25:08Z</time>
      </trkpt>
      <trkpt lat="50.4076" lon="2.60919">
        <ele>174.1358643</ele>
        <time>2011-04-10T02:25:14Z</time>
      </trkpt>
      <trkpt lat="50.40755" lon="2.60928">
        <ele>174.1358643</ele>
        <time>2011-04-10T02:25:20Z</time>
      </trkpt>
      <trkpt lat="50.40752" lon="2.60934">
        <ele>173.1746826</ele>
        <time>2011-04-10T02:25:25Z</time>
      </trkpt>
      <trkpt lat="50.4075" lon="2.60938">
        <ele>172.6939697</ele>
        <time>2011-04-10T02:25:27Z</time>
      </trkpt>
      <trkpt lat="50.40746" lon="2.6095">
        <ele>172.2132568</ele>
        <time>2011-04-10T02:25:33Z</time>
      </trkpt>
      <trkpt lat="50.40742" lon="2.60968">
        <ele>173.6552734</ele>
        <time>2011-04-10T02:25:42Z</time>
      </trkpt>
      <trkpt lat="50.4074" lon="2.60979">
        <ele>174.6165771</ele>
        <time>2011-04-10T02:25:48Z</time>
      </trkpt>
      <trkpt lat="50.40736" lon="2.60993">
        <ele>175.09729</ele>
        <time>2011-04-10T02:25:55Z</time>
      </trkpt>
      <trkpt lat="50.40732" lon="2.61006">
        <ele>176.0585938</ele>
        <time>2011-04-10T02:26:01Z</time>
      </trkpt>
      <trkpt lat="50.40728" lon="2.61022">
        <ele>177.9812012</ele>
        <time>2011-04-10T02:26:09Z</time>
      </trkpt>
      <trkpt lat="50.40725" lon="2.61033">
        <ele>178.4619141</ele>
        <time>2011-04-10T02:26:13Z</time>
      </trkpt>
      <trkpt lat="50.40722" lon="2.61045">
        <ele>178.942627</ele>
        <time>2011-04-10T02:26:18Z</time>
      </trkpt>
      <trkpt lat="50.40717" lon="2.61061">
        <ele>180.3845215</ele>
        <time>2011-04-10T02:26:25Z</time>
      </trkpt>
      <trkpt lat="50.40712" lon="2.61073">
        <ele>180.3845215</ele>
        <time>2011-04-10T02:26:32Z</time>
      </trkpt>
      <trkpt lat="50.40706" lon="2.61086">
        <ele>180.3845215</ele>
        <time>2011-04-10T02:26:39Z</time>
      </trkpt>
      <trkpt lat="50.40701" lon="2.61095">
        <ele>180.8652344</ele>
        <time>2011-04-10T02:26:45Z</time>
      </trkpt>
      <trkpt lat="50.40694" lon="2.61103">
        <ele>179.4232178</ele>
        <time>2011-04-10T02:26:52Z</time>
      </trkpt>
      <trkpt lat="50.40692" lon="2.61104">
        <ele>178.942627</ele>
        <time>2011-04-10T02:26:53Z</time>
      </trkpt>
      <trkpt lat="50.40687" lon="2.61108">
        <ele>174.6165771</ele>
        <time>2011-04-10T02:26:58Z</time>
      </trkpt>
      <trkpt lat="50.40675" lon="2.61119">
        <ele>170.7713623</ele>
        <time>2011-04-10T02:27:08Z</time>
      </trkpt>
      <trkpt lat="50.4067" lon="2.61123">
        <ele>168.8487549</ele>
        <time>2011-04-10T02:27:12Z</time>
      </trkpt>
      <trkpt lat="50.40664" lon="2.61129">
        <ele>166.9260254</ele>
        <time>2011-04-10T02:27:17Z</time>
      </trkpt>
      <trkpt lat="50.40657" lon="2.61134">
        <ele>165.4841309</ele>
        <time>2011-04-10T02:27:22Z</time>
      </trkpt>
      <trkpt lat="50.4065" lon="2.61143">
        <ele>165.4841309</ele>
        <time>2011-04-10T02:27:29Z</time>
      </trkpt>
      <trkpt lat="50.4064" lon="2.61153">
        <ele>165.9647217</ele>
        <time>2011-04-10T02:27:37Z</time>
      </trkpt>
      <trkpt lat="50.40633" lon="2.61164">
        <ele>167.8873291</ele>
        <time>2011-04-10T02:27:44Z</time>
      </trkpt>
      <trkpt lat="50.40627" lon="2.61171">
        <ele>168.368042</ele>
        <time>2011-04-10T02:27:49Z</time>
      </trkpt>
      <trkpt lat="50.40625" lon="2.61172">
        <ele>168.368042</ele>
        <time>2011-04-10T02:27:50Z</time>
      </trkpt>
      <trkpt lat="50.40623" lon="2.61175">
        <ele>168.368042</ele>
        <time>2011-04-10T02:27:52Z</time>
      </trkpt>
      <trkpt lat="50.40617" lon="2.61181">
        <ele>166.9260254</ele>
        <time>2011-04-10T02:27:56Z</time>
      </trkpt>
      <trkpt lat="50.40612" lon="2.61188">
        <ele>165.9647217</ele>
        <time>2011-04-10T02:27:59Z</time>
      </trkpt>
      <trkpt lat="50.40606" lon="2.61192">
        <ele>164.0421143</ele>
        <time>2011-04-10T02:28:05Z</time>
      </trkpt>
      <trkpt lat="50.406" lon="2.61197">
        <ele>163.0808105</ele>
        <time>2011-04-10T02:28:10Z</time>
      </trkpt>
      <trkpt lat="50.40596" lon="2.61199">
        <ele>162.6000977</ele>
        <time>2011-04-10T02:28:13Z</time>
      </trkpt>
      <trkpt lat="50.40594" lon="2.61201">
        <ele>162.6000977</ele>
        <time>2011-04-10T02:28:14Z</time>
      </trkpt>
      <trkpt lat="50.40589" lon="2.61205">
        <ele>161.638916</ele>
        <time>2011-04-10T02:28:18Z</time>
      </trkpt>
      <trkpt lat="50.40584" lon="2.61207">
        <ele>161.1582031</ele>
        <time>2011-04-10T02:28:22Z</time>
      </trkpt>
      <trkpt lat="50.40576" lon="2.61211">
        <ele>160.1968994</ele>
        <time>2011-04-10T02:28:28Z</time>
      </trkpt>
      <trkpt lat="50.40571" lon="2.61215">
        <ele>158.2741699</ele>
        <time>2011-04-10T02:28:32Z</time>
      </trkpt>
      <trkpt lat="50.40563" lon="2.61217">
        <ele>156.8321533</ele>
        <time>2011-04-10T02:28:37Z</time>
      </trkpt>
      <trkpt lat="50.40555" lon="2.61223">
        <ele>155.3902588</ele>
        <time>2011-04-10T02:28:42Z</time>
      </trkpt>
      <trkpt lat="50.40549" lon="2.61225">
        <ele>153.4676514</ele>
        <time>2011-04-10T02:28:46Z</time>
      </trkpt>
      <trkpt lat="50.40542" lon="2.61229">
        <ele>153.4676514</ele>
        <time>2011-04-10T02:28:51Z</time>
      </trkpt>
      <trkpt lat="50.40536" lon="2.61232">
        <ele>152.9869385</ele>
        <time>2011-04-10T02:28:55Z</time>
      </trkpt>
      <trkpt lat="50.40527" lon="2.61237">
        <ele>150.5836182</ele>
        <time>2011-04-10T02:29:03Z</time>
      </trkpt>
      <trkpt lat="50.40524" lon="2.6124">
        <ele>151.064209</ele>
        <time>2011-04-10T02:29:05Z</time>
      </trkpt>
      <trkpt lat="50.40514" lon="2.61242">
        <ele>149.1416016</ele>
        <time>2011-04-10T02:29:11Z</time>
      </trkpt>
      <trkpt lat="50.40512" lon="2.61242">
        <ele>149.1416016</ele>
        <time>2011-04-10T02:29:12Z</time>
      </trkpt>
      <trkpt lat="50.40508" lon="2.61247">
        <ele>150.1030273</ele>
        <time>2011-04-10T02:29:17Z</time>
      </trkpt>
      <trkpt lat="50.40503" lon="2.61251">
        <ele>150.1030273</ele>
        <time>2011-04-10T02:29:21Z</time>
      </trkpt>
      <trkpt lat="50.40498" lon="2.61253">
        <ele>149.1416016</ele>
        <time>2011-04-10T02:29:25Z</time>
      </trkpt>
      <trkpt lat="50.40494" lon="2.61254">
        <ele>150.5836182</ele>
        <time>2011-04-10T02:29:30Z</time>
      </trkpt>
      <trkpt lat="50.40486" lon="2.61257">
        <ele>151.5449219</ele>
        <time>2011-04-10T02:29:36Z</time>
      </trkpt>
      <trkpt lat="50.40477" lon="2.6126">
        <ele>152.5063477</ele>
        <time>2011-04-10T02:29:43Z</time>
      </trkpt>
      <trkpt lat="50.40469" lon="2.61263">
        <ele>153.9483643</ele>
        <time>2011-04-10T02:29:49Z</time>
      </trkpt>
      <trkpt lat="50.40461" lon="2.61264">
        <ele>153.4676514</ele>
        <time>2011-04-10T02:29:55Z</time>
      </trkpt>
      <trkpt lat="50.40456" lon="2.61265">
        <ele>152.5063477</ele>
        <time>2011-04-10T02:30:00Z</time>
      </trkpt>
      <trkpt lat="50.40445" lon="2.6127">
        <ele>151.064209</ele>
        <time>2011-04-10T02:30:08Z</time>
      </trkpt>
      <trkpt lat="50.40435" lon="2.61273">
        <ele>152.5063477</ele>
        <time>2011-04-10T02:30:15Z</time>
      </trkpt>
      <trkpt lat="50.40424" lon="2.6127">
        <ele>158.2741699</ele>
        <time>2011-04-10T02:30:22Z</time>
      </trkpt>
      <trkpt lat="50.40422" lon="2.61267">
        <ele>159.2354736</ele>
        <time>2011-04-10T02:30:24Z</time>
      </trkpt>
      <trkpt lat="50.40419" lon="2.6126">
        <ele>160.1968994</ele>
        <time>2011-04-10T02:30:28Z</time>
      </trkpt>
      <trkpt lat="50.40414" lon="2.61251">
        <ele>162.6000977</ele>
        <time>2011-04-10T02:30:35Z</time>
      </trkpt>
      <trkpt lat="50.40409" lon="2.61243">
        <ele>163.5615234</ele>
        <time>2011-04-10T02:30:40Z</time>
      </trkpt>
      <trkpt lat="50.40402" lon="2.61228">
        <ele>166.4453125</ele>
        <time>2011-04-10T02:30:48Z</time>
      </trkpt>
      <trkpt lat="50.40398" lon="2.6122">
        <ele>167.8873291</ele>
        <time>2011-04-10T02:30:53Z</time>
      </trkpt>
      <trkpt lat="50.40395" lon="2.61214">
        <ele>168.368042</ele>
        <time>2011-04-10T02:30:57Z</time>
      </trkpt>
      <trkpt lat="50.40391" lon="2.61207">
        <ele>168.368042</ele>
        <time>2011-04-10T02:31:02Z</time>
      </trkpt>
      <trkpt lat="50.40388" lon="2.612">
        <ele>168.8487549</ele>
        <time>2011-04-10T02:31:07Z</time>
      </trkpt>
      <trkpt lat="50.40382" lon="2.61186">
        <ele>170.7713623</ele>
        <time>2011-04-10T02:31:15Z</time>
      </trkpt>
      <trkpt lat="50.40377" lon="2.61176">
        <ele>170.7713623</ele>
        <time>2011-04-10T02:31:21Z</time>
      </trkpt>
      <trkpt lat="50.40373" lon="2.61168">
        <ele>171.2520752</ele>
        <time>2011-04-10T02:31:27Z</time>
      </trkpt>
      <trkpt lat="50.40367" lon="2.61156">
        <ele>173.1746826</ele>
        <time>2011-04-10T02:31:33Z</time>
      </trkpt>
      <trkpt lat="50.4036" lon="2.61145">
        <ele>176.5393066</ele>
        <time>2011-04-10T02:31:40Z</time>
      </trkpt>
      <trkpt lat="50.40357" lon="2.6114">
        <ele>177.0200195</ele>
        <time>2011-04-10T02:31:43Z</time>
      </trkpt>
      <trkpt lat="50.4035" lon="2.61127">
        <ele>177.9812012</ele>
        <time>2011-04-10T02:31:51Z</time>
      </trkpt>
      <trkpt lat="50.40348" lon="2.61124">
        <ele>178.942627</ele>
        <time>2011-04-10T02:31:53Z</time>
      </trkpt>
      <trkpt lat="50.40345" lon="2.61119">
        <ele>179.4232178</ele>
        <time>2011-04-10T02:31:57Z</time>
      </trkpt>
      <trkpt lat="50.40335" lon="2.61107">
        <ele>182.7878418</ele>
        <time>2011-04-10T02:32:06Z</time>
      </trkpt>
      <trkpt lat="50.40334" lon="2.61106">
        <ele>183.7490234</ele>
        <time>2011-04-10T02:32:07Z</time>
      </trkpt>
      <trkpt lat="50.40326" lon="2.61097">
        <ele>186.6331787</ele>
        <time>2011-04-10T02:32:14Z</time>
      </trkpt>
      <trkpt lat="50.40319" lon="2.61086">
        <ele>187.5943604</ele>
        <time>2011-04-10T02:32:22Z</time>
      </trkpt>
      <trkpt lat="50.40313" lon="2.61077">
        <ele>187.1137695</ele>
        <time>2011-04-10T02:32:28Z</time>
      </trkpt>
      <trkpt lat="50.40308" lon="2.61069">
        <ele>187.5943604</ele>
        <time>2011-04-10T02:32:33Z</time>
      </trkpt>
      <trkpt lat="50.40302" lon="2.61059">
        <ele>188.0750732</ele>
        <time>2011-04-10T02:32:40Z</time>
      </trkpt>
      <trkpt lat="50.40295" lon="2.61049">
        <ele>189.5169678</ele>
        <time>2011-04-10T02:32:47Z</time>
      </trkpt>
      <trkpt lat="50.40288" lon="2.61039">
        <ele>188.0750732</ele>
        <time>2011-04-10T02:32:54Z</time>
      </trkpt>
      <trkpt lat="50.40286" lon="2.61037">
        <ele>188.0750732</ele>
        <time>2011-04-10T02:32:56Z</time>
      </trkpt>
      <trkpt lat="50.40278" lon="2.6102">
        <ele>186.6331787</ele>
        <time>2011-04-10T02:33:05Z</time>
      </trkpt>
      <trkpt lat="50.40273" lon="2.61006">
        <ele>185.1911621</ele>
        <time>2011-04-10T02:33:12Z</time>
      </trkpt>
      <trkpt lat="50.4027" lon="2.61001">
        <ele>185.1911621</ele>
        <time>2011-04-10T02:33:15Z</time>
      </trkpt>
      <trkpt lat="50.40267" lon="2.60991">
        <ele>185.1911621</ele>
        <time>2011-04-10T02:33:20Z</time>
      </trkpt>
      <trkpt lat="50.40264" lon="2.60982">
        <ele>183.7490234</ele>
        <time>2011-04-10T02:33:24Z</time>
      </trkpt>
      <trkpt lat="50.40261" lon="2.60967">
        <ele>182.3071289</ele>
        <time>2011-04-10T02:33:30Z</time>
      </trkpt>
      <trkpt lat="50.40259" lon="2.60959">
        <ele>182.3071289</ele>
        <time>2011-04-10T02:33:34Z</time>
      </trkpt>
      <trkpt lat="50.40257" lon="2.60952">
        <ele>180.8652344</ele>
        <time>2011-04-10T02:33:38Z</time>
      </trkpt>
      <trkpt lat="50.40254" lon="2.6094">
        <ele>179.9038086</ele>
        <time>2011-04-10T02:33:44Z</time>
      </trkpt>
      <trkpt lat="50.40253" lon="2.60936">
        <ele>179.4232178</ele>
        <time>2011-04-10T02:33:46Z</time>
      </trkpt>
      <trkpt lat="50.40245" lon="2.60922">
        <ele>178.4619141</ele>
        <time>2011-04-10T02:33:54Z</time>
      </trkpt>
      <trkpt lat="50.40242" lon="2.60915">
        <ele>178.942627</ele>
        <time>2011-04-10T02:33:59Z</time>
      </trkpt>
      <trkpt lat="50.40237" lon="2.60907">
        <ele>180.3845215</ele>
        <time>2011-04-10T02:34:05Z</time>
      </trkpt>
      <trkpt lat="50.40231" lon="2.60899">
        <ele>181.3458252</ele>
        <time>2011-04-10T02:34:11Z</time>
      </trkpt>
      <trkpt lat="50.40226" lon="2.60889">
        <ele>182.7878418</ele>
        <time>2011-04-10T02:34:17Z</time>
      </trkpt>
      <trkpt lat="50.40219" lon="2.60879">
        <ele>182.3071289</ele>
        <time>2011-04-10T02:34:23Z</time>
      </trkpt>
      <trkpt lat="50.40217" lon="2.60874">
        <ele>180.8652344</ele>
        <time>2011-04-10T02:34:26Z</time>
      </trkpt>
      <trkpt lat="50.40211" lon="2.60866">
        <ele>177.5006104</ele>
        <time>2011-04-10T02:34:32Z</time>
      </trkpt>
      <trkpt lat="50.40206" lon="2.60859">
        <ele>174.1358643</ele>
        <time>2011-04-10T02:34:37Z</time>
      </trkpt>
      <trkpt lat="50.40203" lon="2.60855">
        <ele>173.1746826</ele>
        <time>2011-04-10T02:34:40Z</time>
      </trkpt>
      <trkpt lat="50.40201" lon="2.60848">
        <ele>172.6939697</ele>
        <time>2011-04-10T02:34:44Z</time>
      </trkpt>
      <trkpt lat="50.402" lon="2.60848">
        <ele>172.6939697</ele>
        <time>2011-04-10T02:34:45Z</time>
      </trkpt>
      <trkpt lat="50.40193" lon="2.6084">
        <ele>173.6552734</ele>
        <time>2011-04-10T02:34:52Z</time>
      </trkpt>
      <trkpt lat="50.40188" lon="2.60833">
        <ele>174.1358643</ele>
        <time>2011-04-10T02:34:55Z</time>
      </trkpt>
      <trkpt lat="50.40182" lon="2.60825">
        <ele>174.6165771</ele>
        <time>2011-04-10T02:35:00Z</time>
      </trkpt>
      <trkpt lat="50.40179" lon="2.6082">
        <ele>173.1746826</ele>
        <time>2011-04-10T02:35:05Z</time>
      </trkpt>
      <trkpt lat="50.40174" lon="2.60811">
        <ele>171.2520752</ele>
        <time>2011-04-10T02:35:10Z</time>
      </trkpt>
      <trkpt lat="50.40172" lon="2.60806">
        <ele>171.2520752</ele>
        <time>2011-04-10T02:35:13Z</time>
      </trkpt>
      <trkpt lat="50.40166" lon="2.60799">
        <ele>171.2520752</ele>
        <time>2011-04-10T02:35:19Z</time>
      </trkpt>
      <trkpt lat="50.40164" lon="2.60795">
        <ele>170.2906494</ele>
        <time>2011-04-10T02:35:22Z</time>
      </trkpt>
      <trkpt lat="50.40156" lon="2.60784">
        <ele>169.3294678</ele>
        <time>2011-04-10T02:35:30Z</time>
      </trkpt>
      <trkpt lat="50.40151" lon="2.60777">
        <ele>166.4453125</ele>
        <time>2011-04-10T02:35:36Z</time>
      </trkpt>
      <trkpt lat="50.40144" lon="2.6077">
        <ele>167.4067383</ele>
        <time>2011-04-10T02:35:42Z</time>
      </trkpt>
      <trkpt lat="50.40138" lon="2.60762">
        <ele>170.7713623</ele>
        <time>2011-04-10T02:35:48Z</time>
      </trkpt>
      <trkpt lat="50.40135" lon="2.60755">
        <ele>169.3294678</ele>
        <time>2011-04-10T02:35:52Z</time>
      </trkpt>
      <trkpt lat="50.40129" lon="2.60748">
        <ele>171.2520752</ele>
        <time>2011-04-10T02:35:58Z</time>
      </trkpt>
      <trkpt lat="50.40124" lon="2.6074">
        <ele>174.1358643</ele>
        <time>2011-04-10T02:36:04Z</time>
      </trkpt>
      <trkpt lat="50.40118" lon="2.60733">
        <ele>173.6552734</ele>
        <time>2011-04-10T02:36:10Z</time>
      </trkpt>
      <trkpt lat="50.40114" lon="2.60723">
        <ele>172.6939697</ele>
        <time>2011-04-10T02:36:16Z</time>
      </trkpt>
      <trkpt lat="50.40109" lon="2.60713">
        <ele>171.732666</ele>
        <time>2011-04-10T02:36:23Z</time>
      </trkpt>
      <trkpt lat="50.40104" lon="2.60701">
        <ele>169.8100586</ele>
        <time>2011-04-10T02:36:30Z</time>
      </trkpt>
      <trkpt lat="50.401" lon="2.60695">
        <ele>170.2906494</ele>
        <time>2011-04-10T02:36:34Z</time>
      </trkpt>
      <trkpt lat="50.40094" lon="2.60683">
        <ele>169.8100586</ele>
        <time>2011-04-10T02:36:41Z</time>
      </trkpt>
      <trkpt lat="50.40088" lon="2.60673">
        <ele>168.8487549</ele>
        <time>2011-04-10T02:36:48Z</time>
      </trkpt>
      <trkpt lat="50.4008" lon="2.60665">
        <ele>171.2520752</ele>
        <time>2011-04-10T02:36:54Z</time>
      </trkpt>
      <trkpt lat="50.40074" lon="2.60657">
        <ele>170.7713623</ele>
        <time>2011-04-10T02:37:00Z</time>
      </trkpt>
      <trkpt lat="50.40067" lon="2.60651">
        <ele>173.1746826</ele>
        <time>2011-04-10T02:37:06Z</time>
      </trkpt>
      <trkpt lat="50.40059" lon="2.60644">
        <ele>176.5393066</ele>
        <time>2011-04-10T02:37:13Z</time>
      </trkpt>
      <trkpt lat="50.4005" lon="2.60636">
        <ele>177.5006104</ele>
        <time>2011-04-10T02:37:21Z</time>
      </trkpt>
      <trkpt lat="50.40047" lon="2.60629">
        <ele>178.4619141</ele>
        <time>2011-04-10T02:37:25Z</time>
      </trkpt>
      <trkpt lat="50.4004" lon="2.60621">
        <ele>177.9812012</ele>
        <time>2011-04-10T02:37:32Z</time>
      </trkpt>
      <trkpt lat="50.40032" lon="2.60614">
        <ele>176.0585938</ele>
        <time>2011-04-10T02:37:39Z</time>
      </trkpt>
      <trkpt lat="50.40027" lon="2.60609">
        <ele>173.1746826</ele>
        <time>2011-04-10T02:37:43Z</time>
      </trkpt>
      <trkpt lat="50.40025" lon="2.60606">
        <ele>170.7713623</ele>
        <time>2011-04-10T02:37:45Z</time>
      </trkpt>
      <trkpt lat="50.40021" lon="2.606">
        <ele>167.8873291</ele>
        <time>2011-04-10T02:37:49Z</time>
      </trkpt>
      <trkpt lat="50.40019" lon="2.60598">
        <ele>167.4067383</ele>
        <time>2011-04-10T02:37:51Z</time>
      </trkpt>
      <trkpt lat="50.40013" lon="2.60591">
        <ele>167.4067383</ele>
        <time>2011-04-10T02:37:57Z</time>
      </trkpt>
      <trkpt lat="50.40006" lon="2.60582">
        <ele>166.4453125</ele>
        <time>2011-04-10T02:38:05Z</time>
      </trkpt>
      <trkpt lat="50.4" lon="2.60576">
        <ele>166.9260254</ele>
        <time>2011-04-10T02:38:09Z</time>
      </trkpt>
      <trkpt lat="50.39991" lon="2.60569">
        <ele>168.8487549</ele>
        <time>2011-04-10T02:38:17Z</time>
      </trkpt>
      <trkpt lat="50.39982" lon="2.60566">
        <ele>169.8100586</ele>
        <time>2011-04-10T02:38:24Z</time>
      </trkpt>
      <trkpt lat="50.39976" lon="2.60567">
        <ele>167.8873291</ele>
        <time>2011-04-10T02:38:30Z</time>
      </trkpt>
      <trkpt lat="50.39971" lon="2.60574">
        <ele>163.0808105</ele>
        <time>2011-04-10T02:38:36Z</time>
      </trkpt>
      <trkpt lat="50.39967" lon="2.60583">
        <ele>161.638916</ele>
        <time>2011-04-10T02:38:41Z</time>
      </trkpt>
      <trkpt lat="50.39961" lon="2.60595">
        <ele>161.1582031</ele>
        <time>2011-04-10T02:38:48Z</time>
      </trkpt>
      <trkpt lat="50.39956" lon="2.60603">
        <ele>158.7547607</ele>
        <time>2011-04-10T02:38:53Z</time>
      </trkpt>
      <trkpt lat="50.3995" lon="2.60612">
        <ele>159.7161865</ele>
        <time>2011-04-10T02:39:01Z</time>
      </trkpt>
      <trkpt lat="50.39944" lon="2.60625">
        <ele>160.1968994</ele>
        <time>2011-04-10T02:39:09Z</time>
      </trkpt>
      <trkpt lat="50.39936" lon="2.60637">
        <ele>159.2354736</ele>
        <time>2011-04-10T02:39:17Z</time>
      </trkpt>
      <trkpt lat="50.39934" lon="2.60642">
        <ele>159.2354736</ele>
        <time>2011-04-10T02:39:20Z</time>
      </trkpt>
      <trkpt lat="50.39928" lon="2.60649">
        <ele>158.7547607</ele>
        <time>2011-04-10T02:39:25Z</time>
      </trkpt>
      <trkpt lat="50.39927" lon="2.6065">
        <ele>158.2741699</ele>
        <time>2011-04-10T02:39:26Z</time>
      </trkpt>
      <trkpt lat="50.39923" lon="2.60655">
        <ele>157.7935791</ele>
        <time>2011-04-10T02:39:29Z</time>
      </trkpt>
      <trkpt lat="50.39917" lon="2.60661">
        <ele>156.3515625</ele>
        <time>2011-04-10T02:39:35Z</time>
      </trkpt>
      <trkpt lat="50.39913" lon="2.60671">
        <ele>156.8321533</ele>
        <time>2011-04-10T02:39:40Z</time>
      </trkpt>
      <trkpt lat="50.39907" lon="2.60685">
        <ele>159.7161865</ele>
        <time>2011-04-10T02:39:48Z</time>
      </trkpt>
      <trkpt lat="50.39905" lon="2.60691">
        <ele>158.7547607</ele>
        <time>2011-04-10T02:39:51Z</time>
      </trkpt>
      <trkpt lat="50.39902" lon="2.607">
        <ele>160.6774902</ele>
        <time>2011-04-10T02:39:56Z</time>
      </trkpt>
      <trkpt lat="50.39894" lon="2.60712">
        <ele>162.1195068</ele>
        <time>2011-04-10T02:40:03Z</time>
      </trkpt>
      <trkpt lat="50.39894" lon="2.60715">
        <ele>161.638916</ele>
        <time>2011-04-10T02:40:05Z</time>
      </trkpt>
      <trkpt lat="50.3989" lon="2.60726">
        <ele>159.7161865</ele>
        <time>2011-04-10T02:40:11Z</time>
      </trkpt>
      <trkpt lat="50.39888" lon="2.60736">
        <ele>159.7161865</ele>
        <time>2011-04-10T02:40:16Z</time>
      </trkpt>
      <trkpt lat="50.39883" lon="2.6074">
        <ele>161.1582031</ele>
        <time>2011-04-10T02:40:20Z</time>
      </trkpt>
      <trkpt lat="50.39882" lon="2.6074">
        <ele>161.1582031</ele>
        <time>2011-04-10T02:40:21Z</time>
      </trkpt>
      <trkpt lat="50.39875" lon="2.60746">
        <ele>160.1968994</ele>
        <time>2011-04-10T02:40:26Z</time>
      </trkpt>
      <trkpt lat="50.39868" lon="2.60752">
        <ele>157.7935791</ele>
        <time>2011-04-10T02:40:31Z</time>
      </trkpt>
      <trkpt lat="50.39864" lon="2.60754">
        <ele>157.3128662</ele>
        <time>2011-04-10T02:40:35Z</time>
      </trkpt>
      <trkpt lat="50.39858" lon="2.60763">
        <ele>155.3902588</ele>
        <time>2011-04-10T02:40:41Z</time>
      </trkpt>
      <trkpt lat="50.39856" lon="2.60773">
        <ele>154.9095459</ele>
        <time>2011-04-10T02:40:45Z</time>
      </trkpt>
      <trkpt lat="50.39855" lon="2.60775">
        <ele>154.9095459</ele>
        <time>2011-04-10T02:40:47Z</time>
      </trkpt>
      <trkpt lat="50.39846" lon="2.60783">
        <ele>156.8321533</ele>
        <time>2011-04-10T02:40:55Z</time>
      </trkpt>
      <trkpt lat="50.3984" lon="2.60793">
        <ele>157.7935791</ele>
        <time>2011-04-10T02:41:01Z</time>
      </trkpt>
      <trkpt lat="50.39837" lon="2.60797">
        <ele>156.8321533</ele>
        <time>2011-04-10T02:41:04Z</time>
      </trkpt>
      <trkpt lat="50.39834" lon="2.608">
        <ele>156.3515625</ele>
        <time>2011-04-10T02:41:08Z</time>
      </trkpt>
      <trkpt lat="50.39828" lon="2.60807">
        <ele>155.8709717</ele>
        <time>2011-04-10T02:41:15Z</time>
      </trkpt>
      <trkpt lat="50.39824" lon="2.60813">
        <ele>153.9483643</ele>
        <time>2011-04-10T02:41:20Z</time>
      </trkpt>
      <trkpt lat="50.39822" lon="2.60815">
        <ele>154.4289551</ele>
        <time>2011-04-10T02:41:22Z</time>
      </trkpt>
      <trkpt lat="50.39818" lon="2.60824">
        <ele>154.9095459</ele>
        <time>2011-04-10T02:41:27Z</time>
      </trkpt>
      <trkpt lat="50.39817" lon="2.60828">
        <ele>154.9095459</ele>
        <time>2011-04-10T02:41:29Z</time>
      </trkpt>
      <trkpt lat="50.39815" lon="2.60841">
        <ele>158.2741699</ele>
        <time>2011-04-10T02:41:35Z</time>
      </trkpt>
      <trkpt lat="50.39817" lon="2.6085">
        <ele>160.6774902</ele>
        <time>2011-04-10T02:41:41Z</time>
      </trkpt>
      <trkpt lat="50.39822" lon="2.60856">
        <ele>159.2354736</ele>
        <time>2011-04-10T02:41:46Z</time>
      </trkpt>
      <trkpt lat="50.39826" lon="2.6086">
        <ele>158.7547607</ele>
        <time>2011-04-10T02:41:50Z</time>
      </trkpt>
      <trkpt lat="50.39828" lon="2.60864">
        <ele>159.7161865</ele>
        <time>2011-04-10T02:41:54Z</time>
      </trkpt>
      <trkpt lat="50.39834" lon="2.6087">
        <ele>161.638916</ele>
        <time>2011-04-10T02:42:00Z</time>
      </trkpt>
      <trkpt lat="50.39835" lon="2.60871">
        <ele>161.638916</ele>
        <time>2011-04-10T02:42:01Z</time>
      </trkpt>
      <trkpt lat="50.39839" lon="2.60878">
        <ele>161.638916</ele>
        <time>2011-04-10T02:42:06Z</time>
      </trkpt>
      <trkpt lat="50.39841" lon="2.60881">
        <ele>161.638916</ele>
        <time>2011-04-10T02:42:08Z</time>
      </trkpt>
      <trkpt lat="50.39844" lon="2.60889">
        <ele>161.1582031</ele>
        <time>2011-04-10T02:42:13Z</time>
      </trkpt>
      <trkpt lat="50.39844" lon="2.60891">
        <ele>160.6774902</ele>
        <time>2011-04-10T02:42:15Z</time>
      </trkpt>
      <trkpt lat="50.39849" lon="2.609">
        <ele>160.6774902</ele>
        <time>2011-04-10T02:42:22Z</time>
      </trkpt>
      <trkpt lat="50.39845" lon="2.60909">
        <ele>158.2741699</ele>
        <time>2011-04-10T02:42:28Z</time>
      </trkpt>
      <trkpt lat="50.39846" lon="2.60912">
        <ele>157.7935791</ele>
        <time>2011-04-10T02:42:31Z</time>
      </trkpt>
      <trkpt lat="50.3985" lon="2.60917">
        <ele>156.8321533</ele>
        <time>2011-04-10T02:42:39Z</time>
      </trkpt>
      <trkpt lat="50.3985" lon="2.60918">
        <ele>155.3902588</ele>
        <time>2011-04-10T02:42:46Z</time>
      </trkpt>
      <trkpt lat="50.39849" lon="2.60918">
        <ele>153.4676514</ele>
        <time>2011-04-10T02:42:58Z</time>
      </trkpt>
      <trkpt lat="50.3985" lon="2.60919">
        <ele>156.8321533</ele>
        <time>2011-04-10T02:43:07Z</time>
      </trkpt>
      <trkpt lat="50.3985" lon="2.60918">
        <ele>159.2354736</ele>
        <time>2011-04-10T02:43:18Z</time>
      </trkpt>
      <trkpt lat="50.3985" lon="2.60918">
        <ele>163.0808105</ele>
        <time>2011-04-10T02:43:29Z</time>
      </trkpt>
      <trkpt lat="50.39851" lon="2.60918">
        <ele>168.368042</ele>
        <time>2011-04-10T02:43:42Z</time>
      </trkpt>
      <trkpt lat="50.39852" lon="2.60916">
        <ele>164.5227051</ele>
        <time>2011-04-10T02:43:58Z</time>
      </trkpt>
      <trkpt lat="50.39852" lon="2.6092">
        <ele>158.7547607</ele>
        <time>2011-04-10T02:52:59Z</time>
      </trkpt>
      <trkpt lat="50.39852" lon="2.6092">
        <ele>158.7547607</ele>
        <time>2011-04-10T02:53:00Z</time>
      </trkpt>
      <trkpt lat="50.39852" lon="2.6092">
        <ele>158.2741699</ele>
        <time>2011-04-10T02:53:01Z</time>
      </trkpt>
      <trkpt lat="50.39853" lon="2.60919">
        <ele>157.7935791</ele>
        <time>2011-04-10T02:53:02Z</time>
      </trkpt>
      <trkpt lat="50.39843" lon="2.60912">
        <ele>161.638916</ele>
        <time>2011-04-10T02:58:48Z</time>
      </trkpt>
      <trkpt lat="50.39843" lon="2.60911">
        <ele>161.1582031</ele>
        <time>2011-04-10T02:58:49Z</time>
      </trkpt>
      <trkpt lat="50.39843" lon="2.60907">
        <ele>159.7161865</ele>
        <time>2011-04-10T02:58:55Z</time>
      </trkpt>
      <trkpt lat="50.39845" lon="2.609">
        <ele>159.2354736</ele>
        <time>2011-04-10T02:59:01Z</time>
      </trkpt>
      <trkpt lat="50.3985" lon="2.60901">
        <ele>160.1968994</ele>
        <time>2011-04-10T02:59:08Z</time>
      </trkpt>
      <trkpt lat="50.39856" lon="2.60904">
        <ele>160.1968994</ele>
        <time>2011-04-10T02:59:14Z</time>
      </trkpt>
      <trkpt lat="50.39859" lon="2.60905">
        <ele>159.7161865</ele>
        <time>2011-04-10T02:59:17Z</time>
      </trkpt>
      <trkpt lat="50.39866" lon="2.60905">
        <ele>159.7161865</ele>
        <time>2011-04-10T02:59:23Z</time>
      </trkpt>
      <trkpt lat="50.39873" lon="2.60905">
        <ele>160.1968994</ele>
        <time>2011-04-10T02:59:28Z</time>
      </trkpt>
      <trkpt lat="50.39883" lon="2.609">
        <ele>160.1968994</ele>
        <time>2011-04-10T02:59:37Z</time>
      </trkpt>
      <trkpt lat="50.39885" lon="2.60899">
        <ele>160.1968994</ele>
        <time>2011-04-10T02:59:39Z</time>
      </trkpt>
      <trkpt lat="50.39889" lon="2.60897">
        <ele>161.1582031</ele>
        <time>2011-04-10T02:59:44Z</time>
      </trkpt>
      <trkpt lat="50.39893" lon="2.60895">
        <ele>161.638916</ele>
        <time>2011-04-10T02:59:47Z</time>
      </trkpt>
      <trkpt lat="50.39902" lon="2.60891">
        <ele>163.0808105</ele>
        <time>2011-04-10T02:59:54Z</time>
      </trkpt>
      <trkpt lat="50.39913" lon="2.60889">
        <ele>163.0808105</ele>
        <time>2011-04-10T03:00:02Z</time>
      </trkpt>
      <trkpt lat="50.39914" lon="2.60888">
        <ele>163.0808105</ele>
        <time>2011-04-10T03:00:04Z</time>
      </trkpt>
      <trkpt lat="50.39925" lon="2.60888">
        <ele>165.003418</ele>
        <time>2011-04-10T03:00:13Z</time>
      </trkpt>
      <trkpt lat="50.39932" lon="2.60888">
        <ele>164.5227051</ele>
        <time>2011-04-10T03:00:19Z</time>
      </trkpt>
      <trkpt lat="50.39936" lon="2.60889">
        <ele>164.0421143</ele>
        <time>2011-04-10T03:00:21Z</time>
      </trkpt>
      <trkpt lat="50.39942" lon="2.60889">
        <ele>164.5227051</ele>
        <time>2011-04-10T03:00:26Z</time>
      </trkpt>
      <trkpt lat="50.3995" lon="2.60891">
        <ele>165.003418</ele>
        <time>2011-04-10T03:00:32Z</time>
      </trkpt>
      <trkpt lat="50.39956" lon="2.60893">
        <ele>165.4841309</ele>
        <time>2011-04-10T03:00:37Z</time>
      </trkpt>
      <trkpt lat="50.39961" lon="2.60894">
        <ele>165.9647217</ele>
        <time>2011-04-10T03:00:41Z</time>
      </trkpt>
      <trkpt lat="50.39963" lon="2.60895">
        <ele>166.9260254</ele>
        <time>2011-04-10T03:00:43Z</time>
      </trkpt>
      <trkpt lat="50.39965" lon="2.60897">
        <ele>167.4067383</ele>
        <time>2011-04-10T03:00:45Z</time>
      </trkpt>
      <trkpt lat="50.3997" lon="2.60899">
        <ele>167.8873291</ele>
        <time>2011-04-10T03:00:50Z</time>
      </trkpt>
      <trkpt lat="50.39974" lon="2.60902">
        <ele>167.4067383</ele>
        <time>2011-04-10T03:00:53Z</time>
      </trkpt>
      <trkpt lat="50.39981" lon="2.60906">
        <ele>165.9647217</ele>
        <time>2011-04-10T03:00:59Z</time>
      </trkpt>
      <trkpt lat="50.39986" lon="2.60912">
        <ele>165.003418</ele>
        <time>2011-04-10T03:01:05Z</time>
      </trkpt>
      <trkpt lat="50.39993" lon="2.60915">
        <ele>165.003418</ele>
        <time>2011-04-10T03:01:11Z</time>
      </trkpt>
      <trkpt lat="50.40004" lon="2.60923">
        <ele>165.4841309</ele>
        <time>2011-04-10T03:01:20Z</time>
      </trkpt>
      <trkpt lat="50.40009" lon="2.60928">
        <ele>165.003418</ele>
        <time>2011-04-10T03:01:25Z</time>
      </trkpt>
      <trkpt lat="50.40018" lon="2.60933">
        <ele>166.9260254</ele>
        <time>2011-04-10T03:01:32Z</time>
      </trkpt>
      <trkpt lat="50.40024" lon="2.60939">
        <ele>166.9260254</ele>
        <time>2011-04-10T03:01:37Z</time>
      </trkpt>
      <trkpt lat="50.4003" lon="2.60947">
        <ele>165.4841309</ele>
        <time>2011-04-10T03:01:45Z</time>
      </trkpt>
      <trkpt lat="50.40038" lon="2.60954">
        <ele>163.5615234</ele>
        <time>2011-04-10T03:01:52Z</time>
      </trkpt>
      <trkpt lat="50.40044" lon="2.60961">
        <ele>163.5615234</ele>
        <time>2011-04-10T03:01:59Z</time>
      </trkpt>
      <trkpt lat="50.4005" lon="2.60967">
        <ele>164.5227051</ele>
        <time>2011-04-10T03:02:05Z</time>
      </trkpt>
      <trkpt lat="50.40055" lon="2.60973">
        <ele>164.0421143</ele>
        <time>2011-04-10T03:02:10Z</time>
      </trkpt>
      <trkpt lat="50.40064" lon="2.6098">
        <ele>164.5227051</ele>
        <time>2011-04-10T03:02:17Z</time>
      </trkpt>
      <trkpt lat="50.40072" lon="2.60988">
        <ele>165.4841309</ele>
        <time>2011-04-10T03:02:25Z</time>
      </trkpt>
      <trkpt lat="50.40076" lon="2.60993">
        <ele>165.4841309</ele>
        <time>2011-04-10T03:02:30Z</time>
      </trkpt>
      <trkpt lat="50.40083" lon="2.61003">
        <ele>165.003418</ele>
        <time>2011-04-10T03:02:38Z</time>
      </trkpt>
      <trkpt lat="50.40083" lon="2.61004">
        <ele>165.003418</ele>
        <time>2011-04-10T03:02:39Z</time>
      </trkpt>
      <trkpt lat="50.40091" lon="2.61012">
        <ele>166.4453125</ele>
        <time>2011-04-10T03:02:45Z</time>
      </trkpt>
      <trkpt lat="50.401" lon="2.61022">
        <ele>167.4067383</ele>
        <time>2011-04-10T03:02:53Z</time>
      </trkpt>
      <trkpt lat="50.40108" lon="2.61032">
        <ele>169.3294678</ele>
        <time>2011-04-10T03:03:00Z</time>
      </trkpt>
      <trkpt lat="50.40109" lon="2.61034">
        <ele>168.8487549</ele>
        <time>2011-04-10T03:03:02Z</time>
      </trkpt>
      <trkpt lat="50.40111" lon="2.6104">
        <ele>168.8487549</ele>
        <time>2011-04-10T03:03:06Z</time>
      </trkpt>
      <trkpt lat="50.4012" lon="2.61052">
        <ele>168.8487549</ele>
        <time>2011-04-10T03:03:14Z</time>
      </trkpt>
      <trkpt lat="50.4013" lon="2.61067">
        <ele>169.8100586</ele>
        <time>2011-04-10T03:03:24Z</time>
      </trkpt>
      <trkpt lat="50.40136" lon="2.61076">
        <ele>168.8487549</ele>
        <time>2011-04-10T03:03:29Z</time>
      </trkpt>
      <trkpt lat="50.40139" lon="2.61081">
        <ele>168.368042</ele>
        <time>2011-04-10T03:03:32Z</time>
      </trkpt>
      <trkpt lat="50.40147" lon="2.61089">
        <ele>166.9260254</ele>
        <time>2011-04-10T03:03:38Z</time>
      </trkpt>
      <trkpt lat="50.40149" lon="2.61091">
        <ele>165.4841309</ele>
        <time>2011-04-10T03:03:40Z</time>
      </trkpt>
      <trkpt lat="50.40155" lon="2.61097">
        <ele>165.4841309</ele>
        <time>2011-04-10T03:03:44Z</time>
      </trkpt>
      <trkpt lat="50.4016" lon="2.61101">
        <ele>163.5615234</ele>
        <time>2011-04-10T03:03:48Z</time>
      </trkpt>
      <trkpt lat="50.40162" lon="2.61102">
        <ele>163.0808105</ele>
        <time>2011-04-10T03:03:49Z</time>
      </trkpt>
      <trkpt lat="50.40164" lon="2.61105">
        <ele>162.1195068</ele>
        <time>2011-04-10T03:03:51Z</time>
      </trkpt>
      <trkpt lat="50.40164" lon="2.61113">
        <ele>161.1582031</ele>
        <time>2011-04-10T03:03:55Z</time>
      </trkpt>
      <trkpt lat="50.4017" lon="2.61123">
        <ele>162.6000977</ele>
        <time>2011-04-10T03:04:02Z</time>
      </trkpt>
      <trkpt lat="50.40173" lon="2.61132">
        <ele>163.5615234</ele>
        <time>2011-04-10T03:04:06Z</time>
      </trkpt>
      <trkpt lat="50.40176" lon="2.61136">
        <ele>164.0421143</ele>
        <time>2011-04-10T03:04:09Z</time>
      </trkpt>
      <trkpt lat="50.40179" lon="2.61144">
        <ele>164.0421143</ele>
        <time>2011-04-10T03:04:13Z</time>
      </trkpt>
      <trkpt lat="50.40183" lon="2.61148">
        <ele>163.0808105</ele>
        <time>2011-04-10T03:04:16Z</time>
      </trkpt>
      <trkpt lat="50.40186" lon="2.61151">
        <ele>161.638916</ele>
        <time>2011-04-10T03:04:19Z</time>
      </trkpt>
      <trkpt lat="50.4019" lon="2.61156">
        <ele>159.2354736</ele>
        <time>2011-04-10T03:04:23Z</time>
      </trkpt>
      <trkpt lat="50.40192" lon="2.61159">
        <ele>158.2741699</ele>
        <time>2011-04-10T03:04:25Z</time>
      </trkpt>
      <trkpt lat="50.40194" lon="2.61167">
        <ele>157.7935791</ele>
        <time>2011-04-10T03:04:30Z</time>
      </trkpt>
      <trkpt lat="50.40201" lon="2.6117">
        <ele>154.9095459</ele>
        <time>2011-04-10T03:04:35Z</time>
      </trkpt>
      <trkpt lat="50.40202" lon="2.61171">
        <ele>152.5063477</ele>
        <time>2011-04-10T03:04:37Z</time>
      </trkpt>
      <trkpt lat="50.40205" lon="2.61177">
        <ele>151.064209</ele>
        <time>2011-04-10T03:04:42Z</time>
      </trkpt>
      <trkpt lat="50.40205" lon="2.61185">
        <ele>151.5449219</ele>
        <time>2011-04-10T03:04:45Z</time>
      </trkpt>
      <trkpt lat="50.40208" lon="2.61193">
        <ele>152.5063477</ele>
        <time>2011-04-10T03:04:49Z</time>
      </trkpt>
      <trkpt lat="50.40212" lon="2.61202">
        <ele>153.4676514</ele>
        <time>2011-04-10T03:04:53Z</time>
      </trkpt>
      <trkpt lat="50.40214" lon="2.61209">
        <ele>154.4289551</ele>
        <time>2011-04-10T03:04:56Z</time>
      </trkpt>
      <trkpt lat="50.40219" lon="2.61214">
        <ele>154.9095459</ele>
        <time>2011-04-10T03:04:59Z</time>
      </trkpt>
      <trkpt lat="50.40223" lon="2.61228">
        <ele>156.8321533</ele>
        <time>2011-04-10T03:05:05Z</time>
      </trkpt>
      <trkpt lat="50.40224" lon="2.61231">
        <ele>156.3515625</ele>
        <time>2011-04-10T03:05:07Z</time>
      </trkpt>
      <trkpt lat="50.40228" lon="2.61243">
        <ele>155.8709717</ele>
        <time>2011-04-10T03:05:13Z</time>
      </trkpt>
      <trkpt lat="50.40229" lon="2.61252">
        <ele>154.9095459</ele>
        <time>2011-04-10T03:05:18Z</time>
      </trkpt>
      <trkpt lat="50.40232" lon="2.61262">
        <ele>154.4289551</ele>
        <time>2011-04-10T03:05:23Z</time>
      </trkpt>
      <trkpt lat="50.40236" lon="2.61277">
        <ele>155.3902588</ele>
        <time>2011-04-10T03:05:31Z</time>
      </trkpt>
      <trkpt lat="50.40238" lon="2.61288">
        <ele>157.3128662</ele>
        <time>2011-04-10T03:05:36Z</time>
      </trkpt>
      <trkpt lat="50.40236" lon="2.61295">
        <ele>158.7547607</ele>
        <time>2011-04-10T03:05:40Z</time>
      </trkpt>
      <trkpt lat="50.40232" lon="2.61299">
        <ele>159.2354736</ele>
        <time>2011-04-10T03:05:44Z</time>
      </trkpt>
      <trkpt lat="50.40224" lon="2.61304">
        <ele>159.7161865</ele>
        <time>2011-04-10T03:05:50Z</time>
      </trkpt>
      <trkpt lat="50.40215" lon="2.6131">
        <ele>162.6000977</ele>
        <time>2011-04-10T03:05:56Z</time>
      </trkpt>
      <trkpt lat="50.40202" lon="2.61318">
        <ele>163.5615234</ele>
        <time>2011-04-10T03:06:05Z</time>
      </trkpt>
      <trkpt lat="50.40193" lon="2.61322">
        <ele>163.0808105</ele>
        <time>2011-04-10T03:06:12Z</time>
      </trkpt>
      <trkpt lat="50.40187" lon="2.61323">
        <ele>163.5615234</ele>
        <time>2011-04-10T03:06:16Z</time>
      </trkpt>
      <trkpt lat="50.40179" lon="2.61327">
        <ele>163.0808105</ele>
        <time>2011-04-10T03:06:22Z</time>
      </trkpt>
      <trkpt lat="50.40178" lon="2.61328">
        <ele>163.0808105</ele>
        <time>2011-04-10T03:06:23Z</time>
      </trkpt>
      <trkpt lat="50.40172" lon="2.61329">
        <ele>163.0808105</ele>
        <time>2011-04-10T03:06:27Z</time>
      </trkpt>
      <trkpt lat="50.40164" lon="2.61331">
        <ele>160.1968994</ele>
        <time>2011-04-10T03:06:33Z</time>
      </trkpt>
      <trkpt lat="50.40155" lon="2.61335">
        <ele>155.8709717</ele>
        <time>2011-04-10T03:06:40Z</time>
      </trkpt>
      <trkpt lat="50.40145" lon="2.6134">
        <ele>156.3515625</ele>
        <time>2011-04-10T03:06:48Z</time>
      </trkpt>
      <trkpt lat="50.40135" lon="2.61345">
        <ele>155.8709717</ele>
        <time>2011-04-10T03:06:55Z</time>
      </trkpt>
      <trkpt lat="50.40127" lon="2.61351">
        <ele>156.8321533</ele>
        <time>2011-04-10T03:07:01Z</time>
      </trkpt>
      <trkpt lat="50.40117" lon="2.61358">
        <ele>156.8321533</ele>
        <time>2011-04-10T03:07:09Z</time>
      </trkpt>
      <trkpt lat="50.4011" lon="2.61362">
        <ele>158.2741699</ele>
        <time>2011-04-10T03:07:15Z</time>
      </trkpt>
      <trkpt lat="50.40099" lon="2.6137">
        <ele>160.1968994</ele>
        <time>2011-04-10T03:07:24Z</time>
      </trkpt>
      <trkpt lat="50.40088" lon="2.61376">
        <ele>161.638916</ele>
        <time>2011-04-10T03:07:33Z</time>
      </trkpt>
      <trkpt lat="50.40079" lon="2.61384">
        <ele>164.0421143</ele>
        <time>2011-04-10T03:07:40Z</time>
      </trkpt>
      <trkpt lat="50.40072" lon="2.6139">
        <ele>163.5615234</ele>
        <time>2011-04-10T03:07:45Z</time>
      </trkpt>
      <trkpt lat="50.40064" lon="2.61397">
        <ele>164.0421143</ele>
        <time>2011-04-10T03:07:52Z</time>
      </trkpt>
      <trkpt lat="50.40053" lon="2.61404">
        <ele>163.5615234</ele>
        <time>2011-04-10T03:08:01Z</time>
      </trkpt>
      <trkpt lat="50.40045" lon="2.6141">
        <ele>163.0808105</ele>
        <time>2011-04-10T03:08:08Z</time>
      </trkpt>
      <trkpt lat="50.40035" lon="2.61417">
        <ele>164.5227051</ele>
        <time>2011-04-10T03:08:16Z</time>
      </trkpt>
      <trkpt lat="50.40025" lon="2.61423">
        <ele>165.003418</ele>
        <time>2011-04-10T03:08:23Z</time>
      </trkpt>
      <trkpt lat="50.40015" lon="2.61429">
        <ele>165.4841309</ele>
        <time>2011-04-10T03:08:31Z</time>
      </trkpt>
      <trkpt lat="50.40011" lon="2.61432">
        <ele>165.4841309</ele>
        <time>2011-04-10T03:08:35Z</time>
      </trkpt>
      <trkpt lat="50.40003" lon="2.61436">
        <ele>166.4453125</ele>
        <time>2011-04-10T03:08:41Z</time>
      </trkpt>
      <trkpt lat="50.39995" lon="2.61441">
        <ele>166.4453125</ele>
        <time>2011-04-10T03:08:47Z</time>
      </trkpt>
      <trkpt lat="50.39988" lon="2.61445">
        <ele>166.9260254</ele>
        <time>2011-04-10T03:08:52Z</time>
      </trkpt>
      <trkpt lat="50.39987" lon="2.61446">
        <ele>166.9260254</ele>
        <time>2011-04-10T03:08:53Z</time>
      </trkpt>
      <trkpt lat="50.39979" lon="2.6145">
        <ele>165.003418</ele>
        <time>2011-04-10T03:08:59Z</time>
      </trkpt>
      <trkpt lat="50.3997" lon="2.61456">
        <ele>166.4453125</ele>
        <time>2011-04-10T03:09:06Z</time>
      </trkpt>
      <trkpt lat="50.39968" lon="2.61456">
        <ele>166.4453125</ele>
        <time>2011-04-10T03:09:07Z</time>
      </trkpt>
      <trkpt lat="50.39962" lon="2.61459">
        <ele>166.4453125</ele>
        <time>2011-04-10T03:09:12Z</time>
      </trkpt>
      <trkpt lat="50.39956" lon="2.61464">
        <ele>167.4067383</ele>
        <time>2011-04-10T03:09:17Z</time>
      </trkpt>
      <trkpt lat="50.39949" lon="2.61468">
        <ele>167.4067383</ele>
        <time>2011-04-10T03:09:22Z</time>
      </trkpt>
      <trkpt lat="50.39943" lon="2.61471">
        <ele>167.4067383</ele>
        <time>2011-04-10T03:09:27Z</time>
      </trkpt>
      <trkpt lat="50.39934" lon="2.61475">
        <ele>165.4841309</ele>
        <time>2011-04-10T03:09:35Z</time>
      </trkpt>
      <trkpt lat="50.39927" lon="2.61479">
        <ele>163.0808105</ele>
        <time>2011-04-10T03:09:40Z</time>
      </trkpt>
      <trkpt lat="50.39921" lon="2.61478">
        <ele>160.1968994</ele>
        <time>2011-04-10T03:09:46Z</time>
      </trkpt>
      <trkpt lat="50.39916" lon="2.61482">
        <ele>160.1968994</ele>
        <time>2011-04-10T03:09:50Z</time>
      </trkpt>
      <trkpt lat="50.39911" lon="2.61486">
        <ele>160.6774902</ele>
        <time>2011-04-10T03:09:53Z</time>
      </trkpt>
      <trkpt lat="50.399" lon="2.61492">
        <ele>162.6000977</ele>
        <time>2011-04-10T03:10:01Z</time>
      </trkpt>
      <trkpt lat="50.39894" lon="2.61496">
        <ele>162.6000977</ele>
        <time>2011-04-10T03:10:06Z</time>
      </trkpt>
      <trkpt lat="50.39887" lon="2.615">
        <ele>162.1195068</ele>
        <time>2011-04-10T03:10:12Z</time>
      </trkpt>
      <trkpt lat="50.39878" lon="2.61501">
        <ele>160.6774902</ele>
        <time>2011-04-10T03:10:19Z</time>
      </trkpt>
      <trkpt lat="50.39869" lon="2.61506">
        <ele>160.1968994</ele>
        <time>2011-04-10T03:10:25Z</time>
      </trkpt>
      <trkpt lat="50.39863" lon="2.6151">
        <ele>159.7161865</ele>
        <time>2011-04-10T03:10:30Z</time>
      </trkpt>
      <trkpt lat="50.39856" lon="2.61515">
        <ele>157.7935791</ele>
        <time>2011-04-10T03:10:36Z</time>
      </trkpt>
      <trkpt lat="50.39855" lon="2.61516">
        <ele>157.7935791</ele>
        <time>2011-04-10T03:10:37Z</time>
      </trkpt>
      <trkpt lat="50.39848" lon="2.61521">
        <ele>157.7935791</ele>
        <time>2011-04-10T03:10:42Z</time>
      </trkpt>
      <trkpt lat="50.39843" lon="2.6152">
        <ele>157.3128662</ele>
        <time>2011-04-10T03:10:46Z</time>
      </trkpt>
      <trkpt lat="50.39839" lon="2.61523">
        <ele>156.3515625</ele>
        <time>2011-04-10T03:10:49Z</time>
      </trkpt>
      <trkpt lat="50.39832" lon="2.61526">
        <ele>154.9095459</ele>
        <time>2011-04-10T03:10:55Z</time>
      </trkpt>
      <trkpt lat="50.39828" lon="2.6153">
        <ele>155.3902588</ele>
        <time>2011-04-10T03:10:59Z</time>
      </trkpt>
      <trkpt lat="50.39827" lon="2.61531">
        <ele>155.3902588</ele>
        <time>2011-04-10T03:11:00Z</time>
      </trkpt>
      <trkpt lat="50.39816" lon="2.61539">
        <ele>154.9095459</ele>
        <time>2011-04-10T03:11:08Z</time>
      </trkpt>
      <trkpt lat="50.39808" lon="2.61544">
        <ele>154.4289551</ele>
        <time>2011-04-10T03:11:14Z</time>
      </trkpt>
      <trkpt lat="50.39803" lon="2.61551">
        <ele>154.9095459</ele>
        <time>2011-04-10T03:11:19Z</time>
      </trkpt>
      <trkpt lat="50.39798" lon="2.61556">
        <ele>155.8709717</ele>
        <time>2011-04-10T03:11:24Z</time>
      </trkpt>
      <trkpt lat="50.39792" lon="2.6156">
        <ele>156.3515625</ele>
        <time>2011-04-10T03:11:29Z</time>
      </trkpt>
      <trkpt lat="50.39786" lon="2.61561">
        <ele>155.3902588</ele>
        <time>2011-04-10T03:11:33Z</time>
      </trkpt>
      <trkpt lat="50.39782" lon="2.61558">
        <ele>155.3902588</ele>
        <time>2011-04-10T03:11:37Z</time>
      </trkpt>
      <trkpt lat="50.39776" lon="2.61559">
        <ele>156.3515625</ele>
        <time>2011-04-10T03:11:42Z</time>
      </trkpt>
      <trkpt lat="50.39772" lon="2.6156">
        <ele>156.3515625</ele>
        <time>2011-04-10T03:11:45Z</time>
      </trkpt>
      <trkpt lat="50.39763" lon="2.61565">
        <ele>157.3128662</ele>
        <time>2011-04-10T03:11:51Z</time>
      </trkpt>
      <trkpt lat="50.39757" lon="2.61569">
        <ele>157.3128662</ele>
        <time>2011-04-10T03:11:56Z</time>
      </trkpt>
      <trkpt lat="50.39755" lon="2.6157">
        <ele>156.3515625</ele>
        <time>2011-04-10T03:11:58Z</time>
      </trkpt>
      <trkpt lat="50.39745" lon="2.61572">
        <ele>154.9095459</ele>
        <time>2011-04-10T03:12:06Z</time>
      </trkpt>
      <trkpt lat="50.39741" lon="2.61576">
        <ele>154.4289551</ele>
        <time>2011-04-10T03:12:09Z</time>
      </trkpt>
      <trkpt lat="50.39734" lon="2.61579">
        <ele>153.9483643</ele>
        <time>2011-04-10T03:12:15Z</time>
      </trkpt>
      <trkpt lat="50.39724" lon="2.61583">
        <ele>152.9869385</ele>
        <time>2011-04-10T03:12:22Z</time>
      </trkpt>
      <trkpt lat="50.39719" lon="2.61585">
        <ele>152.9869385</ele>
        <time>2011-04-10T03:12:26Z</time>
      </trkpt>
      <trkpt lat="50.39713" lon="2.61585">
        <ele>153.9483643</ele>
        <time>2011-04-10T03:12:31Z</time>
      </trkpt>
      <trkpt lat="50.39705" lon="2.61593">
        <ele>154.9095459</ele>
        <time>2011-04-10T03:12:36Z</time>
      </trkpt>
      <trkpt lat="50.39696" lon="2.61595">
        <ele>152.0257568</ele>
        <time>2011-04-10T03:12:43Z</time>
      </trkpt>
      <trkpt lat="50.39688" lon="2.61596">
        <ele>149.6223145</ele>
        <time>2011-04-10T03:12:49Z</time>
      </trkpt>
      <trkpt lat="50.39687" lon="2.61596">
        <ele>149.1416016</ele>
        <time>2011-04-10T03:12:51Z</time>
      </trkpt>
      <trkpt lat="50.39683" lon="2.61598">
        <ele>147.699707</ele>
        <time>2011-04-10T03:12:54Z</time>
      </trkpt>
      <trkpt lat="50.39677" lon="2.61599">
        <ele>145.7770996</ele>
        <time>2011-04-10T03:12:59Z</time>
      </trkpt>
      <trkpt lat="50.39672" lon="2.616">
        <ele>143.3736572</ele>
        <time>2011-04-10T03:13:04Z</time>
      </trkpt>
      <trkpt lat="50.3967" lon="2.616">
        <ele>141.4510498</ele>
        <time>2011-04-10T03:13:06Z</time>
      </trkpt>
      <trkpt lat="50.39667" lon="2.616">
        <ele>139.5284424</ele>
        <time>2011-04-10T03:13:09Z</time>
      </trkpt>
      <trkpt lat="50.39663" lon="2.61603">
        <ele>137.1252441</ele>
        <time>2011-04-10T03:13:12Z</time>
      </trkpt>
      <trkpt lat="50.39658" lon="2.61603">
        <ele>136.1639404</ele>
        <time>2011-04-10T03:13:17Z</time>
      </trkpt>
      <trkpt lat="50.39655" lon="2.61606">
        <ele>140.4898682</ele>
        <time>2011-04-10T03:13:20Z</time>
      </trkpt>
      <trkpt lat="50.39653" lon="2.61607">
        <ele>143.3736572</ele>
        <time>2011-04-10T03:13:26Z</time>
      </trkpt>
      <trkpt lat="50.3965" lon="2.61617">
        <ele>152.0257568</ele>
        <time>2011-04-10T03:13:36Z</time>
      </trkpt>
      <trkpt lat="50.39649" lon="2.61618">
        <ele>153.4676514</ele>
        <time>2011-04-10T03:13:41Z</time>
      </trkpt>
      <trkpt lat="50.39644" lon="2.61621">
        <ele>152.9869385</ele>
        <time>2011-04-10T03:13:46Z</time>
      </trkpt>
      <trkpt lat="50.39636" lon="2.61625">
        <ele>152.9869385</ele>
        <time>2011-04-10T03:13:52Z</time>
      </trkpt>
      <trkpt lat="50.39628" lon="2.61629">
        <ele>152.9869385</ele>
        <time>2011-04-10T03:13:57Z</time>
      </trkpt>
      <trkpt lat="50.39623" lon="2.6163">
        <ele>151.5449219</ele>
        <time>2011-04-10T03:14:00Z</time>
      </trkpt>
      <trkpt lat="50.39616" lon="2.61629">
        <ele>145.7770996</ele>
        <time>2011-04-10T03:14:06Z</time>
      </trkpt>
      <trkpt lat="50.39608" lon="2.61632">
        <ele>140.0091553</ele>
        <time>2011-04-10T03:14:13Z</time>
      </trkpt>
      <trkpt lat="50.39601" lon="2.61634">
        <ele>136.1639404</ele>
        <time>2011-04-10T03:14:19Z</time>
      </trkpt>
      <trkpt lat="50.39594" lon="2.61635">
        <ele>135.6831055</ele>
        <time>2011-04-10T03:14:26Z</time>
      </trkpt>
      <trkpt lat="50.39587" lon="2.61636">
        <ele>136.1639404</ele>
        <time>2011-04-10T03:14:32Z</time>
      </trkpt>
      <trkpt lat="50.39578" lon="2.6164">
        <ele>134.2412109</ele>
        <time>2011-04-10T03:14:39Z</time>
      </trkpt>
      <trkpt lat="50.39569" lon="2.61644">
        <ele>132.3186035</ele>
        <time>2011-04-10T03:14:45Z</time>
      </trkpt>
      <trkpt lat="50.39563" lon="2.61645">
        <ele>131.8378906</ele>
        <time>2011-04-10T03:14:50Z</time>
      </trkpt>
      <trkpt lat="50.39559" lon="2.61645">
        <ele>131.8378906</ele>
        <time>2011-04-10T03:14:54Z</time>
      </trkpt>
      <trkpt lat="50.3955" lon="2.61647">
        <ele>130.3959961</ele>
        <time>2011-04-10T03:15:01Z</time>
      </trkpt>
      <trkpt lat="50.39542" lon="2.61651">
        <ele>132.3186035</ele>
        <time>2011-04-10T03:15:07Z</time>
      </trkpt>
      <trkpt lat="50.39534" lon="2.61656">
        <ele>134.7219238</ele>
        <time>2011-04-10T03:15:12Z</time>
      </trkpt>
      <trkpt lat="50.39527" lon="2.61663">
        <ele>137.605835</ele>
        <time>2011-04-10T03:15:17Z</time>
      </trkpt>
      <trkpt lat="50.39522" lon="2.61668">
        <ele>140.4898682</ele>
        <time>2011-04-10T03:15:21Z</time>
      </trkpt>
      <trkpt lat="50.39515" lon="2.61677">
        <ele>141.9317627</ele>
        <time>2011-04-10T03:15:26Z</time>
      </trkpt>
      <trkpt lat="50.39512" lon="2.61683">
        <ele>144.3352051</ele>
        <time>2011-04-10T03:15:30Z</time>
      </trkpt>
      <trkpt lat="50.3951" lon="2.61692">
        <ele>146.2578125</ele>
        <time>2011-04-10T03:15:33Z</time>
      </trkpt>
      <trkpt lat="50.39507" lon="2.61704">
        <ele>149.6223145</ele>
        <time>2011-04-10T03:15:38Z</time>
      </trkpt>
      <trkpt lat="50.39506" lon="2.61715">
        <ele>152.0257568</ele>
        <time>2011-04-10T03:15:43Z</time>
      </trkpt>
      <trkpt lat="50.39504" lon="2.61731">
        <ele>155.3902588</ele>
        <time>2011-04-10T03:15:52Z</time>
      </trkpt>
      <trkpt lat="50.39499" lon="2.61748">
        <ele>156.8321533</ele>
        <time>2011-04-10T03:16:01Z</time>
      </trkpt>
      <trkpt lat="50.39497" lon="2.61759">
        <ele>157.7935791</ele>
        <time>2011-04-10T03:16:07Z</time>
      </trkpt>
      <trkpt lat="50.39494" lon="2.61773">
        <ele>158.7547607</ele>
        <time>2011-04-10T03:16:14Z</time>
      </trkpt>
      <trkpt lat="50.39489" lon="2.61792">
        <ele>159.7161865</ele>
        <time>2011-04-10T03:16:24Z</time>
      </trkpt>
      <trkpt lat="50.39484" lon="2.61809">
        <ele>160.6774902</ele>
        <time>2011-04-10T03:16:33Z</time>
      </trkpt>
      <trkpt lat="50.3948" lon="2.61822">
        <ele>161.1582031</ele>
        <time>2011-04-10T03:16:40Z</time>
      </trkpt>
      <trkpt lat="50.39478" lon="2.61828">
        <ele>161.638916</ele>
        <time>2011-04-10T03:16:43Z</time>
      </trkpt>
      <trkpt lat="50.39475" lon="2.61838">
        <ele>162.1195068</ele>
        <time>2011-04-10T03:16:49Z</time>
      </trkpt>
      <trkpt lat="50.39472" lon="2.61852">
        <ele>161.638916</ele>
        <time>2011-04-10T03:16:57Z</time>
      </trkpt>
      <trkpt lat="50.39469" lon="2.61871">
        <ele>163.0808105</ele>
        <time>2011-04-10T03:17:07Z</time>
      </trkpt>
      <trkpt lat="50.39469" lon="2.61883">
        <ele>164.0421143</ele>
        <time>2011-04-10T03:17:13Z</time>
      </trkpt>
      <trkpt lat="50.39471" lon="2.61897">
        <ele>164.5227051</ele>
        <time>2011-04-10T03:17:20Z</time>
      </trkpt>
      <trkpt lat="50.39472" lon="2.61905">
        <ele>165.003418</ele>
        <time>2011-04-10T03:17:24Z</time>
      </trkpt>
      <trkpt lat="50.39477" lon="2.61919">
        <ele>164.5227051</ele>
        <time>2011-04-10T03:17:32Z</time>
      </trkpt>
      <trkpt lat="50.39481" lon="2.61928">
        <ele>164.0421143</ele>
        <time>2011-04-10T03:17:38Z</time>
      </trkpt>
      <trkpt lat="50.39484" lon="2.61932">
        <ele>165.4841309</ele>
        <time>2011-04-10T03:17:41Z</time>
      </trkpt>
      <trkpt lat="50.39489" lon="2.61942">
        <ele>165.4841309</ele>
        <time>2011-04-10T03:17:47Z</time>
      </trkpt>
      <trkpt lat="50.39492" lon="2.61948">
        <ele>165.003418</ele>
        <time>2011-04-10T03:17:51Z</time>
      </trkpt>
      <trkpt lat="50.39494" lon="2.61954">
        <ele>165.003418</ele>
        <time>2011-04-10T03:17:55Z</time>
      </trkpt>
      <trkpt lat="50.395" lon="2.6197">
        <ele>165.9647217</ele>
        <time>2011-04-10T03:18:04Z</time>
      </trkpt>
      <trkpt lat="50.39505" lon="2.61983">
        <ele>165.9647217</ele>
        <time>2011-04-10T03:18:10Z</time>
      </trkpt>
      <trkpt lat="50.39508" lon="2.61996">
        <ele>165.003418</ele>
        <time>2011-04-10T03:18:16Z</time>
      </trkpt>
      <trkpt lat="50.3951" lon="2.62002">
        <ele>165.4841309</ele>
        <time>2011-04-10T03:18:19Z</time>
      </trkpt>
      <trkpt lat="50.39514" lon="2.62011">
        <ele>166.4453125</ele>
        <time>2011-04-10T03:18:25Z</time>
      </trkpt>
      <trkpt lat="50.39519" lon="2.62021">
        <ele>168.8487549</ele>
        <time>2011-04-10T03:18:32Z</time>
      </trkpt>
      <trkpt lat="50.39521" lon="2.62033">
        <ele>168.8487549</ele>
        <time>2011-04-10T03:18:38Z</time>
      </trkpt>
      <trkpt lat="50.39521" lon="2.62036">
        <ele>167.8873291</ele>
        <time>2011-04-10T03:18:40Z</time>
      </trkpt>
      <trkpt lat="50.39522" lon="2.62047">
        <ele>165.4841309</ele>
        <time>2011-04-10T03:18:45Z</time>
      </trkpt>
      <trkpt lat="50.39523" lon="2.62051">
        <ele>165.003418</ele>
        <time>2011-04-10T03:18:48Z</time>
      </trkpt>
      <trkpt lat="50.39524" lon="2.62059">
        <ele>165.4841309</ele>
        <time>2011-04-10T03:18:53Z</time>
      </trkpt>
      <trkpt lat="50.39525" lon="2.62065">
        <ele>165.9647217</ele>
        <time>2011-04-10T03:18:56Z</time>
      </trkpt>
      <trkpt lat="50.39528" lon="2.62077">
        <ele>167.8873291</ele>
        <time>2011-04-10T03:19:02Z</time>
      </trkpt>
      <trkpt lat="50.3953" lon="2.62084">
        <ele>168.368042</ele>
        <time>2011-04-10T03:19:05Z</time>
      </trkpt>
      <trkpt lat="50.39534" lon="2.621">
        <ele>171.2520752</ele>
        <time>2011-04-10T03:19:11Z</time>
      </trkpt>
      <trkpt lat="50.39534" lon="2.62113">
        <ele>168.8487549</ele>
        <time>2011-04-10T03:19:16Z</time>
      </trkpt>
      <trkpt lat="50.39536" lon="2.62122">
        <ele>166.9260254</ele>
        <time>2011-04-10T03:19:21Z</time>
      </trkpt>
      <trkpt lat="50.39538" lon="2.62132">
        <ele>166.4453125</ele>
        <time>2011-04-10T03:19:25Z</time>
      </trkpt>
      <trkpt lat="50.39541" lon="2.62147">
        <ele>166.4453125</ele>
        <time>2011-04-10T03:19:31Z</time>
      </trkpt>
      <trkpt lat="50.39544" lon="2.62159">
        <ele>166.9260254</ele>
        <time>2011-04-10T03:19:36Z</time>
      </trkpt>
      <trkpt lat="50.39545" lon="2.62165">
        <ele>166.9260254</ele>
        <time>2011-04-10T03:19:38Z</time>
      </trkpt>
      <trkpt lat="50.39551" lon="2.62172">
        <ele>167.4067383</ele>
        <time>2011-04-10T03:19:43Z</time>
      </trkpt>
      <trkpt lat="50.39549" lon="2.6218">
        <ele>163.5615234</ele>
        <time>2011-04-10T03:19:49Z</time>
      </trkpt>
      <trkpt lat="50.3955" lon="2.62184">
        <ele>161.638916</ele>
        <time>2011-04-10T03:19:52Z</time>
      </trkpt>
      <trkpt lat="50.39556" lon="2.62194">
        <ele>159.7161865</ele>
        <time>2011-04-10T03:19:59Z</time>
      </trkpt>
      <trkpt lat="50.39557" lon="2.62201">
        <ele>160.6774902</ele>
        <time>2011-04-10T03:20:03Z</time>
      </trkpt>
      <trkpt lat="50.39561" lon="2.62209">
        <ele>162.1195068</ele>
        <time>2011-04-10T03:20:07Z</time>
      </trkpt>
      <trkpt lat="50.39559" lon="2.62218">
        <ele>162.1195068</ele>
        <time>2011-04-10T03:20:14Z</time>
      </trkpt>
      <trkpt lat="50.39558" lon="2.6222">
        <ele>160.6774902</ele>
        <time>2011-04-10T03:20:15Z</time>
      </trkpt>
      <trkpt lat="50.39559" lon="2.62224">
        <ele>161.638916</ele>
        <time>2011-04-10T03:20:17Z</time>
      </trkpt>
      <trkpt lat="50.39558" lon="2.62239">
        <ele>161.1582031</ele>
        <time>2011-04-10T03:20:25Z</time>
      </trkpt>
      <trkpt lat="50.39558" lon="2.62252">
        <ele>158.7547607</ele>
        <time>2011-04-10T03:20:32Z</time>
      </trkpt>
      <trkpt lat="50.39557" lon="2.62255">
        <ele>157.7935791</ele>
        <time>2011-04-10T03:20:34Z</time>
      </trkpt>
      <trkpt lat="50.39556" lon="2.62267">
        <ele>155.3902588</ele>
        <time>2011-04-10T03:20:40Z</time>
      </trkpt>
      <trkpt lat="50.39555" lon="2.62278">
        <ele>153.9483643</ele>
        <time>2011-04-10T03:20:46Z</time>
      </trkpt>
      <trkpt lat="50.39555" lon="2.6228">
        <ele>153.9483643</ele>
        <time>2011-04-10T03:20:47Z</time>
      </trkpt>
      <trkpt lat="50.39555" lon="2.62294">
        <ele>152.5063477</ele>
        <time>2011-04-10T03:20:55Z</time>
      </trkpt>
      <trkpt lat="50.39555" lon="2.62307">
        <ele>152.0257568</ele>
        <time>2011-04-10T03:21:01Z</time>
      </trkpt>
      <trkpt lat="50.39554" lon="2.62316">
        <ele>151.5449219</ele>
        <time>2011-04-10T03:21:05Z</time>
      </trkpt>
      <trkpt lat="50.39553" lon="2.6233">
        <ele>151.5449219</ele>
        <time>2011-04-10T03:21:12Z</time>
      </trkpt>
      <trkpt lat="50.39552" lon="2.62342">
        <ele>152.0257568</ele>
        <time>2011-04-10T03:21:19Z</time>
      </trkpt>
      <trkpt lat="50.39552" lon="2.62354">
        <ele>153.9483643</ele>
        <time>2011-04-10T03:21:25Z</time>
      </trkpt>
      <trkpt lat="50.39553" lon="2.62369">
        <ele>153.4676514</ele>
        <time>2011-04-10T03:21:32Z</time>
      </trkpt>
      <trkpt lat="50.39552" lon="2.62372">
        <ele>152.9869385</ele>
        <time>2011-04-10T03:21:33Z</time>
      </trkpt>
      <trkpt lat="50.39554" lon="2.62386">
        <ele>153.4676514</ele>
        <time>2011-04-10T03:21:39Z</time>
      </trkpt>
      <trkpt lat="50.39555" lon="2.62398">
        <ele>152.9869385</ele>
        <time>2011-04-10T03:21:44Z</time>
      </trkpt>
      <trkpt lat="50.39557" lon="2.62406">
        <ele>152.5063477</ele>
        <time>2011-04-10T03:21:48Z</time>
      </trkpt>
      <trkpt lat="50.39557" lon="2.62408">
        <ele>152.5063477</ele>
        <time>2011-04-10T03:21:50Z</time>
      </trkpt>
      <trkpt lat="50.39561" lon="2.62419">
        <ele>152.9869385</ele>
        <time>2011-04-10T03:21:57Z</time>
      </trkpt>
      <trkpt lat="50.39561" lon="2.62421">
        <ele>152.5063477</ele>
        <time>2011-04-10T03:21:58Z</time>
      </trkpt>
      <trkpt lat="50.39564" lon="2.62436">
        <ele>150.5836182</ele>
        <time>2011-04-10T03:22:06Z</time>
      </trkpt>
      <trkpt lat="50.39569" lon="2.62449">
        <ele>150.5836182</ele>
        <time>2011-04-10T03:22:14Z</time>
      </trkpt>
      <trkpt lat="50.39571" lon="2.62455">
        <ele>150.5836182</ele>
        <time>2011-04-10T03:22:17Z</time>
      </trkpt>
      <trkpt lat="50.39572" lon="2.62462">
        <ele>150.1030273</ele>
        <time>2011-04-10T03:22:21Z</time>
      </trkpt>
      <trkpt lat="50.39575" lon="2.62474">
        <ele>150.5836182</ele>
        <time>2011-04-10T03:22:27Z</time>
      </trkpt>
      <trkpt lat="50.39577" lon="2.62484">
        <ele>150.5836182</ele>
        <time>2011-04-10T03:22:32Z</time>
      </trkpt>
      <trkpt lat="50.39578" lon="2.6249">
        <ele>152.0257568</ele>
        <time>2011-04-10T03:22:35Z</time>
      </trkpt>
      <trkpt lat="50.39581" lon="2.625">
        <ele>152.9869385</ele>
        <time>2011-04-10T03:22:41Z</time>
      </trkpt>
      <trkpt lat="50.39581" lon="2.62502">
        <ele>152.5063477</ele>
        <time>2011-04-10T03:22:42Z</time>
      </trkpt>
      <trkpt lat="50.39582" lon="2.62516">
        <ele>150.5836182</ele>
        <time>2011-04-10T03:22:49Z</time>
      </trkpt>
      <trkpt lat="50.39583" lon="2.62518">
        <ele>150.5836182</ele>
        <time>2011-04-10T03:22:50Z</time>
      </trkpt>
      <trkpt lat="50.39583" lon="2.62535">
        <ele>149.6223145</ele>
        <time>2011-04-10T03:22:59Z</time>
      </trkpt>
      <trkpt lat="50.39583" lon="2.62545">
        <ele>151.5449219</ele>
        <time>2011-04-10T03:23:04Z</time>
      </trkpt>
      <trkpt lat="50.39582" lon="2.62558">
        <ele>153.4676514</ele>
        <time>2011-04-10T03:23:10Z</time>
      </trkpt>
      <trkpt lat="50.39585" lon="2.62568">
        <ele>154.4289551</ele>
        <time>2011-04-10T03:23:15Z</time>
      </trkpt>
      <trkpt lat="50.39585" lon="2.62573">
        <ele>154.4289551</ele>
        <time>2011-04-10T03:23:17Z</time>
      </trkpt>
      <trkpt lat="50.39584" lon="2.62582">
        <ele>153.4676514</ele>
        <time>2011-04-10T03:23:21Z</time>
      </trkpt>
      <trkpt lat="50.39585" lon="2.62586">
        <ele>153.4676514</ele>
        <time>2011-04-10T03:23:23Z</time>
      </trkpt>
      <trkpt lat="50.39588" lon="2.62596">
        <ele>152.9869385</ele>
        <time>2011-04-10T03:23:28Z</time>
      </trkpt>
      <trkpt lat="50.39591" lon="2.62612">
        <ele>152.5063477</ele>
        <time>2011-04-10T03:23:35Z</time>
      </trkpt>
      <trkpt lat="50.39592" lon="2.62623">
        <ele>151.5449219</ele>
        <time>2011-04-10T03:23:39Z</time>
      </trkpt>
      <trkpt lat="50.39593" lon="2.62635">
        <ele>150.1030273</ele>
        <time>2011-04-10T03:23:46Z</time>
      </trkpt>
      <trkpt lat="50.39594" lon="2.62647">
        <ele>149.6223145</ele>
        <time>2011-04-10T03:23:52Z</time>
      </trkpt>
      <trkpt lat="50.39595" lon="2.62657">
        <ele>149.6223145</ele>
        <time>2011-04-10T03:23:57Z</time>
      </trkpt>
      <trkpt lat="50.39596" lon="2.62667">
        <ele>149.1416016</ele>
        <time>2011-04-10T03:24:02Z</time>
      </trkpt>
      <trkpt lat="50.39598" lon="2.62678">
        <ele>150.1030273</ele>
        <time>2011-04-10T03:24:07Z</time>
      </trkpt>
      <trkpt lat="50.39599" lon="2.62688">
        <ele>149.6223145</ele>
        <time>2011-04-10T03:24:13Z</time>
      </trkpt>
      <trkpt lat="50.39599" lon="2.6269">
        <ele>149.6223145</ele>
        <time>2011-04-10T03:24:14Z</time>
      </trkpt>
      <trkpt lat="50.396" lon="2.62702">
        <ele>149.1416016</ele>
        <time>2011-04-10T03:24:19Z</time>
      </trkpt>
      <trkpt lat="50.39602" lon="2.6271">
        <ele>148.6610107</ele>
        <time>2011-04-10T03:24:22Z</time>
      </trkpt>
      <trkpt lat="50.39605" lon="2.62724">
        <ele>148.6610107</ele>
        <time>2011-04-10T03:24:27Z</time>
      </trkpt>
      <trkpt lat="50.39607" lon="2.62737">
        <ele>150.5836182</ele>
        <time>2011-04-10T03:24:32Z</time>
      </trkpt>
      <trkpt lat="50.39611" lon="2.62751">
        <ele>152.9869385</ele>
        <time>2011-04-10T03:24:38Z</time>
      </trkpt>
      <trkpt lat="50.39612" lon="2.62762">
        <ele>151.5449219</ele>
        <time>2011-04-10T03:24:43Z</time>
      </trkpt>
      <trkpt lat="50.39613" lon="2.62775">
        <ele>150.1030273</ele>
        <time>2011-04-10T03:24:48Z</time>
      </trkpt>
      <trkpt lat="50.39614" lon="2.62778">
        <ele>146.2578125</ele>
        <time>2011-04-10T03:24:52Z</time>
      </trkpt>
      <trkpt lat="50.39615" lon="2.62787">
        <ele>144.8157959</ele>
        <time>2011-04-10T03:24:56Z</time>
      </trkpt>
      <trkpt lat="50.39618" lon="2.62797">
        <ele>146.7384033</ele>
        <time>2011-04-10T03:25:02Z</time>
      </trkpt>
      <trkpt lat="50.39621" lon="2.62809">
        <ele>148.6610107</ele>
        <time>2011-04-10T03:25:07Z</time>
      </trkpt>
      <trkpt lat="50.39625" lon="2.62821">
        <ele>150.1030273</ele>
        <time>2011-04-10T03:25:12Z</time>
      </trkpt>
      <trkpt lat="50.39627" lon="2.62834">
        <ele>148.1804199</ele>
        <time>2011-04-10T03:25:17Z</time>
      </trkpt>
      <trkpt lat="50.39628" lon="2.62837">
        <ele>147.2189941</ele>
        <time>2011-04-10T03:25:20Z</time>
      </trkpt>
      <trkpt lat="50.3963" lon="2.62849">
        <ele>147.699707</ele>
        <time>2011-04-10T03:25:28Z</time>
      </trkpt>
      <trkpt lat="50.39633" lon="2.62857">
        <ele>148.6610107</ele>
        <time>2011-04-10T03:25:32Z</time>
      </trkpt>
      <trkpt lat="50.39633" lon="2.62868">
        <ele>147.2189941</ele>
        <time>2011-04-10T03:25:37Z</time>
      </trkpt>
      <trkpt lat="50.39635" lon="2.62877">
        <ele>147.2189941</ele>
        <time>2011-04-10T03:25:42Z</time>
      </trkpt>
      <trkpt lat="50.39637" lon="2.62887">
        <ele>146.2578125</ele>
        <time>2011-04-10T03:25:47Z</time>
      </trkpt>
      <trkpt lat="50.39638" lon="2.629">
        <ele>144.8157959</ele>
        <time>2011-04-10T03:25:53Z</time>
      </trkpt>
      <trkpt lat="50.39638" lon="2.62908">
        <ele>142.8930664</ele>
        <time>2011-04-10T03:25:57Z</time>
      </trkpt>
      <trkpt lat="50.3964" lon="2.62919">
        <ele>142.8930664</ele>
        <time>2011-04-10T03:26:04Z</time>
      </trkpt>
      <trkpt lat="50.39644" lon="2.62931">
        <ele>146.7384033</ele>
        <time>2011-04-10T03:26:10Z</time>
      </trkpt>
      <trkpt lat="50.39647" lon="2.62942">
        <ele>149.1416016</ele>
        <time>2011-04-10T03:26:16Z</time>
      </trkpt>
      <trkpt lat="50.39646" lon="2.62951">
        <ele>146.7384033</ele>
        <time>2011-04-10T03:26:22Z</time>
      </trkpt>
      <trkpt lat="50.39645" lon="2.6297">
        <ele>148.1804199</ele>
        <time>2011-04-10T03:26:32Z</time>
      </trkpt>
      <trkpt lat="50.39645" lon="2.6298">
        <ele>149.1416016</ele>
        <time>2011-04-10T03:26:36Z</time>
      </trkpt>
      <trkpt lat="50.39643" lon="2.62994">
        <ele>150.1030273</ele>
        <time>2011-04-10T03:26:42Z</time>
      </trkpt>
      <trkpt lat="50.39641" lon="2.63005">
        <ele>149.6223145</ele>
        <time>2011-04-10T03:26:48Z</time>
      </trkpt>
      <trkpt lat="50.39637" lon="2.63021">
        <ele>149.1416016</ele>
        <time>2011-04-10T03:26:57Z</time>
      </trkpt>
      <trkpt lat="50.39634" lon="2.63036">
        <ele>149.1416016</ele>
        <time>2011-04-10T03:27:05Z</time>
      </trkpt>
      <trkpt lat="50.3963" lon="2.63048">
        <ele>148.6610107</ele>
        <time>2011-04-10T03:27:12Z</time>
      </trkpt>
      <trkpt lat="50.39627" lon="2.63063">
        <ele>149.6223145</ele>
        <time>2011-04-10T03:27:20Z</time>
      </trkpt>
      <trkpt lat="50.39624" lon="2.63077">
        <ele>150.1030273</ele>
        <time>2011-04-10T03:27:27Z</time>
      </trkpt>
      <trkpt lat="50.39619" lon="2.63093">
        <ele>151.064209</ele>
        <time>2011-04-10T03:27:35Z</time>
      </trkpt>
      <trkpt lat="50.39614" lon="2.63107">
        <ele>152.9869385</ele>
        <time>2011-04-10T03:27:43Z</time>
      </trkpt>
      <trkpt lat="50.3961" lon="2.63123">
        <ele>154.4289551</ele>
        <time>2011-04-10T03:27:51Z</time>
      </trkpt>
      <trkpt lat="50.39606" lon="2.63135">
        <ele>154.4289551</ele>
        <time>2011-04-10T03:27:57Z</time>
      </trkpt>
      <trkpt lat="50.39602" lon="2.63148">
        <ele>154.9095459</ele>
        <time>2011-04-10T03:28:04Z</time>
      </trkpt>
      <trkpt lat="50.39598" lon="2.63161">
        <ele>155.3902588</ele>
        <time>2011-04-10T03:28:11Z</time>
      </trkpt>
      <trkpt lat="50.39593" lon="2.63174">
        <ele>155.3902588</ele>
        <time>2011-04-10T03:28:18Z</time>
      </trkpt>
      <trkpt lat="50.39589" lon="2.63186">
        <ele>155.8709717</ele>
        <time>2011-04-10T03:28:24Z</time>
      </trkpt>
      <trkpt lat="50.39584" lon="2.63196">
        <ele>155.8709717</ele>
        <time>2011-04-10T03:28:30Z</time>
      </trkpt>
      <trkpt lat="50.39582" lon="2.63202">
        <ele>155.8709717</ele>
        <time>2011-04-10T03:28:33Z</time>
      </trkpt>
      <trkpt lat="50.39577" lon="2.63213">
        <ele>155.3902588</ele>
        <time>2011-04-10T03:28:40Z</time>
      </trkpt>
      <trkpt lat="50.39573" lon="2.63224">
        <ele>154.9095459</ele>
        <time>2011-04-10T03:28:46Z</time>
      </trkpt>
      <trkpt lat="50.39568" lon="2.63236">
        <ele>154.9095459</ele>
        <time>2011-04-10T03:28:53Z</time>
      </trkpt>
      <trkpt lat="50.39563" lon="2.63249">
        <ele>154.9095459</ele>
        <time>2011-04-10T03:29:00Z</time>
      </trkpt>
      <trkpt lat="50.3956" lon="2.63257">
        <ele>154.4289551</ele>
        <time>2011-04-10T03:29:04Z</time>
      </trkpt>
      <trkpt lat="50.39556" lon="2.63267">
        <ele>153.9483643</ele>
        <time>2011-04-10T03:29:10Z</time>
      </trkpt>
      <trkpt lat="50.39549" lon="2.63278">
        <ele>151.5449219</ele>
        <time>2011-04-10T03:29:17Z</time>
      </trkpt>
      <trkpt lat="50.39543" lon="2.63292">
        <ele>151.5449219</ele>
        <time>2011-04-10T03:29:25Z</time>
      </trkpt>
      <trkpt lat="50.39538" lon="2.63304">
        <ele>152.0257568</ele>
        <time>2011-04-10T03:29:32Z</time>
      </trkpt>
      <trkpt lat="50.39532" lon="2.6332">
        <ele>152.0257568</ele>
        <time>2011-04-10T03:29:41Z</time>
      </trkpt>
      <trkpt lat="50.39528" lon="2.6333">
        <ele>152.0257568</ele>
        <time>2011-04-10T03:29:47Z</time>
      </trkpt>
      <trkpt lat="50.39523" lon="2.63342">
        <ele>152.9869385</ele>
        <time>2011-04-10T03:29:54Z</time>
      </trkpt>
      <trkpt lat="50.39519" lon="2.63351">
        <ele>154.4289551</ele>
        <time>2011-04-10T03:29:59Z</time>
      </trkpt>
      <trkpt lat="50.39515" lon="2.63359">
        <ele>155.3902588</ele>
        <time>2011-04-10T03:30:04Z</time>
      </trkpt>
      <trkpt lat="50.3951" lon="2.63369">
        <ele>155.3902588</ele>
        <time>2011-04-10T03:30:10Z</time>
      </trkpt>
      <trkpt lat="50.39508" lon="2.63372">
        <ele>155.8709717</ele>
        <time>2011-04-10T03:30:12Z</time>
      </trkpt>
      <trkpt lat="50.39503" lon="2.63383">
        <ele>155.3902588</ele>
        <time>2011-04-10T03:30:19Z</time>
      </trkpt>
      <trkpt lat="50.39497" lon="2.63395">
        <ele>155.8709717</ele>
        <time>2011-04-10T03:30:27Z</time>
      </trkpt>
      <trkpt lat="50.39489" lon="2.63409">
        <ele>155.8709717</ele>
        <time>2011-04-10T03:30:36Z</time>
      </trkpt>
      <trkpt lat="50.39488" lon="2.63411">
        <ele>155.8709717</ele>
        <time>2011-04-10T03:30:37Z</time>
      </trkpt>
      <trkpt lat="50.39483" lon="2.63421">
        <ele>154.9095459</ele>
        <time>2011-04-10T03:30:44Z</time>
      </trkpt>
      <trkpt lat="50.39482" lon="2.63424">
        <ele>154.4289551</ele>
        <time>2011-04-10T03:30:46Z</time>
      </trkpt>
      <trkpt lat="50.3948" lon="2.63424">
        <ele>154.4289551</ele>
        <time>2011-04-10T03:30:55Z</time>
      </trkpt>
      <trkpt lat="50.39479" lon="2.63426">
        <ele>155.3902588</ele>
        <time>2011-04-10T03:31:33Z</time>
      </trkpt>
      <trkpt lat="50.39479" lon="2.63427">
        <ele>154.9095459</ele>
        <time>2011-04-10T03:31:34Z</time>
      </trkpt>
      <trkpt lat="50.39479" lon="2.63428">
        <ele>155.3902588</ele>
        <time>2011-04-10T03:31:35Z</time>
      </trkpt>
      <trkpt lat="50.39476" lon="2.63434">
        <ele>156.3515625</ele>
        <time>2011-04-10T03:31:38Z</time>
      </trkpt>
      <trkpt lat="50.39471" lon="2.63444">
        <ele>155.3902588</ele>
        <time>2011-04-10T03:31:45Z</time>
      </trkpt>
      <trkpt lat="50.39471" lon="2.63446">
        <ele>155.3902588</ele>
        <time>2011-04-10T03:31:46Z</time>
      </trkpt>
      <trkpt lat="50.39466" lon="2.63458">
        <ele>154.9095459</ele>
        <time>2011-04-10T03:31:54Z</time>
      </trkpt>
      <trkpt lat="50.39465" lon="2.63459">
        <ele>154.9095459</ele>
        <time>2011-04-10T03:32:01Z</time>
      </trkpt>
      <trkpt lat="50.39465" lon="2.63461">
        <ele>153.9483643</ele>
        <time>2011-04-10T03:32:08Z</time>
      </trkpt>
      <trkpt lat="50.39463" lon="2.6347">
        <ele>153.4676514</ele>
        <time>2011-04-10T03:32:14Z</time>
      </trkpt>
      <trkpt lat="50.39461" lon="2.63479">
        <ele>153.4676514</ele>
        <time>2011-04-10T03:32:18Z</time>
      </trkpt>
      <trkpt lat="50.39458" lon="2.63491">
        <ele>153.9483643</ele>
        <time>2011-04-10T03:32:24Z</time>
      </trkpt>
      <trkpt lat="50.39458" lon="2.63493">
        <ele>153.9483643</ele>
        <time>2011-04-10T03:32:25Z</time>
      </trkpt>
      <trkpt lat="50.39454" lon="2.635">
        <ele>153.9483643</ele>
        <time>2011-04-10T03:32:31Z</time>
      </trkpt>
      <trkpt lat="50.39449" lon="2.63505">
        <ele>153.9483643</ele>
        <time>2011-04-10T03:32:36Z</time>
      </trkpt>
      <trkpt lat="50.39443" lon="2.63512">
        <ele>153.9483643</ele>
        <time>2011-04-10T03:32:43Z</time>
      </trkpt>
      <trkpt lat="50.39438" lon="2.63519">
        <ele>154.4289551</ele>
        <time>2011-04-10T03:32:49Z</time>
      </trkpt>
      <trkpt lat="50.39432" lon="2.63526">
        <ele>153.4676514</ele>
        <time>2011-04-10T03:32:55Z</time>
      </trkpt>
      <trkpt lat="50.39428" lon="2.6353">
        <ele>154.4289551</ele>
        <time>2011-04-10T03:32:59Z</time>
      </trkpt>
      <trkpt lat="50.39427" lon="2.63531">
        <ele>153.9483643</ele>
        <time>2011-04-10T03:33:00Z</time>
      </trkpt>
      <trkpt lat="50.3942" lon="2.63538">
        <ele>154.9095459</ele>
        <time>2011-04-10T03:33:06Z</time>
      </trkpt>
      <trkpt lat="50.39418" lon="2.63541">
        <ele>154.4289551</ele>
        <time>2011-04-10T03:33:08Z</time>
      </trkpt>
      <trkpt lat="50.39414" lon="2.63544">
        <ele>154.9095459</ele>
        <time>2011-04-10T03:33:12Z</time>
      </trkpt>
      <trkpt lat="50.39405" lon="2.63554">
        <ele>153.9483643</ele>
        <time>2011-04-10T03:33:21Z</time>
      </trkpt>
      <trkpt lat="50.39396" lon="2.63563">
        <ele>152.9869385</ele>
        <time>2011-04-10T03:33:29Z</time>
      </trkpt>
      <trkpt lat="50.39386" lon="2.6357">
        <ele>151.064209</ele>
        <time>2011-04-10T03:33:37Z</time>
      </trkpt>
      <trkpt lat="50.39377" lon="2.63572">
        <ele>150.1030273</ele>
        <time>2011-04-10T03:33:44Z</time>
      </trkpt>
      <trkpt lat="50.39368" lon="2.6357">
        <ele>148.1804199</ele>
        <time>2011-04-10T03:33:52Z</time>
      </trkpt>
      <trkpt lat="50.39361" lon="2.63568">
        <ele>147.699707</ele>
        <time>2011-04-10T03:33:59Z</time>
      </trkpt>
      <trkpt lat="50.39357" lon="2.63568">
        <ele>148.6610107</ele>
        <time>2011-04-10T03:34:03Z</time>
      </trkpt>
      <trkpt lat="50.3935" lon="2.63568">
        <ele>149.6223145</ele>
        <time>2011-04-10T03:34:10Z</time>
      </trkpt>
      <trkpt lat="50.39339" lon="2.63568">
        <ele>151.064209</ele>
        <time>2011-04-10T03:34:18Z</time>
      </trkpt>
      <trkpt lat="50.39334" lon="2.63568">
        <ele>151.5449219</ele>
        <time>2011-04-10T03:34:22Z</time>
      </trkpt>
      <trkpt lat="50.3933" lon="2.63567">
        <ele>152.0257568</ele>
        <time>2011-04-10T03:34:25Z</time>
      </trkpt>
      <trkpt lat="50.39325" lon="2.63568">
        <ele>153.4676514</ele>
        <time>2011-04-10T03:34:29Z</time>
      </trkpt>
      <trkpt lat="50.39311" lon="2.63568">
        <ele>155.3902588</ele>
        <time>2011-04-10T03:34:39Z</time>
      </trkpt>
      <trkpt lat="50.393" lon="2.63568">
        <ele>156.3515625</ele>
        <time>2011-04-10T03:34:47Z</time>
      </trkpt>
      <trkpt lat="50.39298" lon="2.63568">
        <ele>156.3515625</ele>
        <time>2011-04-10T03:34:49Z</time>
      </trkpt>
      <trkpt lat="50.39292" lon="2.63571">
        <ele>156.3515625</ele>
        <time>2011-04-10T03:34:54Z</time>
      </trkpt>
      <trkpt lat="50.39291" lon="2.63572">
        <ele>155.8709717</ele>
        <time>2011-04-10T03:34:55Z</time>
      </trkpt>
      <trkpt lat="50.39284" lon="2.63582">
        <ele>156.8321533</ele>
        <time>2011-04-10T03:35:02Z</time>
      </trkpt>
      <trkpt lat="50.39283" lon="2.63584">
        <ele>157.3128662</ele>
        <time>2011-04-10T03:35:03Z</time>
      </trkpt>
      <trkpt lat="50.39277" lon="2.63598">
        <ele>158.7547607</ele>
        <time>2011-04-10T03:35:10Z</time>
      </trkpt>
      <trkpt lat="50.39273" lon="2.63607">
        <ele>158.7547607</ele>
        <time>2011-04-10T03:35:15Z</time>
      </trkpt>
      <trkpt lat="50.39269" lon="2.63618">
        <ele>160.1968994</ele>
        <time>2011-04-10T03:35:21Z</time>
      </trkpt>
      <trkpt lat="50.39265" lon="2.63629">
        <ele>162.6000977</ele>
        <time>2011-04-10T03:35:27Z</time>
      </trkpt>
      <trkpt lat="50.39258" lon="2.63643">
        <ele>163.0808105</ele>
        <time>2011-04-10T03:35:33Z</time>
      </trkpt>
      <trkpt lat="50.39256" lon="2.63649">
        <ele>163.0808105</ele>
        <time>2011-04-10T03:35:36Z</time>
      </trkpt>
      <trkpt lat="50.39255" lon="2.63649">
        <ele>162.6000977</ele>
        <time>2011-04-10T03:35:42Z</time>
      </trkpt>
      <trkpt lat="50.39253" lon="2.63658">
        <ele>163.0808105</ele>
        <time>2011-04-10T03:35:49Z</time>
      </trkpt>
      <trkpt lat="50.39251" lon="2.63666">
        <ele>163.0808105</ele>
        <time>2011-04-10T03:35:54Z</time>
      </trkpt>
      <trkpt lat="50.39249" lon="2.63672">
        <ele>163.5615234</ele>
        <time>2011-04-10T03:35:58Z</time>
      </trkpt>
      <trkpt lat="50.39243" lon="2.63681">
        <ele>164.5227051</ele>
        <time>2011-04-10T03:36:05Z</time>
      </trkpt>
      <trkpt lat="50.39241" lon="2.63689">
        <ele>165.003418</ele>
        <time>2011-04-10T03:36:10Z</time>
      </trkpt>
      <trkpt lat="50.39237" lon="2.63696">
        <ele>164.5227051</ele>
        <time>2011-04-10T03:36:13Z</time>
      </trkpt>
      <trkpt lat="50.39235" lon="2.637">
        <ele>163.5615234</ele>
        <time>2011-04-10T03:36:16Z</time>
      </trkpt>
      <trkpt lat="50.39231" lon="2.63708">
        <ele>163.5615234</ele>
        <time>2011-04-10T03:36:21Z</time>
      </trkpt>
      <trkpt lat="50.39226" lon="2.63716">
        <ele>164.0421143</ele>
        <time>2011-04-10T03:36:28Z</time>
      </trkpt>
      <trkpt lat="50.39221" lon="2.63723">
        <ele>164.0421143</ele>
        <time>2011-04-10T03:36:32Z</time>
      </trkpt>
      <trkpt lat="50.39216" lon="2.6373">
        <ele>164.0421143</ele>
        <time>2011-04-10T03:36:37Z</time>
      </trkpt>
      <trkpt lat="50.39211" lon="2.63734">
        <ele>163.5615234</ele>
        <time>2011-04-10T03:36:41Z</time>
      </trkpt>
      <trkpt lat="50.39208" lon="2.63737">
        <ele>163.0808105</ele>
        <time>2011-04-10T03:36:44Z</time>
      </trkpt>
      <trkpt lat="50.39201" lon="2.63743">
        <ele>162.6000977</ele>
        <time>2011-04-10T03:36:50Z</time>
      </trkpt>
      <trkpt lat="50.39198" lon="2.63746">
        <ele>162.6000977</ele>
        <time>2011-04-10T03:36:53Z</time>
      </trkpt>
      <trkpt lat="50.39196" lon="2.63747">
        <ele>162.6000977</ele>
        <time>2011-04-10T03:36:56Z</time>
      </trkpt>
      <trkpt lat="50.3919" lon="2.6375">
        <ele>161.638916</ele>
        <time>2011-04-10T03:37:01Z</time>
      </trkpt>
      <trkpt lat="50.39184" lon="2.63753">
        <ele>160.1968994</ele>
        <time>2011-04-10T03:37:06Z</time>
      </trkpt>
      <trkpt lat="50.39183" lon="2.63753">
        <ele>160.1968994</ele>
        <time>2011-04-10T03:37:07Z</time>
      </trkpt>
      <trkpt lat="50.39179" lon="2.63756">
        <ele>159.7161865</ele>
        <time>2011-04-10T03:37:11Z</time>
      </trkpt>
      <trkpt lat="50.39172" lon="2.63758">
        <ele>159.7161865</ele>
        <time>2011-04-10T03:37:17Z</time>
      </trkpt>
      <trkpt lat="50.39171" lon="2.63759">
        <ele>159.7161865</ele>
        <time>2011-04-10T03:37:18Z</time>
      </trkpt>
      <trkpt lat="50.39168" lon="2.63763">
        <ele>160.6774902</ele>
        <time>2011-04-10T03:37:22Z</time>
      </trkpt>
      <trkpt lat="50.39161" lon="2.63773">
        <ele>161.638916</ele>
        <time>2011-04-10T03:37:29Z</time>
      </trkpt>
      <trkpt lat="50.39155" lon="2.63783">
        <ele>162.6000977</ele>
        <time>2011-04-10T03:37:36Z</time>
      </trkpt>
      <trkpt lat="50.39148" lon="2.63793">
        <ele>162.6000977</ele>
        <time>2011-04-10T03:37:43Z</time>
      </trkpt>
      <trkpt lat="50.39141" lon="2.63805">
        <ele>163.0808105</ele>
        <time>2011-04-10T03:37:51Z</time>
      </trkpt>
      <trkpt lat="50.39136" lon="2.6381">
        <ele>162.6000977</ele>
        <time>2011-04-10T03:37:56Z</time>
      </trkpt>
      <trkpt lat="50.39135" lon="2.63813">
        <ele>162.6000977</ele>
        <time>2011-04-10T03:37:58Z</time>
      </trkpt>
      <trkpt lat="50.39129" lon="2.63817">
        <ele>163.0808105</ele>
        <time>2011-04-10T03:38:03Z</time>
      </trkpt>
      <trkpt lat="50.39124" lon="2.63817">
        <ele>162.6000977</ele>
        <time>2011-04-10T03:38:07Z</time>
      </trkpt>
      <trkpt lat="50.39114" lon="2.63815">
        <ele>159.2354736</ele>
        <time>2011-04-10T03:38:14Z</time>
      </trkpt>
      <trkpt lat="50.39107" lon="2.63813">
        <ele>159.2354736</ele>
        <time>2011-04-10T03:38:20Z</time>
      </trkpt>
      <trkpt lat="50.39103" lon="2.6381">
        <ele>158.2741699</ele>
        <time>2011-04-10T03:38:25Z</time>
      </trkpt>
      <trkpt lat="50.391" lon="2.63809">
        <ele>157.7935791</ele>
        <time>2011-04-10T03:38:28Z</time>
      </trkpt>
      <trkpt lat="50.39093" lon="2.63803">
        <ele>156.3515625</ele>
        <time>2011-04-10T03:38:34Z</time>
      </trkpt>
      <trkpt lat="50.39086" lon="2.63797">
        <ele>155.8709717</ele>
        <time>2011-04-10T03:38:40Z</time>
      </trkpt>
      <trkpt lat="50.39085" lon="2.63795">
        <ele>156.3515625</ele>
        <time>2011-04-10T03:38:42Z</time>
      </trkpt>
      <trkpt lat="50.39079" lon="2.63787">
        <ele>155.8709717</ele>
        <time>2011-04-10T03:38:48Z</time>
      </trkpt>
      <trkpt lat="50.39079" lon="2.63785">
        <ele>155.3902588</ele>
        <time>2011-04-10T03:38:49Z</time>
      </trkpt>
      <trkpt lat="50.39074" lon="2.63776">
        <ele>156.3515625</ele>
        <time>2011-04-10T03:38:53Z</time>
      </trkpt>
      <trkpt lat="50.39065" lon="2.63768">
        <ele>155.3902588</ele>
        <time>2011-04-10T03:39:00Z</time>
      </trkpt>
      <trkpt lat="50.39064" lon="2.63766">
        <ele>155.3902588</ele>
        <time>2011-04-10T03:39:02Z</time>
      </trkpt>
      <trkpt lat="50.39062" lon="2.63763">
        <ele>154.4289551</ele>
        <time>2011-04-10T03:39:05Z</time>
      </trkpt>
      <trkpt lat="50.39058" lon="2.63752">
        <ele>154.4289551</ele>
        <time>2011-04-10T03:39:11Z</time>
      </trkpt>
      <trkpt lat="50.39057" lon="2.6375">
        <ele>153.9483643</ele>
        <time>2011-04-10T03:39:13Z</time>
      </trkpt>
      <trkpt lat="50.39053" lon="2.63743">
        <ele>154.4289551</ele>
        <time>2011-04-10T03:39:17Z</time>
      </trkpt>
      <trkpt lat="50.39046" lon="2.6373">
        <ele>154.4289551</ele>
        <time>2011-04-10T03:39:23Z</time>
      </trkpt>
      <trkpt lat="50.39041" lon="2.63721">
        <ele>154.4289551</ele>
        <time>2011-04-10T03:39:29Z</time>
      </trkpt>
      <trkpt lat="50.39036" lon="2.63711">
        <ele>152.5063477</ele>
        <time>2011-04-10T03:39:36Z</time>
      </trkpt>
      <trkpt lat="50.3903" lon="2.63706">
        <ele>151.5449219</ele>
        <time>2011-04-10T03:39:42Z</time>
      </trkpt>
      <trkpt lat="50.3902" lon="2.63698">
        <ele>152.5063477</ele>
        <time>2011-04-10T03:39:49Z</time>
      </trkpt>
      <trkpt lat="50.39019" lon="2.63696">
        <ele>152.5063477</ele>
        <time>2011-04-10T03:39:50Z</time>
      </trkpt>
      <trkpt lat="50.39013" lon="2.63688">
        <ele>153.9483643</ele>
        <time>2011-04-10T03:39:55Z</time>
      </trkpt>
      <trkpt lat="50.39008" lon="2.63683">
        <ele>153.9483643</ele>
        <time>2011-04-10T03:40:00Z</time>
      </trkpt>
      <trkpt lat="50.39004" lon="2.6368">
        <ele>153.9483643</ele>
        <time>2011-04-10T03:40:03Z</time>
      </trkpt>
      <trkpt lat="50.38992" lon="2.63673">
        <ele>154.9095459</ele>
        <time>2011-04-10T03:40:12Z</time>
      </trkpt>
      <trkpt lat="50.38983" lon="2.63667">
        <ele>154.9095459</ele>
        <time>2011-04-10T03:40:19Z</time>
      </trkpt>
      <trkpt lat="50.38982" lon="2.63666">
        <ele>154.9095459</ele>
        <time>2011-04-10T03:40:20Z</time>
      </trkpt>
      <trkpt lat="50.38977" lon="2.63664">
        <ele>154.9095459</ele>
        <time>2011-04-10T03:40:24Z</time>
      </trkpt>
      <trkpt lat="50.38967" lon="2.6366">
        <ele>154.4289551</ele>
        <time>2011-04-10T03:40:32Z</time>
      </trkpt>
      <trkpt lat="50.38959" lon="2.63654">
        <ele>153.9483643</ele>
        <time>2011-04-10T03:40:38Z</time>
      </trkpt>
      <trkpt lat="50.38953" lon="2.63652">
        <ele>152.9869385</ele>
        <time>2011-04-10T03:40:43Z</time>
      </trkpt>
      <trkpt lat="50.38949" lon="2.63649">
        <ele>152.9869385</ele>
        <time>2011-04-10T03:40:47Z</time>
      </trkpt>
      <trkpt lat="50.38942" lon="2.63645">
        <ele>152.0257568</ele>
        <time>2011-04-10T03:40:53Z</time>
      </trkpt>
      <trkpt lat="50.38939" lon="2.63642">
        <ele>151.5449219</ele>
        <time>2011-04-10T03:40:56Z</time>
      </trkpt>
      <trkpt lat="50.38934" lon="2.6364">
        <ele>151.5449219</ele>
        <time>2011-04-10T03:41:00Z</time>
      </trkpt>
      <trkpt lat="50.38928" lon="2.63635">
        <ele>151.064209</ele>
        <time>2011-04-10T03:41:05Z</time>
      </trkpt>
      <trkpt lat="50.38921" lon="2.63628">
        <ele>150.5836182</ele>
        <time>2011-04-10T03:41:11Z</time>
      </trkpt>
      <trkpt lat="50.38913" lon="2.63622">
        <ele>149.6223145</ele>
        <time>2011-04-10T03:41:19Z</time>
      </trkpt>
      <trkpt lat="50.38904" lon="2.63616">
        <ele>149.1416016</ele>
        <time>2011-04-10T03:41:26Z</time>
      </trkpt>
      <trkpt lat="50.38899" lon="2.63612">
        <ele>149.1416016</ele>
        <time>2011-04-10T03:41:31Z</time>
      </trkpt>
      <trkpt lat="50.38891" lon="2.63606">
        <ele>148.6610107</ele>
        <time>2011-04-10T03:41:38Z</time>
      </trkpt>
      <trkpt lat="50.38883" lon="2.63599">
        <ele>149.1416016</ele>
        <time>2011-04-10T03:41:45Z</time>
      </trkpt>
      <trkpt lat="50.38878" lon="2.63594">
        <ele>149.1416016</ele>
        <time>2011-04-10T03:41:49Z</time>
      </trkpt>
      <trkpt lat="50.38878" lon="2.63594">
        <ele>149.1416016</ele>
        <time>2011-04-10T03:41:49Z</time>
      </trkpt>
      <trkpt lat="50.38876" lon="2.63591">
        <ele>148.1804199</ele>
        <time>2011-04-10T03:41:51Z</time>
      </trkpt>
      <trkpt lat="50.38868" lon="2.63584">
        <ele>147.699707</ele>
        <time>2011-04-10T03:41:58Z</time>
      </trkpt>
      <trkpt lat="50.38862" lon="2.63578">
        <ele>146.2578125</ele>
        <time>2011-04-10T03:42:03Z</time>
      </trkpt>
      <trkpt lat="50.38857" lon="2.63572">
        <ele>145.2963867</ele>
        <time>2011-04-10T03:42:07Z</time>
      </trkpt>
      <trkpt lat="50.38849" lon="2.63568">
        <ele>145.2963867</ele>
        <time>2011-04-10T03:42:13Z</time>
      </trkpt>
      <trkpt lat="50.38846" lon="2.63565">
        <ele>144.8157959</ele>
        <time>2011-04-10T03:42:16Z</time>
      </trkpt>
      <trkpt lat="50.38838" lon="2.63557">
        <ele>143.8543701</ele>
        <time>2011-04-10T03:42:24Z</time>
      </trkpt>
      <trkpt lat="50.3883" lon="2.63549">
        <ele>143.8543701</ele>
        <time>2011-04-10T03:42:32Z</time>
      </trkpt>
      <trkpt lat="50.38826" lon="2.63546">
        <ele>143.8543701</ele>
        <time>2011-04-10T03:42:35Z</time>
      </trkpt>
      <trkpt lat="50.3882" lon="2.63542">
        <ele>143.8543701</ele>
        <time>2011-04-10T03:42:40Z</time>
      </trkpt>
      <trkpt lat="50.38814" lon="2.63537">
        <ele>144.3352051</ele>
        <time>2011-04-10T03:42:46Z</time>
      </trkpt>
      <trkpt lat="50.38807" lon="2.63531">
        <ele>143.3736572</ele>
        <time>2011-04-10T03:42:52Z</time>
      </trkpt>
      <trkpt lat="50.38797" lon="2.63524">
        <ele>142.8930664</ele>
        <time>2011-04-10T03:42:59Z</time>
      </trkpt>
      <trkpt lat="50.38792" lon="2.6352">
        <ele>142.8930664</ele>
        <time>2011-04-10T03:43:03Z</time>
      </trkpt>
      <trkpt lat="50.38787" lon="2.63516">
        <ele>141.9317627</ele>
        <time>2011-04-10T03:43:08Z</time>
      </trkpt>
      <trkpt lat="50.38779" lon="2.63509">
        <ele>142.4124756</ele>
        <time>2011-04-10T03:43:15Z</time>
      </trkpt>
      <trkpt lat="50.38771" lon="2.63502">
        <ele>143.3736572</ele>
        <time>2011-04-10T03:43:23Z</time>
      </trkpt>
      <trkpt lat="50.38764" lon="2.63494">
        <ele>144.8157959</ele>
        <time>2011-04-10T03:43:31Z</time>
      </trkpt>
      <trkpt lat="50.38756" lon="2.63489">
        <ele>145.7770996</ele>
        <time>2011-04-10T03:43:38Z</time>
      </trkpt>
      <trkpt lat="50.38747" lon="2.63484">
        <ele>144.8157959</ele>
        <time>2011-04-10T03:43:44Z</time>
      </trkpt>
      <trkpt lat="50.38741" lon="2.6348">
        <ele>144.3352051</ele>
        <time>2011-04-10T03:43:49Z</time>
      </trkpt>
      <trkpt lat="50.38734" lon="2.63473">
        <ele>143.8543701</ele>
        <time>2011-04-10T03:43:56Z</time>
      </trkpt>
      <trkpt lat="50.38727" lon="2.63467">
        <ele>142.4124756</ele>
        <time>2011-04-10T03:44:02Z</time>
      </trkpt>
      <trkpt lat="50.38719" lon="2.63459">
        <ele>140.4898682</ele>
        <time>2011-04-10T03:44:09Z</time>
      </trkpt>
      <trkpt lat="50.38713" lon="2.63454">
        <ele>138.5672607</ele>
        <time>2011-04-10T03:44:14Z</time>
      </trkpt>
      <trkpt lat="50.38708" lon="2.6345">
        <ele>138.0865479</ele>
        <time>2011-04-10T03:44:18Z</time>
      </trkpt>
      <trkpt lat="50.38704" lon="2.63445">
        <ele>137.605835</ele>
        <time>2011-04-10T03:44:23Z</time>
      </trkpt>
      <trkpt lat="50.38703" lon="2.63443">
        <ele>137.605835</ele>
        <time>2011-04-10T03:44:24Z</time>
      </trkpt>
      <trkpt lat="50.38696" lon="2.63438">
        <ele>136.1639404</ele>
        <time>2011-04-10T03:44:29Z</time>
      </trkpt>
      <trkpt lat="50.38695" lon="2.63437">
        <ele>136.6446533</ele>
        <time>2011-04-10T03:44:31Z</time>
      </trkpt>
      <trkpt lat="50.3869" lon="2.63429">
        <ele>137.605835</ele>
        <time>2011-04-10T03:44:36Z</time>
      </trkpt>
      <trkpt lat="50.3868" lon="2.63422">
        <ele>140.0091553</ele>
        <time>2011-04-10T03:44:45Z</time>
      </trkpt>
      <trkpt lat="50.38677" lon="2.63419">
        <ele>140.4898682</ele>
        <time>2011-04-10T03:44:48Z</time>
      </trkpt>
      <trkpt lat="50.38672" lon="2.63415">
        <ele>139.5284424</ele>
        <time>2011-04-10T03:44:52Z</time>
      </trkpt>
      <trkpt lat="50.38667" lon="2.63408">
        <ele>139.5284424</ele>
        <time>2011-04-10T03:44:59Z</time>
      </trkpt>
      <trkpt lat="50.38666" lon="2.63407">
        <ele>139.5284424</ele>
        <time>2011-04-10T03:45:00Z</time>
      </trkpt>
      <trkpt lat="50.38658" lon="2.63404">
        <ele>138.5672607</ele>
        <time>2011-04-10T03:45:06Z</time>
      </trkpt>
      <trkpt lat="50.38651" lon="2.63401">
        <ele>139.0478516</ele>
        <time>2011-04-10T03:45:11Z</time>
      </trkpt>
      <trkpt lat="50.3865" lon="2.63401">
        <ele>139.0478516</ele>
        <time>2011-04-10T03:45:12Z</time>
      </trkpt>
      <trkpt lat="50.38643" lon="2.63394">
        <ele>140.4898682</ele>
        <time>2011-04-10T03:45:18Z</time>
      </trkpt>
      <trkpt lat="50.38634" lon="2.63388">
        <ele>141.4510498</ele>
        <time>2011-04-10T03:45:25Z</time>
      </trkpt>
      <trkpt lat="50.38627" lon="2.63382">
        <ele>140.970459</ele>
        <time>2011-04-10T03:45:31Z</time>
      </trkpt>
      <trkpt lat="50.38623" lon="2.6338">
        <ele>140.970459</ele>
        <time>2011-04-10T03:45:34Z</time>
      </trkpt>
      <trkpt lat="50.38617" lon="2.63376">
        <ele>140.4898682</ele>
        <time>2011-04-10T03:45:38Z</time>
      </trkpt>
      <trkpt lat="50.38615" lon="2.63375">
        <ele>140.4898682</ele>
        <time>2011-04-10T03:45:40Z</time>
      </trkpt>
      <trkpt lat="50.38611" lon="2.63372">
        <ele>140.0091553</ele>
        <time>2011-04-10T03:45:43Z</time>
      </trkpt>
      <trkpt lat="50.38607" lon="2.63371">
        <ele>140.970459</ele>
        <time>2011-04-10T03:45:47Z</time>
      </trkpt>
      <trkpt lat="50.38604" lon="2.63369">
        <ele>142.4124756</ele>
        <time>2011-04-10T03:45:50Z</time>
      </trkpt>
      <trkpt lat="50.38596" lon="2.63365">
        <ele>143.3736572</ele>
        <time>2011-04-10T03:45:56Z</time>
      </trkpt>
      <trkpt lat="50.38588" lon="2.63361">
        <ele>141.9317627</ele>
        <time>2011-04-10T03:46:01Z</time>
      </trkpt>
      <trkpt lat="50.38585" lon="2.6336">
        <ele>141.4510498</ele>
        <time>2011-04-10T03:46:04Z</time>
      </trkpt>
      <trkpt lat="50.38581" lon="2.63358">
        <ele>142.4124756</ele>
        <time>2011-04-10T03:46:09Z</time>
      </trkpt>
      <trkpt lat="50.38577" lon="2.63356">
        <ele>142.4124756</ele>
        <time>2011-04-10T03:46:13Z</time>
      </trkpt>
      <trkpt lat="50.38575" lon="2.63356">
        <ele>142.4124756</ele>
        <time>2011-04-10T03:46:14Z</time>
      </trkpt>
      <trkpt lat="50.38568" lon="2.63353">
        <ele>141.4510498</ele>
        <time>2011-04-10T03:46:20Z</time>
      </trkpt>
      <trkpt lat="50.38562" lon="2.63351">
        <ele>140.0091553</ele>
        <time>2011-04-10T03:46:25Z</time>
      </trkpt>
      <trkpt lat="50.38553" lon="2.63347">
        <ele>137.605835</ele>
        <time>2011-04-10T03:46:32Z</time>
      </trkpt>
      <trkpt lat="50.38548" lon="2.63345">
        <ele>135.2025146</ele>
        <time>2011-04-10T03:46:37Z</time>
      </trkpt>
      <trkpt lat="50.38541" lon="2.63343">
        <ele>134.2412109</ele>
        <time>2011-04-10T03:46:43Z</time>
      </trkpt>
      <trkpt lat="50.38537" lon="2.63341">
        <ele>133.760498</ele>
        <time>2011-04-10T03:46:48Z</time>
      </trkpt>
      <trkpt lat="50.38533" lon="2.6334">
        <ele>133.760498</ele>
        <time>2011-04-10T03:46:51Z</time>
      </trkpt>
      <trkpt lat="50.38525" lon="2.63337">
        <ele>132.3186035</ele>
        <time>2011-04-10T03:46:57Z</time>
      </trkpt>
      <trkpt lat="50.38519" lon="2.63334">
        <ele>132.7993164</ele>
        <time>2011-04-10T03:47:02Z</time>
      </trkpt>
      <trkpt lat="50.38515" lon="2.63335">
        <ele>130.876709</ele>
        <time>2011-04-10T03:47:05Z</time>
      </trkpt>
      <trkpt lat="50.38507" lon="2.63333">
        <ele>129.9152832</ele>
        <time>2011-04-10T03:47:11Z</time>
      </trkpt>
      <trkpt lat="50.38499" lon="2.63329">
        <ele>133.760498</ele>
        <time>2011-04-10T03:47:18Z</time>
      </trkpt>
      <trkpt lat="50.38491" lon="2.63326">
        <ele>136.1639404</ele>
        <time>2011-04-10T03:47:23Z</time>
      </trkpt>
      <trkpt lat="50.38482" lon="2.63324">
        <ele>137.605835</ele>
        <time>2011-04-10T03:47:29Z</time>
      </trkpt>
      <trkpt lat="50.38473" lon="2.63325">
        <ele>137.605835</ele>
        <time>2011-04-10T03:47:34Z</time>
      </trkpt>
      <trkpt lat="50.38466" lon="2.63322">
        <ele>137.1252441</ele>
        <time>2011-04-10T03:47:39Z</time>
      </trkpt>
      <trkpt lat="50.38458" lon="2.63321">
        <ele>136.6446533</ele>
        <time>2011-04-10T03:47:44Z</time>
      </trkpt>
      <trkpt lat="50.38451" lon="2.6332">
        <ele>136.6446533</ele>
        <time>2011-04-10T03:47:50Z</time>
      </trkpt>
      <trkpt lat="50.38443" lon="2.63315">
        <ele>137.1252441</ele>
        <time>2011-04-10T03:47:57Z</time>
      </trkpt>
      <trkpt lat="50.38442" lon="2.63314">
        <ele>136.6446533</ele>
        <time>2011-04-10T03:47:58Z</time>
      </trkpt>
      <trkpt lat="50.38434" lon="2.63311">
        <ele>136.6446533</ele>
        <time>2011-04-10T03:48:04Z</time>
      </trkpt>
      <trkpt lat="50.38427" lon="2.63305">
        <ele>134.7219238</ele>
        <time>2011-04-10T03:48:10Z</time>
      </trkpt>
      <trkpt lat="50.38422" lon="2.63304">
        <ele>132.7993164</ele>
        <time>2011-04-10T03:48:14Z</time>
      </trkpt>
      <trkpt lat="50.38416" lon="2.63298">
        <ele>131.3572998</ele>
        <time>2011-04-10T03:48:20Z</time>
      </trkpt>
      <trkpt lat="50.38409" lon="2.63294">
        <ele>130.3959961</ele>
        <time>2011-04-10T03:48:25Z</time>
      </trkpt>
      <trkpt lat="50.38404" lon="2.63288">
        <ele>129.9152832</ele>
        <time>2011-04-10T03:48:30Z</time>
      </trkpt>
      <trkpt lat="50.38398" lon="2.63284">
        <ele>129.9152832</ele>
        <time>2011-04-10T03:48:35Z</time>
      </trkpt>
      <trkpt lat="50.38392" lon="2.63281">
        <ele>128.4733887</ele>
        <time>2011-04-10T03:48:39Z</time>
      </trkpt>
      <trkpt lat="50.38384" lon="2.63277">
        <ele>127.5119629</ele>
        <time>2011-04-10T03:48:46Z</time>
      </trkpt>
      <trkpt lat="50.38375" lon="2.63274">
        <ele>127.0313721</ele>
        <time>2011-04-10T03:48:51Z</time>
      </trkpt>
      <trkpt lat="50.38368" lon="2.63269">
        <ele>126.0699463</ele>
        <time>2011-04-10T03:48:56Z</time>
      </trkpt>
      <trkpt lat="50.38367" lon="2.63268">
        <ele>126.5506592</ele>
        <time>2011-04-10T03:48:57Z</time>
      </trkpt>
      <trkpt lat="50.38362" lon="2.63262">
        <ele>126.5506592</ele>
        <time>2011-04-10T03:49:03Z</time>
      </trkpt>
      <trkpt lat="50.38356" lon="2.63257">
        <ele>127.0313721</ele>
        <time>2011-04-10T03:49:08Z</time>
      </trkpt>
      <trkpt lat="50.38354" lon="2.63256">
        <ele>127.5119629</ele>
        <time>2011-04-10T03:49:10Z</time>
      </trkpt>
      <trkpt lat="50.38349" lon="2.63251">
        <ele>127.9925537</ele>
        <time>2011-04-10T03:49:15Z</time>
      </trkpt>
      <trkpt lat="50.38342" lon="2.63248">
        <ele>128.9541016</ele>
        <time>2011-04-10T03:49:20Z</time>
      </trkpt>
      <trkpt lat="50.3834" lon="2.63247">
        <ele>128.9541016</ele>
        <time>2011-04-10T03:49:21Z</time>
      </trkpt>
      <trkpt lat="50.38332" lon="2.63247">
        <ele>128.4733887</ele>
        <time>2011-04-10T03:49:27Z</time>
      </trkpt>
      <trkpt lat="50.38324" lon="2.63248">
        <ele>128.4733887</ele>
        <time>2011-04-10T03:49:32Z</time>
      </trkpt>
      <trkpt lat="50.38317" lon="2.63249">
        <ele>129.4346924</ele>
        <time>2011-04-10T03:49:37Z</time>
      </trkpt>
      <trkpt lat="50.3831" lon="2.63251">
        <ele>128.4733887</ele>
        <time>2011-04-10T03:49:42Z</time>
      </trkpt>
      <trkpt lat="50.38306" lon="2.63252">
        <ele>128.9541016</ele>
        <time>2011-04-10T03:49:47Z</time>
      </trkpt>
      <trkpt lat="50.38303" lon="2.63255">
        <ele>129.4346924</ele>
        <time>2011-04-10T03:49:50Z</time>
      </trkpt>
      <trkpt lat="50.38296" lon="2.63262">
        <ele>129.9152832</ele>
        <time>2011-04-10T03:49:56Z</time>
      </trkpt>
      <trkpt lat="50.38288" lon="2.6327">
        <ele>130.3959961</ele>
        <time>2011-04-10T03:50:03Z</time>
      </trkpt>
      <trkpt lat="50.3828" lon="2.63279">
        <ele>131.8378906</ele>
        <time>2011-04-10T03:50:11Z</time>
      </trkpt>
      <trkpt lat="50.38272" lon="2.6329">
        <ele>132.7993164</ele>
        <time>2011-04-10T03:50:20Z</time>
      </trkpt>
      <trkpt lat="50.38265" lon="2.63301">
        <ele>134.2412109</ele>
        <time>2011-04-10T03:50:28Z</time>
      </trkpt>
      <trkpt lat="50.38259" lon="2.63313">
        <ele>136.6446533</ele>
        <time>2011-04-10T03:50:36Z</time>
      </trkpt>
      <trkpt lat="50.38257" lon="2.63318">
        <ele>138.0865479</ele>
        <time>2011-04-10T03:50:42Z</time>
      </trkpt>
      <trkpt lat="50.38254" lon="2.63323">
        <ele>138.5672607</ele>
        <time>2011-04-10T03:50:48Z</time>
      </trkpt>
      <trkpt lat="50.38247" lon="2.63335">
        <ele>140.0091553</ele>
        <time>2011-04-10T03:50:56Z</time>
      </trkpt>
      <trkpt lat="50.38246" lon="2.63336">
        <ele>140.0091553</ele>
        <time>2011-04-10T03:50:57Z</time>
      </trkpt>
      <trkpt lat="50.3824" lon="2.6335">
        <ele>142.8930664</ele>
        <time>2011-04-10T03:51:06Z</time>
      </trkpt>
      <trkpt lat="50.38233" lon="2.63362">
        <ele>144.3352051</ele>
        <time>2011-04-10T03:51:14Z</time>
      </trkpt>
      <trkpt lat="50.38225" lon="2.63376">
        <ele>144.8157959</ele>
        <time>2011-04-10T03:51:23Z</time>
      </trkpt>
      <trkpt lat="50.38218" lon="2.6339">
        <ele>144.8157959</ele>
        <time>2011-04-10T03:51:32Z</time>
      </trkpt>
      <trkpt lat="50.38211" lon="2.63401">
        <ele>146.7384033</ele>
        <time>2011-04-10T03:51:40Z</time>
      </trkpt>
      <trkpt lat="50.38205" lon="2.63414">
        <ele>150.1030273</ele>
        <time>2011-04-10T03:51:48Z</time>
      </trkpt>
      <trkpt lat="50.38198" lon="2.63428">
        <ele>151.5449219</ele>
        <time>2011-04-10T03:51:56Z</time>
      </trkpt>
      <trkpt lat="50.38191" lon="2.63441">
        <ele>151.064209</ele>
        <time>2011-04-10T03:52:04Z</time>
      </trkpt>
      <trkpt lat="50.38182" lon="2.63457">
        <ele>149.6223145</ele>
        <time>2011-04-10T03:52:13Z</time>
      </trkpt>
      <trkpt lat="50.38173" lon="2.63472">
        <ele>149.1416016</ele>
        <time>2011-04-10T03:52:22Z</time>
      </trkpt>
      <trkpt lat="50.38164" lon="2.63484">
        <ele>148.1804199</ele>
        <time>2011-04-10T03:52:30Z</time>
      </trkpt>
      <trkpt lat="50.38161" lon="2.63488">
        <ele>148.1804199</ele>
        <time>2011-04-10T03:52:33Z</time>
      </trkpt>
      <trkpt lat="50.38152" lon="2.63501">
        <ele>147.2189941</ele>
        <time>2011-04-10T03:52:42Z</time>
      </trkpt>
      <trkpt lat="50.38146" lon="2.6351">
        <ele>146.7384033</ele>
        <time>2011-04-10T03:52:48Z</time>
      </trkpt>
      <trkpt lat="50.38141" lon="2.63518">
        <ele>146.2578125</ele>
        <time>2011-04-10T03:52:53Z</time>
      </trkpt>
      <trkpt lat="50.38135" lon="2.63529">
        <ele>147.2189941</ele>
        <time>2011-04-10T03:53:00Z</time>
      </trkpt>
      <trkpt lat="50.38133" lon="2.63532">
        <ele>147.699707</ele>
        <time>2011-04-10T03:53:02Z</time>
      </trkpt>
      <trkpt lat="50.38128" lon="2.6354">
        <ele>148.1804199</ele>
        <time>2011-04-10T03:53:07Z</time>
      </trkpt>
      <trkpt lat="50.38122" lon="2.63549">
        <ele>148.1804199</ele>
        <time>2011-04-10T03:53:14Z</time>
      </trkpt>
      <trkpt lat="50.38116" lon="2.6356">
        <ele>147.2189941</ele>
        <time>2011-04-10T03:53:21Z</time>
      </trkpt>
      <trkpt lat="50.38109" lon="2.63574">
        <ele>147.2189941</ele>
        <time>2011-04-10T03:53:29Z</time>
      </trkpt>
      <trkpt lat="50.38104" lon="2.6358">
        <ele>145.7770996</ele>
        <time>2011-04-10T03:53:34Z</time>
      </trkpt>
      <trkpt lat="50.38098" lon="2.6359">
        <ele>145.7770996</ele>
        <time>2011-04-10T03:53:41Z</time>
      </trkpt>
      <trkpt lat="50.38091" lon="2.63602">
        <ele>146.2578125</ele>
        <time>2011-04-10T03:53:49Z</time>
      </trkpt>
      <trkpt lat="50.38083" lon="2.63614">
        <ele>147.2189941</ele>
        <time>2011-04-10T03:53:57Z</time>
      </trkpt>
      <trkpt lat="50.38082" lon="2.63618">
        <ele>147.2189941</ele>
        <time>2011-04-10T03:53:59Z</time>
      </trkpt>
      <trkpt lat="50.38076" lon="2.63626">
        <ele>147.2189941</ele>
        <time>2011-04-10T03:54:05Z</time>
      </trkpt>
      <trkpt lat="50.38073" lon="2.63632">
        <ele>147.2189941</ele>
        <time>2011-04-10T03:54:09Z</time>
      </trkpt>
      <trkpt lat="50.38066" lon="2.63646">
        <ele>148.6610107</ele>
        <time>2011-04-10T03:54:18Z</time>
      </trkpt>
      <trkpt lat="50.38058" lon="2.63658">
        <ele>148.1804199</ele>
        <time>2011-04-10T03:54:26Z</time>
      </trkpt>
      <trkpt lat="50.38054" lon="2.63666">
        <ele>149.1416016</ele>
        <time>2011-04-10T03:54:32Z</time>
      </trkpt>
      <trkpt lat="50.3805" lon="2.63675">
        <ele>151.064209</ele>
        <time>2011-04-10T03:54:38Z</time>
      </trkpt>
      <trkpt lat="50.38043" lon="2.63689">
        <ele>152.9869385</ele>
        <time>2011-04-10T03:54:46Z</time>
      </trkpt>
      <trkpt lat="50.38038" lon="2.63697">
        <ele>153.4676514</ele>
        <time>2011-04-10T03:54:51Z</time>
      </trkpt>
      <trkpt lat="50.38034" lon="2.63707">
        <ele>154.4289551</ele>
        <time>2011-04-10T03:54:57Z</time>
      </trkpt>
      <trkpt lat="50.38029" lon="2.63717">
        <ele>154.4289551</ele>
        <time>2011-04-10T03:55:03Z</time>
      </trkpt>
      <trkpt lat="50.38024" lon="2.63726">
        <ele>154.9095459</ele>
        <time>2011-04-10T03:55:09Z</time>
      </trkpt>
      <trkpt lat="50.38022" lon="2.63731">
        <ele>154.9095459</ele>
        <time>2011-04-10T03:55:12Z</time>
      </trkpt>
      <trkpt lat="50.38015" lon="2.63742">
        <ele>155.3902588</ele>
        <time>2011-04-10T03:55:20Z</time>
      </trkpt>
      <trkpt lat="50.38013" lon="2.63745">
        <ele>155.3902588</ele>
        <time>2011-04-10T03:55:22Z</time>
      </trkpt>
      <trkpt lat="50.3801" lon="2.63751">
        <ele>155.8709717</ele>
        <time>2011-04-10T03:55:26Z</time>
      </trkpt>
      <trkpt lat="50.38003" lon="2.63761">
        <ele>155.3902588</ele>
        <time>2011-04-10T03:55:33Z</time>
      </trkpt>
      <trkpt lat="50.37997" lon="2.6377">
        <ele>154.9095459</ele>
        <time>2011-04-10T03:55:39Z</time>
      </trkpt>
      <trkpt lat="50.37989" lon="2.63781">
        <ele>154.4289551</ele>
        <time>2011-04-10T03:55:47Z</time>
      </trkpt>
      <trkpt lat="50.37987" lon="2.63784">
        <ele>153.9483643</ele>
        <time>2011-04-10T03:55:49Z</time>
      </trkpt>
      <trkpt lat="50.3798" lon="2.63795">
        <ele>152.5063477</ele>
        <time>2011-04-10T03:55:56Z</time>
      </trkpt>
      <trkpt lat="50.3797" lon="2.63806">
        <ele>149.1416016</ele>
        <time>2011-04-10T03:56:05Z</time>
      </trkpt>
      <trkpt lat="50.37967" lon="2.6381">
        <ele>148.1804199</ele>
        <time>2011-04-10T03:56:08Z</time>
      </trkpt>
      <trkpt lat="50.37963" lon="2.63816">
        <ele>146.7384033</ele>
        <time>2011-04-10T03:56:13Z</time>
      </trkpt>
      <trkpt lat="50.37956" lon="2.63817">
        <ele>144.8157959</ele>
        <time>2011-04-10T03:56:18Z</time>
      </trkpt>
      <trkpt lat="50.37953" lon="2.6381">
        <ele>143.8543701</ele>
        <time>2011-04-10T03:56:21Z</time>
      </trkpt>
      <trkpt lat="50.37948" lon="2.63804">
        <ele>140.970459</ele>
        <time>2011-04-10T03:56:26Z</time>
      </trkpt>
      <trkpt lat="50.37939" lon="2.63798">
        <ele>138.5672607</ele>
        <time>2011-04-10T03:56:34Z</time>
      </trkpt>
      <trkpt lat="50.37928" lon="2.63791">
        <ele>138.0865479</ele>
        <time>2011-04-10T03:56:42Z</time>
      </trkpt>
      <trkpt lat="50.3792" lon="2.63784">
        <ele>137.605835</ele>
        <time>2011-04-10T03:56:48Z</time>
      </trkpt>
      <trkpt lat="50.37917" lon="2.63781">
        <ele>137.1252441</ele>
        <time>2011-04-10T03:56:51Z</time>
      </trkpt>
      <trkpt lat="50.3791" lon="2.63776">
        <ele>135.6831055</ele>
        <time>2011-04-10T03:56:57Z</time>
      </trkpt>
      <trkpt lat="50.37903" lon="2.6377">
        <ele>135.6831055</ele>
        <time>2011-04-10T03:57:04Z</time>
      </trkpt>
      <trkpt lat="50.37895" lon="2.63763">
        <ele>135.2025146</ele>
        <time>2011-04-10T03:57:11Z</time>
      </trkpt>
      <trkpt lat="50.37888" lon="2.63756">
        <ele>135.2025146</ele>
        <time>2011-04-10T03:57:17Z</time>
      </trkpt>
      <trkpt lat="50.37879" lon="2.63747">
        <ele>137.605835</ele>
        <time>2011-04-10T03:57:25Z</time>
      </trkpt>
      <trkpt lat="50.37872" lon="2.63744">
        <ele>138.0865479</ele>
        <time>2011-04-10T03:57:30Z</time>
      </trkpt>
      <trkpt lat="50.37863" lon="2.6374">
        <ele>137.605835</ele>
        <time>2011-04-10T03:57:36Z</time>
      </trkpt>
      <trkpt lat="50.37857" lon="2.63738">
        <ele>136.6446533</ele>
        <time>2011-04-10T03:57:41Z</time>
      </trkpt>
      <trkpt lat="50.37852" lon="2.63734">
        <ele>135.2025146</ele>
        <time>2011-04-10T03:57:46Z</time>
      </trkpt>
      <trkpt lat="50.37846" lon="2.6373">
        <ele>134.7219238</ele>
        <time>2011-04-10T03:57:51Z</time>
      </trkpt>
      <trkpt lat="50.3784" lon="2.63726">
        <ele>134.2412109</ele>
        <time>2011-04-10T03:57:56Z</time>
      </trkpt>
      <trkpt lat="50.37838" lon="2.63724">
        <ele>133.2799072</ele>
        <time>2011-04-10T03:57:58Z</time>
      </trkpt>
      <trkpt lat="50.3783" lon="2.63721">
        <ele>131.8378906</ele>
        <time>2011-04-10T03:58:05Z</time>
      </trkpt>
      <trkpt lat="50.37825" lon="2.63716">
        <ele>132.7993164</ele>
        <time>2011-04-10T03:58:09Z</time>
      </trkpt>
      <trkpt lat="50.37821" lon="2.63713">
        <ele>133.760498</ele>
        <time>2011-04-10T03:58:12Z</time>
      </trkpt>
      <trkpt lat="50.37816" lon="2.63709">
        <ele>134.7219238</ele>
        <time>2011-04-10T03:58:17Z</time>
      </trkpt>
      <trkpt lat="50.37809" lon="2.63702">
        <ele>133.760498</ele>
        <time>2011-04-10T03:58:24Z</time>
      </trkpt>
      <trkpt lat="50.37801" lon="2.63695">
        <ele>132.3186035</ele>
        <time>2011-04-10T03:58:31Z</time>
      </trkpt>
      <trkpt lat="50.37795" lon="2.63691">
        <ele>130.3959961</ele>
        <time>2011-04-10T03:58:37Z</time>
      </trkpt>
      <trkpt lat="50.37791" lon="2.63688">
        <ele>130.3959961</ele>
        <time>2011-04-10T03:58:40Z</time>
      </trkpt>
      <trkpt lat="50.37786" lon="2.63683">
        <ele>129.9152832</ele>
        <time>2011-04-10T03:58:45Z</time>
      </trkpt>
      <trkpt lat="50.37781" lon="2.63675">
        <ele>129.4346924</ele>
        <time>2011-04-10T03:58:51Z</time>
      </trkpt>
      <trkpt lat="50.37775" lon="2.63668">
        <ele>127.5119629</ele>
        <time>2011-04-10T03:58:57Z</time>
      </trkpt>
      <trkpt lat="50.37766" lon="2.63659">
        <ele>125.1087646</ele>
        <time>2011-04-10T03:59:04Z</time>
      </trkpt>
      <trkpt lat="50.37761" lon="2.63651">
        <ele>121.7441406</ele>
        <time>2011-04-10T03:59:10Z</time>
      </trkpt>
      <trkpt lat="50.37761" lon="2.6365">
        <ele>121.2635498</ele>
        <time>2011-04-10T03:59:11Z</time>
      </trkpt>
      <trkpt lat="50.37756" lon="2.63643">
        <ele>117.4182129</ele>
        <time>2011-04-10T03:59:18Z</time>
      </trkpt>
      <trkpt lat="50.37753" lon="2.6364">
        <ele>116.4567871</ele>
        <time>2011-04-10T03:59:21Z</time>
      </trkpt>
      <trkpt lat="50.37749" lon="2.6363">
        <ele>117.4182129</ele>
        <time>2011-04-10T03:59:26Z</time>
      </trkpt>
      <trkpt lat="50.37741" lon="2.63618">
        <ele>116.4567871</ele>
        <time>2011-04-10T03:59:32Z</time>
      </trkpt>
      <trkpt lat="50.37739" lon="2.63615">
        <ele>116.9375</ele>
        <time>2011-04-10T03:59:34Z</time>
      </trkpt>
      <trkpt lat="50.37735" lon="2.6361">
        <ele>116.4567871</ele>
        <time>2011-04-10T03:59:37Z</time>
      </trkpt>
      <trkpt lat="50.37732" lon="2.63605">
        <ele>116.4567871</ele>
        <time>2011-04-10T03:59:41Z</time>
      </trkpt>
      <trkpt lat="50.37728" lon="2.63599">
        <ele>117.4182129</ele>
        <time>2011-04-10T03:59:46Z</time>
      </trkpt>
      <trkpt lat="50.37723" lon="2.63587">
        <ele>118.3793945</ele>
        <time>2011-04-10T03:59:53Z</time>
      </trkpt>
      <trkpt lat="50.37721" lon="2.63582">
        <ele>117.4182129</ele>
        <time>2011-04-10T03:59:56Z</time>
      </trkpt>
      <trkpt lat="50.37716" lon="2.63571">
        <ele>119.8214111</ele>
        <time>2011-04-10T04:00:02Z</time>
      </trkpt>
      <trkpt lat="50.37714" lon="2.63568">
        <ele>120.7828369</ele>
        <time>2011-04-10T04:00:04Z</time>
      </trkpt>
      <trkpt lat="50.37711" lon="2.6356">
        <ele>122.2247314</ele>
        <time>2011-04-10T04:00:08Z</time>
      </trkpt>
      <trkpt lat="50.37705" lon="2.63549">
        <ele>122.2247314</ele>
        <time>2011-04-10T04:00:15Z</time>
      </trkpt>
      <trkpt lat="50.37703" lon="2.63545">
        <ele>122.2247314</ele>
        <time>2011-04-10T04:00:17Z</time>
      </trkpt>
      <trkpt lat="50.37701" lon="2.63539">
        <ele>121.2635498</ele>
        <time>2011-04-10T04:00:20Z</time>
      </trkpt>
      <trkpt lat="50.37694" lon="2.63529">
        <ele>120.302124</ele>
        <time>2011-04-10T04:00:27Z</time>
      </trkpt>
      <trkpt lat="50.3769" lon="2.63522">
        <ele>119.3408203</ele>
        <time>2011-04-10T04:00:32Z</time>
      </trkpt>
      <trkpt lat="50.37685" lon="2.63514">
        <ele>115.9761963</ele>
        <time>2011-04-10T04:00:38Z</time>
      </trkpt>
      <trkpt lat="50.37682" lon="2.63511">
        <ele>115.9761963</ele>
        <time>2011-04-10T04:00:40Z</time>
      </trkpt>
      <trkpt lat="50.37681" lon="2.63509">
        <ele>115.9761963</ele>
        <time>2011-04-10T04:00:42Z</time>
      </trkpt>
      <trkpt lat="50.37674" lon="2.635">
        <ele>116.4567871</ele>
        <time>2011-04-10T04:00:48Z</time>
      </trkpt>
      <trkpt lat="50.37672" lon="2.63497">
        <ele>115.4956055</ele>
        <time>2011-04-10T04:00:50Z</time>
      </trkpt>
      <trkpt lat="50.37669" lon="2.63491">
        <ele>115.0148926</ele>
        <time>2011-04-10T04:00:54Z</time>
      </trkpt>
      <trkpt lat="50.37669" lon="2.63489">
        <ele>114.5341797</ele>
        <time>2011-04-10T04:00:55Z</time>
      </trkpt>
      <trkpt lat="50.37663" lon="2.63479">
        <ele>113.0922852</ele>
        <time>2011-04-10T04:01:02Z</time>
      </trkpt>
      <trkpt lat="50.37663" lon="2.63478">
        <ele>113.0922852</ele>
        <time>2011-04-10T04:01:03Z</time>
      </trkpt>
      <trkpt lat="50.37659" lon="2.63472">
        <ele>113.572998</ele>
        <time>2011-04-10T04:01:07Z</time>
      </trkpt>
      <trkpt lat="50.37657" lon="2.63472">
        <ele>113.0922852</ele>
        <time>2011-04-10T04:01:08Z</time>
      </trkpt>
      <trkpt lat="50.37651" lon="2.6347">
        <ele>113.572998</ele>
        <time>2011-04-10T04:01:14Z</time>
      </trkpt>
      <trkpt lat="50.37643" lon="2.63472">
        <ele>113.572998</ele>
        <time>2011-04-10T04:01:20Z</time>
      </trkpt>
      <trkpt lat="50.37639" lon="2.63475">
        <ele>113.572998</ele>
        <time>2011-04-10T04:01:24Z</time>
      </trkpt>
      <trkpt lat="50.37635" lon="2.63477">
        <ele>113.572998</ele>
        <time>2011-04-10T04:01:27Z</time>
      </trkpt>
      <trkpt lat="50.37627" lon="2.63479">
        <ele>115.0148926</ele>
        <time>2011-04-10T04:01:32Z</time>
      </trkpt>
      <trkpt lat="50.37619" lon="2.63482">
        <ele>114.5341797</ele>
        <time>2011-04-10T04:01:37Z</time>
      </trkpt>
      <trkpt lat="50.37618" lon="2.63483">
        <ele>114.5341797</ele>
        <time>2011-04-10T04:01:38Z</time>
      </trkpt>
      <trkpt lat="50.37614" lon="2.63487">
        <ele>114.5341797</ele>
        <time>2011-04-10T04:01:42Z</time>
      </trkpt>
      <trkpt lat="50.37609" lon="2.63491">
        <ele>115.0148926</ele>
        <time>2011-04-10T04:01:47Z</time>
      </trkpt>
      <trkpt lat="50.37601" lon="2.63489">
        <ele>119.3408203</ele>
        <time>2011-04-10T04:01:51Z</time>
      </trkpt>
      <trkpt lat="50.37595" lon="2.63496">
        <ele>119.3408203</ele>
        <time>2011-04-10T04:01:57Z</time>
      </trkpt>
      <trkpt lat="50.37588" lon="2.63504">
        <ele>118.8601074</ele>
        <time>2011-04-10T04:02:04Z</time>
      </trkpt>
      <trkpt lat="50.37586" lon="2.63505">
        <ele>118.3793945</ele>
        <time>2011-04-10T04:02:06Z</time>
      </trkpt>
      <trkpt lat="50.37579" lon="2.63514">
        <ele>115.4956055</ele>
        <time>2011-04-10T04:02:14Z</time>
      </trkpt>
      <trkpt lat="50.37571" lon="2.63521">
        <ele>113.0922852</ele>
        <time>2011-04-10T04:02:22Z</time>
      </trkpt>
      <trkpt lat="50.3757" lon="2.63522">
        <ele>112.6115723</ele>
        <time>2011-04-10T04:02:23Z</time>
      </trkpt>
      <trkpt lat="50.37564" lon="2.63525">
        <ele>113.0922852</ele>
        <time>2011-04-10T04:02:29Z</time>
      </trkpt>
      <trkpt lat="50.37562" lon="2.63525">
        <ele>113.0922852</ele>
        <time>2011-04-10T04:02:31Z</time>
      </trkpt>
      <trkpt lat="50.37556" lon="2.63525">
        <ele>113.572998</ele>
        <time>2011-04-10T04:02:36Z</time>
      </trkpt>
      <trkpt lat="50.3755" lon="2.63525">
        <ele>114.0535889</ele>
        <time>2011-04-10T04:02:40Z</time>
      </trkpt>
      <trkpt lat="50.37541" lon="2.63525">
        <ele>112.6115723</ele>
        <time>2011-04-10T04:02:47Z</time>
      </trkpt>
      <trkpt lat="50.37537" lon="2.63527">
        <ele>111.1695557</ele>
        <time>2011-04-10T04:02:50Z</time>
      </trkpt>
      <trkpt lat="50.37531" lon="2.6353">
        <ele>112.1309814</ele>
        <time>2011-04-10T04:02:55Z</time>
      </trkpt>
      <trkpt lat="50.37526" lon="2.63528">
        <ele>112.1309814</ele>
        <time>2011-04-10T04:02:59Z</time>
      </trkpt>
      <trkpt lat="50.37525" lon="2.63528">
        <ele>112.1309814</ele>
        <time>2011-04-10T04:03:00Z</time>
      </trkpt>
      <trkpt lat="50.37523" lon="2.63529">
        <ele>112.1309814</ele>
        <time>2011-04-10T04:03:02Z</time>
      </trkpt>
      <trkpt lat="50.37518" lon="2.63529">
        <ele>112.6115723</ele>
        <time>2011-04-10T04:03:06Z</time>
      </trkpt>
      <trkpt lat="50.37515" lon="2.6353">
        <ele>112.1309814</ele>
        <time>2011-04-10T04:03:08Z</time>
      </trkpt>
      <trkpt lat="50.37511" lon="2.63532">
        <ele>112.6115723</ele>
        <time>2011-04-10T04:03:12Z</time>
      </trkpt>
      <trkpt lat="50.37505" lon="2.63531">
        <ele>112.6115723</ele>
        <time>2011-04-10T04:03:18Z</time>
      </trkpt>
      <trkpt lat="50.37494" lon="2.63532">
        <ele>111.6502686</ele>
        <time>2011-04-10T04:03:26Z</time>
      </trkpt>
      <trkpt lat="50.37494" lon="2.63532">
        <ele>111.1695557</ele>
        <time>2011-04-10T04:03:27Z</time>
      </trkpt>
      <trkpt lat="50.37487" lon="2.63531">
        <ele>110.6888428</ele>
        <time>2011-04-10T04:03:33Z</time>
      </trkpt>
      <trkpt lat="50.37486" lon="2.63531">
        <ele>110.6888428</ele>
        <time>2011-04-10T04:03:34Z</time>
      </trkpt>
      <trkpt lat="50.37479" lon="2.6353">
        <ele>110.208252</ele>
        <time>2011-04-10T04:03:39Z</time>
      </trkpt>
      <trkpt lat="50.37475" lon="2.63529">
        <ele>110.208252</ele>
        <time>2011-04-10T04:03:43Z</time>
      </trkpt>
      <trkpt lat="50.37467" lon="2.63526">
        <ele>110.208252</ele>
        <time>2011-04-10T04:03:48Z</time>
      </trkpt>
      <trkpt lat="50.37466" lon="2.63525">
        <ele>109.7276611</ele>
        <time>2011-04-10T04:03:49Z</time>
      </trkpt>
      <trkpt lat="50.37458" lon="2.63524">
        <ele>107.8050537</ele>
        <time>2011-04-10T04:03:54Z</time>
      </trkpt>
      <trkpt lat="50.3745" lon="2.63523">
        <ele>105.4017334</ele>
        <time>2011-04-10T04:04:00Z</time>
      </trkpt>
      <trkpt lat="50.37443" lon="2.63516">
        <ele>103.4790039</ele>
        <time>2011-04-10T04:04:06Z</time>
      </trkpt>
      <trkpt lat="50.37441" lon="2.63515">
        <ele>102.5177002</ele>
        <time>2011-04-10T04:04:08Z</time>
      </trkpt>
      <trkpt lat="50.37436" lon="2.63512">
        <ele>101.5563965</ele>
        <time>2011-04-10T04:04:12Z</time>
      </trkpt>
      <trkpt lat="50.37424" lon="2.63517">
        <ele>102.5177002</ele>
        <time>2011-04-10T04:04:20Z</time>
      </trkpt>
      <trkpt lat="50.37417" lon="2.63516">
        <ele>101.5563965</ele>
        <time>2011-04-10T04:04:26Z</time>
      </trkpt>
      <trkpt lat="50.37406" lon="2.63516">
        <ele>99.1530762</ele>
        <time>2011-04-10T04:04:34Z</time>
      </trkpt>
      <trkpt lat="50.37398" lon="2.63516">
        <ele>99.1530762</ele>
        <time>2011-04-10T04:04:40Z</time>
      </trkpt>
      <trkpt lat="50.37391" lon="2.63512">
        <ele>99.1530762</ele>
        <time>2011-04-10T04:04:45Z</time>
      </trkpt>
      <trkpt lat="50.37383" lon="2.63512">
        <ele>101.5563965</ele>
        <time>2011-04-10T04:04:53Z</time>
      </trkpt>
      <trkpt lat="50.37381" lon="2.63512">
        <ele>102.5177002</ele>
        <time>2011-04-10T04:04:55Z</time>
      </trkpt>
      <trkpt lat="50.37375" lon="2.63508">
        <ele>105.4017334</ele>
        <time>2011-04-10T04:05:01Z</time>
      </trkpt>
      <trkpt lat="50.37373" lon="2.63508">
        <ele>105.8824463</ele>
        <time>2011-04-10T04:05:02Z</time>
      </trkpt>
      <trkpt lat="50.37367" lon="2.63507">
        <ele>107.3243408</ele>
        <time>2011-04-10T04:05:06Z</time>
      </trkpt>
      <trkpt lat="50.37361" lon="2.63499">
        <ele>108.7662354</ele>
        <time>2011-04-10T04:05:14Z</time>
      </trkpt>
      <trkpt lat="50.37356" lon="2.63495">
        <ele>108.7662354</ele>
        <time>2011-04-10T04:05:19Z</time>
      </trkpt>
      <trkpt lat="50.3735" lon="2.63489">
        <ele>109.7276611</ele>
        <time>2011-04-10T04:05:26Z</time>
      </trkpt>
      <trkpt lat="50.37348" lon="2.63488">
        <ele>109.7276611</ele>
        <time>2011-04-10T04:05:28Z</time>
      </trkpt>
      <trkpt lat="50.37343" lon="2.63485">
        <ele>110.6888428</ele>
        <time>2011-04-10T04:05:31Z</time>
      </trkpt>
      <trkpt lat="50.37341" lon="2.63483">
        <ele>112.1309814</ele>
        <time>2011-04-10T04:05:35Z</time>
      </trkpt>
      <trkpt lat="50.37335" lon="2.63478">
        <ele>112.1309814</ele>
        <time>2011-04-10T04:05:41Z</time>
      </trkpt>
      <trkpt lat="50.37333" lon="2.63477">
        <ele>112.6115723</ele>
        <time>2011-04-10T04:05:43Z</time>
      </trkpt>
      <trkpt lat="50.37331" lon="2.63476">
        <ele>113.572998</ele>
        <time>2011-04-10T04:05:45Z</time>
      </trkpt>
      <trkpt lat="50.37326" lon="2.63471">
        <ele>114.0535889</ele>
        <time>2011-04-10T04:05:52Z</time>
      </trkpt>
      <trkpt lat="50.37318" lon="2.63467">
        <ele>115.0148926</ele>
        <time>2011-04-10T04:05:57Z</time>
      </trkpt>
      <trkpt lat="50.3731" lon="2.63464">
        <ele>115.4956055</ele>
        <time>2011-04-10T04:06:02Z</time>
      </trkpt>
      <trkpt lat="50.37306" lon="2.63462">
        <ele>116.9375</ele>
        <time>2011-04-10T04:06:04Z</time>
      </trkpt>
      <trkpt lat="50.373" lon="2.63463">
        <ele>117.8988037</ele>
        <time>2011-04-10T04:06:13Z</time>
      </trkpt>
      <trkpt lat="50.37294" lon="2.6347">
        <ele>119.3408203</ele>
        <time>2011-04-10T04:06:20Z</time>
      </trkpt>
      <trkpt lat="50.37291" lon="2.63478">
        <ele>118.8601074</ele>
        <time>2011-04-10T04:06:27Z</time>
      </trkpt>
      <trkpt lat="50.37286" lon="2.63488">
        <ele>118.3793945</ele>
        <time>2011-04-10T04:06:35Z</time>
      </trkpt>
      <trkpt lat="50.37285" lon="2.63495">
        <ele>116.9375</ele>
        <time>2011-04-10T04:06:42Z</time>
      </trkpt>
      <trkpt lat="50.37286" lon="2.63497">
        <ele>116.4567871</ele>
        <time>2011-04-10T04:06:46Z</time>
      </trkpt>
      <trkpt lat="50.3728" lon="2.63489">
        <ele>115.4956055</ele>
        <time>2011-04-10T04:15:07Z</time>
      </trkpt>
      <trkpt lat="50.37282" lon="2.63489">
        <ele>115.0148926</ele>
        <time>2011-04-10T04:15:08Z</time>
      </trkpt>
      <trkpt lat="50.37284" lon="2.63484">
        <ele>114.5341797</ele>
        <time>2011-04-10T04:15:14Z</time>
      </trkpt>
      <trkpt lat="50.37287" lon="2.63479">
        <ele>114.0535889</ele>
        <time>2011-04-10T04:15:21Z</time>
      </trkpt>
      <trkpt lat="50.37289" lon="2.63474">
        <ele>113.572998</ele>
        <time>2011-04-10T04:15:27Z</time>
      </trkpt>
      <trkpt lat="50.37292" lon="2.63468">
        <ele>113.572998</ele>
        <time>2011-04-10T04:15:34Z</time>
      </trkpt>
      <trkpt lat="50.37294" lon="2.63462">
        <ele>114.5341797</ele>
        <time>2011-04-10T04:15:40Z</time>
      </trkpt>
      <trkpt lat="50.37295" lon="2.63455">
        <ele>115.0148926</ele>
        <time>2011-04-10T04:15:46Z</time>
      </trkpt>
      <trkpt lat="50.37295" lon="2.63452">
        <ele>115.9761963</ele>
        <time>2011-04-10T04:15:54Z</time>
      </trkpt>
      <trkpt lat="50.37295" lon="2.63452">
        <ele>116.4567871</ele>
        <time>2011-04-10T04:16:04Z</time>
      </trkpt>
      <trkpt lat="50.37295" lon="2.63444">
        <ele>116.9375</ele>
        <time>2011-04-10T04:16:11Z</time>
      </trkpt>
      <trkpt lat="50.37289" lon="2.63438">
        <ele>116.4567871</ele>
        <time>2011-04-10T04:16:19Z</time>
      </trkpt>
      <trkpt lat="50.37285" lon="2.63435">
        <ele>115.9761963</ele>
        <time>2011-04-10T04:16:26Z</time>
      </trkpt>
      <trkpt lat="50.3728" lon="2.63432">
        <ele>115.9761963</ele>
        <time>2011-04-10T04:16:30Z</time>
      </trkpt>
      <trkpt lat="50.37277" lon="2.63428">
        <ele>115.9761963</ele>
        <time>2011-04-10T04:16:34Z</time>
      </trkpt>
      <trkpt lat="50.3727" lon="2.63422">
        <ele>118.3793945</ele>
        <time>2011-04-10T04:16:42Z</time>
      </trkpt>
      <trkpt lat="50.37264" lon="2.63417">
        <ele>117.8988037</ele>
        <time>2011-04-10T04:16:50Z</time>
      </trkpt>
      <trkpt lat="50.37258" lon="2.63411">
        <ele>117.4182129</ele>
        <time>2011-04-10T04:16:58Z</time>
      </trkpt>
      <trkpt lat="50.37252" lon="2.63404">
        <ele>116.9375</ele>
        <time>2011-04-10T04:17:06Z</time>
      </trkpt>
      <trkpt lat="50.37248" lon="2.63397">
        <ele>117.8988037</ele>
        <time>2011-04-10T04:17:13Z</time>
      </trkpt>
      <trkpt lat="50.37245" lon="2.6339">
        <ele>120.302124</ele>
        <time>2011-04-10T04:17:18Z</time>
      </trkpt>
      <trkpt lat="50.37243" lon="2.63383">
        <ele>123.1861572</ele>
        <time>2011-04-10T04:17:21Z</time>
      </trkpt>
      <trkpt lat="50.37233" lon="2.6337">
        <ele>131.8378906</ele>
        <time>2011-04-10T04:17:26Z</time>
      </trkpt>
      <trkpt lat="50.3723" lon="2.63362">
        <ele>134.2412109</ele>
        <time>2011-04-10T04:17:31Z</time>
      </trkpt>
      <trkpt lat="50.37231" lon="2.63362">
        <ele>129.9152832</ele>
        <time>2011-04-10T04:17:36Z</time>
      </trkpt>
      <trkpt lat="50.3723" lon="2.63358">
        <ele>128.4733887</ele>
        <time>2011-04-10T04:17:41Z</time>
      </trkpt>
      <trkpt lat="50.37224" lon="2.63351">
        <ele>125.5893555</ele>
        <time>2011-04-10T04:17:50Z</time>
      </trkpt>
      <trkpt lat="50.37222" lon="2.63345">
        <ele>126.0699463</ele>
        <time>2011-04-10T04:17:55Z</time>
      </trkpt>
      <trkpt lat="50.37216" lon="2.63343">
        <ele>125.5893555</ele>
        <time>2011-04-10T04:18:01Z</time>
      </trkpt>
      <trkpt lat="50.37214" lon="2.63341">
        <ele>124.6280518</ele>
        <time>2011-04-10T04:18:04Z</time>
      </trkpt>
      <trkpt lat="50.37206" lon="2.63342">
        <ele>126.0699463</ele>
        <time>2011-04-10T04:18:07Z</time>
      </trkpt>
      <trkpt lat="50.37207" lon="2.63336">
        <ele>128.4733887</ele>
        <time>2011-04-10T04:18:12Z</time>
      </trkpt>
      <trkpt lat="50.37203" lon="2.63334">
        <ele>130.3959961</ele>
        <time>2011-04-10T04:18:14Z</time>
      </trkpt>
      <trkpt lat="50.37203" lon="2.63333">
        <ele>130.3959961</ele>
        <time>2011-04-10T04:18:16Z</time>
      </trkpt>
      <trkpt lat="50.37195" lon="2.63335">
        <ele>127.5119629</ele>
        <time>2011-04-10T04:18:22Z</time>
      </trkpt>
      <trkpt lat="50.37195" lon="2.63335">
        <ele>126.5506592</ele>
        <time>2011-04-10T04:18:23Z</time>
      </trkpt>
      <trkpt lat="50.37189" lon="2.63333">
        <ele>127.5119629</ele>
        <time>2011-04-10T04:18:28Z</time>
      </trkpt>
      <trkpt lat="50.37184" lon="2.63333">
        <ele>127.0313721</ele>
        <time>2011-04-10T04:18:34Z</time>
      </trkpt>
      <trkpt lat="50.37177" lon="2.63328">
        <ele>125.5893555</ele>
        <time>2011-04-10T04:18:43Z</time>
      </trkpt>
      <trkpt lat="50.37173" lon="2.63324">
        <ele>124.1473389</ele>
        <time>2011-04-10T04:18:49Z</time>
      </trkpt>
      <trkpt lat="50.37165" lon="2.63317">
        <ele>123.1861572</ele>
        <time>2011-04-10T04:18:58Z</time>
      </trkpt>
      <trkpt lat="50.3716" lon="2.63313">
        <ele>122.7054443</ele>
        <time>2011-04-10T04:19:04Z</time>
      </trkpt>
      <trkpt lat="50.37159" lon="2.63312">
        <ele>122.2247314</ele>
        <time>2011-04-10T04:19:06Z</time>
      </trkpt>
      <trkpt lat="50.37155" lon="2.63308">
        <ele>122.7054443</ele>
        <time>2011-04-10T04:19:10Z</time>
      </trkpt>
      <trkpt lat="50.3715" lon="2.63305">
        <ele>121.7441406</ele>
        <time>2011-04-10T04:19:15Z</time>
      </trkpt>
      <trkpt lat="50.37142" lon="2.633">
        <ele>122.2247314</ele>
        <time>2011-04-10T04:19:20Z</time>
      </trkpt>
      <trkpt lat="50.37139" lon="2.63297">
        <ele>122.2247314</ele>
        <time>2011-04-10T04:19:23Z</time>
      </trkpt>
      <trkpt lat="50.37135" lon="2.63293">
        <ele>122.7054443</ele>
        <time>2011-04-10T04:19:27Z</time>
      </trkpt>
      <trkpt lat="50.37133" lon="2.6329">
        <ele>122.7054443</ele>
        <time>2011-04-10T04:19:30Z</time>
      </trkpt>
      <trkpt lat="50.37131" lon="2.63283">
        <ele>126.0699463</ele>
        <time>2011-04-10T04:19:38Z</time>
      </trkpt>
      <trkpt lat="50.37128" lon="2.63278">
        <ele>127.9925537</ele>
        <time>2011-04-10T04:19:43Z</time>
      </trkpt>
      <trkpt lat="50.37126" lon="2.63276">
        <ele>128.4733887</ele>
        <time>2011-04-10T04:19:47Z</time>
      </trkpt>
      <trkpt lat="50.37121" lon="2.63277">
        <ele>127.9925537</ele>
        <time>2011-04-10T04:19:51Z</time>
      </trkpt>
      <trkpt lat="50.37117" lon="2.6328">
        <ele>127.5119629</ele>
        <time>2011-04-10T04:19:55Z</time>
      </trkpt>
      <trkpt lat="50.37116" lon="2.63282">
        <ele>127.0313721</ele>
        <time>2011-04-10T04:19:58Z</time>
      </trkpt>
      <trkpt lat="50.37111" lon="2.63282">
        <ele>129.4346924</ele>
        <time>2011-04-10T04:20:05Z</time>
      </trkpt>
      <trkpt lat="50.37107" lon="2.63285">
        <ele>128.4733887</ele>
        <time>2011-04-10T04:20:11Z</time>
      </trkpt>
      <trkpt lat="50.37103" lon="2.63289">
        <ele>128.4733887</ele>
        <time>2011-04-10T04:20:17Z</time>
      </trkpt>
      <trkpt lat="50.37101" lon="2.63291">
        <ele>128.4733887</ele>
        <time>2011-04-10T04:20:20Z</time>
      </trkpt>
      <trkpt lat="50.371" lon="2.63291">
        <ele>128.4733887</ele>
        <time>2011-04-10T04:20:21Z</time>
      </trkpt>
      <trkpt lat="50.37094" lon="2.63296">
        <ele>128.4733887</ele>
        <time>2011-04-10T04:20:29Z</time>
      </trkpt>
      <trkpt lat="50.37088" lon="2.63301">
        <ele>127.0313721</ele>
        <time>2011-04-10T04:20:37Z</time>
      </trkpt>
      <trkpt lat="50.37082" lon="2.63306">
        <ele>126.0699463</ele>
        <time>2011-04-10T04:20:43Z</time>
      </trkpt>
      <trkpt lat="50.37076" lon="2.63316">
        <ele>126.5506592</ele>
        <time>2011-04-10T04:20:52Z</time>
      </trkpt>
      <trkpt lat="50.37068" lon="2.63325">
        <ele>126.0699463</ele>
        <time>2011-04-10T04:21:01Z</time>
      </trkpt>
      <trkpt lat="50.37061" lon="2.63332">
        <ele>126.0699463</ele>
        <time>2011-04-10T04:21:09Z</time>
      </trkpt>
      <trkpt lat="50.37058" lon="2.63336">
        <ele>125.5893555</ele>
        <time>2011-04-10T04:21:13Z</time>
      </trkpt>
      <trkpt lat="50.37054" lon="2.63343">
        <ele>124.6280518</ele>
        <time>2011-04-10T04:21:18Z</time>
      </trkpt>
      <trkpt lat="50.37051" lon="2.63344">
        <ele>125.1087646</ele>
        <time>2011-04-10T04:21:22Z</time>
      </trkpt>
      <trkpt lat="50.37049" lon="2.63347">
        <ele>124.6280518</ele>
        <time>2011-04-10T04:21:26Z</time>
      </trkpt>
      <trkpt lat="50.37046" lon="2.63353">
        <ele>124.6280518</ele>
        <time>2011-04-10T04:21:34Z</time>
      </trkpt>
      <trkpt lat="50.37041" lon="2.6336">
        <ele>123.1861572</ele>
        <time>2011-04-10T04:21:42Z</time>
      </trkpt>
      <trkpt lat="50.37038" lon="2.63366">
        <ele>123.666748</ele>
        <time>2011-04-10T04:21:48Z</time>
      </trkpt>
      <trkpt lat="50.37033" lon="2.63369">
        <ele>124.6280518</ele>
        <time>2011-04-10T04:21:54Z</time>
      </trkpt>
      <trkpt lat="50.37029" lon="2.63374">
        <ele>125.1087646</ele>
        <time>2011-04-10T04:21:59Z</time>
      </trkpt>
      <trkpt lat="50.37025" lon="2.63378">
        <ele>124.6280518</ele>
        <time>2011-04-10T04:22:04Z</time>
      </trkpt>
      <trkpt lat="50.3702" lon="2.63383">
        <ele>124.1473389</ele>
        <time>2011-04-10T04:22:09Z</time>
      </trkpt>
      <trkpt lat="50.37015" lon="2.63387">
        <ele>122.2247314</ele>
        <time>2011-04-10T04:22:16Z</time>
      </trkpt>
      <trkpt lat="50.37009" lon="2.63392">
        <ele>121.7441406</ele>
        <time>2011-04-10T04:22:23Z</time>
      </trkpt>
      <trkpt lat="50.37003" lon="2.63397">
        <ele>121.7441406</ele>
        <time>2011-04-10T04:22:30Z</time>
      </trkpt>
      <trkpt lat="50.36998" lon="2.63404">
        <ele>122.2247314</ele>
        <time>2011-04-10T04:22:37Z</time>
      </trkpt>
      <trkpt lat="50.36993" lon="2.63407">
        <ele>122.2247314</ele>
        <time>2011-04-10T04:22:43Z</time>
      </trkpt>
      <trkpt lat="50.36989" lon="2.63409">
        <ele>122.7054443</ele>
        <time>2011-04-10T04:22:48Z</time>
      </trkpt>
      <trkpt lat="50.36984" lon="2.63414">
        <ele>123.1861572</ele>
        <time>2011-04-10T04:22:54Z</time>
      </trkpt>
      <trkpt lat="50.36979" lon="2.63417">
        <ele>122.7054443</ele>
        <time>2011-04-10T04:22:59Z</time>
      </trkpt>
      <trkpt lat="50.36976" lon="2.6342">
        <ele>120.7828369</ele>
        <time>2011-04-10T04:23:04Z</time>
      </trkpt>
      <trkpt lat="50.36971" lon="2.63423">
        <ele>121.7441406</ele>
        <time>2011-04-10T04:23:09Z</time>
      </trkpt>
      <trkpt lat="50.36964" lon="2.63426">
        <ele>122.7054443</ele>
        <time>2011-04-10T04:23:16Z</time>
      </trkpt>
      <trkpt lat="50.36959" lon="2.63429">
        <ele>121.7441406</ele>
        <time>2011-04-10T04:23:23Z</time>
      </trkpt>
      <trkpt lat="50.36954" lon="2.63431">
        <ele>120.7828369</ele>
        <time>2011-04-10T04:23:28Z</time>
      </trkpt>
      <trkpt lat="50.36949" lon="2.63433">
        <ele>118.3793945</ele>
        <time>2011-04-10T04:23:34Z</time>
      </trkpt>
      <trkpt lat="50.36943" lon="2.63439">
        <ele>118.3793945</ele>
        <time>2011-04-10T04:23:42Z</time>
      </trkpt>
      <trkpt lat="50.3694" lon="2.63439">
        <ele>118.8601074</ele>
        <time>2011-04-10T04:23:45Z</time>
      </trkpt>
      <trkpt lat="50.36935" lon="2.63445">
        <ele>119.8214111</ele>
        <time>2011-04-10T04:23:51Z</time>
      </trkpt>
      <trkpt lat="50.36932" lon="2.6345">
        <ele>119.3408203</ele>
        <time>2011-04-10T04:23:56Z</time>
      </trkpt>
      <trkpt lat="50.36928" lon="2.63458">
        <ele>119.8214111</ele>
        <time>2011-04-10T04:24:02Z</time>
      </trkpt>
      <trkpt lat="50.36927" lon="2.63461">
        <ele>119.8214111</ele>
        <time>2011-04-10T04:24:04Z</time>
      </trkpt>
      <trkpt lat="50.36922" lon="2.63468">
        <ele>118.3793945</ele>
        <time>2011-04-10T04:24:10Z</time>
      </trkpt>
      <trkpt lat="50.36916" lon="2.63478">
        <ele>117.4182129</ele>
        <time>2011-04-10T04:24:18Z</time>
      </trkpt>
      <trkpt lat="50.36913" lon="2.63485">
        <ele>116.4567871</ele>
        <time>2011-04-10T04:24:24Z</time>
      </trkpt>
      <trkpt lat="50.36908" lon="2.63494">
        <ele>114.0535889</ele>
        <time>2011-04-10T04:24:32Z</time>
      </trkpt>
      <trkpt lat="50.36904" lon="2.63499">
        <ele>114.0535889</ele>
        <time>2011-04-10T04:24:37Z</time>
      </trkpt>
      <trkpt lat="50.36899" lon="2.63505">
        <ele>114.0535889</ele>
        <time>2011-04-10T04:24:44Z</time>
      </trkpt>
      <trkpt lat="50.36895" lon="2.63508">
        <ele>114.0535889</ele>
        <time>2011-04-10T04:24:48Z</time>
      </trkpt>
      <trkpt lat="50.3689" lon="2.63512">
        <ele>114.5341797</ele>
        <time>2011-04-10T04:24:54Z</time>
      </trkpt>
      <trkpt lat="50.36885" lon="2.63517">
        <ele>114.5341797</ele>
        <time>2011-04-10T04:25:01Z</time>
      </trkpt>
      <trkpt lat="50.36877" lon="2.63522">
        <ele>114.5341797</ele>
        <time>2011-04-10T04:25:10Z</time>
      </trkpt>
      <trkpt lat="50.36868" lon="2.63531">
        <ele>116.4567871</ele>
        <time>2011-04-10T04:25:21Z</time>
      </trkpt>
      <trkpt lat="50.36861" lon="2.63536">
        <ele>116.9375</ele>
        <time>2011-04-10T04:25:30Z</time>
      </trkpt>
      <trkpt lat="50.36856" lon="2.63542">
        <ele>115.9761963</ele>
        <time>2011-04-10T04:25:38Z</time>
      </trkpt>
      <trkpt lat="50.36853" lon="2.63548">
        <ele>115.4956055</ele>
        <time>2011-04-10T04:25:44Z</time>
      </trkpt>
      <trkpt lat="50.36852" lon="2.63556">
        <ele>115.0148926</ele>
        <time>2011-04-10T04:25:52Z</time>
      </trkpt>
      <trkpt lat="50.36852" lon="2.63561">
        <ele>114.0535889</ele>
        <time>2011-04-10T04:25:56Z</time>
      </trkpt>
      <trkpt lat="50.36853" lon="2.6357">
        <ele>113.572998</ele>
        <time>2011-04-10T04:26:03Z</time>
      </trkpt>
      <trkpt lat="50.36849" lon="2.63572">
        <ele>113.0922852</ele>
        <time>2011-04-10T04:26:09Z</time>
      </trkpt>
      <trkpt lat="50.36849" lon="2.63576">
        <ele>111.6502686</ele>
        <time>2011-04-10T04:26:19Z</time>
      </trkpt>
      <trkpt lat="50.36848" lon="2.63573">
        <ele>109.7276611</ele>
        <time>2011-04-10T04:26:30Z</time>
      </trkpt>
      <trkpt lat="50.36848" lon="2.63572">
        <ele>110.6888428</ele>
        <time>2011-04-10T04:26:42Z</time>
      </trkpt>
      <trkpt lat="50.36851" lon="2.63575">
        <ele>113.0922852</ele>
        <time>2011-04-10T04:26:49Z</time>
      </trkpt>
      <trkpt lat="50.3685" lon="2.63575">
        <ele>113.572998</ele>
        <time>2011-04-10T04:26:53Z</time>
      </trkpt>
      <trkpt lat="50.36848" lon="2.63578">
        <ele>113.0922852</ele>
        <time>2011-04-10T04:27:02Z</time>
      </trkpt>
      <trkpt lat="50.3685" lon="2.63572">
        <ele>106.3630371</ele>
        <time>2011-04-10T04:27:12Z</time>
      </trkpt>
      <trkpt lat="50.36849" lon="2.63573">
        <ele>104.4404297</ele>
        <time>2011-04-10T04:27:20Z</time>
      </trkpt>
      <trkpt lat="50.36848" lon="2.63576">
        <ele>104.4404297</ele>
        <time>2011-04-10T04:27:30Z</time>
      </trkpt>
      <trkpt lat="50.36847" lon="2.63577">
        <ele>105.4017334</ele>
        <time>2011-04-10T04:27:37Z</time>
      </trkpt>
      <trkpt lat="50.36845" lon="2.63572">
        <ele>102.5177002</ele>
        <time>2011-04-10T04:27:47Z</time>
      </trkpt>
      <trkpt lat="50.36851" lon="2.63576">
        <ele>105.8824463</ele>
        <time>2011-04-10T04:28:03Z</time>
      </trkpt>
      <trkpt lat="50.36849" lon="2.63583">
        <ele>100.5950928</ele>
        <time>2011-04-10T04:28:11Z</time>
      </trkpt>
    </trkseg>
  </trk>
</gpx>